<?xml version="1.0" encoding="UTF-8" standalone="no" ?>
<gpx xmlns="http://www.topografix.com/GPX/1/1" xmlns:xsi="http://www.w3.org/2001/XMLSchema-instance" xsi:schemaLocation="http://www.topografix.com/GPX/1/1 http://www.topografix.com/GPX/1/1/gpx.xsd" version="1.1" creator="VisuGPX - https://www.visugpx.com">
  <metadata>
    <name>Sortie Longue groupe trail ALE</name>
    <desc><![CDATA[1er jour du week-end entrainement mené par Tonio
Journée chaude et terrain sec et poussièreux]]></desc>
  </metadata>
  <trk>
    <name><![CDATA[Untitled]]></name>
    <trkseg>
      <trkpt lat="45.13947" lon="5.7213">
        <ele>231.80000305176</ele>
        <time>2011-04-22T13:44:38.000Z</time>
      </trkpt>
      <trkpt lat="45.13944" lon="5.72122">
        <ele>232</ele>
        <time>2011-04-22T13:44:41.000Z</time>
      </trkpt>
      <trkpt lat="45.13938" lon="5.72108">
        <ele>232</ele>
        <time>2011-04-22T13:44:45.000Z</time>
      </trkpt>
      <trkpt lat="45.13928" lon="5.72088">
        <ele>232</ele>
        <time>2011-04-22T13:44:51.000Z</time>
      </trkpt>
      <trkpt lat="45.13926" lon="5.72085">
        <ele>232</ele>
        <time>2011-04-22T13:44:52.000Z</time>
      </trkpt>
      <trkpt lat="45.1392" lon="5.72073">
        <ele>232.19999694824</ele>
        <time>2011-04-22T13:44:56.000Z</time>
      </trkpt>
      <trkpt lat="45.13915" lon="5.72065">
        <ele>232.60000610352</ele>
        <time>2011-04-22T13:44:59.000Z</time>
      </trkpt>
      <trkpt lat="45.13911" lon="5.72058">
        <ele>233.39999389648</ele>
        <time>2011-04-22T13:45:02.000Z</time>
      </trkpt>
      <trkpt lat="45.13905" lon="5.72042">
        <ele>234.19999694824</ele>
        <time>2011-04-22T13:45:07.000Z</time>
      </trkpt>
      <trkpt lat="45.13901" lon="5.7202">
        <ele>234.80000305176</ele>
        <time>2011-04-22T13:45:13.000Z</time>
      </trkpt>
      <trkpt lat="45.139" lon="5.72016">
        <ele>234.80000305176</ele>
        <time>2011-04-22T13:45:14.000Z</time>
      </trkpt>
      <trkpt lat="45.13898" lon="5.72003">
        <ele>235</ele>
        <time>2011-04-22T13:45:18.000Z</time>
      </trkpt>
      <trkpt lat="45.13894" lon="5.71989">
        <ele>235.19999694824</ele>
        <time>2011-04-22T13:45:22.000Z</time>
      </trkpt>
      <trkpt lat="45.13892" lon="5.71983">
        <ele>235.19999694824</ele>
        <time>2011-04-22T13:45:24.000Z</time>
      </trkpt>
      <trkpt lat="45.13885" lon="5.71963">
        <ele>235.19999694824</ele>
        <time>2011-04-22T13:45:30.000Z</time>
      </trkpt>
      <trkpt lat="45.13876" lon="5.7194">
        <ele>235.19999694824</ele>
        <time>2011-04-22T13:45:37.000Z</time>
      </trkpt>
      <trkpt lat="45.13869" lon="5.71919">
        <ele>235.19999694824</ele>
        <time>2011-04-22T13:45:43.000Z</time>
      </trkpt>
      <trkpt lat="45.13868" lon="5.71916">
        <ele>235.19999694824</ele>
        <time>2011-04-22T13:45:44.000Z</time>
      </trkpt>
      <trkpt lat="45.13862" lon="5.719">
        <ele>235.19999694824</ele>
        <time>2011-04-22T13:45:49.000Z</time>
      </trkpt>
      <trkpt lat="45.13859" lon="5.71893">
        <ele>235.19999694824</ele>
        <time>2011-04-22T13:45:51.000Z</time>
      </trkpt>
      <trkpt lat="45.13853" lon="5.71877">
        <ele>235.19999694824</ele>
        <time>2011-04-22T13:45:56.000Z</time>
      </trkpt>
      <trkpt lat="45.1385" lon="5.71867">
        <ele>235.19999694824</ele>
        <time>2011-04-22T13:45:59.000Z</time>
      </trkpt>
      <trkpt lat="45.13844" lon="5.71854">
        <ele>235</ele>
        <time>2011-04-22T13:46:03.000Z</time>
      </trkpt>
      <trkpt lat="45.1384" lon="5.71846">
        <ele>235</ele>
        <time>2011-04-22T13:46:06.000Z</time>
      </trkpt>
      <trkpt lat="45.13835" lon="5.71838">
        <ele>235</ele>
        <time>2011-04-22T13:46:09.000Z</time>
      </trkpt>
      <trkpt lat="45.13828" lon="5.71826">
        <ele>235.60000610352</ele>
        <time>2011-04-22T13:46:13.000Z</time>
      </trkpt>
      <trkpt lat="45.13826" lon="5.7182">
        <ele>235.60000610352</ele>
        <time>2011-04-22T13:46:15.000Z</time>
      </trkpt>
      <trkpt lat="45.1382" lon="5.71801">
        <ele>235.80000305176</ele>
        <time>2011-04-22T13:46:21.000Z</time>
      </trkpt>
      <trkpt lat="45.13813" lon="5.71783">
        <ele>235.80000305176</ele>
        <time>2011-04-22T13:46:27.000Z</time>
      </trkpt>
      <trkpt lat="45.1381" lon="5.71777">
        <ele>235.80000305176</ele>
        <time>2011-04-22T13:46:29.000Z</time>
      </trkpt>
      <trkpt lat="45.13805" lon="5.71769">
        <ele>235.80000305176</ele>
        <time>2011-04-22T13:46:32.000Z</time>
      </trkpt>
      <trkpt lat="45.13794" lon="5.71759">
        <ele>235.80000305176</ele>
        <time>2011-04-22T13:46:37.000Z</time>
      </trkpt>
      <trkpt lat="45.13792" lon="5.71757">
        <ele>235.80000305176</ele>
        <time>2011-04-22T13:46:38.000Z</time>
      </trkpt>
      <trkpt lat="45.13782" lon="5.71746">
        <ele>235.80000305176</ele>
        <time>2011-04-22T13:46:43.000Z</time>
      </trkpt>
      <trkpt lat="45.1378" lon="5.71744">
        <ele>235.80000305176</ele>
        <time>2011-04-22T13:46:44.000Z</time>
      </trkpt>
      <trkpt lat="45.13769" lon="5.71733">
        <ele>236.19999694824</ele>
        <time>2011-04-22T13:46:49.000Z</time>
      </trkpt>
      <trkpt lat="45.13765" lon="5.71729">
        <ele>236.19999694824</ele>
        <time>2011-04-22T13:46:51.000Z</time>
      </trkpt>
      <trkpt lat="45.13755" lon="5.71717">
        <ele>236.39999389648</ele>
        <time>2011-04-22T13:46:56.000Z</time>
      </trkpt>
      <trkpt lat="45.13749" lon="5.7171">
        <ele>236.60000610352</ele>
        <time>2011-04-22T13:46:59.000Z</time>
      </trkpt>
      <trkpt lat="45.13745" lon="5.71706">
        <ele>237.19999694824</ele>
        <time>2011-04-22T13:47:01.000Z</time>
      </trkpt>
      <trkpt lat="45.13736" lon="5.71692">
        <ele>238</ele>
        <time>2011-04-22T13:47:06.000Z</time>
      </trkpt>
      <trkpt lat="45.13723" lon="5.71673">
        <ele>238</ele>
        <time>2011-04-22T13:47:13.000Z</time>
      </trkpt>
      <trkpt lat="45.13712" lon="5.71657">
        <ele>238</ele>
        <time>2011-04-22T13:47:19.000Z</time>
      </trkpt>
      <trkpt lat="45.13709" lon="5.71654">
        <ele>238</ele>
        <time>2011-04-22T13:47:20.000Z</time>
      </trkpt>
      <trkpt lat="45.13698" lon="5.71643">
        <ele>238.39999389648</ele>
        <time>2011-04-22T13:47:25.000Z</time>
      </trkpt>
      <trkpt lat="45.13693" lon="5.71639">
        <ele>238.39999389648</ele>
        <time>2011-04-22T13:47:27.000Z</time>
      </trkpt>
      <trkpt lat="45.13688" lon="5.71633">
        <ele>238.39999389648</ele>
        <time>2011-04-22T13:47:29.000Z</time>
      </trkpt>
      <trkpt lat="45.13676" lon="5.71622">
        <ele>238.39999389648</ele>
        <time>2011-04-22T13:47:34.000Z</time>
      </trkpt>
      <trkpt lat="45.13675" lon="5.71619">
        <ele>238.39999389648</ele>
        <time>2011-04-22T13:47:35.000Z</time>
      </trkpt>
      <trkpt lat="45.13663" lon="5.71604">
        <ele>238.19999694824</ele>
        <time>2011-04-22T13:47:41.000Z</time>
      </trkpt>
      <trkpt lat="45.13661" lon="5.71602">
        <ele>238.19999694824</ele>
        <time>2011-04-22T13:47:42.000Z</time>
      </trkpt>
      <trkpt lat="45.13652" lon="5.71589">
        <ele>238.19999694824</ele>
        <time>2011-04-22T13:47:47.000Z</time>
      </trkpt>
      <trkpt lat="45.13648" lon="5.71584">
        <ele>238</ele>
        <time>2011-04-22T13:47:49.000Z</time>
      </trkpt>
      <trkpt lat="45.13638" lon="5.71571">
        <ele>238.19999694824</ele>
        <time>2011-04-22T13:47:54.000Z</time>
      </trkpt>
      <trkpt lat="45.13634" lon="5.71566">
        <ele>238.39999389648</ele>
        <time>2011-04-22T13:47:56.000Z</time>
      </trkpt>
      <trkpt lat="45.13626" lon="5.71557">
        <ele>238.39999389648</ele>
        <time>2011-04-22T13:48:00.000Z</time>
      </trkpt>
      <trkpt lat="45.1362" lon="5.71548">
        <ele>238.39999389648</ele>
        <time>2011-04-22T13:48:03.000Z</time>
      </trkpt>
      <trkpt lat="45.13614" lon="5.71542">
        <ele>238.39999389648</ele>
        <time>2011-04-22T13:48:06.000Z</time>
      </trkpt>
      <trkpt lat="45.13605" lon="5.71534">
        <ele>238.60000610352</ele>
        <time>2011-04-22T13:48:10.000Z</time>
      </trkpt>
      <trkpt lat="45.13596" lon="5.71528">
        <ele>238.80000305176</ele>
        <time>2011-04-22T13:48:14.000Z</time>
      </trkpt>
      <trkpt lat="45.13585" lon="5.71528">
        <ele>239.19999694824</ele>
        <time>2011-04-22T13:48:18.000Z</time>
      </trkpt>
      <trkpt lat="45.13572" lon="5.71527">
        <ele>239.60000610352</ele>
        <time>2011-04-22T13:48:23.000Z</time>
      </trkpt>
      <trkpt lat="45.13566" lon="5.71527">
        <ele>239.80000305176</ele>
        <time>2011-04-22T13:48:25.000Z</time>
      </trkpt>
      <trkpt lat="45.13558" lon="5.71526">
        <ele>240.19999694824</ele>
        <time>2011-04-22T13:48:28.000Z</time>
      </trkpt>
      <trkpt lat="45.13548" lon="5.71522">
        <ele>240.39999389648</ele>
        <time>2011-04-22T13:48:32.000Z</time>
      </trkpt>
      <trkpt lat="45.13543" lon="5.7152">
        <ele>240.39999389648</ele>
        <time>2011-04-22T13:48:34.000Z</time>
      </trkpt>
      <trkpt lat="45.13533" lon="5.71509">
        <ele>240.19999694824</ele>
        <time>2011-04-22T13:48:39.000Z</time>
      </trkpt>
      <trkpt lat="45.13531" lon="5.71507">
        <ele>240.19999694824</ele>
        <time>2011-04-22T13:48:40.000Z</time>
      </trkpt>
      <trkpt lat="45.1352" lon="5.71491">
        <ele>240.19999694824</ele>
        <time>2011-04-22T13:48:46.000Z</time>
      </trkpt>
      <trkpt lat="45.13508" lon="5.71472">
        <ele>240.39999389648</ele>
        <time>2011-04-22T13:48:52.000Z</time>
      </trkpt>
      <trkpt lat="45.13507" lon="5.71469">
        <ele>240.39999389648</ele>
        <time>2011-04-22T13:48:53.000Z</time>
      </trkpt>
      <trkpt lat="45.13501" lon="5.71456">
        <ele>240.39999389648</ele>
        <time>2011-04-22T13:48:57.000Z</time>
      </trkpt>
      <trkpt lat="45.13496" lon="5.71451">
        <ele>240.80000305176</ele>
        <time>2011-04-22T13:49:00.000Z</time>
      </trkpt>
      <trkpt lat="45.13494" lon="5.71452">
        <ele>241</ele>
        <time>2011-04-22T13:49:01.000Z</time>
      </trkpt>
      <trkpt lat="45.13484" lon="5.71453">
        <ele>242</ele>
        <time>2011-04-22T13:49:05.000Z</time>
      </trkpt>
      <trkpt lat="45.13479" lon="5.71451">
        <ele>242.60000610352</ele>
        <time>2011-04-22T13:49:07.000Z</time>
      </trkpt>
      <trkpt lat="45.13477" lon="5.71448">
        <ele>242.80000305176</ele>
        <time>2011-04-22T13:49:08.000Z</time>
      </trkpt>
      <trkpt lat="45.13468" lon="5.71438">
        <ele>244</ele>
        <time>2011-04-22T13:49:12.000Z</time>
      </trkpt>
      <trkpt lat="45.13461" lon="5.71434">
        <ele>245</ele>
        <time>2011-04-22T13:49:16.000Z</time>
      </trkpt>
      <trkpt lat="45.13452" lon="5.71428">
        <ele>246.39999389648</ele>
        <time>2011-04-22T13:49:22.000Z</time>
      </trkpt>
      <trkpt lat="45.13444" lon="5.71422">
        <ele>247.80000305176</ele>
        <time>2011-04-22T13:49:28.000Z</time>
      </trkpt>
      <trkpt lat="45.13437" lon="5.71414">
        <ele>248.80000305176</ele>
        <time>2011-04-22T13:49:33.000Z</time>
      </trkpt>
      <trkpt lat="45.13432" lon="5.71407">
        <ele>249</ele>
        <time>2011-04-22T13:49:38.000Z</time>
      </trkpt>
      <trkpt lat="45.13429" lon="5.71404">
        <ele>249.19999694824</ele>
        <time>2011-04-22T13:49:40.000Z</time>
      </trkpt>
      <trkpt lat="45.13424" lon="5.714">
        <ele>249.60000610352</ele>
        <time>2011-04-22T13:49:45.000Z</time>
      </trkpt>
      <trkpt lat="45.13423" lon="5.71399">
        <ele>249.60000610352</ele>
        <time>2011-04-22T13:49:46.000Z</time>
      </trkpt>
      <trkpt lat="45.13419" lon="5.7139">
        <ele>249.39999389648</ele>
        <time>2011-04-22T13:49:51.000Z</time>
      </trkpt>
      <trkpt lat="45.13416" lon="5.71387">
        <ele>249.80000305176</ele>
        <time>2011-04-22T13:49:53.000Z</time>
      </trkpt>
      <trkpt lat="45.13413" lon="5.71384">
        <ele>251</ele>
        <time>2011-04-22T13:49:55.000Z</time>
      </trkpt>
      <trkpt lat="45.1341" lon="5.71382">
        <ele>251.60000610352</ele>
        <time>2011-04-22T13:49:57.000Z</time>
      </trkpt>
      <trkpt lat="45.13403" lon="5.71374">
        <ele>254.39999389648</ele>
        <time>2011-04-22T13:50:03.000Z</time>
      </trkpt>
      <trkpt lat="45.13401" lon="5.71372">
        <ele>255.19999694824</ele>
        <time>2011-04-22T13:50:05.000Z</time>
      </trkpt>
      <trkpt lat="45.13399" lon="5.71371">
        <ele>255.60000610352</ele>
        <time>2011-04-22T13:50:06.000Z</time>
      </trkpt>
      <trkpt lat="45.13396" lon="5.71366">
        <ele>256.60000610352</ele>
        <time>2011-04-22T13:50:09.000Z</time>
      </trkpt>
      <trkpt lat="45.13387" lon="5.71358">
        <ele>260</ele>
        <time>2011-04-22T13:50:15.000Z</time>
      </trkpt>
      <trkpt lat="45.13386" lon="5.71356">
        <ele>260.79998779297</ele>
        <time>2011-04-22T13:50:16.000Z</time>
      </trkpt>
      <trkpt lat="45.13383" lon="5.71353">
        <ele>261.60000610352</ele>
        <time>2011-04-22T13:50:18.000Z</time>
      </trkpt>
      <trkpt lat="45.13381" lon="5.71352">
        <ele>262.39999389648</ele>
        <time>2011-04-22T13:50:20.000Z</time>
      </trkpt>
      <trkpt lat="45.13376" lon="5.71346">
        <ele>264.39999389648</ele>
        <time>2011-04-22T13:50:24.000Z</time>
      </trkpt>
      <trkpt lat="45.13375" lon="5.71346">
        <ele>264.60000610352</ele>
        <time>2011-04-22T13:50:25.000Z</time>
      </trkpt>
      <trkpt lat="45.13374" lon="5.71345">
        <ele>265</ele>
        <time>2011-04-22T13:50:26.000Z</time>
      </trkpt>
      <trkpt lat="45.1337" lon="5.7134">
        <ele>266.60000610352</ele>
        <time>2011-04-22T13:50:30.000Z</time>
      </trkpt>
      <trkpt lat="45.13369" lon="5.71339">
        <ele>267</ele>
        <time>2011-04-22T13:50:31.000Z</time>
      </trkpt>
      <trkpt lat="45.13362" lon="5.71331">
        <ele>269.60000610352</ele>
        <time>2011-04-22T13:50:37.000Z</time>
      </trkpt>
      <trkpt lat="45.13355" lon="5.71325">
        <ele>271.60000610352</ele>
        <time>2011-04-22T13:50:42.000Z</time>
      </trkpt>
      <trkpt lat="45.13354" lon="5.71324">
        <ele>271.79998779297</ele>
        <time>2011-04-22T13:50:43.000Z</time>
      </trkpt>
      <trkpt lat="45.13351" lon="5.71318">
        <ele>272</ele>
        <time>2011-04-22T13:50:47.000Z</time>
      </trkpt>
      <trkpt lat="45.13348" lon="5.71315">
        <ele>272.60000610352</ele>
        <time>2011-04-22T13:50:49.000Z</time>
      </trkpt>
      <trkpt lat="45.13342" lon="5.71308">
        <ele>273.79998779297</ele>
        <time>2011-04-22T13:50:54.000Z</time>
      </trkpt>
      <trkpt lat="45.1334" lon="5.71307">
        <ele>274.20001220703</ele>
        <time>2011-04-22T13:50:55.000Z</time>
      </trkpt>
      <trkpt lat="45.13333" lon="5.71302">
        <ele>275.60000610352</ele>
        <time>2011-04-22T13:51:00.000Z</time>
      </trkpt>
      <trkpt lat="45.13326" lon="5.71295">
        <ele>276</ele>
        <time>2011-04-22T13:51:05.000Z</time>
      </trkpt>
      <trkpt lat="45.13317" lon="5.71288">
        <ele>276.60000610352</ele>
        <time>2011-04-22T13:51:10.000Z</time>
      </trkpt>
      <trkpt lat="45.1331" lon="5.71283">
        <ele>277.20001220703</ele>
        <time>2011-04-22T13:51:14.000Z</time>
      </trkpt>
      <trkpt lat="45.13308" lon="5.71283">
        <ele>277.60000610352</ele>
        <time>2011-04-22T13:51:15.000Z</time>
      </trkpt>
      <trkpt lat="45.13298" lon="5.7128">
        <ele>279.39999389648</ele>
        <time>2011-04-22T13:51:21.000Z</time>
      </trkpt>
      <trkpt lat="45.13291" lon="5.71277">
        <ele>280.39999389648</ele>
        <time>2011-04-22T13:51:25.000Z</time>
      </trkpt>
      <trkpt lat="45.1329" lon="5.71277">
        <ele>280.60000610352</ele>
        <time>2011-04-22T13:51:26.000Z</time>
      </trkpt>
      <trkpt lat="45.13279" lon="5.7127">
        <ele>281.79998779297</ele>
        <time>2011-04-22T13:51:33.000Z</time>
      </trkpt>
      <trkpt lat="45.13274" lon="5.71269">
        <ele>282.79998779297</ele>
        <time>2011-04-22T13:51:36.000Z</time>
      </trkpt>
      <trkpt lat="45.1327" lon="5.71268">
        <ele>283.79998779297</ele>
        <time>2011-04-22T13:51:38.000Z</time>
      </trkpt>
      <trkpt lat="45.13261" lon="5.71267">
        <ele>285.79998779297</ele>
        <time>2011-04-22T13:51:42.000Z</time>
      </trkpt>
      <trkpt lat="45.13254" lon="5.71267">
        <ele>287.39999389648</ele>
        <time>2011-04-22T13:51:45.000Z</time>
      </trkpt>
      <trkpt lat="45.13252" lon="5.71268">
        <ele>288</ele>
        <time>2011-04-22T13:51:46.000Z</time>
      </trkpt>
      <trkpt lat="45.13249" lon="5.71268">
        <ele>288.79998779297</ele>
        <time>2011-04-22T13:51:48.000Z</time>
      </trkpt>
      <trkpt lat="45.13241" lon="5.7127">
        <ele>289.79998779297</ele>
        <time>2011-04-22T13:51:52.000Z</time>
      </trkpt>
      <trkpt lat="45.13238" lon="5.71272">
        <ele>290.39999389648</ele>
        <time>2011-04-22T13:51:54.000Z</time>
      </trkpt>
      <trkpt lat="45.13236" lon="5.71272">
        <ele>290.60000610352</ele>
        <time>2011-04-22T13:51:55.000Z</time>
      </trkpt>
      <trkpt lat="45.13226" lon="5.71274">
        <ele>291.79998779297</ele>
        <time>2011-04-22T13:52:00.000Z</time>
      </trkpt>
      <trkpt lat="45.13217" lon="5.71273">
        <ele>292.20001220703</ele>
        <time>2011-04-22T13:52:05.000Z</time>
      </trkpt>
      <trkpt lat="45.13214" lon="5.71272">
        <ele>292.20001220703</ele>
        <time>2011-04-22T13:52:07.000Z</time>
      </trkpt>
      <trkpt lat="45.13208" lon="5.71269">
        <ele>292.20001220703</ele>
        <time>2011-04-22T13:52:10.000Z</time>
      </trkpt>
      <trkpt lat="45.13206" lon="5.71268">
        <ele>292.20001220703</ele>
        <time>2011-04-22T13:52:11.000Z</time>
      </trkpt>
      <trkpt lat="45.13202" lon="5.71266">
        <ele>292</ele>
        <time>2011-04-22T13:52:14.000Z</time>
      </trkpt>
      <trkpt lat="45.132" lon="5.71265">
        <ele>292.20001220703</ele>
        <time>2011-04-22T13:52:15.000Z</time>
      </trkpt>
      <trkpt lat="45.13198" lon="5.71265">
        <ele>292.20001220703</ele>
        <time>2011-04-22T13:52:16.000Z</time>
      </trkpt>
      <trkpt lat="45.13193" lon="5.71265">
        <ele>292.60000610352</ele>
        <time>2011-04-22T13:52:18.000Z</time>
      </trkpt>
      <trkpt lat="45.1319" lon="5.71265">
        <ele>292.79998779297</ele>
        <time>2011-04-22T13:52:20.000Z</time>
      </trkpt>
      <trkpt lat="45.13188" lon="5.71265">
        <ele>293</ele>
        <time>2011-04-22T13:52:21.000Z</time>
      </trkpt>
      <trkpt lat="45.13181" lon="5.71263">
        <ele>293.20001220703</ele>
        <time>2011-04-22T13:52:25.000Z</time>
      </trkpt>
      <trkpt lat="45.1317" lon="5.71258">
        <ele>293.20001220703</ele>
        <time>2011-04-22T13:52:30.000Z</time>
      </trkpt>
      <trkpt lat="45.13163" lon="5.71258">
        <ele>293</ele>
        <time>2011-04-22T13:52:33.000Z</time>
      </trkpt>
      <trkpt lat="45.13161" lon="5.71257">
        <ele>292.79998779297</ele>
        <time>2011-04-22T13:52:34.000Z</time>
      </trkpt>
      <trkpt lat="45.13157" lon="5.71256">
        <ele>292</ele>
        <time>2011-04-22T13:52:36.000Z</time>
      </trkpt>
      <trkpt lat="45.13153" lon="5.71256">
        <ele>291.79998779297</ele>
        <time>2011-04-22T13:52:38.000Z</time>
      </trkpt>
      <trkpt lat="45.13149" lon="5.71256">
        <ele>291.20001220703</ele>
        <time>2011-04-22T13:52:40.000Z</time>
      </trkpt>
      <trkpt lat="45.13147" lon="5.71256">
        <ele>291</ele>
        <time>2011-04-22T13:52:41.000Z</time>
      </trkpt>
      <trkpt lat="45.13143" lon="5.71256">
        <ele>290.60000610352</ele>
        <time>2011-04-22T13:52:43.000Z</time>
      </trkpt>
      <trkpt lat="45.13134" lon="5.71257">
        <ele>289.79998779297</ele>
        <time>2011-04-22T13:52:48.000Z</time>
      </trkpt>
      <trkpt lat="45.13125" lon="5.71259">
        <ele>289.60000610352</ele>
        <time>2011-04-22T13:52:53.000Z</time>
      </trkpt>
      <trkpt lat="45.13116" lon="5.71264">
        <ele>290</ele>
        <time>2011-04-22T13:52:59.000Z</time>
      </trkpt>
      <trkpt lat="45.1311" lon="5.71267">
        <ele>290.60000610352</ele>
        <time>2011-04-22T13:53:03.000Z</time>
      </trkpt>
      <trkpt lat="45.13107" lon="5.71268">
        <ele>290.60000610352</ele>
        <time>2011-04-22T13:53:05.000Z</time>
      </trkpt>
      <trkpt lat="45.13096" lon="5.71269">
        <ele>290.20001220703</ele>
        <time>2011-04-22T13:53:11.000Z</time>
      </trkpt>
      <trkpt lat="45.1309" lon="5.7127">
        <ele>289.79998779297</ele>
        <time>2011-04-22T13:53:14.000Z</time>
      </trkpt>
      <trkpt lat="45.13087" lon="5.7127">
        <ele>289.79998779297</ele>
        <time>2011-04-22T13:53:15.000Z</time>
      </trkpt>
      <trkpt lat="45.13085" lon="5.7127">
        <ele>289.60000610352</ele>
        <time>2011-04-22T13:53:16.000Z</time>
      </trkpt>
      <trkpt lat="45.13078" lon="5.71271">
        <ele>290</ele>
        <time>2011-04-22T13:53:20.000Z</time>
      </trkpt>
      <trkpt lat="45.13077" lon="5.71273">
        <ele>290.39999389648</ele>
        <time>2011-04-22T13:53:21.000Z</time>
      </trkpt>
      <trkpt lat="45.13073" lon="5.71279">
        <ele>292.60000610352</ele>
        <time>2011-04-22T13:53:25.000Z</time>
      </trkpt>
      <trkpt lat="45.13071" lon="5.7128">
        <ele>293.20001220703</ele>
        <time>2011-04-22T13:53:26.000Z</time>
      </trkpt>
      <trkpt lat="45.13063" lon="5.71285">
        <ele>294.79998779297</ele>
        <time>2011-04-22T13:53:31.000Z</time>
      </trkpt>
      <trkpt lat="45.13061" lon="5.71288">
        <ele>295.79998779297</ele>
        <time>2011-04-22T13:53:33.000Z</time>
      </trkpt>
      <trkpt lat="45.13057" lon="5.71294">
        <ele>298</ele>
        <time>2011-04-22T13:53:36.000Z</time>
      </trkpt>
      <trkpt lat="45.13055" lon="5.71295">
        <ele>298.39999389648</ele>
        <time>2011-04-22T13:53:37.000Z</time>
      </trkpt>
      <trkpt lat="45.13047" lon="5.71302">
        <ele>301.20001220703</ele>
        <time>2011-04-22T13:53:42.000Z</time>
      </trkpt>
      <trkpt lat="45.13046" lon="5.71304">
        <ele>301.60000610352</ele>
        <time>2011-04-22T13:53:43.000Z</time>
      </trkpt>
      <trkpt lat="45.1304" lon="5.71312">
        <ele>304.79998779297</ele>
        <time>2011-04-22T13:53:46.000Z</time>
      </trkpt>
      <trkpt lat="45.13036" lon="5.71316">
        <ele>306.20001220703</ele>
        <time>2011-04-22T13:53:48.000Z</time>
      </trkpt>
      <trkpt lat="45.13032" lon="5.71324">
        <ele>309</ele>
        <time>2011-04-22T13:53:51.000Z</time>
      </trkpt>
      <trkpt lat="45.1303" lon="5.71329">
        <ele>310.79998779297</ele>
        <time>2011-04-22T13:53:53.000Z</time>
      </trkpt>
      <trkpt lat="45.13028" lon="5.71333">
        <ele>312.60000610352</ele>
        <time>2011-04-22T13:53:55.000Z</time>
      </trkpt>
      <trkpt lat="45.13023" lon="5.71345">
        <ele>314.60000610352</ele>
        <time>2011-04-22T13:53:59.000Z</time>
      </trkpt>
      <trkpt lat="45.1302" lon="5.71356">
        <ele>316.79998779297</ele>
        <time>2011-04-22T13:54:03.000Z</time>
      </trkpt>
      <trkpt lat="45.13018" lon="5.71359">
        <ele>317.20001220703</ele>
        <time>2011-04-22T13:54:04.000Z</time>
      </trkpt>
      <trkpt lat="45.13013" lon="5.71374">
        <ele>319.79998779297</ele>
        <time>2011-04-22T13:54:09.000Z</time>
      </trkpt>
      <trkpt lat="45.13011" lon="5.71381">
        <ele>321</ele>
        <time>2011-04-22T13:54:12.000Z</time>
      </trkpt>
      <trkpt lat="45.1301" lon="5.71384">
        <ele>321.60000610352</ele>
        <time>2011-04-22T13:54:13.000Z</time>
      </trkpt>
      <trkpt lat="45.13009" lon="5.71387">
        <ele>322</ele>
        <time>2011-04-22T13:54:14.000Z</time>
      </trkpt>
      <trkpt lat="45.13008" lon="5.71394">
        <ele>323.20001220703</ele>
        <time>2011-04-22T13:54:16.000Z</time>
      </trkpt>
      <trkpt lat="45.13007" lon="5.71403">
        <ele>325</ele>
        <time>2011-04-22T13:54:19.000Z</time>
      </trkpt>
      <trkpt lat="45.13006" lon="5.71411">
        <ele>326.20001220703</ele>
        <time>2011-04-22T13:54:22.000Z</time>
      </trkpt>
      <trkpt lat="45.13006" lon="5.71414">
        <ele>326.79998779297</ele>
        <time>2011-04-22T13:54:23.000Z</time>
      </trkpt>
      <trkpt lat="45.13006" lon="5.71416">
        <ele>327.20001220703</ele>
        <time>2011-04-22T13:54:24.000Z</time>
      </trkpt>
      <trkpt lat="45.13001" lon="5.71429">
        <ele>328.20001220703</ele>
        <time>2011-04-22T13:54:28.000Z</time>
      </trkpt>
      <trkpt lat="45.12998" lon="5.71435">
        <ele>329</ele>
        <time>2011-04-22T13:54:30.000Z</time>
      </trkpt>
      <trkpt lat="45.12996" lon="5.71445">
        <ele>330.20001220703</ele>
        <time>2011-04-22T13:54:33.000Z</time>
      </trkpt>
      <trkpt lat="45.12994" lon="5.7145">
        <ele>331</ele>
        <time>2011-04-22T13:54:35.000Z</time>
      </trkpt>
      <trkpt lat="45.12991" lon="5.7146">
        <ele>332.39999389648</ele>
        <time>2011-04-22T13:54:38.000Z</time>
      </trkpt>
      <trkpt lat="45.12985" lon="5.71477">
        <ele>334.60000610352</ele>
        <time>2011-04-22T13:54:43.000Z</time>
      </trkpt>
      <trkpt lat="45.12982" lon="5.71484">
        <ele>335.60000610352</ele>
        <time>2011-04-22T13:54:45.000Z</time>
      </trkpt>
      <trkpt lat="45.12978" lon="5.7149">
        <ele>336.60000610352</ele>
        <time>2011-04-22T13:54:47.000Z</time>
      </trkpt>
      <trkpt lat="45.12974" lon="5.71506">
        <ele>338.60000610352</ele>
        <time>2011-04-22T13:54:53.000Z</time>
      </trkpt>
      <trkpt lat="45.12973" lon="5.71509">
        <ele>338.79998779297</ele>
        <time>2011-04-22T13:54:54.000Z</time>
      </trkpt>
      <trkpt lat="45.12972" lon="5.71512">
        <ele>339.20001220703</ele>
        <time>2011-04-22T13:54:55.000Z</time>
      </trkpt>
      <trkpt lat="45.12968" lon="5.7152">
        <ele>339.79998779297</ele>
        <time>2011-04-22T13:54:58.000Z</time>
      </trkpt>
      <trkpt lat="45.12962" lon="5.71531">
        <ele>340.60000610352</ele>
        <time>2011-04-22T13:55:02.000Z</time>
      </trkpt>
      <trkpt lat="45.12958" lon="5.71542">
        <ele>341.20001220703</ele>
        <time>2011-04-22T13:55:06.000Z</time>
      </trkpt>
      <trkpt lat="45.12952" lon="5.71554">
        <ele>341.39999389648</ele>
        <time>2011-04-22T13:55:10.000Z</time>
      </trkpt>
      <trkpt lat="45.12951" lon="5.71556">
        <ele>341.39999389648</ele>
        <time>2011-04-22T13:55:11.000Z</time>
      </trkpt>
      <trkpt lat="45.12946" lon="5.71567">
        <ele>341.39999389648</ele>
        <time>2011-04-22T13:55:16.000Z</time>
      </trkpt>
      <trkpt lat="45.12945" lon="5.71571">
        <ele>341.39999389648</ele>
        <time>2011-04-22T13:55:17.000Z</time>
      </trkpt>
      <trkpt lat="45.12942" lon="5.71579">
        <ele>341.39999389648</ele>
        <time>2011-04-22T13:55:19.000Z</time>
      </trkpt>
      <trkpt lat="45.12941" lon="5.71585">
        <ele>341.39999389648</ele>
        <time>2011-04-22T13:55:21.000Z</time>
      </trkpt>
      <trkpt lat="45.12936" lon="5.71597">
        <ele>341.39999389648</ele>
        <time>2011-04-22T13:55:25.000Z</time>
      </trkpt>
      <trkpt lat="45.12934" lon="5.71605">
        <ele>341.60000610352</ele>
        <time>2011-04-22T13:55:27.000Z</time>
      </trkpt>
      <trkpt lat="45.12934" lon="5.71607">
        <ele>341.79998779297</ele>
        <time>2011-04-22T13:55:28.000Z</time>
      </trkpt>
      <trkpt lat="45.1293" lon="5.71616">
        <ele>342</ele>
        <time>2011-04-22T13:55:31.000Z</time>
      </trkpt>
      <trkpt lat="45.12929" lon="5.7162">
        <ele>342</ele>
        <time>2011-04-22T13:55:32.000Z</time>
      </trkpt>
      <trkpt lat="45.12926" lon="5.7163">
        <ele>342.39999389648</ele>
        <time>2011-04-22T13:55:35.000Z</time>
      </trkpt>
      <trkpt lat="45.12924" lon="5.71632">
        <ele>342.39999389648</ele>
        <time>2011-04-22T13:55:36.000Z</time>
      </trkpt>
      <trkpt lat="45.12918" lon="5.71649">
        <ele>342.79998779297</ele>
        <time>2011-04-22T13:55:42.000Z</time>
      </trkpt>
      <trkpt lat="45.12917" lon="5.71652">
        <ele>343</ele>
        <time>2011-04-22T13:55:43.000Z</time>
      </trkpt>
      <trkpt lat="45.12912" lon="5.71663">
        <ele>344.20001220703</ele>
        <time>2011-04-22T13:55:47.000Z</time>
      </trkpt>
      <trkpt lat="45.12906" lon="5.71675">
        <ele>345.20001220703</ele>
        <time>2011-04-22T13:55:52.000Z</time>
      </trkpt>
      <trkpt lat="45.12899" lon="5.71692">
        <ele>346.39999389648</ele>
        <time>2011-04-22T13:55:57.000Z</time>
      </trkpt>
      <trkpt lat="45.12896" lon="5.71698">
        <ele>347</ele>
        <time>2011-04-22T13:55:59.000Z</time>
      </trkpt>
      <trkpt lat="45.12888" lon="5.7171">
        <ele>348</ele>
        <time>2011-04-22T13:56:04.000Z</time>
      </trkpt>
      <trkpt lat="45.12884" lon="5.71719">
        <ele>348.60000610352</ele>
        <time>2011-04-22T13:56:07.000Z</time>
      </trkpt>
      <trkpt lat="45.12882" lon="5.71724">
        <ele>349</ele>
        <time>2011-04-22T13:56:09.000Z</time>
      </trkpt>
      <trkpt lat="45.12876" lon="5.71737">
        <ele>350</ele>
        <time>2011-04-22T13:56:14.000Z</time>
      </trkpt>
      <trkpt lat="45.12872" lon="5.71743">
        <ele>350.39999389648</ele>
        <time>2011-04-22T13:56:16.000Z</time>
      </trkpt>
      <trkpt lat="45.12869" lon="5.71751">
        <ele>350.79998779297</ele>
        <time>2011-04-22T13:56:19.000Z</time>
      </trkpt>
      <trkpt lat="45.12864" lon="5.71764">
        <ele>350.79998779297</ele>
        <time>2011-04-22T13:56:24.000Z</time>
      </trkpt>
      <trkpt lat="45.12863" lon="5.71768">
        <ele>350.79998779297</ele>
        <time>2011-04-22T13:56:25.000Z</time>
      </trkpt>
      <trkpt lat="45.12858" lon="5.71776">
        <ele>350.79998779297</ele>
        <time>2011-04-22T13:56:28.000Z</time>
      </trkpt>
      <trkpt lat="45.12854" lon="5.71786">
        <ele>351</ele>
        <time>2011-04-22T13:56:32.000Z</time>
      </trkpt>
      <trkpt lat="45.12851" lon="5.71789">
        <ele>351</ele>
        <time>2011-04-22T13:56:34.000Z</time>
      </trkpt>
      <trkpt lat="45.12846" lon="5.71799">
        <ele>351.39999389648</ele>
        <time>2011-04-22T13:56:37.000Z</time>
      </trkpt>
      <trkpt lat="45.12838" lon="5.71809">
        <ele>351.79998779297</ele>
        <time>2011-04-22T13:56:41.000Z</time>
      </trkpt>
      <trkpt lat="45.12836" lon="5.71811">
        <ele>352</ele>
        <time>2011-04-22T13:56:42.000Z</time>
      </trkpt>
      <trkpt lat="45.12822" lon="5.7182">
        <ele>353</ele>
        <time>2011-04-22T13:56:48.000Z</time>
      </trkpt>
      <trkpt lat="45.1282" lon="5.71821">
        <ele>353</ele>
        <time>2011-04-22T13:56:49.000Z</time>
      </trkpt>
      <trkpt lat="45.12811" lon="5.71826">
        <ele>353.60000610352</ele>
        <time>2011-04-22T13:56:54.000Z</time>
      </trkpt>
      <trkpt lat="45.12803" lon="5.71831">
        <ele>354.20001220703</ele>
        <time>2011-04-22T13:56:58.000Z</time>
      </trkpt>
      <trkpt lat="45.12801" lon="5.71832">
        <ele>354.20001220703</ele>
        <time>2011-04-22T13:56:59.000Z</time>
      </trkpt>
      <trkpt lat="45.12795" lon="5.71835">
        <ele>354.79998779297</ele>
        <time>2011-04-22T13:57:02.000Z</time>
      </trkpt>
      <trkpt lat="45.12785" lon="5.71842">
        <ele>355.60000610352</ele>
        <time>2011-04-22T13:57:06.000Z</time>
      </trkpt>
      <trkpt lat="45.12782" lon="5.71846">
        <ele>356</ele>
        <time>2011-04-22T13:57:08.000Z</time>
      </trkpt>
      <trkpt lat="45.12775" lon="5.71851">
        <ele>356.79998779297</ele>
        <time>2011-04-22T13:57:11.000Z</time>
      </trkpt>
      <trkpt lat="45.1277" lon="5.71857">
        <ele>357.39999389648</ele>
        <time>2011-04-22T13:57:13.000Z</time>
      </trkpt>
      <trkpt lat="45.1276" lon="5.71866">
        <ele>358.60000610352</ele>
        <time>2011-04-22T13:57:17.000Z</time>
      </trkpt>
      <trkpt lat="45.12758" lon="5.71868">
        <ele>358.79998779297</ele>
        <time>2011-04-22T13:57:18.000Z</time>
      </trkpt>
      <trkpt lat="45.12752" lon="5.71873">
        <ele>359.60000610352</ele>
        <time>2011-04-22T13:57:21.000Z</time>
      </trkpt>
      <trkpt lat="45.12749" lon="5.71876">
        <ele>360</ele>
        <time>2011-04-22T13:57:23.000Z</time>
      </trkpt>
      <trkpt lat="45.12744" lon="5.71878">
        <ele>360.39999389648</ele>
        <time>2011-04-22T13:57:25.000Z</time>
      </trkpt>
      <trkpt lat="45.12741" lon="5.71879">
        <ele>360.39999389648</ele>
        <time>2011-04-22T13:57:27.000Z</time>
      </trkpt>
      <trkpt lat="45.12737" lon="5.71881">
        <ele>360.79998779297</ele>
        <time>2011-04-22T13:57:29.000Z</time>
      </trkpt>
      <trkpt lat="45.12734" lon="5.71883">
        <ele>361</ele>
        <time>2011-04-22T13:57:31.000Z</time>
      </trkpt>
      <trkpt lat="45.1273" lon="5.71885">
        <ele>361.20001220703</ele>
        <time>2011-04-22T13:57:33.000Z</time>
      </trkpt>
      <trkpt lat="45.12728" lon="5.71885">
        <ele>361.20001220703</ele>
        <time>2011-04-22T13:57:34.000Z</time>
      </trkpt>
      <trkpt lat="45.12718" lon="5.71884">
        <ele>361.60000610352</ele>
        <time>2011-04-22T13:57:39.000Z</time>
      </trkpt>
      <trkpt lat="45.12716" lon="5.71883">
        <ele>361.60000610352</ele>
        <time>2011-04-22T13:57:40.000Z</time>
      </trkpt>
      <trkpt lat="45.12715" lon="5.71883">
        <ele>361.79998779297</ele>
        <time>2011-04-22T13:57:41.000Z</time>
      </trkpt>
      <trkpt lat="45.1271" lon="5.71882">
        <ele>361.79998779297</ele>
        <time>2011-04-22T13:57:44.000Z</time>
      </trkpt>
      <trkpt lat="45.12701" lon="5.71882">
        <ele>362.20001220703</ele>
        <time>2011-04-22T13:57:49.000Z</time>
      </trkpt>
      <trkpt lat="45.12695" lon="5.71884">
        <ele>362.60000610352</ele>
        <time>2011-04-22T13:57:51.000Z</time>
      </trkpt>
      <trkpt lat="45.12693" lon="5.71885">
        <ele>362.60000610352</ele>
        <time>2011-04-22T13:57:52.000Z</time>
      </trkpt>
      <trkpt lat="45.12688" lon="5.71888">
        <ele>363</ele>
        <time>2011-04-22T13:57:54.000Z</time>
      </trkpt>
      <trkpt lat="45.12679" lon="5.71893">
        <ele>363.60000610352</ele>
        <time>2011-04-22T13:57:58.000Z</time>
      </trkpt>
      <trkpt lat="45.12677" lon="5.71895">
        <ele>363.79998779297</ele>
        <time>2011-04-22T13:57:59.000Z</time>
      </trkpt>
      <trkpt lat="45.12675" lon="5.71896">
        <ele>363.79998779297</ele>
        <time>2011-04-22T13:58:00.000Z</time>
      </trkpt>
      <trkpt lat="45.12667" lon="5.719">
        <ele>364.20001220703</ele>
        <time>2011-04-22T13:58:03.000Z</time>
      </trkpt>
      <trkpt lat="45.12659" lon="5.71904">
        <ele>364.60000610352</ele>
        <time>2011-04-22T13:58:06.000Z</time>
      </trkpt>
      <trkpt lat="45.12657" lon="5.71905">
        <ele>364.79998779297</ele>
        <time>2011-04-22T13:58:07.000Z</time>
      </trkpt>
      <trkpt lat="45.12646" lon="5.71906">
        <ele>365.20001220703</ele>
        <time>2011-04-22T13:58:12.000Z</time>
      </trkpt>
      <trkpt lat="45.12639" lon="5.71905">
        <ele>365.20001220703</ele>
        <time>2011-04-22T13:58:15.000Z</time>
      </trkpt>
      <trkpt lat="45.12638" lon="5.71905">
        <ele>365.20001220703</ele>
        <time>2011-04-22T13:58:16.000Z</time>
      </trkpt>
      <trkpt lat="45.12628" lon="5.71908">
        <ele>365.79998779297</ele>
        <time>2011-04-22T13:58:21.000Z</time>
      </trkpt>
      <trkpt lat="45.1262" lon="5.71908">
        <ele>366</ele>
        <time>2011-04-22T13:58:25.000Z</time>
      </trkpt>
      <trkpt lat="45.12618" lon="5.71909">
        <ele>366</ele>
        <time>2011-04-22T13:58:26.000Z</time>
      </trkpt>
      <trkpt lat="45.12605" lon="5.71912">
        <ele>366.79998779297</ele>
        <time>2011-04-22T13:58:31.000Z</time>
      </trkpt>
      <trkpt lat="45.12602" lon="5.71912">
        <ele>366.79998779297</ele>
        <time>2011-04-22T13:58:32.000Z</time>
      </trkpt>
      <trkpt lat="45.12593" lon="5.71913">
        <ele>367.20001220703</ele>
        <time>2011-04-22T13:58:37.000Z</time>
      </trkpt>
      <trkpt lat="45.12584" lon="5.71918">
        <ele>368</ele>
        <time>2011-04-22T13:58:42.000Z</time>
      </trkpt>
      <trkpt lat="45.12572" lon="5.7192">
        <ele>367.39999389648</ele>
        <time>2011-04-22T13:58:47.000Z</time>
      </trkpt>
      <trkpt lat="45.12565" lon="5.71922">
        <ele>367</ele>
        <time>2011-04-22T13:58:50.000Z</time>
      </trkpt>
      <trkpt lat="45.1256" lon="5.71922">
        <ele>366.79998779297</ele>
        <time>2011-04-22T13:58:52.000Z</time>
      </trkpt>
      <trkpt lat="45.12557" lon="5.71923">
        <ele>366.60000610352</ele>
        <time>2011-04-22T13:58:53.000Z</time>
      </trkpt>
      <trkpt lat="45.12547" lon="5.71926">
        <ele>366.20001220703</ele>
        <time>2011-04-22T13:58:57.000Z</time>
      </trkpt>
      <trkpt lat="45.12535" lon="5.71932">
        <ele>365.60000610352</ele>
        <time>2011-04-22T13:59:02.000Z</time>
      </trkpt>
      <trkpt lat="45.1253" lon="5.71937">
        <ele>365.60000610352</ele>
        <time>2011-04-22T13:59:04.000Z</time>
      </trkpt>
      <trkpt lat="45.12528" lon="5.71939">
        <ele>365.39999389648</ele>
        <time>2011-04-22T13:59:05.000Z</time>
      </trkpt>
      <trkpt lat="45.12523" lon="5.71941">
        <ele>365.20001220703</ele>
        <time>2011-04-22T13:59:08.000Z</time>
      </trkpt>
      <trkpt lat="45.12512" lon="5.71947">
        <ele>364.79998779297</ele>
        <time>2011-04-22T13:59:12.000Z</time>
      </trkpt>
      <trkpt lat="45.12509" lon="5.71948">
        <ele>364.60000610352</ele>
        <time>2011-04-22T13:59:13.000Z</time>
      </trkpt>
      <trkpt lat="45.12494" lon="5.71955">
        <ele>364</ele>
        <time>2011-04-22T13:59:19.000Z</time>
      </trkpt>
      <trkpt lat="45.12484" lon="5.71958">
        <ele>363.60000610352</ele>
        <time>2011-04-22T13:59:23.000Z</time>
      </trkpt>
      <trkpt lat="45.12476" lon="5.71959">
        <ele>363.20001220703</ele>
        <time>2011-04-22T13:59:26.000Z</time>
      </trkpt>
      <trkpt lat="45.12467" lon="5.71962">
        <ele>363</ele>
        <time>2011-04-22T13:59:30.000Z</time>
      </trkpt>
      <trkpt lat="45.12456" lon="5.71968">
        <ele>362.60000610352</ele>
        <time>2011-04-22T13:59:34.000Z</time>
      </trkpt>
      <trkpt lat="45.12442" lon="5.7197">
        <ele>362</ele>
        <time>2011-04-22T13:59:39.000Z</time>
      </trkpt>
      <trkpt lat="45.12437" lon="5.71969">
        <ele>361.79998779297</ele>
        <time>2011-04-22T13:59:41.000Z</time>
      </trkpt>
      <trkpt lat="45.12427" lon="5.71967">
        <ele>361.20001220703</ele>
        <time>2011-04-22T13:59:45.000Z</time>
      </trkpt>
      <trkpt lat="45.12419" lon="5.71965">
        <ele>360.79998779297</ele>
        <time>2011-04-22T13:59:48.000Z</time>
      </trkpt>
      <trkpt lat="45.12413" lon="5.71966">
        <ele>360.60000610352</ele>
        <time>2011-04-22T13:59:50.000Z</time>
      </trkpt>
      <trkpt lat="45.12399" lon="5.71963">
        <ele>360.60000610352</ele>
        <time>2011-04-22T13:59:55.000Z</time>
      </trkpt>
      <trkpt lat="45.12382" lon="5.71959">
        <ele>360.60000610352</ele>
        <time>2011-04-22T14:00:01.000Z</time>
      </trkpt>
      <trkpt lat="45.1238" lon="5.71958">
        <ele>360.60000610352</ele>
        <time>2011-04-22T14:00:02.000Z</time>
      </trkpt>
      <trkpt lat="45.12369" lon="5.71956">
        <ele>360.60000610352</ele>
        <time>2011-04-22T14:00:06.000Z</time>
      </trkpt>
      <trkpt lat="45.1236" lon="5.71955">
        <ele>360.60000610352</ele>
        <time>2011-04-22T14:00:09.000Z</time>
      </trkpt>
      <trkpt lat="45.12352" lon="5.71954">
        <ele>360.60000610352</ele>
        <time>2011-04-22T14:00:12.000Z</time>
      </trkpt>
      <trkpt lat="45.12342" lon="5.71951">
        <ele>360.60000610352</ele>
        <time>2011-04-22T14:00:16.000Z</time>
      </trkpt>
      <trkpt lat="45.1234" lon="5.71951">
        <ele>360.60000610352</ele>
        <time>2011-04-22T14:00:17.000Z</time>
      </trkpt>
      <trkpt lat="45.12326" lon="5.71951">
        <ele>361.20001220703</ele>
        <time>2011-04-22T14:00:23.000Z</time>
      </trkpt>
      <trkpt lat="45.12323" lon="5.71952">
        <ele>361.60000610352</ele>
        <time>2011-04-22T14:00:25.000Z</time>
      </trkpt>
      <trkpt lat="45.12316" lon="5.71953">
        <ele>362.20001220703</ele>
        <time>2011-04-22T14:00:28.000Z</time>
      </trkpt>
      <trkpt lat="45.12303" lon="5.71955">
        <ele>363.20001220703</ele>
        <time>2011-04-22T14:00:33.000Z</time>
      </trkpt>
      <trkpt lat="45.12297" lon="5.71956">
        <ele>363.60000610352</ele>
        <time>2011-04-22T14:00:35.000Z</time>
      </trkpt>
      <trkpt lat="45.12287" lon="5.71957">
        <ele>364.39999389648</ele>
        <time>2011-04-22T14:00:39.000Z</time>
      </trkpt>
      <trkpt lat="45.12284" lon="5.71957">
        <ele>364.79998779297</ele>
        <time>2011-04-22T14:00:40.000Z</time>
      </trkpt>
      <trkpt lat="45.12274" lon="5.71958">
        <ele>365.60000610352</ele>
        <time>2011-04-22T14:00:44.000Z</time>
      </trkpt>
      <trkpt lat="45.12264" lon="5.71958">
        <ele>366.20001220703</ele>
        <time>2011-04-22T14:00:48.000Z</time>
      </trkpt>
      <trkpt lat="45.12256" lon="5.71958">
        <ele>367</ele>
        <time>2011-04-22T14:00:51.000Z</time>
      </trkpt>
      <trkpt lat="45.12244" lon="5.71957">
        <ele>368</ele>
        <time>2011-04-22T14:00:56.000Z</time>
      </trkpt>
      <trkpt lat="45.12242" lon="5.71957">
        <ele>368.39999389648</ele>
        <time>2011-04-22T14:00:57.000Z</time>
      </trkpt>
      <trkpt lat="45.12231" lon="5.71958">
        <ele>369.60000610352</ele>
        <time>2011-04-22T14:01:02.000Z</time>
      </trkpt>
      <trkpt lat="45.12224" lon="5.71958">
        <ele>370.39999389648</ele>
        <time>2011-04-22T14:01:05.000Z</time>
      </trkpt>
      <trkpt lat="45.12218" lon="5.71958">
        <ele>371</ele>
        <time>2011-04-22T14:01:08.000Z</time>
      </trkpt>
      <trkpt lat="45.12206" lon="5.71958">
        <ele>372.39999389648</ele>
        <time>2011-04-22T14:01:14.000Z</time>
      </trkpt>
      <trkpt lat="45.12204" lon="5.71958">
        <ele>372.60000610352</ele>
        <time>2011-04-22T14:01:15.000Z</time>
      </trkpt>
      <trkpt lat="45.12196" lon="5.71958">
        <ele>373.60000610352</ele>
        <time>2011-04-22T14:01:19.000Z</time>
      </trkpt>
      <trkpt lat="45.12185" lon="5.7196">
        <ele>374.79998779297</ele>
        <time>2011-04-22T14:01:24.000Z</time>
      </trkpt>
      <trkpt lat="45.12171" lon="5.71962">
        <ele>376.60000610352</ele>
        <time>2011-04-22T14:01:30.000Z</time>
      </trkpt>
      <trkpt lat="45.12166" lon="5.71963">
        <ele>377</ele>
        <time>2011-04-22T14:01:32.000Z</time>
      </trkpt>
      <trkpt lat="45.12159" lon="5.71965">
        <ele>377.39999389648</ele>
        <time>2011-04-22T14:01:35.000Z</time>
      </trkpt>
      <trkpt lat="45.12147" lon="5.71969">
        <ele>378</ele>
        <time>2011-04-22T14:01:40.000Z</time>
      </trkpt>
      <trkpt lat="45.12145" lon="5.7197">
        <ele>378</ele>
        <time>2011-04-22T14:01:41.000Z</time>
      </trkpt>
      <trkpt lat="45.12135" lon="5.71973">
        <ele>378.60000610352</ele>
        <time>2011-04-22T14:01:46.000Z</time>
      </trkpt>
      <trkpt lat="45.12133" lon="5.71973">
        <ele>378.60000610352</ele>
        <time>2011-04-22T14:01:47.000Z</time>
      </trkpt>
      <trkpt lat="45.12129" lon="5.71974">
        <ele>378.79998779297</ele>
        <time>2011-04-22T14:01:49.000Z</time>
      </trkpt>
      <trkpt lat="45.12127" lon="5.71976">
        <ele>378.79998779297</ele>
        <time>2011-04-22T14:01:50.000Z</time>
      </trkpt>
      <trkpt lat="45.12122" lon="5.71978">
        <ele>379</ele>
        <time>2011-04-22T14:01:53.000Z</time>
      </trkpt>
      <trkpt lat="45.12116" lon="5.71981">
        <ele>379.20001220703</ele>
        <time>2011-04-22T14:01:56.000Z</time>
      </trkpt>
      <trkpt lat="45.12112" lon="5.71983">
        <ele>379.39999389648</ele>
        <time>2011-04-22T14:01:58.000Z</time>
      </trkpt>
      <trkpt lat="45.12103" lon="5.71988">
        <ele>379.60000610352</ele>
        <time>2011-04-22T14:02:02.000Z</time>
      </trkpt>
      <trkpt lat="45.12093" lon="5.71991">
        <ele>379.79998779297</ele>
        <time>2011-04-22T14:02:06.000Z</time>
      </trkpt>
      <trkpt lat="45.12088" lon="5.71993">
        <ele>380</ele>
        <time>2011-04-22T14:02:08.000Z</time>
      </trkpt>
      <trkpt lat="45.12074" lon="5.72001">
        <ele>380.39999389648</ele>
        <time>2011-04-22T14:02:14.000Z</time>
      </trkpt>
      <trkpt lat="45.12061" lon="5.72011">
        <ele>381.60000610352</ele>
        <time>2011-04-22T14:02:20.000Z</time>
      </trkpt>
      <trkpt lat="45.12056" lon="5.72014">
        <ele>382</ele>
        <time>2011-04-22T14:02:22.000Z</time>
      </trkpt>
      <trkpt lat="45.12047" lon="5.72022">
        <ele>382.79998779297</ele>
        <time>2011-04-22T14:02:26.000Z</time>
      </trkpt>
      <trkpt lat="45.12038" lon="5.72028">
        <ele>383.60000610352</ele>
        <time>2011-04-22T14:02:30.000Z</time>
      </trkpt>
      <trkpt lat="45.12034" lon="5.72031">
        <ele>384.20001220703</ele>
        <time>2011-04-22T14:02:32.000Z</time>
      </trkpt>
      <trkpt lat="45.1202" lon="5.72041">
        <ele>385.60000610352</ele>
        <time>2011-04-22T14:02:38.000Z</time>
      </trkpt>
      <trkpt lat="45.12018" lon="5.72042">
        <ele>386</ele>
        <time>2011-04-22T14:02:39.000Z</time>
      </trkpt>
      <trkpt lat="45.12008" lon="5.72049">
        <ele>387.20001220703</ele>
        <time>2011-04-22T14:02:44.000Z</time>
      </trkpt>
      <trkpt lat="45.12004" lon="5.72052">
        <ele>387.60000610352</ele>
        <time>2011-04-22T14:02:46.000Z</time>
      </trkpt>
      <trkpt lat="45.11997" lon="5.72057">
        <ele>388.39999389648</ele>
        <time>2011-04-22T14:02:49.000Z</time>
      </trkpt>
      <trkpt lat="45.11987" lon="5.72066">
        <ele>389.39999389648</ele>
        <time>2011-04-22T14:02:54.000Z</time>
      </trkpt>
      <trkpt lat="45.11974" lon="5.72074">
        <ele>390.39999389648</ele>
        <time>2011-04-22T14:03:00.000Z</time>
      </trkpt>
      <trkpt lat="45.1197" lon="5.72077">
        <ele>390.79998779297</ele>
        <time>2011-04-22T14:03:02.000Z</time>
      </trkpt>
      <trkpt lat="45.11959" lon="5.72084">
        <ele>391.39999389648</ele>
        <time>2011-04-22T14:03:07.000Z</time>
      </trkpt>
      <trkpt lat="45.11953" lon="5.72089">
        <ele>391.60000610352</ele>
        <time>2011-04-22T14:03:10.000Z</time>
      </trkpt>
      <trkpt lat="45.11946" lon="5.72094">
        <ele>391.79998779297</ele>
        <time>2011-04-22T14:03:13.000Z</time>
      </trkpt>
      <trkpt lat="45.11935" lon="5.72101">
        <ele>392.20001220703</ele>
        <time>2011-04-22T14:03:18.000Z</time>
      </trkpt>
      <trkpt lat="45.11933" lon="5.72103">
        <ele>392.20001220703</ele>
        <time>2011-04-22T14:03:19.000Z</time>
      </trkpt>
      <trkpt lat="45.1192" lon="5.72111">
        <ele>392.79998779297</ele>
        <time>2011-04-22T14:03:25.000Z</time>
      </trkpt>
      <trkpt lat="45.11918" lon="5.72113">
        <ele>392.79998779297</ele>
        <time>2011-04-22T14:03:26.000Z</time>
      </trkpt>
      <trkpt lat="45.11909" lon="5.72119">
        <ele>393</ele>
        <time>2011-04-22T14:03:30.000Z</time>
      </trkpt>
      <trkpt lat="45.11899" lon="5.72124">
        <ele>393</ele>
        <time>2011-04-22T14:03:34.000Z</time>
      </trkpt>
      <trkpt lat="45.11897" lon="5.72126">
        <ele>393</ele>
        <time>2011-04-22T14:03:35.000Z</time>
      </trkpt>
      <trkpt lat="45.11888" lon="5.72132">
        <ele>393.20001220703</ele>
        <time>2011-04-22T14:03:39.000Z</time>
      </trkpt>
      <trkpt lat="45.11883" lon="5.72135">
        <ele>393.20001220703</ele>
        <time>2011-04-22T14:03:41.000Z</time>
      </trkpt>
      <trkpt lat="45.11873" lon="5.72142">
        <ele>393.20001220703</ele>
        <time>2011-04-22T14:03:45.000Z</time>
      </trkpt>
      <trkpt lat="45.11865" lon="5.72147">
        <ele>393.39999389648</ele>
        <time>2011-04-22T14:03:48.000Z</time>
      </trkpt>
      <trkpt lat="45.11858" lon="5.72152">
        <ele>393.39999389648</ele>
        <time>2011-04-22T14:03:51.000Z</time>
      </trkpt>
      <trkpt lat="45.11848" lon="5.72159">
        <ele>393.60000610352</ele>
        <time>2011-04-22T14:03:55.000Z</time>
      </trkpt>
      <trkpt lat="45.11845" lon="5.72161">
        <ele>393.60000610352</ele>
        <time>2011-04-22T14:03:56.000Z</time>
      </trkpt>
      <trkpt lat="45.1183" lon="5.7217">
        <ele>393.79998779297</ele>
        <time>2011-04-22T14:04:02.000Z</time>
      </trkpt>
      <trkpt lat="45.11822" lon="5.72179">
        <ele>393.60000610352</ele>
        <time>2011-04-22T14:04:06.000Z</time>
      </trkpt>
      <trkpt lat="45.11814" lon="5.72181">
        <ele>393.39999389648</ele>
        <time>2011-04-22T14:04:09.000Z</time>
      </trkpt>
      <trkpt lat="45.11806" lon="5.72185">
        <ele>393.20001220703</ele>
        <time>2011-04-22T14:04:12.000Z</time>
      </trkpt>
      <trkpt lat="45.11795" lon="5.72191">
        <ele>393</ele>
        <time>2011-04-22T14:04:16.000Z</time>
      </trkpt>
      <trkpt lat="45.11789" lon="5.72194">
        <ele>392.79998779297</ele>
        <time>2011-04-22T14:04:18.000Z</time>
      </trkpt>
      <trkpt lat="45.11776" lon="5.72203">
        <ele>392.60000610352</ele>
        <time>2011-04-22T14:04:23.000Z</time>
      </trkpt>
      <trkpt lat="45.11773" lon="5.72204">
        <ele>392.39999389648</ele>
        <time>2011-04-22T14:04:24.000Z</time>
      </trkpt>
      <trkpt lat="45.11759" lon="5.72209">
        <ele>392.20001220703</ele>
        <time>2011-04-22T14:04:29.000Z</time>
      </trkpt>
      <trkpt lat="45.11756" lon="5.7221">
        <ele>392</ele>
        <time>2011-04-22T14:04:30.000Z</time>
      </trkpt>
      <trkpt lat="45.11741" lon="5.72213">
        <ele>391.60000610352</ele>
        <time>2011-04-22T14:04:35.000Z</time>
      </trkpt>
      <trkpt lat="45.11737" lon="5.72213">
        <ele>391.39999389648</ele>
        <time>2011-04-22T14:04:36.000Z</time>
      </trkpt>
      <trkpt lat="45.11722" lon="5.72216">
        <ele>391</ele>
        <time>2011-04-22T14:04:41.000Z</time>
      </trkpt>
      <trkpt lat="45.11719" lon="5.72217">
        <ele>390.79998779297</ele>
        <time>2011-04-22T14:04:42.000Z</time>
      </trkpt>
      <trkpt lat="45.11701" lon="5.72223">
        <ele>390.39999389648</ele>
        <time>2011-04-22T14:04:48.000Z</time>
      </trkpt>
      <trkpt lat="45.11687" lon="5.72229">
        <ele>390</ele>
        <time>2011-04-22T14:04:53.000Z</time>
      </trkpt>
      <trkpt lat="45.11681" lon="5.72232">
        <ele>389.79998779297</ele>
        <time>2011-04-22T14:04:55.000Z</time>
      </trkpt>
      <trkpt lat="45.11673" lon="5.72237">
        <ele>389.79998779297</ele>
        <time>2011-04-22T14:04:58.000Z</time>
      </trkpt>
      <trkpt lat="45.11663" lon="5.72245">
        <ele>389.60000610352</ele>
        <time>2011-04-22T14:05:02.000Z</time>
      </trkpt>
      <trkpt lat="45.1166" lon="5.72247">
        <ele>389.60000610352</ele>
        <time>2011-04-22T14:05:03.000Z</time>
      </trkpt>
      <trkpt lat="45.11645" lon="5.7226">
        <ele>389</ele>
        <time>2011-04-22T14:05:09.000Z</time>
      </trkpt>
      <trkpt lat="45.11634" lon="5.72272">
        <ele>388.20001220703</ele>
        <time>2011-04-22T14:05:14.000Z</time>
      </trkpt>
      <trkpt lat="45.11629" lon="5.72277">
        <ele>388</ele>
        <time>2011-04-22T14:05:16.000Z</time>
      </trkpt>
      <trkpt lat="45.11621" lon="5.72285">
        <ele>387.60000610352</ele>
        <time>2011-04-22T14:05:20.000Z</time>
      </trkpt>
      <trkpt lat="45.11615" lon="5.72293">
        <ele>387.39999389648</ele>
        <time>2011-04-22T14:05:23.000Z</time>
      </trkpt>
      <trkpt lat="45.11608" lon="5.72301">
        <ele>387</ele>
        <time>2011-04-22T14:05:26.000Z</time>
      </trkpt>
      <trkpt lat="45.116" lon="5.72309">
        <ele>386.60000610352</ele>
        <time>2011-04-22T14:05:30.000Z</time>
      </trkpt>
      <trkpt lat="45.11595" lon="5.72313">
        <ele>386.39999389648</ele>
        <time>2011-04-22T14:05:32.000Z</time>
      </trkpt>
      <trkpt lat="45.11584" lon="5.72321">
        <ele>386</ele>
        <time>2011-04-22T14:05:36.000Z</time>
      </trkpt>
      <trkpt lat="45.11579" lon="5.72325">
        <ele>386</ele>
        <time>2011-04-22T14:05:38.000Z</time>
      </trkpt>
      <trkpt lat="45.11567" lon="5.72332">
        <ele>386.20001220703</ele>
        <time>2011-04-22T14:05:43.000Z</time>
      </trkpt>
      <trkpt lat="45.11564" lon="5.72333">
        <ele>386.20001220703</ele>
        <time>2011-04-22T14:05:44.000Z</time>
      </trkpt>
      <trkpt lat="45.11555" lon="5.72341">
        <ele>386.20001220703</ele>
        <time>2011-04-22T14:05:48.000Z</time>
      </trkpt>
      <trkpt lat="45.1155" lon="5.72346">
        <ele>386.20001220703</ele>
        <time>2011-04-22T14:05:50.000Z</time>
      </trkpt>
      <trkpt lat="45.11542" lon="5.72351">
        <ele>386.20001220703</ele>
        <time>2011-04-22T14:05:53.000Z</time>
      </trkpt>
      <trkpt lat="45.11534" lon="5.72358">
        <ele>386.20001220703</ele>
        <time>2011-04-22T14:05:56.000Z</time>
      </trkpt>
      <trkpt lat="45.11531" lon="5.72361">
        <ele>386.20001220703</ele>
        <time>2011-04-22T14:05:57.000Z</time>
      </trkpt>
      <trkpt lat="45.11518" lon="5.72373">
        <ele>386.20001220703</ele>
        <time>2011-04-22T14:06:02.000Z</time>
      </trkpt>
      <trkpt lat="45.11516" lon="5.72375">
        <ele>386.20001220703</ele>
        <time>2011-04-22T14:06:03.000Z</time>
      </trkpt>
      <trkpt lat="45.11508" lon="5.72389">
        <ele>386.20001220703</ele>
        <time>2011-04-22T14:06:08.000Z</time>
      </trkpt>
      <trkpt lat="45.11506" lon="5.72395">
        <ele>386</ele>
        <time>2011-04-22T14:06:10.000Z</time>
      </trkpt>
      <trkpt lat="45.11503" lon="5.7241">
        <ele>386</ele>
        <time>2011-04-22T14:06:14.000Z</time>
      </trkpt>
      <trkpt lat="45.11499" lon="5.72422">
        <ele>385.79998779297</ele>
        <time>2011-04-22T14:06:17.000Z</time>
      </trkpt>
      <trkpt lat="45.11495" lon="5.72437">
        <ele>385.39999389648</ele>
        <time>2011-04-22T14:06:21.000Z</time>
      </trkpt>
      <trkpt lat="45.11493" lon="5.72448">
        <ele>385.20001220703</ele>
        <time>2011-04-22T14:06:24.000Z</time>
      </trkpt>
      <trkpt lat="45.11489" lon="5.72459">
        <ele>384.79998779297</ele>
        <time>2011-04-22T14:06:27.000Z</time>
      </trkpt>
      <trkpt lat="45.11485" lon="5.72475">
        <ele>384.39999389648</ele>
        <time>2011-04-22T14:06:31.000Z</time>
      </trkpt>
      <trkpt lat="45.11484" lon="5.72478">
        <ele>384.20001220703</ele>
        <time>2011-04-22T14:06:32.000Z</time>
      </trkpt>
      <trkpt lat="45.11479" lon="5.725">
        <ele>383.60000610352</ele>
        <time>2011-04-22T14:06:38.000Z</time>
      </trkpt>
      <trkpt lat="45.11474" lon="5.72527">
        <ele>382.79998779297</ele>
        <time>2011-04-22T14:06:45.000Z</time>
      </trkpt>
      <trkpt lat="45.11471" lon="5.7255">
        <ele>382.39999389648</ele>
        <time>2011-04-22T14:06:51.000Z</time>
      </trkpt>
      <trkpt lat="45.1147" lon="5.72553">
        <ele>382.20001220703</ele>
        <time>2011-04-22T14:06:52.000Z</time>
      </trkpt>
      <trkpt lat="45.11466" lon="5.72572">
        <ele>381.79998779297</ele>
        <time>2011-04-22T14:06:57.000Z</time>
      </trkpt>
      <trkpt lat="45.11465" lon="5.72579">
        <ele>381.60000610352</ele>
        <time>2011-04-22T14:06:59.000Z</time>
      </trkpt>
      <trkpt lat="45.11462" lon="5.72589">
        <ele>381.39999389648</ele>
        <time>2011-04-22T14:07:02.000Z</time>
      </trkpt>
      <trkpt lat="45.11458" lon="5.72604">
        <ele>381.20001220703</ele>
        <time>2011-04-22T14:07:06.000Z</time>
      </trkpt>
      <trkpt lat="45.11455" lon="5.72612">
        <ele>381.20001220703</ele>
        <time>2011-04-22T14:07:08.000Z</time>
      </trkpt>
      <trkpt lat="45.11448" lon="5.7263">
        <ele>380.79998779297</ele>
        <time>2011-04-22T14:07:13.000Z</time>
      </trkpt>
      <trkpt lat="45.11446" lon="5.72634">
        <ele>380.79998779297</ele>
        <time>2011-04-22T14:07:14.000Z</time>
      </trkpt>
      <trkpt lat="45.11437" lon="5.72654">
        <ele>380.39999389648</ele>
        <time>2011-04-22T14:07:20.000Z</time>
      </trkpt>
      <trkpt lat="45.1143" lon="5.72669">
        <ele>380.20001220703</ele>
        <time>2011-04-22T14:07:25.000Z</time>
      </trkpt>
      <trkpt lat="45.11426" lon="5.72675">
        <ele>380</ele>
        <time>2011-04-22T14:07:27.000Z</time>
      </trkpt>
      <trkpt lat="45.1142" lon="5.72688">
        <ele>379.39999389648</ele>
        <time>2011-04-22T14:07:31.000Z</time>
      </trkpt>
      <trkpt lat="45.11416" lon="5.72698">
        <ele>379</ele>
        <time>2011-04-22T14:07:34.000Z</time>
      </trkpt>
      <trkpt lat="45.11411" lon="5.72708">
        <ele>378.60000610352</ele>
        <time>2011-04-22T14:07:37.000Z</time>
      </trkpt>
      <trkpt lat="45.11405" lon="5.72722">
        <ele>378</ele>
        <time>2011-04-22T14:07:42.000Z</time>
      </trkpt>
      <trkpt lat="45.11403" lon="5.72725">
        <ele>378</ele>
        <time>2011-04-22T14:07:43.000Z</time>
      </trkpt>
      <trkpt lat="45.11396" lon="5.72747">
        <ele>377.20001220703</ele>
        <time>2011-04-22T14:07:49.000Z</time>
      </trkpt>
      <trkpt lat="45.11387" lon="5.72772">
        <ele>376.39999389648</ele>
        <time>2011-04-22T14:07:56.000Z</time>
      </trkpt>
      <trkpt lat="45.11385" lon="5.72776">
        <ele>376.20001220703</ele>
        <time>2011-04-22T14:07:57.000Z</time>
      </trkpt>
      <trkpt lat="45.11378" lon="5.72798">
        <ele>375.60000610352</ele>
        <time>2011-04-22T14:08:03.000Z</time>
      </trkpt>
      <trkpt lat="45.11375" lon="5.72812">
        <ele>375.20001220703</ele>
        <time>2011-04-22T14:08:07.000Z</time>
      </trkpt>
      <trkpt lat="45.11372" lon="5.72823">
        <ele>375</ele>
        <time>2011-04-22T14:08:10.000Z</time>
      </trkpt>
      <trkpt lat="45.11369" lon="5.72834">
        <ele>374.79998779297</ele>
        <time>2011-04-22T14:08:13.000Z</time>
      </trkpt>
      <trkpt lat="45.11361" lon="5.72847">
        <ele>374.60000610352</ele>
        <time>2011-04-22T14:08:18.000Z</time>
      </trkpt>
      <trkpt lat="45.11349" lon="5.72859">
        <ele>374.60000610352</ele>
        <time>2011-04-22T14:08:24.000Z</time>
      </trkpt>
      <trkpt lat="45.11345" lon="5.72861">
        <ele>374.39999389648</ele>
        <time>2011-04-22T14:08:26.000Z</time>
      </trkpt>
      <trkpt lat="45.11338" lon="5.72866">
        <ele>374.39999389648</ele>
        <time>2011-04-22T14:08:29.000Z</time>
      </trkpt>
      <trkpt lat="45.11329" lon="5.72873">
        <ele>374.39999389648</ele>
        <time>2011-04-22T14:08:33.000Z</time>
      </trkpt>
      <trkpt lat="45.11322" lon="5.72877">
        <ele>374.20001220703</ele>
        <time>2011-04-22T14:08:36.000Z</time>
      </trkpt>
      <trkpt lat="45.11311" lon="5.72882">
        <ele>374.20001220703</ele>
        <time>2011-04-22T14:08:41.000Z</time>
      </trkpt>
      <trkpt lat="45.11296" lon="5.72884">
        <ele>374</ele>
        <time>2011-04-22T14:08:47.000Z</time>
      </trkpt>
      <trkpt lat="45.1129" lon="5.72885">
        <ele>374</ele>
        <time>2011-04-22T14:08:49.000Z</time>
      </trkpt>
      <trkpt lat="45.11283" lon="5.72886">
        <ele>374</ele>
        <time>2011-04-22T14:08:52.000Z</time>
      </trkpt>
      <trkpt lat="45.11273" lon="5.72892">
        <ele>373.79998779297</ele>
        <time>2011-04-22T14:08:56.000Z</time>
      </trkpt>
      <trkpt lat="45.11267" lon="5.72893">
        <ele>373.79998779297</ele>
        <time>2011-04-22T14:08:58.000Z</time>
      </trkpt>
      <trkpt lat="45.11253" lon="5.72894">
        <ele>373.60000610352</ele>
        <time>2011-04-22T14:09:03.000Z</time>
      </trkpt>
      <trkpt lat="45.1125" lon="5.72895">
        <ele>373.60000610352</ele>
        <time>2011-04-22T14:09:04.000Z</time>
      </trkpt>
      <trkpt lat="45.11234" lon="5.72897">
        <ele>373.20001220703</ele>
        <time>2011-04-22T14:09:10.000Z</time>
      </trkpt>
      <trkpt lat="45.11217" lon="5.72896">
        <ele>372.79998779297</ele>
        <time>2011-04-22T14:09:16.000Z</time>
      </trkpt>
      <trkpt lat="45.11215" lon="5.72896">
        <ele>372.79998779297</ele>
        <time>2011-04-22T14:09:17.000Z</time>
      </trkpt>
      <trkpt lat="45.11201" lon="5.72896">
        <ele>372.39999389648</ele>
        <time>2011-04-22T14:09:22.000Z</time>
      </trkpt>
      <trkpt lat="45.11196" lon="5.72896">
        <ele>372.20001220703</ele>
        <time>2011-04-22T14:09:24.000Z</time>
      </trkpt>
      <trkpt lat="45.11185" lon="5.72896">
        <ele>372</ele>
        <time>2011-04-22T14:09:28.000Z</time>
      </trkpt>
      <trkpt lat="45.11177" lon="5.72896">
        <ele>371.60000610352</ele>
        <time>2011-04-22T14:09:31.000Z</time>
      </trkpt>
      <trkpt lat="45.11166" lon="5.72895">
        <ele>371.39999389648</ele>
        <time>2011-04-22T14:09:35.000Z</time>
      </trkpt>
      <trkpt lat="45.11159" lon="5.72897">
        <ele>371.39999389648</ele>
        <time>2011-04-22T14:09:38.000Z</time>
      </trkpt>
      <trkpt lat="45.11154" lon="5.72899">
        <ele>371.20001220703</ele>
        <time>2011-04-22T14:09:40.000Z</time>
      </trkpt>
      <trkpt lat="45.11141" lon="5.72903">
        <ele>371.20001220703</ele>
        <time>2011-04-22T14:09:45.000Z</time>
      </trkpt>
      <trkpt lat="45.11138" lon="5.72904">
        <ele>371.20001220703</ele>
        <time>2011-04-22T14:09:46.000Z</time>
      </trkpt>
      <trkpt lat="45.11126" lon="5.72916">
        <ele>371.39999389648</ele>
        <time>2011-04-22T14:09:52.000Z</time>
      </trkpt>
      <trkpt lat="45.11124" lon="5.72918">
        <ele>371.39999389648</ele>
        <time>2011-04-22T14:09:53.000Z</time>
      </trkpt>
      <trkpt lat="45.11114" lon="5.72927">
        <ele>371.60000610352</ele>
        <time>2011-04-22T14:09:58.000Z</time>
      </trkpt>
      <trkpt lat="45.11108" lon="5.72934">
        <ele>371.79998779297</ele>
        <time>2011-04-22T14:10:01.000Z</time>
      </trkpt>
      <trkpt lat="45.11103" lon="5.72941">
        <ele>372</ele>
        <time>2011-04-22T14:10:04.000Z</time>
      </trkpt>
      <trkpt lat="45.11095" lon="5.72951">
        <ele>372.39999389648</ele>
        <time>2011-04-22T14:10:08.000Z</time>
      </trkpt>
      <trkpt lat="45.11088" lon="5.72958">
        <ele>372.39999389648</ele>
        <time>2011-04-22T14:10:11.000Z</time>
      </trkpt>
      <trkpt lat="45.1108" lon="5.72966">
        <ele>372.60000610352</ele>
        <time>2011-04-22T14:10:15.000Z</time>
      </trkpt>
      <trkpt lat="45.11076" lon="5.7297">
        <ele>372.60000610352</ele>
        <time>2011-04-22T14:10:17.000Z</time>
      </trkpt>
      <trkpt lat="45.11065" lon="5.7298">
        <ele>372.79998779297</ele>
        <time>2011-04-22T14:10:22.000Z</time>
      </trkpt>
      <trkpt lat="45.11064" lon="5.72981">
        <ele>372.79998779297</ele>
        <time>2011-04-22T14:10:23.000Z</time>
      </trkpt>
      <trkpt lat="45.11054" lon="5.7299">
        <ele>372.79998779297</ele>
        <time>2011-04-22T14:10:28.000Z</time>
      </trkpt>
      <trkpt lat="45.11047" lon="5.72993">
        <ele>372.79998779297</ele>
        <time>2011-04-22T14:10:31.000Z</time>
      </trkpt>
      <trkpt lat="45.11038" lon="5.73">
        <ele>372.79998779297</ele>
        <time>2011-04-22T14:10:35.000Z</time>
      </trkpt>
      <trkpt lat="45.11029" lon="5.73007">
        <ele>372.79998779297</ele>
        <time>2011-04-22T14:10:39.000Z</time>
      </trkpt>
      <trkpt lat="45.11025" lon="5.7301">
        <ele>372.79998779297</ele>
        <time>2011-04-22T14:10:41.000Z</time>
      </trkpt>
      <trkpt lat="45.11012" lon="5.73021">
        <ele>373</ele>
        <time>2011-04-22T14:10:47.000Z</time>
      </trkpt>
      <trkpt lat="45.10995" lon="5.73032">
        <ele>373.20001220703</ele>
        <time>2011-04-22T14:10:54.000Z</time>
      </trkpt>
      <trkpt lat="45.10982" lon="5.73043">
        <ele>374.20001220703</ele>
        <time>2011-04-22T14:11:00.000Z</time>
      </trkpt>
      <trkpt lat="45.10979" lon="5.73045">
        <ele>374.39999389648</ele>
        <time>2011-04-22T14:11:01.000Z</time>
      </trkpt>
      <trkpt lat="45.1097" lon="5.73051">
        <ele>375.20001220703</ele>
        <time>2011-04-22T14:11:05.000Z</time>
      </trkpt>
      <trkpt lat="45.10962" lon="5.73055">
        <ele>375.60000610352</ele>
        <time>2011-04-22T14:11:08.000Z</time>
      </trkpt>
      <trkpt lat="45.10954" lon="5.73062">
        <ele>376.39999389648</ele>
        <time>2011-04-22T14:11:12.000Z</time>
      </trkpt>
      <trkpt lat="45.10945" lon="5.73068">
        <ele>377.20001220703</ele>
        <time>2011-04-22T14:11:16.000Z</time>
      </trkpt>
      <trkpt lat="45.10934" lon="5.73076">
        <ele>378.39999389648</ele>
        <time>2011-04-22T14:11:21.000Z</time>
      </trkpt>
      <trkpt lat="45.10926" lon="5.73081">
        <ele>379.20001220703</ele>
        <time>2011-04-22T14:11:24.000Z</time>
      </trkpt>
      <trkpt lat="45.10924" lon="5.73082">
        <ele>379.39999389648</ele>
        <time>2011-04-22T14:11:25.000Z</time>
      </trkpt>
      <trkpt lat="45.1091" lon="5.73085">
        <ele>380.20001220703</ele>
        <time>2011-04-22T14:11:31.000Z</time>
      </trkpt>
      <trkpt lat="45.10907" lon="5.73086">
        <ele>380.20001220703</ele>
        <time>2011-04-22T14:11:32.000Z</time>
      </trkpt>
      <trkpt lat="45.109" lon="5.73088">
        <ele>380.60000610352</ele>
        <time>2011-04-22T14:11:35.000Z</time>
      </trkpt>
      <trkpt lat="45.10888" lon="5.73084">
        <ele>381</ele>
        <time>2011-04-22T14:11:40.000Z</time>
      </trkpt>
      <trkpt lat="45.10875" lon="5.73075">
        <ele>380.79998779297</ele>
        <time>2011-04-22T14:11:46.000Z</time>
      </trkpt>
      <trkpt lat="45.10871" lon="5.73073">
        <ele>380.79998779297</ele>
        <time>2011-04-22T14:11:48.000Z</time>
      </trkpt>
      <trkpt lat="45.10862" lon="5.73069">
        <ele>380.79998779297</ele>
        <time>2011-04-22T14:11:52.000Z</time>
      </trkpt>
      <trkpt lat="45.10854" lon="5.73063">
        <ele>380.60000610352</ele>
        <time>2011-04-22T14:11:56.000Z</time>
      </trkpt>
      <trkpt lat="45.10851" lon="5.73062">
        <ele>380.39999389648</ele>
        <time>2011-04-22T14:11:57.000Z</time>
      </trkpt>
      <trkpt lat="45.10836" lon="5.73052">
        <ele>380.20001220703</ele>
        <time>2011-04-22T14:12:03.000Z</time>
      </trkpt>
      <trkpt lat="45.10822" lon="5.73041">
        <ele>379.79998779297</ele>
        <time>2011-04-22T14:12:09.000Z</time>
      </trkpt>
      <trkpt lat="45.1082" lon="5.7304">
        <ele>379.79998779297</ele>
        <time>2011-04-22T14:12:10.000Z</time>
      </trkpt>
      <trkpt lat="45.10809" lon="5.73028">
        <ele>379.20001220703</ele>
        <time>2011-04-22T14:12:15.000Z</time>
      </trkpt>
      <trkpt lat="45.10805" lon="5.73023">
        <ele>378.79998779297</ele>
        <time>2011-04-22T14:12:17.000Z</time>
      </trkpt>
      <trkpt lat="45.10799" lon="5.73016">
        <ele>378.39999389648</ele>
        <time>2011-04-22T14:12:20.000Z</time>
      </trkpt>
      <trkpt lat="45.1079" lon="5.73008">
        <ele>378.20001220703</ele>
        <time>2011-04-22T14:12:24.000Z</time>
      </trkpt>
      <trkpt lat="45.10788" lon="5.73007">
        <ele>378.20001220703</ele>
        <time>2011-04-22T14:12:25.000Z</time>
      </trkpt>
      <trkpt lat="45.10772" lon="5.73006">
        <ele>378.60000610352</ele>
        <time>2011-04-22T14:12:31.000Z</time>
      </trkpt>
      <trkpt lat="45.1077" lon="5.73006">
        <ele>378.60000610352</ele>
        <time>2011-04-22T14:12:32.000Z</time>
      </trkpt>
      <trkpt lat="45.10764" lon="5.73008">
        <ele>379.20001220703</ele>
        <time>2011-04-22T14:12:35.000Z</time>
      </trkpt>
      <trkpt lat="45.10752" lon="5.7301">
        <ele>379.60000610352</ele>
        <time>2011-04-22T14:12:40.000Z</time>
      </trkpt>
      <trkpt lat="45.1074" lon="5.73012">
        <ele>380.20001220703</ele>
        <time>2011-04-22T14:12:45.000Z</time>
      </trkpt>
      <trkpt lat="45.10733" lon="5.73014">
        <ele>380.60000610352</ele>
        <time>2011-04-22T14:12:48.000Z</time>
      </trkpt>
      <trkpt lat="45.10728" lon="5.73016">
        <ele>381</ele>
        <time>2011-04-22T14:12:50.000Z</time>
      </trkpt>
      <trkpt lat="45.10715" lon="5.73016">
        <ele>381.39999389648</ele>
        <time>2011-04-22T14:12:55.000Z</time>
      </trkpt>
      <trkpt lat="45.10701" lon="5.73012">
        <ele>381.39999389648</ele>
        <time>2011-04-22T14:13:01.000Z</time>
      </trkpt>
      <trkpt lat="45.10695" lon="5.73011">
        <ele>381.60000610352</ele>
        <time>2011-04-22T14:13:03.000Z</time>
      </trkpt>
      <trkpt lat="45.10688" lon="5.73012">
        <ele>382</ele>
        <time>2011-04-22T14:13:06.000Z</time>
      </trkpt>
      <trkpt lat="45.10676" lon="5.73013">
        <ele>382.39999389648</ele>
        <time>2011-04-22T14:13:11.000Z</time>
      </trkpt>
      <trkpt lat="45.10664" lon="5.73019">
        <ele>383</ele>
        <time>2011-04-22T14:13:16.000Z</time>
      </trkpt>
      <trkpt lat="45.1066" lon="5.7302">
        <ele>383.20001220703</ele>
        <time>2011-04-22T14:13:18.000Z</time>
      </trkpt>
      <trkpt lat="45.10659" lon="5.73017">
        <ele>383</ele>
        <time>2011-04-22T14:13:20.000Z</time>
      </trkpt>
      <trkpt lat="45.1066" lon="5.73017">
        <ele>383</ele>
        <time>2011-04-22T14:13:22.000Z</time>
      </trkpt>
      <trkpt lat="45.10663" lon="5.73016">
        <ele>382.79998779297</ele>
        <time>2011-04-22T14:13:25.000Z</time>
      </trkpt>
      <trkpt lat="45.1067" lon="5.73016">
        <ele>382.79998779297</ele>
        <time>2011-04-22T14:13:30.000Z</time>
      </trkpt>
      <trkpt lat="45.10675" lon="5.73012">
        <ele>382.39999389648</ele>
        <time>2011-04-22T14:13:35.000Z</time>
      </trkpt>
      <trkpt lat="45.10676" lon="5.7301">
        <ele>382.20001220703</ele>
        <time>2011-04-22T14:13:36.000Z</time>
      </trkpt>
      <trkpt lat="45.10677" lon="5.7301">
        <ele>382.20001220703</ele>
        <time>2011-04-22T14:13:42.000Z</time>
      </trkpt>
      <trkpt lat="45.10673" lon="5.73009">
        <ele>382.20001220703</ele>
        <time>2011-04-22T14:14:46.000Z</time>
      </trkpt>
      <trkpt lat="45.10672" lon="5.73009">
        <ele>382.20001220703</ele>
        <time>2011-04-22T14:14:58.000Z</time>
      </trkpt>
      <trkpt lat="45.10672" lon="5.73009">
        <ele>382.20001220703</ele>
        <time>2011-04-22T14:15:02.000Z</time>
      </trkpt>
      <trkpt lat="45.10672" lon="5.7301">
        <ele>382.39999389648</ele>
        <time>2011-04-22T14:15:09.000Z</time>
      </trkpt>
      <trkpt lat="45.10671" lon="5.7301">
        <ele>382.39999389648</ele>
        <time>2011-04-22T14:15:48.000Z</time>
      </trkpt>
      <trkpt lat="45.10669" lon="5.73014">
        <ele>382.60000610352</ele>
        <time>2011-04-22T14:15:52.000Z</time>
      </trkpt>
      <trkpt lat="45.10667" lon="5.73016">
        <ele>382.79998779297</ele>
        <time>2011-04-22T14:15:54.000Z</time>
      </trkpt>
      <trkpt lat="45.10656" lon="5.73022">
        <ele>383.20001220703</ele>
        <time>2011-04-22T14:16:05.000Z</time>
      </trkpt>
      <trkpt lat="45.10652" lon="5.73027">
        <ele>383.60000610352</ele>
        <time>2011-04-22T14:16:09.000Z</time>
      </trkpt>
      <trkpt lat="45.10648" lon="5.73031">
        <ele>384</ele>
        <time>2011-04-22T14:16:12.000Z</time>
      </trkpt>
      <trkpt lat="45.1064" lon="5.73039">
        <ele>384.60000610352</ele>
        <time>2011-04-22T14:16:17.000Z</time>
      </trkpt>
      <trkpt lat="45.10636" lon="5.73043">
        <ele>384.79998779297</ele>
        <time>2011-04-22T14:16:19.000Z</time>
      </trkpt>
      <trkpt lat="45.10631" lon="5.73048">
        <ele>385.39999389648</ele>
        <time>2011-04-22T14:16:23.000Z</time>
      </trkpt>
      <trkpt lat="45.1063" lon="5.73049">
        <ele>385.39999389648</ele>
        <time>2011-04-22T14:16:25.000Z</time>
      </trkpt>
      <trkpt lat="45.10626" lon="5.73053">
        <ele>385.79998779297</ele>
        <time>2011-04-22T14:16:27.000Z</time>
      </trkpt>
      <trkpt lat="45.10621" lon="5.73053">
        <ele>385.79998779297</ele>
        <time>2011-04-22T14:16:30.000Z</time>
      </trkpt>
      <trkpt lat="45.1062" lon="5.73053">
        <ele>385.79998779297</ele>
        <time>2011-04-22T14:16:31.000Z</time>
      </trkpt>
      <trkpt lat="45.10618" lon="5.73053">
        <ele>385.79998779297</ele>
        <time>2011-04-22T14:16:32.000Z</time>
      </trkpt>
      <trkpt lat="45.10606" lon="5.7306">
        <ele>386.60000610352</ele>
        <time>2011-04-22T14:16:36.000Z</time>
      </trkpt>
      <trkpt lat="45.106" lon="5.73061">
        <ele>386.79998779297</ele>
        <time>2011-04-22T14:16:38.000Z</time>
      </trkpt>
      <trkpt lat="45.1059" lon="5.73065">
        <ele>387.20001220703</ele>
        <time>2011-04-22T14:16:41.000Z</time>
      </trkpt>
      <trkpt lat="45.10578" lon="5.73067">
        <ele>387.20001220703</ele>
        <time>2011-04-22T14:16:45.000Z</time>
      </trkpt>
      <trkpt lat="45.10562" lon="5.73068">
        <ele>386.79998779297</ele>
        <time>2011-04-22T14:16:50.000Z</time>
      </trkpt>
      <trkpt lat="45.10559" lon="5.73068">
        <ele>386.60000610352</ele>
        <time>2011-04-22T14:16:51.000Z</time>
      </trkpt>
      <trkpt lat="45.10543" lon="5.73066">
        <ele>385.79998779297</ele>
        <time>2011-04-22T14:16:56.000Z</time>
      </trkpt>
      <trkpt lat="45.10524" lon="5.73065">
        <ele>385</ele>
        <time>2011-04-22T14:17:02.000Z</time>
      </trkpt>
      <trkpt lat="45.10504" lon="5.73066">
        <ele>384.39999389648</ele>
        <time>2011-04-22T14:17:08.000Z</time>
      </trkpt>
      <trkpt lat="45.10487" lon="5.73067">
        <ele>383.60000610352</ele>
        <time>2011-04-22T14:17:13.000Z</time>
      </trkpt>
      <trkpt lat="45.10484" lon="5.73067">
        <ele>383.39999389648</ele>
        <time>2011-04-22T14:17:14.000Z</time>
      </trkpt>
      <trkpt lat="45.10469" lon="5.73073">
        <ele>383.39999389648</ele>
        <time>2011-04-22T14:17:19.000Z</time>
      </trkpt>
      <trkpt lat="45.10466" lon="5.73072">
        <ele>383.20001220703</ele>
        <time>2011-04-22T14:17:20.000Z</time>
      </trkpt>
      <trkpt lat="45.10453" lon="5.73072">
        <ele>382.39999389648</ele>
        <time>2011-04-22T14:17:25.000Z</time>
      </trkpt>
      <trkpt lat="45.10447" lon="5.73073">
        <ele>382.39999389648</ele>
        <time>2011-04-22T14:17:26.000Z</time>
      </trkpt>
      <trkpt lat="45.10438" lon="5.73075">
        <ele>382.20001220703</ele>
        <time>2011-04-22T14:17:29.000Z</time>
      </trkpt>
      <trkpt lat="45.10427" lon="5.73076">
        <ele>382</ele>
        <time>2011-04-22T14:17:32.000Z</time>
      </trkpt>
      <trkpt lat="45.1042" lon="5.73078">
        <ele>382</ele>
        <time>2011-04-22T14:17:34.000Z</time>
      </trkpt>
      <trkpt lat="45.10408" lon="5.7308">
        <ele>382.60000610352</ele>
        <time>2011-04-22T14:17:38.000Z</time>
      </trkpt>
      <trkpt lat="45.10402" lon="5.73079">
        <ele>382.60000610352</ele>
        <time>2011-04-22T14:17:40.000Z</time>
      </trkpt>
      <trkpt lat="45.10388" lon="5.73075">
        <ele>382.39999389648</ele>
        <time>2011-04-22T14:17:45.000Z</time>
      </trkpt>
      <trkpt lat="45.10375" lon="5.7307">
        <ele>382</ele>
        <time>2011-04-22T14:17:50.000Z</time>
      </trkpt>
      <trkpt lat="45.10369" lon="5.73067">
        <ele>382</ele>
        <time>2011-04-22T14:17:53.000Z</time>
      </trkpt>
      <trkpt lat="45.10362" lon="5.73064">
        <ele>381.79998779297</ele>
        <time>2011-04-22T14:17:56.000Z</time>
      </trkpt>
      <trkpt lat="45.10356" lon="5.7306">
        <ele>381.60000610352</ele>
        <time>2011-04-22T14:17:58.000Z</time>
      </trkpt>
      <trkpt lat="45.1035" lon="5.73058">
        <ele>381.39999389648</ele>
        <time>2011-04-22T14:18:00.000Z</time>
      </trkpt>
      <trkpt lat="45.10334" lon="5.73048">
        <ele>380.79998779297</ele>
        <time>2011-04-22T14:18:06.000Z</time>
      </trkpt>
      <trkpt lat="45.10331" lon="5.73046">
        <ele>380.79998779297</ele>
        <time>2011-04-22T14:18:07.000Z</time>
      </trkpt>
      <trkpt lat="45.10321" lon="5.73043">
        <ele>381</ele>
        <time>2011-04-22T14:18:12.000Z</time>
      </trkpt>
      <trkpt lat="45.1031" lon="5.73042">
        <ele>381.79998779297</ele>
        <time>2011-04-22T14:18:15.000Z</time>
      </trkpt>
      <trkpt lat="45.10305" lon="5.73039">
        <ele>381.79998779297</ele>
        <time>2011-04-22T14:18:17.000Z</time>
      </trkpt>
      <trkpt lat="45.10302" lon="5.73039">
        <ele>382</ele>
        <time>2011-04-22T14:18:19.000Z</time>
      </trkpt>
      <trkpt lat="45.10297" lon="5.73037">
        <ele>382.20001220703</ele>
        <time>2011-04-22T14:18:21.000Z</time>
      </trkpt>
      <trkpt lat="45.10292" lon="5.73037">
        <ele>382.39999389648</ele>
        <time>2011-04-22T14:18:23.000Z</time>
      </trkpt>
      <trkpt lat="45.10285" lon="5.73037">
        <ele>383.20001220703</ele>
        <time>2011-04-22T14:18:26.000Z</time>
      </trkpt>
      <trkpt lat="45.10271" lon="5.73032">
        <ele>383.60000610352</ele>
        <time>2011-04-22T14:18:31.000Z</time>
      </trkpt>
      <trkpt lat="45.10256" lon="5.7303">
        <ele>384.60000610352</ele>
        <time>2011-04-22T14:18:37.000Z</time>
      </trkpt>
      <trkpt lat="45.1025" lon="5.73028">
        <ele>385</ele>
        <time>2011-04-22T14:18:41.000Z</time>
      </trkpt>
      <trkpt lat="45.10245" lon="5.73027">
        <ele>385</ele>
        <time>2011-04-22T14:18:45.000Z</time>
      </trkpt>
      <trkpt lat="45.10238" lon="5.73026">
        <ele>384.79998779297</ele>
        <time>2011-04-22T14:18:50.000Z</time>
      </trkpt>
      <trkpt lat="45.10235" lon="5.73025">
        <ele>384.79998779297</ele>
        <time>2011-04-22T14:18:52.000Z</time>
      </trkpt>
      <trkpt lat="45.10226" lon="5.73024">
        <ele>385</ele>
        <time>2011-04-22T14:18:59.000Z</time>
      </trkpt>
      <trkpt lat="45.1022" lon="5.73025">
        <ele>385.20001220703</ele>
        <time>2011-04-22T14:19:03.000Z</time>
      </trkpt>
      <trkpt lat="45.10219" lon="5.73025">
        <ele>385.20001220703</ele>
        <time>2011-04-22T14:19:04.000Z</time>
      </trkpt>
      <trkpt lat="45.10215" lon="5.73024">
        <ele>385.20001220703</ele>
        <time>2011-04-22T14:19:07.000Z</time>
      </trkpt>
      <trkpt lat="45.10206" lon="5.73024">
        <ele>385.20001220703</ele>
        <time>2011-04-22T14:19:13.000Z</time>
      </trkpt>
      <trkpt lat="45.10202" lon="5.73025">
        <ele>385.39999389648</ele>
        <time>2011-04-22T14:19:15.000Z</time>
      </trkpt>
      <trkpt lat="45.10197" lon="5.73024">
        <ele>385.39999389648</ele>
        <time>2011-04-22T14:19:17.000Z</time>
      </trkpt>
      <trkpt lat="45.10183" lon="5.73026">
        <ele>385.79998779297</ele>
        <time>2011-04-22T14:19:22.000Z</time>
      </trkpt>
      <trkpt lat="45.1018" lon="5.73026">
        <ele>386</ele>
        <time>2011-04-22T14:19:23.000Z</time>
      </trkpt>
      <trkpt lat="45.10164" lon="5.73024">
        <ele>386</ele>
        <time>2011-04-22T14:19:28.000Z</time>
      </trkpt>
      <trkpt lat="45.10151" lon="5.73022">
        <ele>386.20001220703</ele>
        <time>2011-04-22T14:19:33.000Z</time>
      </trkpt>
      <trkpt lat="45.10145" lon="5.73021">
        <ele>386.20001220703</ele>
        <time>2011-04-22T14:19:35.000Z</time>
      </trkpt>
      <trkpt lat="45.10137" lon="5.73019">
        <ele>386</ele>
        <time>2011-04-22T14:19:38.000Z</time>
      </trkpt>
      <trkpt lat="45.10125" lon="5.73018">
        <ele>386</ele>
        <time>2011-04-22T14:19:42.000Z</time>
      </trkpt>
      <trkpt lat="45.10122" lon="5.73017">
        <ele>386.20001220703</ele>
        <time>2011-04-22T14:19:43.000Z</time>
      </trkpt>
      <trkpt lat="45.10106" lon="5.73018">
        <ele>387</ele>
        <time>2011-04-22T14:19:48.000Z</time>
      </trkpt>
      <trkpt lat="45.10089" lon="5.73017">
        <ele>387.20001220703</ele>
        <time>2011-04-22T14:19:54.000Z</time>
      </trkpt>
      <trkpt lat="45.10087" lon="5.73016">
        <ele>387</ele>
        <time>2011-04-22T14:19:55.000Z</time>
      </trkpt>
      <trkpt lat="45.10076" lon="5.73014">
        <ele>387.79998779297</ele>
        <time>2011-04-22T14:19:59.000Z</time>
      </trkpt>
      <trkpt lat="45.10068" lon="5.73014">
        <ele>389</ele>
        <time>2011-04-22T14:20:02.000Z</time>
      </trkpt>
      <trkpt lat="45.10066" lon="5.73013">
        <ele>389.39999389648</ele>
        <time>2011-04-22T14:20:03.000Z</time>
      </trkpt>
      <trkpt lat="45.10055" lon="5.73012">
        <ele>391</ele>
        <time>2011-04-22T14:20:07.000Z</time>
      </trkpt>
      <trkpt lat="45.10049" lon="5.73012">
        <ele>391.79998779297</ele>
        <time>2011-04-22T14:20:09.000Z</time>
      </trkpt>
      <trkpt lat="45.10042" lon="5.7301">
        <ele>392.60000610352</ele>
        <time>2011-04-22T14:20:12.000Z</time>
      </trkpt>
      <trkpt lat="45.10032" lon="5.73007">
        <ele>393.79998779297</ele>
        <time>2011-04-22T14:20:16.000Z</time>
      </trkpt>
      <trkpt lat="45.1003" lon="5.73007">
        <ele>394.20001220703</ele>
        <time>2011-04-22T14:20:17.000Z</time>
      </trkpt>
      <trkpt lat="45.10028" lon="5.73007">
        <ele>394.20001220703</ele>
        <time>2011-04-22T14:20:18.000Z</time>
      </trkpt>
      <trkpt lat="45.10024" lon="5.73005">
        <ele>394.60000610352</ele>
        <time>2011-04-22T14:20:20.000Z</time>
      </trkpt>
      <trkpt lat="45.10013" lon="5.73004">
        <ele>396.39999389648</ele>
        <time>2011-04-22T14:20:25.000Z</time>
      </trkpt>
      <trkpt lat="45.10011" lon="5.73004">
        <ele>396.79998779297</ele>
        <time>2011-04-22T14:20:26.000Z</time>
      </trkpt>
      <trkpt lat="45.09998" lon="5.73004">
        <ele>399</ele>
        <time>2011-04-22T14:20:31.000Z</time>
      </trkpt>
      <trkpt lat="45.09993" lon="5.73003">
        <ele>399</ele>
        <time>2011-04-22T14:20:34.000Z</time>
      </trkpt>
      <trkpt lat="45.09988" lon="5.73003">
        <ele>399.20001220703</ele>
        <time>2011-04-22T14:20:36.000Z</time>
      </trkpt>
      <trkpt lat="45.09975" lon="5.73004">
        <ele>400</ele>
        <time>2011-04-22T14:20:41.000Z</time>
      </trkpt>
      <trkpt lat="45.09973" lon="5.73004">
        <ele>400.20001220703</ele>
        <time>2011-04-22T14:20:42.000Z</time>
      </trkpt>
      <trkpt lat="45.09964" lon="5.73004">
        <ele>400.60000610352</ele>
        <time>2011-04-22T14:20:46.000Z</time>
      </trkpt>
      <trkpt lat="45.09954" lon="5.73001">
        <ele>400.39999389648</ele>
        <time>2011-04-22T14:20:50.000Z</time>
      </trkpt>
      <trkpt lat="45.09944" lon="5.72999">
        <ele>400.20001220703</ele>
        <time>2011-04-22T14:20:54.000Z</time>
      </trkpt>
      <trkpt lat="45.09935" lon="5.72998">
        <ele>400.60000610352</ele>
        <time>2011-04-22T14:20:58.000Z</time>
      </trkpt>
      <trkpt lat="45.09919" lon="5.72994">
        <ele>400.20001220703</ele>
        <time>2011-04-22T14:21:04.000Z</time>
      </trkpt>
      <trkpt lat="45.09916" lon="5.72994">
        <ele>400.39999389648</ele>
        <time>2011-04-22T14:21:05.000Z</time>
      </trkpt>
      <trkpt lat="45.09907" lon="5.72995">
        <ele>401.39999389648</ele>
        <time>2011-04-22T14:21:08.000Z</time>
      </trkpt>
      <trkpt lat="45.09897" lon="5.72995">
        <ele>402.20001220703</ele>
        <time>2011-04-22T14:21:12.000Z</time>
      </trkpt>
      <trkpt lat="45.09894" lon="5.72995">
        <ele>402.39999389648</ele>
        <time>2011-04-22T14:21:13.000Z</time>
      </trkpt>
      <trkpt lat="45.09883" lon="5.72994">
        <ele>403.20001220703</ele>
        <time>2011-04-22T14:21:17.000Z</time>
      </trkpt>
      <trkpt lat="45.09878" lon="5.72995">
        <ele>403.60000610352</ele>
        <time>2011-04-22T14:21:19.000Z</time>
      </trkpt>
      <trkpt lat="45.09868" lon="5.72995">
        <ele>404.39999389648</ele>
        <time>2011-04-22T14:21:23.000Z</time>
      </trkpt>
      <trkpt lat="45.0986" lon="5.72994">
        <ele>405</ele>
        <time>2011-04-22T14:21:26.000Z</time>
      </trkpt>
      <trkpt lat="45.09854" lon="5.72993">
        <ele>405.20001220703</ele>
        <time>2011-04-22T14:21:29.000Z</time>
      </trkpt>
      <trkpt lat="45.09847" lon="5.72992">
        <ele>405.39999389648</ele>
        <time>2011-04-22T14:21:32.000Z</time>
      </trkpt>
      <trkpt lat="45.09841" lon="5.72991">
        <ele>405.79998779297</ele>
        <time>2011-04-22T14:21:34.000Z</time>
      </trkpt>
      <trkpt lat="45.09825" lon="5.72986">
        <ele>405.79998779297</ele>
        <time>2011-04-22T14:21:40.000Z</time>
      </trkpt>
      <trkpt lat="45.09822" lon="5.72985">
        <ele>405.79998779297</ele>
        <time>2011-04-22T14:21:41.000Z</time>
      </trkpt>
      <trkpt lat="45.09815" lon="5.72981">
        <ele>405.60000610352</ele>
        <time>2011-04-22T14:21:44.000Z</time>
      </trkpt>
      <trkpt lat="45.09803" lon="5.72978">
        <ele>405.79998779297</ele>
        <time>2011-04-22T14:21:49.000Z</time>
      </trkpt>
      <trkpt lat="45.09801" lon="5.72977">
        <ele>405.79998779297</ele>
        <time>2011-04-22T14:21:50.000Z</time>
      </trkpt>
      <trkpt lat="45.09788" lon="5.72976">
        <ele>406.39999389648</ele>
        <time>2011-04-22T14:21:55.000Z</time>
      </trkpt>
      <trkpt lat="45.09783" lon="5.72976">
        <ele>406.60000610352</ele>
        <time>2011-04-22T14:21:57.000Z</time>
      </trkpt>
      <trkpt lat="45.09778" lon="5.72974">
        <ele>406.79998779297</ele>
        <time>2011-04-22T14:21:59.000Z</time>
      </trkpt>
      <trkpt lat="45.09767" lon="5.72975">
        <ele>407.39999389648</ele>
        <time>2011-04-22T14:22:04.000Z</time>
      </trkpt>
      <trkpt lat="45.09765" lon="5.72975">
        <ele>407.60000610352</ele>
        <time>2011-04-22T14:22:05.000Z</time>
      </trkpt>
      <trkpt lat="45.09757" lon="5.72978">
        <ele>408.20001220703</ele>
        <time>2011-04-22T14:22:09.000Z</time>
      </trkpt>
      <trkpt lat="45.09754" lon="5.72979">
        <ele>408.39999389648</ele>
        <time>2011-04-22T14:22:11.000Z</time>
      </trkpt>
      <trkpt lat="45.09751" lon="5.72982">
        <ele>408.79998779297</ele>
        <time>2011-04-22T14:22:14.000Z</time>
      </trkpt>
      <trkpt lat="45.09749" lon="5.72983">
        <ele>408.39999389648</ele>
        <time>2011-04-22T14:22:16.000Z</time>
      </trkpt>
      <trkpt lat="45.09748" lon="5.72983">
        <ele>408</ele>
        <time>2011-04-22T14:22:17.000Z</time>
      </trkpt>
      <trkpt lat="45.09746" lon="5.72982">
        <ele>407.60000610352</ele>
        <time>2011-04-22T14:22:18.000Z</time>
      </trkpt>
      <trkpt lat="45.09742" lon="5.72983">
        <ele>406.39999389648</ele>
        <time>2011-04-22T14:22:20.000Z</time>
      </trkpt>
      <trkpt lat="45.09732" lon="5.72987">
        <ele>403.39999389648</ele>
        <time>2011-04-22T14:22:24.000Z</time>
      </trkpt>
      <trkpt lat="45.0973" lon="5.72988">
        <ele>402.60000610352</ele>
        <time>2011-04-22T14:22:25.000Z</time>
      </trkpt>
      <trkpt lat="45.09728" lon="5.7299">
        <ele>401.79998779297</ele>
        <time>2011-04-22T14:22:26.000Z</time>
      </trkpt>
      <trkpt lat="45.09727" lon="5.72992">
        <ele>401.20001220703</ele>
        <time>2011-04-22T14:22:27.000Z</time>
      </trkpt>
      <trkpt lat="45.09726" lon="5.72999">
        <ele>400.60000610352</ele>
        <time>2011-04-22T14:22:29.000Z</time>
      </trkpt>
      <trkpt lat="45.09727" lon="5.73006">
        <ele>399.60000610352</ele>
        <time>2011-04-22T14:22:31.000Z</time>
      </trkpt>
      <trkpt lat="45.09729" lon="5.73014">
        <ele>398</ele>
        <time>2011-04-22T14:22:33.000Z</time>
      </trkpt>
      <trkpt lat="45.09731" lon="5.73022">
        <ele>397</ele>
        <time>2011-04-22T14:22:35.000Z</time>
      </trkpt>
      <trkpt lat="45.09738" lon="5.73038">
        <ele>396.39999389648</ele>
        <time>2011-04-22T14:22:39.000Z</time>
      </trkpt>
      <trkpt lat="45.0974" lon="5.73041">
        <ele>396.39999389648</ele>
        <time>2011-04-22T14:22:40.000Z</time>
      </trkpt>
      <trkpt lat="45.09752" lon="5.73058">
        <ele>398</ele>
        <time>2011-04-22T14:22:45.000Z</time>
      </trkpt>
      <trkpt lat="45.09764" lon="5.73071">
        <ele>398.20001220703</ele>
        <time>2011-04-22T14:22:50.000Z</time>
      </trkpt>
      <trkpt lat="45.09767" lon="5.73078">
        <ele>398</ele>
        <time>2011-04-22T14:22:52.000Z</time>
      </trkpt>
      <trkpt lat="45.09769" lon="5.73084">
        <ele>397.79998779297</ele>
        <time>2011-04-22T14:22:54.000Z</time>
      </trkpt>
      <trkpt lat="45.09771" lon="5.73087">
        <ele>397.20001220703</ele>
        <time>2011-04-22T14:22:55.000Z</time>
      </trkpt>
      <trkpt lat="45.09774" lon="5.73103">
        <ele>393</ele>
        <time>2011-04-22T14:23:00.000Z</time>
      </trkpt>
      <trkpt lat="45.09778" lon="5.73117">
        <ele>390</ele>
        <time>2011-04-22T14:23:04.000Z</time>
      </trkpt>
      <trkpt lat="45.0978" lon="5.73122">
        <ele>389</ele>
        <time>2011-04-22T14:23:05.000Z</time>
      </trkpt>
      <trkpt lat="45.09782" lon="5.73129">
        <ele>388.20001220703</ele>
        <time>2011-04-22T14:23:07.000Z</time>
      </trkpt>
      <trkpt lat="45.09784" lon="5.73136">
        <ele>386.79998779297</ele>
        <time>2011-04-22T14:23:09.000Z</time>
      </trkpt>
      <trkpt lat="45.09786" lon="5.73144">
        <ele>385.39999389648</ele>
        <time>2011-04-22T14:23:11.000Z</time>
      </trkpt>
      <trkpt lat="45.0979" lon="5.7315">
        <ele>385.20001220703</ele>
        <time>2011-04-22T14:23:13.000Z</time>
      </trkpt>
      <trkpt lat="45.09792" lon="5.73153">
        <ele>385.39999389648</ele>
        <time>2011-04-22T14:23:14.000Z</time>
      </trkpt>
      <trkpt lat="45.09799" lon="5.73165">
        <ele>385.39999389648</ele>
        <time>2011-04-22T14:23:18.000Z</time>
      </trkpt>
      <trkpt lat="45.09802" lon="5.73169">
        <ele>385.79998779297</ele>
        <time>2011-04-22T14:23:20.000Z</time>
      </trkpt>
      <trkpt lat="45.09806" lon="5.73173">
        <ele>386.39999389648</ele>
        <time>2011-04-22T14:23:22.000Z</time>
      </trkpt>
      <trkpt lat="45.0981" lon="5.73178">
        <ele>386.39999389648</ele>
        <time>2011-04-22T14:23:24.000Z</time>
      </trkpt>
      <trkpt lat="45.09813" lon="5.73191">
        <ele>383.39999389648</ele>
        <time>2011-04-22T14:23:27.000Z</time>
      </trkpt>
      <trkpt lat="45.09814" lon="5.73195">
        <ele>382.20001220703</ele>
        <time>2011-04-22T14:23:28.000Z</time>
      </trkpt>
      <trkpt lat="45.09817" lon="5.7321">
        <ele>378.60000610352</ele>
        <time>2011-04-22T14:23:32.000Z</time>
      </trkpt>
      <trkpt lat="45.09823" lon="5.73219">
        <ele>378.20001220703</ele>
        <time>2011-04-22T14:23:35.000Z</time>
      </trkpt>
      <trkpt lat="45.09827" lon="5.73224">
        <ele>378.20001220703</ele>
        <time>2011-04-22T14:23:37.000Z</time>
      </trkpt>
      <trkpt lat="45.09829" lon="5.73226">
        <ele>378.60000610352</ele>
        <time>2011-04-22T14:23:38.000Z</time>
      </trkpt>
      <trkpt lat="45.09833" lon="5.73231">
        <ele>378.39999389648</ele>
        <time>2011-04-22T14:23:40.000Z</time>
      </trkpt>
      <trkpt lat="45.09836" lon="5.73239">
        <ele>377.60000610352</ele>
        <time>2011-04-22T14:23:42.000Z</time>
      </trkpt>
      <trkpt lat="45.09841" lon="5.73251">
        <ele>376</ele>
        <time>2011-04-22T14:23:45.000Z</time>
      </trkpt>
      <trkpt lat="45.09841" lon="5.73254">
        <ele>375</ele>
        <time>2011-04-22T14:23:46.000Z</time>
      </trkpt>
      <trkpt lat="45.09842" lon="5.73265">
        <ele>373.60000610352</ele>
        <time>2011-04-22T14:23:49.000Z</time>
      </trkpt>
      <trkpt lat="45.09844" lon="5.73273">
        <ele>372.20001220703</ele>
        <time>2011-04-22T14:23:51.000Z</time>
      </trkpt>
      <trkpt lat="45.09848" lon="5.73291">
        <ele>370</ele>
        <time>2011-04-22T14:23:55.000Z</time>
      </trkpt>
      <trkpt lat="45.09851" lon="5.73298">
        <ele>369.60000610352</ele>
        <time>2011-04-22T14:23:57.000Z</time>
      </trkpt>
      <trkpt lat="45.09855" lon="5.73317">
        <ele>367.20001220703</ele>
        <time>2011-04-22T14:24:02.000Z</time>
      </trkpt>
      <trkpt lat="45.09857" lon="5.7332">
        <ele>367.20001220703</ele>
        <time>2011-04-22T14:24:03.000Z</time>
      </trkpt>
      <trkpt lat="45.09862" lon="5.73335">
        <ele>365.79998779297</ele>
        <time>2011-04-22T14:24:07.000Z</time>
      </trkpt>
      <trkpt lat="45.09863" lon="5.73339">
        <ele>365</ele>
        <time>2011-04-22T14:24:08.000Z</time>
      </trkpt>
      <trkpt lat="45.09863" lon="5.73342">
        <ele>364.39999389648</ele>
        <time>2011-04-22T14:24:09.000Z</time>
      </trkpt>
      <trkpt lat="45.09865" lon="5.7335">
        <ele>363.60000610352</ele>
        <time>2011-04-22T14:24:11.000Z</time>
      </trkpt>
      <trkpt lat="45.09873" lon="5.73367">
        <ele>362.79998779297</ele>
        <time>2011-04-22T14:24:16.000Z</time>
      </trkpt>
      <trkpt lat="45.09881" lon="5.73388">
        <ele>361</ele>
        <time>2011-04-22T14:24:21.000Z</time>
      </trkpt>
      <trkpt lat="45.09884" lon="5.73391">
        <ele>361.39999389648</ele>
        <time>2011-04-22T14:24:22.000Z</time>
      </trkpt>
      <trkpt lat="45.09891" lon="5.73403">
        <ele>361.20001220703</ele>
        <time>2011-04-22T14:24:26.000Z</time>
      </trkpt>
      <trkpt lat="45.09895" lon="5.73414">
        <ele>359.79998779297</ele>
        <time>2011-04-22T14:24:29.000Z</time>
      </trkpt>
      <trkpt lat="45.09898" lon="5.73421">
        <ele>359.60000610352</ele>
        <time>2011-04-22T14:24:31.000Z</time>
      </trkpt>
      <trkpt lat="45.09901" lon="5.73423">
        <ele>360</ele>
        <time>2011-04-22T14:24:32.000Z</time>
      </trkpt>
      <trkpt lat="45.09908" lon="5.73431">
        <ele>361</ele>
        <time>2011-04-22T14:24:35.000Z</time>
      </trkpt>
      <trkpt lat="45.0991" lon="5.73438">
        <ele>360.20001220703</ele>
        <time>2011-04-22T14:24:37.000Z</time>
      </trkpt>
      <trkpt lat="45.09914" lon="5.73454">
        <ele>358.20001220703</ele>
        <time>2011-04-22T14:24:41.000Z</time>
      </trkpt>
      <trkpt lat="45.09914" lon="5.73457">
        <ele>357.79998779297</ele>
        <time>2011-04-22T14:24:42.000Z</time>
      </trkpt>
      <trkpt lat="45.09917" lon="5.73475">
        <ele>354.60000610352</ele>
        <time>2011-04-22T14:24:47.000Z</time>
      </trkpt>
      <trkpt lat="45.09919" lon="5.73487">
        <ele>352.60000610352</ele>
        <time>2011-04-22T14:24:50.000Z</time>
      </trkpt>
      <trkpt lat="45.09921" lon="5.735">
        <ele>350.60000610352</ele>
        <time>2011-04-22T14:24:53.000Z</time>
      </trkpt>
      <trkpt lat="45.09923" lon="5.73513">
        <ele>348.60000610352</ele>
        <time>2011-04-22T14:24:56.000Z</time>
      </trkpt>
      <trkpt lat="45.09925" lon="5.73521">
        <ele>347.79998779297</ele>
        <time>2011-04-22T14:24:58.000Z</time>
      </trkpt>
      <trkpt lat="45.09924" lon="5.73541">
        <ele>343.39999389648</ele>
        <time>2011-04-22T14:25:02.000Z</time>
      </trkpt>
      <trkpt lat="45.09924" lon="5.73548">
        <ele>341.79998779297</ele>
        <time>2011-04-22T14:25:03.000Z</time>
      </trkpt>
      <trkpt lat="45.09927" lon="5.73567">
        <ele>339</ele>
        <time>2011-04-22T14:25:07.000Z</time>
      </trkpt>
      <trkpt lat="45.0993" lon="5.73573">
        <ele>338.79998779297</ele>
        <time>2011-04-22T14:25:09.000Z</time>
      </trkpt>
      <trkpt lat="45.09934" lon="5.73591">
        <ele>336.60000610352</ele>
        <time>2011-04-22T14:25:14.000Z</time>
      </trkpt>
      <trkpt lat="45.09938" lon="5.73605">
        <ele>334.79998779297</ele>
        <time>2011-04-22T14:25:19.000Z</time>
      </trkpt>
      <trkpt lat="45.09939" lon="5.73618">
        <ele>332</ele>
        <time>2011-04-22T14:25:22.000Z</time>
      </trkpt>
      <trkpt lat="45.09942" lon="5.73624">
        <ele>331.39999389648</ele>
        <time>2011-04-22T14:25:24.000Z</time>
      </trkpt>
      <trkpt lat="45.09944" lon="5.7364">
        <ele>328.20001220703</ele>
        <time>2011-04-22T14:25:29.000Z</time>
      </trkpt>
      <trkpt lat="45.09944" lon="5.73643">
        <ele>327.60000610352</ele>
        <time>2011-04-22T14:25:30.000Z</time>
      </trkpt>
      <trkpt lat="45.09946" lon="5.73653">
        <ele>325.79998779297</ele>
        <time>2011-04-22T14:25:33.000Z</time>
      </trkpt>
      <trkpt lat="45.09947" lon="5.73656">
        <ele>325</ele>
        <time>2011-04-22T14:25:34.000Z</time>
      </trkpt>
      <trkpt lat="45.09948" lon="5.73662">
        <ele>324</ele>
        <time>2011-04-22T14:25:36.000Z</time>
      </trkpt>
      <trkpt lat="45.0995" lon="5.7367">
        <ele>322.60000610352</ele>
        <time>2011-04-22T14:25:38.000Z</time>
      </trkpt>
      <trkpt lat="45.09953" lon="5.73684">
        <ele>320.20001220703</ele>
        <time>2011-04-22T14:25:43.000Z</time>
      </trkpt>
      <trkpt lat="45.09954" lon="5.73697">
        <ele>317.79998779297</ele>
        <time>2011-04-22T14:25:46.000Z</time>
      </trkpt>
      <trkpt lat="45.09954" lon="5.73707">
        <ele>315.39999389648</ele>
        <time>2011-04-22T14:25:48.000Z</time>
      </trkpt>
      <trkpt lat="45.09959" lon="5.73721">
        <ele>313.60000610352</ele>
        <time>2011-04-22T14:25:52.000Z</time>
      </trkpt>
      <trkpt lat="45.0996" lon="5.73724">
        <ele>313</ele>
        <time>2011-04-22T14:25:53.000Z</time>
      </trkpt>
      <trkpt lat="45.09967" lon="5.7374">
        <ele>310.39999389648</ele>
        <time>2011-04-22T14:25:58.000Z</time>
      </trkpt>
      <trkpt lat="45.09969" lon="5.73744">
        <ele>309.79998779297</ele>
        <time>2011-04-22T14:25:59.000Z</time>
      </trkpt>
      <trkpt lat="45.09972" lon="5.73754">
        <ele>308.20001220703</ele>
        <time>2011-04-22T14:26:02.000Z</time>
      </trkpt>
      <trkpt lat="45.09974" lon="5.73757">
        <ele>307.79998779297</ele>
        <time>2011-04-22T14:26:03.000Z</time>
      </trkpt>
      <trkpt lat="45.09979" lon="5.73765">
        <ele>307.20001220703</ele>
        <time>2011-04-22T14:26:06.000Z</time>
      </trkpt>
      <trkpt lat="45.09981" lon="5.73768">
        <ele>306.79998779297</ele>
        <time>2011-04-22T14:26:07.000Z</time>
      </trkpt>
      <trkpt lat="45.09991" lon="5.73784">
        <ele>305.60000610352</ele>
        <time>2011-04-22T14:26:12.000Z</time>
      </trkpt>
      <trkpt lat="45.09994" lon="5.73786">
        <ele>305.39999389648</ele>
        <time>2011-04-22T14:26:13.000Z</time>
      </trkpt>
      <trkpt lat="45.10001" lon="5.73794">
        <ele>305.20001220703</ele>
        <time>2011-04-22T14:26:16.000Z</time>
      </trkpt>
      <trkpt lat="45.10008" lon="5.73803">
        <ele>305.60000610352</ele>
        <time>2011-04-22T14:26:20.000Z</time>
      </trkpt>
      <trkpt lat="45.10011" lon="5.73804">
        <ele>306</ele>
        <time>2011-04-22T14:26:21.000Z</time>
      </trkpt>
      <trkpt lat="45.10014" lon="5.73808">
        <ele>306</ele>
        <time>2011-04-22T14:26:23.000Z</time>
      </trkpt>
      <trkpt lat="45.10016" lon="5.73813">
        <ele>305.79998779297</ele>
        <time>2011-04-22T14:26:25.000Z</time>
      </trkpt>
      <trkpt lat="45.10017" lon="5.73818">
        <ele>305</ele>
        <time>2011-04-22T14:26:27.000Z</time>
      </trkpt>
      <trkpt lat="45.1002" lon="5.73825">
        <ele>304.20001220703</ele>
        <time>2011-04-22T14:26:29.000Z</time>
      </trkpt>
      <trkpt lat="45.10021" lon="5.73834">
        <ele>303</ele>
        <time>2011-04-22T14:26:32.000Z</time>
      </trkpt>
      <trkpt lat="45.10027" lon="5.73842">
        <ele>303.79998779297</ele>
        <time>2011-04-22T14:26:37.000Z</time>
      </trkpt>
      <trkpt lat="45.10027" lon="5.73843">
        <ele>304</ele>
        <time>2011-04-22T14:26:38.000Z</time>
      </trkpt>
      <trkpt lat="45.10028" lon="5.73842">
        <ele>304.20001220703</ele>
        <time>2011-04-22T14:26:44.000Z</time>
      </trkpt>
      <trkpt lat="45.10029" lon="5.73842">
        <ele>304.39999389648</ele>
        <time>2011-04-22T14:26:47.000Z</time>
      </trkpt>
      <trkpt lat="45.10031" lon="5.73844">
        <ele>305</ele>
        <time>2011-04-22T14:26:49.000Z</time>
      </trkpt>
      <trkpt lat="45.10032" lon="5.73845">
        <ele>305</ele>
        <time>2011-04-22T14:26:50.000Z</time>
      </trkpt>
      <trkpt lat="45.10033" lon="5.73846">
        <ele>305.20001220703</ele>
        <time>2011-04-22T14:26:51.000Z</time>
      </trkpt>
      <trkpt lat="45.10042" lon="5.73852">
        <ele>307</ele>
        <time>2011-04-22T14:26:57.000Z</time>
      </trkpt>
      <trkpt lat="45.10048" lon="5.73856">
        <ele>308</ele>
        <time>2011-04-22T14:27:01.000Z</time>
      </trkpt>
      <trkpt lat="45.10049" lon="5.73857">
        <ele>308.39999389648</ele>
        <time>2011-04-22T14:27:02.000Z</time>
      </trkpt>
      <trkpt lat="45.10056" lon="5.73868">
        <ele>309.20001220703</ele>
        <time>2011-04-22T14:27:08.000Z</time>
      </trkpt>
      <trkpt lat="45.10061" lon="5.73875">
        <ele>309.79998779297</ele>
        <time>2011-04-22T14:27:11.000Z</time>
      </trkpt>
      <trkpt lat="45.10062" lon="5.73877">
        <ele>310</ele>
        <time>2011-04-22T14:27:12.000Z</time>
      </trkpt>
      <trkpt lat="45.10069" lon="5.73891">
        <ele>310.79998779297</ele>
        <time>2011-04-22T14:27:17.000Z</time>
      </trkpt>
      <trkpt lat="45.10071" lon="5.73893">
        <ele>311</ele>
        <time>2011-04-22T14:27:18.000Z</time>
      </trkpt>
      <trkpt lat="45.10073" lon="5.73894">
        <ele>311.20001220703</ele>
        <time>2011-04-22T14:27:19.000Z</time>
      </trkpt>
      <trkpt lat="45.10079" lon="5.73903">
        <ele>312</ele>
        <time>2011-04-22T14:27:23.000Z</time>
      </trkpt>
      <trkpt lat="45.10086" lon="5.73913">
        <ele>312.79998779297</ele>
        <time>2011-04-22T14:27:28.000Z</time>
      </trkpt>
      <trkpt lat="45.10087" lon="5.73915">
        <ele>312.79998779297</ele>
        <time>2011-04-22T14:27:29.000Z</time>
      </trkpt>
      <trkpt lat="45.10096" lon="5.73925">
        <ele>314</ele>
        <time>2011-04-22T14:27:34.000Z</time>
      </trkpt>
      <trkpt lat="45.10101" lon="5.73931">
        <ele>314.39999389648</ele>
        <time>2011-04-22T14:27:37.000Z</time>
      </trkpt>
      <trkpt lat="45.10105" lon="5.73934">
        <ele>315.20001220703</ele>
        <time>2011-04-22T14:27:39.000Z</time>
      </trkpt>
      <trkpt lat="45.10107" lon="5.73936">
        <ele>315.39999389648</ele>
        <time>2011-04-22T14:27:40.000Z</time>
      </trkpt>
      <trkpt lat="45.10111" lon="5.73943">
        <ele>315.60000610352</ele>
        <time>2011-04-22T14:27:43.000Z</time>
      </trkpt>
      <trkpt lat="45.10114" lon="5.73949">
        <ele>315.79998779297</ele>
        <time>2011-04-22T14:27:45.000Z</time>
      </trkpt>
      <trkpt lat="45.10115" lon="5.73954">
        <ele>315.79998779297</ele>
        <time>2011-04-22T14:27:47.000Z</time>
      </trkpt>
      <trkpt lat="45.10121" lon="5.73966">
        <ele>315.79998779297</ele>
        <time>2011-04-22T14:27:51.000Z</time>
      </trkpt>
      <trkpt lat="45.10123" lon="5.73972">
        <ele>315.79998779297</ele>
        <time>2011-04-22T14:27:53.000Z</time>
      </trkpt>
      <trkpt lat="45.10127" lon="5.73984">
        <ele>315.79998779297</ele>
        <time>2011-04-22T14:27:57.000Z</time>
      </trkpt>
      <trkpt lat="45.10128" lon="5.73988">
        <ele>315.60000610352</ele>
        <time>2011-04-22T14:27:59.000Z</time>
      </trkpt>
      <trkpt lat="45.10128" lon="5.73991">
        <ele>315.60000610352</ele>
        <time>2011-04-22T14:28:01.000Z</time>
      </trkpt>
      <trkpt lat="45.10128" lon="5.73994">
        <ele>315.39999389648</ele>
        <time>2011-04-22T14:28:03.000Z</time>
      </trkpt>
      <trkpt lat="45.10128" lon="5.73998">
        <ele>315</ele>
        <time>2011-04-22T14:28:07.000Z</time>
      </trkpt>
      <trkpt lat="45.10128" lon="5.74">
        <ele>314.79998779297</ele>
        <time>2011-04-22T14:28:08.000Z</time>
      </trkpt>
      <trkpt lat="45.10128" lon="5.74001">
        <ele>314.79998779297</ele>
        <time>2011-04-22T14:28:13.000Z</time>
      </trkpt>
      <trkpt lat="45.10127" lon="5.74005">
        <ele>314.79998779297</ele>
        <time>2011-04-22T14:28:35.000Z</time>
      </trkpt>
      <trkpt lat="45.10128" lon="5.74006">
        <ele>314.79998779297</ele>
        <time>2011-04-22T14:28:46.000Z</time>
      </trkpt>
      <trkpt lat="45.10131" lon="5.74013">
        <ele>315.20001220703</ele>
        <time>2011-04-22T14:28:58.000Z</time>
      </trkpt>
      <trkpt lat="45.10131" lon="5.74021">
        <ele>315.20001220703</ele>
        <time>2011-04-22T14:29:00.000Z</time>
      </trkpt>
      <trkpt lat="45.10133" lon="5.74035">
        <ele>315.39999389648</ele>
        <time>2011-04-22T14:29:04.000Z</time>
      </trkpt>
      <trkpt lat="45.10134" lon="5.74045">
        <ele>315.39999389648</ele>
        <time>2011-04-22T14:29:07.000Z</time>
      </trkpt>
      <trkpt lat="45.10134" lon="5.74058">
        <ele>315.39999389648</ele>
        <time>2011-04-22T14:29:10.000Z</time>
      </trkpt>
      <trkpt lat="45.10133" lon="5.74074">
        <ele>315.20001220703</ele>
        <time>2011-04-22T14:29:14.000Z</time>
      </trkpt>
      <trkpt lat="45.10131" lon="5.74085">
        <ele>314.79998779297</ele>
        <time>2011-04-22T14:29:17.000Z</time>
      </trkpt>
      <trkpt lat="45.10129" lon="5.741">
        <ele>314.20001220703</ele>
        <time>2011-04-22T14:29:21.000Z</time>
      </trkpt>
      <trkpt lat="45.10127" lon="5.74112">
        <ele>313.79998779297</ele>
        <time>2011-04-22T14:29:24.000Z</time>
      </trkpt>
      <trkpt lat="45.10126" lon="5.74128">
        <ele>313.39999389648</ele>
        <time>2011-04-22T14:29:28.000Z</time>
      </trkpt>
      <trkpt lat="45.10125" lon="5.74136">
        <ele>313.20001220703</ele>
        <time>2011-04-22T14:29:30.000Z</time>
      </trkpt>
      <trkpt lat="45.10124" lon="5.74155">
        <ele>313</ele>
        <time>2011-04-22T14:29:35.000Z</time>
      </trkpt>
      <trkpt lat="45.10124" lon="5.74159">
        <ele>313</ele>
        <time>2011-04-22T14:29:36.000Z</time>
      </trkpt>
      <trkpt lat="45.10121" lon="5.74183">
        <ele>312.20001220703</ele>
        <time>2011-04-22T14:29:42.000Z</time>
      </trkpt>
      <trkpt lat="45.10111" lon="5.74198">
        <ele>311</ele>
        <time>2011-04-22T14:29:47.000Z</time>
      </trkpt>
      <trkpt lat="45.10108" lon="5.742">
        <ele>310.79998779297</ele>
        <time>2011-04-22T14:29:48.000Z</time>
      </trkpt>
      <trkpt lat="45.10101" lon="5.74209">
        <ele>310.20001220703</ele>
        <time>2011-04-22T14:29:52.000Z</time>
      </trkpt>
      <trkpt lat="45.101" lon="5.74216">
        <ele>310</ele>
        <time>2011-04-22T14:29:55.000Z</time>
      </trkpt>
      <trkpt lat="45.10102" lon="5.74215">
        <ele>310.20001220703</ele>
        <time>2011-04-22T14:29:56.000Z</time>
      </trkpt>
      <trkpt lat="45.10109" lon="5.74209">
        <ele>310.79998779297</ele>
        <time>2011-04-22T14:29:59.000Z</time>
      </trkpt>
      <trkpt lat="45.10114" lon="5.74205">
        <ele>311.20001220703</ele>
        <time>2011-04-22T14:30:02.000Z</time>
      </trkpt>
      <trkpt lat="45.10121" lon="5.74202">
        <ele>311.79998779297</ele>
        <time>2011-04-22T14:30:05.000Z</time>
      </trkpt>
      <trkpt lat="45.10125" lon="5.742">
        <ele>312</ele>
        <time>2011-04-22T14:30:07.000Z</time>
      </trkpt>
      <trkpt lat="45.10138" lon="5.74195">
        <ele>313.20001220703</ele>
        <time>2011-04-22T14:30:13.000Z</time>
      </trkpt>
      <trkpt lat="45.1014" lon="5.74193">
        <ele>313.39999389648</ele>
        <time>2011-04-22T14:30:14.000Z</time>
      </trkpt>
      <trkpt lat="45.1015" lon="5.74189">
        <ele>314.39999389648</ele>
        <time>2011-04-22T14:30:18.000Z</time>
      </trkpt>
      <trkpt lat="45.10159" lon="5.74188">
        <ele>315.20001220703</ele>
        <time>2011-04-22T14:30:22.000Z</time>
      </trkpt>
      <trkpt lat="45.10161" lon="5.7419">
        <ele>315.39999389648</ele>
        <time>2011-04-22T14:30:23.000Z</time>
      </trkpt>
      <trkpt lat="45.10174" lon="5.74197">
        <ele>316.39999389648</ele>
        <time>2011-04-22T14:30:29.000Z</time>
      </trkpt>
      <trkpt lat="45.10177" lon="5.74198">
        <ele>316.60000610352</ele>
        <time>2011-04-22T14:30:30.000Z</time>
      </trkpt>
      <trkpt lat="45.10189" lon="5.74205">
        <ele>317.60000610352</ele>
        <time>2011-04-22T14:30:35.000Z</time>
      </trkpt>
      <trkpt lat="45.10195" lon="5.74209">
        <ele>318.20001220703</ele>
        <time>2011-04-22T14:30:38.000Z</time>
      </trkpt>
      <trkpt lat="45.10202" lon="5.74211">
        <ele>319</ele>
        <time>2011-04-22T14:30:41.000Z</time>
      </trkpt>
      <trkpt lat="45.10204" lon="5.7421">
        <ele>319.20001220703</ele>
        <time>2011-04-22T14:30:42.000Z</time>
      </trkpt>
      <trkpt lat="45.10212" lon="5.74209">
        <ele>320.20001220703</ele>
        <time>2011-04-22T14:30:45.000Z</time>
      </trkpt>
      <trkpt lat="45.10214" lon="5.7421">
        <ele>320.39999389648</ele>
        <time>2011-04-22T14:30:46.000Z</time>
      </trkpt>
      <trkpt lat="45.10218" lon="5.74209">
        <ele>321</ele>
        <time>2011-04-22T14:30:48.000Z</time>
      </trkpt>
      <trkpt lat="45.10222" lon="5.74208">
        <ele>321.60000610352</ele>
        <time>2011-04-22T14:30:50.000Z</time>
      </trkpt>
      <trkpt lat="45.1023" lon="5.74207">
        <ele>322.60000610352</ele>
        <time>2011-04-22T14:30:55.000Z</time>
      </trkpt>
      <trkpt lat="45.10228" lon="5.74211">
        <ele>322.20001220703</ele>
        <time>2011-04-22T14:30:58.000Z</time>
      </trkpt>
      <trkpt lat="45.10228" lon="5.74213">
        <ele>322</ele>
        <time>2011-04-22T14:31:00.000Z</time>
      </trkpt>
      <trkpt lat="45.10229" lon="5.74223">
        <ele>321.60000610352</ele>
        <time>2011-04-22T14:31:05.000Z</time>
      </trkpt>
      <trkpt lat="45.10234" lon="5.74233">
        <ele>321.79998779297</ele>
        <time>2011-04-22T14:31:09.000Z</time>
      </trkpt>
      <trkpt lat="45.10235" lon="5.74236">
        <ele>321.79998779297</ele>
        <time>2011-04-22T14:31:10.000Z</time>
      </trkpt>
      <trkpt lat="45.1024" lon="5.74246">
        <ele>322</ele>
        <time>2011-04-22T14:31:13.000Z</time>
      </trkpt>
      <trkpt lat="45.10245" lon="5.74254">
        <ele>322</ele>
        <time>2011-04-22T14:31:16.000Z</time>
      </trkpt>
      <trkpt lat="45.10257" lon="5.74266">
        <ele>322.39999389648</ele>
        <time>2011-04-22T14:31:22.000Z</time>
      </trkpt>
      <trkpt lat="45.10261" lon="5.74271">
        <ele>322.60000610352</ele>
        <time>2011-04-22T14:31:24.000Z</time>
      </trkpt>
      <trkpt lat="45.1027" lon="5.74278">
        <ele>323</ele>
        <time>2011-04-22T14:31:28.000Z</time>
      </trkpt>
      <trkpt lat="45.10278" lon="5.74284">
        <ele>323.39999389648</ele>
        <time>2011-04-22T14:31:32.000Z</time>
      </trkpt>
      <trkpt lat="45.10282" lon="5.74287">
        <ele>323.60000610352</ele>
        <time>2011-04-22T14:31:34.000Z</time>
      </trkpt>
      <trkpt lat="45.10292" lon="5.74296">
        <ele>323.79998779297</ele>
        <time>2011-04-22T14:31:39.000Z</time>
      </trkpt>
      <trkpt lat="45.10294" lon="5.74298">
        <ele>324</ele>
        <time>2011-04-22T14:31:40.000Z</time>
      </trkpt>
      <trkpt lat="45.10302" lon="5.74304">
        <ele>324.20001220703</ele>
        <time>2011-04-22T14:31:44.000Z</time>
      </trkpt>
      <trkpt lat="45.10313" lon="5.74306">
        <ele>325.20001220703</ele>
        <time>2011-04-22T14:31:48.000Z</time>
      </trkpt>
      <trkpt lat="45.10315" lon="5.74306">
        <ele>325.39999389648</ele>
        <time>2011-04-22T14:31:49.000Z</time>
      </trkpt>
      <trkpt lat="45.10331" lon="5.7431">
        <ele>326.60000610352</ele>
        <time>2011-04-22T14:31:55.000Z</time>
      </trkpt>
      <trkpt lat="45.10347" lon="5.74316">
        <ele>327.39999389648</ele>
        <time>2011-04-22T14:32:01.000Z</time>
      </trkpt>
      <trkpt lat="45.1035" lon="5.74318">
        <ele>327.60000610352</ele>
        <time>2011-04-22T14:32:02.000Z</time>
      </trkpt>
      <trkpt lat="45.10352" lon="5.7432">
        <ele>327.60000610352</ele>
        <time>2011-04-22T14:32:03.000Z</time>
      </trkpt>
      <trkpt lat="45.10358" lon="5.74326">
        <ele>327.60000610352</ele>
        <time>2011-04-22T14:32:06.000Z</time>
      </trkpt>
      <trkpt lat="45.10366" lon="5.74331">
        <ele>327.79998779297</ele>
        <time>2011-04-22T14:32:09.000Z</time>
      </trkpt>
      <trkpt lat="45.10368" lon="5.74333">
        <ele>327.79998779297</ele>
        <time>2011-04-22T14:32:10.000Z</time>
      </trkpt>
      <trkpt lat="45.10379" lon="5.74346">
        <ele>327.79998779297</ele>
        <time>2011-04-22T14:32:15.000Z</time>
      </trkpt>
      <trkpt lat="45.1038" lon="5.74349">
        <ele>327.79998779297</ele>
        <time>2011-04-22T14:32:16.000Z</time>
      </trkpt>
      <trkpt lat="45.10388" lon="5.74363">
        <ele>327.60000610352</ele>
        <time>2011-04-22T14:32:21.000Z</time>
      </trkpt>
      <trkpt lat="45.10391" lon="5.7437">
        <ele>327.39999389648</ele>
        <time>2011-04-22T14:32:23.000Z</time>
      </trkpt>
      <trkpt lat="45.10399" lon="5.74385">
        <ele>327.20001220703</ele>
        <time>2011-04-22T14:32:28.000Z</time>
      </trkpt>
      <trkpt lat="45.10402" lon="5.74392">
        <ele>327</ele>
        <time>2011-04-22T14:32:30.000Z</time>
      </trkpt>
      <trkpt lat="45.10409" lon="5.74405">
        <ele>326.79998779297</ele>
        <time>2011-04-22T14:32:34.000Z</time>
      </trkpt>
      <trkpt lat="45.10414" lon="5.74414">
        <ele>326.79998779297</ele>
        <time>2011-04-22T14:32:37.000Z</time>
      </trkpt>
      <trkpt lat="45.10418" lon="5.7442">
        <ele>327</ele>
        <time>2011-04-22T14:32:39.000Z</time>
      </trkpt>
      <trkpt lat="45.10427" lon="5.74432">
        <ele>327.20001220703</ele>
        <time>2011-04-22T14:32:43.000Z</time>
      </trkpt>
      <trkpt lat="45.10429" lon="5.74434">
        <ele>327.20001220703</ele>
        <time>2011-04-22T14:32:44.000Z</time>
      </trkpt>
      <trkpt lat="45.10436" lon="5.74445">
        <ele>327.20001220703</ele>
        <time>2011-04-22T14:32:48.000Z</time>
      </trkpt>
      <trkpt lat="45.1044" lon="5.74454">
        <ele>327.20001220703</ele>
        <time>2011-04-22T14:32:51.000Z</time>
      </trkpt>
      <trkpt lat="45.10444" lon="5.74459">
        <ele>327.20001220703</ele>
        <time>2011-04-22T14:32:53.000Z</time>
      </trkpt>
      <trkpt lat="45.10454" lon="5.74474">
        <ele>327</ele>
        <time>2011-04-22T14:32:58.000Z</time>
      </trkpt>
      <trkpt lat="45.10464" lon="5.74492">
        <ele>326.39999389648</ele>
        <time>2011-04-22T14:33:04.000Z</time>
      </trkpt>
      <trkpt lat="45.10466" lon="5.74495">
        <ele>326.20001220703</ele>
        <time>2011-04-22T14:33:05.000Z</time>
      </trkpt>
      <trkpt lat="45.10476" lon="5.74508">
        <ele>326</ele>
        <time>2011-04-22T14:33:10.000Z</time>
      </trkpt>
      <trkpt lat="45.1048" lon="5.74512">
        <ele>326</ele>
        <time>2011-04-22T14:33:12.000Z</time>
      </trkpt>
      <trkpt lat="45.10489" lon="5.7452">
        <ele>326</ele>
        <time>2011-04-22T14:33:16.000Z</time>
      </trkpt>
      <trkpt lat="45.10496" lon="5.74527">
        <ele>325.79998779297</ele>
        <time>2011-04-22T14:33:19.000Z</time>
      </trkpt>
      <trkpt lat="45.10501" lon="5.74531">
        <ele>325.79998779297</ele>
        <time>2011-04-22T14:33:21.000Z</time>
      </trkpt>
      <trkpt lat="45.10511" lon="5.74544">
        <ele>326</ele>
        <time>2011-04-22T14:33:26.000Z</time>
      </trkpt>
      <trkpt lat="45.1052" lon="5.74558">
        <ele>325.79998779297</ele>
        <time>2011-04-22T14:33:31.000Z</time>
      </trkpt>
      <trkpt lat="45.10523" lon="5.74563">
        <ele>325.79998779297</ele>
        <time>2011-04-22T14:33:33.000Z</time>
      </trkpt>
      <trkpt lat="45.10529" lon="5.74575">
        <ele>325.39999389648</ele>
        <time>2011-04-22T14:33:37.000Z</time>
      </trkpt>
      <trkpt lat="45.10533" lon="5.74584">
        <ele>325</ele>
        <time>2011-04-22T14:33:40.000Z</time>
      </trkpt>
      <trkpt lat="45.10538" lon="5.74593">
        <ele>325.39999389648</ele>
        <time>2011-04-22T14:33:43.000Z</time>
      </trkpt>
      <trkpt lat="45.10545" lon="5.74604">
        <ele>325.60000610352</ele>
        <time>2011-04-22T14:33:47.000Z</time>
      </trkpt>
      <trkpt lat="45.10549" lon="5.7461">
        <ele>325.79998779297</ele>
        <time>2011-04-22T14:33:49.000Z</time>
      </trkpt>
      <trkpt lat="45.10556" lon="5.74627">
        <ele>325.60000610352</ele>
        <time>2011-04-22T14:33:54.000Z</time>
      </trkpt>
      <trkpt lat="45.10556" lon="5.7463">
        <ele>325.60000610352</ele>
        <time>2011-04-22T14:33:55.000Z</time>
      </trkpt>
      <trkpt lat="45.10556" lon="5.74641">
        <ele>325.20001220703</ele>
        <time>2011-04-22T14:33:58.000Z</time>
      </trkpt>
      <trkpt lat="45.10556" lon="5.74655">
        <ele>324.60000610352</ele>
        <time>2011-04-22T14:34:02.000Z</time>
      </trkpt>
      <trkpt lat="45.10554" lon="5.74659">
        <ele>324.39999389648</ele>
        <time>2011-04-22T14:34:03.000Z</time>
      </trkpt>
      <trkpt lat="45.10543" lon="5.74666">
        <ele>323.60000610352</ele>
        <time>2011-04-22T14:34:07.000Z</time>
      </trkpt>
      <trkpt lat="45.1054" lon="5.74667">
        <ele>323.39999389648</ele>
        <time>2011-04-22T14:34:08.000Z</time>
      </trkpt>
      <trkpt lat="45.10527" lon="5.74677">
        <ele>322.39999389648</ele>
        <time>2011-04-22T14:34:13.000Z</time>
      </trkpt>
      <trkpt lat="45.10521" lon="5.74679">
        <ele>322</ele>
        <time>2011-04-22T14:34:15.000Z</time>
      </trkpt>
      <trkpt lat="45.10513" lon="5.7468">
        <ele>321.60000610352</ele>
        <time>2011-04-22T14:34:18.000Z</time>
      </trkpt>
      <trkpt lat="45.10501" lon="5.74678">
        <ele>320.79998779297</ele>
        <time>2011-04-22T14:34:22.000Z</time>
      </trkpt>
      <trkpt lat="45.10498" lon="5.74678">
        <ele>320.60000610352</ele>
        <time>2011-04-22T14:34:23.000Z</time>
      </trkpt>
      <trkpt lat="45.10493" lon="5.74679">
        <ele>320.20001220703</ele>
        <time>2011-04-22T14:34:25.000Z</time>
      </trkpt>
      <trkpt lat="45.10489" lon="5.74686">
        <ele>320</ele>
        <time>2011-04-22T14:34:27.000Z</time>
      </trkpt>
      <trkpt lat="45.10488" lon="5.7469">
        <ele>319.79998779297</ele>
        <time>2011-04-22T14:34:28.000Z</time>
      </trkpt>
      <trkpt lat="45.10486" lon="5.74694">
        <ele>319.60000610352</ele>
        <time>2011-04-22T14:34:29.000Z</time>
      </trkpt>
      <trkpt lat="45.1048" lon="5.74707">
        <ele>318.79998779297</ele>
        <time>2011-04-22T14:34:33.000Z</time>
      </trkpt>
      <trkpt lat="45.10478" lon="5.74713">
        <ele>318.60000610352</ele>
        <time>2011-04-22T14:34:35.000Z</time>
      </trkpt>
      <trkpt lat="45.10472" lon="5.74727">
        <ele>317.79998779297</ele>
        <time>2011-04-22T14:34:39.000Z</time>
      </trkpt>
      <trkpt lat="45.10467" lon="5.74738">
        <ele>317</ele>
        <time>2011-04-22T14:34:42.000Z</time>
      </trkpt>
      <trkpt lat="45.10465" lon="5.74746">
        <ele>316.60000610352</ele>
        <time>2011-04-22T14:34:44.000Z</time>
      </trkpt>
      <trkpt lat="45.10457" lon="5.74761">
        <ele>315.20001220703</ele>
        <time>2011-04-22T14:34:48.000Z</time>
      </trkpt>
      <trkpt lat="45.10452" lon="5.74769">
        <ele>314.20001220703</ele>
        <time>2011-04-22T14:34:50.000Z</time>
      </trkpt>
      <trkpt lat="45.10444" lon="5.74785">
        <ele>312.79998779297</ele>
        <time>2011-04-22T14:34:54.000Z</time>
      </trkpt>
      <trkpt lat="45.1044" lon="5.74792">
        <ele>312</ele>
        <time>2011-04-22T14:34:56.000Z</time>
      </trkpt>
      <trkpt lat="45.10432" lon="5.74807">
        <ele>310.79998779297</ele>
        <time>2011-04-22T14:35:00.000Z</time>
      </trkpt>
      <trkpt lat="45.10431" lon="5.7481">
        <ele>310.60000610352</ele>
        <time>2011-04-22T14:35:01.000Z</time>
      </trkpt>
      <trkpt lat="45.10426" lon="5.7483">
        <ele>309.39999389648</ele>
        <time>2011-04-22T14:35:06.000Z</time>
      </trkpt>
      <trkpt lat="45.10425" lon="5.74834">
        <ele>309.20001220703</ele>
        <time>2011-04-22T14:35:07.000Z</time>
      </trkpt>
      <trkpt lat="45.10426" lon="5.74846">
        <ele>309</ele>
        <time>2011-04-22T14:35:10.000Z</time>
      </trkpt>
      <trkpt lat="45.10429" lon="5.74861">
        <ele>308.79998779297</ele>
        <time>2011-04-22T14:35:14.000Z</time>
      </trkpt>
      <trkpt lat="45.10432" lon="5.74878">
        <ele>308.60000610352</ele>
        <time>2011-04-22T14:35:18.000Z</time>
      </trkpt>
      <trkpt lat="45.10433" lon="5.74889">
        <ele>308.39999389648</ele>
        <time>2011-04-22T14:35:21.000Z</time>
      </trkpt>
      <trkpt lat="45.10433" lon="5.74896">
        <ele>308.20001220703</ele>
        <time>2011-04-22T14:35:23.000Z</time>
      </trkpt>
      <trkpt lat="45.10434" lon="5.7491">
        <ele>307.79998779297</ele>
        <time>2011-04-22T14:35:27.000Z</time>
      </trkpt>
      <trkpt lat="45.10432" lon="5.74917">
        <ele>307.60000610352</ele>
        <time>2011-04-22T14:35:29.000Z</time>
      </trkpt>
      <trkpt lat="45.10431" lon="5.74928">
        <ele>308</ele>
        <time>2011-04-22T14:35:32.000Z</time>
      </trkpt>
      <trkpt lat="45.10428" lon="5.74942">
        <ele>308.39999389648</ele>
        <time>2011-04-22T14:35:36.000Z</time>
      </trkpt>
      <trkpt lat="45.10426" lon="5.74946">
        <ele>308.39999389648</ele>
        <time>2011-04-22T14:35:37.000Z</time>
      </trkpt>
      <trkpt lat="45.10418" lon="5.74963">
        <ele>308.60000610352</ele>
        <time>2011-04-22T14:35:42.000Z</time>
      </trkpt>
      <trkpt lat="45.10416" lon="5.74966">
        <ele>308.60000610352</ele>
        <time>2011-04-22T14:35:43.000Z</time>
      </trkpt>
      <trkpt lat="45.10404" lon="5.74979">
        <ele>308.20001220703</ele>
        <time>2011-04-22T14:35:48.000Z</time>
      </trkpt>
      <trkpt lat="45.10398" lon="5.7498">
        <ele>307.79998779297</ele>
        <time>2011-04-22T14:35:50.000Z</time>
      </trkpt>
      <trkpt lat="45.10388" lon="5.74982">
        <ele>307.20001220703</ele>
        <time>2011-04-22T14:35:53.000Z</time>
      </trkpt>
      <trkpt lat="45.10379" lon="5.74988">
        <ele>307</ele>
        <time>2011-04-22T14:35:56.000Z</time>
      </trkpt>
      <trkpt lat="45.10366" lon="5.74988">
        <ele>306</ele>
        <time>2011-04-22T14:36:00.000Z</time>
      </trkpt>
      <trkpt lat="45.10359" lon="5.74988">
        <ele>305.60000610352</ele>
        <time>2011-04-22T14:36:02.000Z</time>
      </trkpt>
      <trkpt lat="45.10354" lon="5.74987">
        <ele>305.20001220703</ele>
        <time>2011-04-22T14:36:04.000Z</time>
      </trkpt>
      <trkpt lat="45.10341" lon="5.7499">
        <ele>304.60000610352</ele>
        <time>2011-04-22T14:36:08.000Z</time>
      </trkpt>
      <trkpt lat="45.10339" lon="5.74992">
        <ele>304.60000610352</ele>
        <time>2011-04-22T14:36:09.000Z</time>
      </trkpt>
      <trkpt lat="45.10331" lon="5.75">
        <ele>304.79998779297</ele>
        <time>2011-04-22T14:36:13.000Z</time>
      </trkpt>
      <trkpt lat="45.10326" lon="5.75008">
        <ele>304.60000610352</ele>
        <time>2011-04-22T14:36:16.000Z</time>
      </trkpt>
      <trkpt lat="45.10322" lon="5.75012">
        <ele>304.60000610352</ele>
        <time>2011-04-22T14:36:18.000Z</time>
      </trkpt>
      <trkpt lat="45.10314" lon="5.75018">
        <ele>304.20001220703</ele>
        <time>2011-04-22T14:36:22.000Z</time>
      </trkpt>
      <trkpt lat="45.10311" lon="5.75023">
        <ele>304.20001220703</ele>
        <time>2011-04-22T14:36:24.000Z</time>
      </trkpt>
      <trkpt lat="45.10305" lon="5.75029">
        <ele>304</ele>
        <time>2011-04-22T14:36:27.000Z</time>
      </trkpt>
      <trkpt lat="45.10296" lon="5.75039">
        <ele>303.60000610352</ele>
        <time>2011-04-22T14:36:31.000Z</time>
      </trkpt>
      <trkpt lat="45.10284" lon="5.75052">
        <ele>303</ele>
        <time>2011-04-22T14:36:36.000Z</time>
      </trkpt>
      <trkpt lat="45.10281" lon="5.75054">
        <ele>302.79998779297</ele>
        <time>2011-04-22T14:36:37.000Z</time>
      </trkpt>
      <trkpt lat="45.10271" lon="5.75064">
        <ele>302.39999389648</ele>
        <time>2011-04-22T14:36:41.000Z</time>
      </trkpt>
      <trkpt lat="45.10267" lon="5.75069">
        <ele>302</ele>
        <time>2011-04-22T14:36:43.000Z</time>
      </trkpt>
      <trkpt lat="45.10263" lon="5.75074">
        <ele>301.79998779297</ele>
        <time>2011-04-22T14:36:45.000Z</time>
      </trkpt>
      <trkpt lat="45.10261" lon="5.75076">
        <ele>301.79998779297</ele>
        <time>2011-04-22T14:36:46.000Z</time>
      </trkpt>
      <trkpt lat="45.10253" lon="5.75085">
        <ele>301.20001220703</ele>
        <time>2011-04-22T14:36:50.000Z</time>
      </trkpt>
      <trkpt lat="45.10251" lon="5.75088">
        <ele>301.20001220703</ele>
        <time>2011-04-22T14:36:51.000Z</time>
      </trkpt>
      <trkpt lat="45.10243" lon="5.75101">
        <ele>301.39999389648</ele>
        <time>2011-04-22T14:36:55.000Z</time>
      </trkpt>
      <trkpt lat="45.10237" lon="5.75109">
        <ele>301.39999389648</ele>
        <time>2011-04-22T14:36:58.000Z</time>
      </trkpt>
      <trkpt lat="45.10233" lon="5.75114">
        <ele>301.39999389648</ele>
        <time>2011-04-22T14:37:00.000Z</time>
      </trkpt>
      <trkpt lat="45.10224" lon="5.7513">
        <ele>302</ele>
        <time>2011-04-22T14:37:05.000Z</time>
      </trkpt>
      <trkpt lat="45.1021" lon="5.75139">
        <ele>302</ele>
        <time>2011-04-22T14:37:10.000Z</time>
      </trkpt>
      <trkpt lat="45.10208" lon="5.75142">
        <ele>302</ele>
        <time>2011-04-22T14:37:11.000Z</time>
      </trkpt>
      <trkpt lat="45.10198" lon="5.7515">
        <ele>302.39999389648</ele>
        <time>2011-04-22T14:37:15.000Z</time>
      </trkpt>
      <trkpt lat="45.10192" lon="5.7515">
        <ele>302.20001220703</ele>
        <time>2011-04-22T14:37:17.000Z</time>
      </trkpt>
      <trkpt lat="45.10186" lon="5.75147">
        <ele>301.60000610352</ele>
        <time>2011-04-22T14:37:19.000Z</time>
      </trkpt>
      <trkpt lat="45.10176" lon="5.75134">
        <ele>300.20001220703</ele>
        <time>2011-04-22T14:37:23.000Z</time>
      </trkpt>
      <trkpt lat="45.10163" lon="5.75112">
        <ele>297.60000610352</ele>
        <time>2011-04-22T14:37:29.000Z</time>
      </trkpt>
      <trkpt lat="45.10151" lon="5.75094">
        <ele>296.20001220703</ele>
        <time>2011-04-22T14:37:35.000Z</time>
      </trkpt>
      <trkpt lat="45.10149" lon="5.75091">
        <ele>295.79998779297</ele>
        <time>2011-04-22T14:37:36.000Z</time>
      </trkpt>
      <trkpt lat="45.10137" lon="5.75075">
        <ele>295</ele>
        <time>2011-04-22T14:37:41.000Z</time>
      </trkpt>
      <trkpt lat="45.10125" lon="5.7506">
        <ele>294.60000610352</ele>
        <time>2011-04-22T14:37:46.000Z</time>
      </trkpt>
      <trkpt lat="45.10123" lon="5.75057">
        <ele>294.60000610352</ele>
        <time>2011-04-22T14:37:47.000Z</time>
      </trkpt>
      <trkpt lat="45.10112" lon="5.75047">
        <ele>294.20001220703</ele>
        <time>2011-04-22T14:37:51.000Z</time>
      </trkpt>
      <trkpt lat="45.10107" lon="5.75043">
        <ele>293.79998779297</ele>
        <time>2011-04-22T14:37:53.000Z</time>
      </trkpt>
      <trkpt lat="45.10096" lon="5.75033">
        <ele>293.20001220703</ele>
        <time>2011-04-22T14:37:57.000Z</time>
      </trkpt>
      <trkpt lat="45.10091" lon="5.75028">
        <ele>292.79998779297</ele>
        <time>2011-04-22T14:37:59.000Z</time>
      </trkpt>
      <trkpt lat="45.10081" lon="5.75018">
        <ele>292</ele>
        <time>2011-04-22T14:38:03.000Z</time>
      </trkpt>
      <trkpt lat="45.10075" lon="5.75014">
        <ele>291.60000610352</ele>
        <time>2011-04-22T14:38:05.000Z</time>
      </trkpt>
      <trkpt lat="45.10068" lon="5.75006">
        <ele>291.20001220703</ele>
        <time>2011-04-22T14:38:08.000Z</time>
      </trkpt>
      <trkpt lat="45.10061" lon="5.74998">
        <ele>290.60000610352</ele>
        <time>2011-04-22T14:38:11.000Z</time>
      </trkpt>
      <trkpt lat="45.10052" lon="5.74986">
        <ele>290</ele>
        <time>2011-04-22T14:38:15.000Z</time>
      </trkpt>
      <trkpt lat="45.10047" lon="5.74981">
        <ele>289.60000610352</ele>
        <time>2011-04-22T14:38:17.000Z</time>
      </trkpt>
      <trkpt lat="45.10039" lon="5.74973">
        <ele>289</ele>
        <time>2011-04-22T14:38:20.000Z</time>
      </trkpt>
      <trkpt lat="45.10031" lon="5.74967">
        <ele>288.39999389648</ele>
        <time>2011-04-22T14:38:23.000Z</time>
      </trkpt>
      <trkpt lat="45.10024" lon="5.74963">
        <ele>288</ele>
        <time>2011-04-22T14:38:25.000Z</time>
      </trkpt>
      <trkpt lat="45.10012" lon="5.74955">
        <ele>287.20001220703</ele>
        <time>2011-04-22T14:38:29.000Z</time>
      </trkpt>
      <trkpt lat="45.10004" lon="5.74948">
        <ele>286.39999389648</ele>
        <time>2011-04-22T14:38:32.000Z</time>
      </trkpt>
      <trkpt lat="45.09997" lon="5.74942">
        <ele>285.79998779297</ele>
        <time>2011-04-22T14:38:35.000Z</time>
      </trkpt>
      <trkpt lat="45.09992" lon="5.74937">
        <ele>285.60000610352</ele>
        <time>2011-04-22T14:38:37.000Z</time>
      </trkpt>
      <trkpt lat="45.09981" lon="5.74926">
        <ele>285</ele>
        <time>2011-04-22T14:38:41.000Z</time>
      </trkpt>
      <trkpt lat="45.09977" lon="5.74922">
        <ele>284.79998779297</ele>
        <time>2011-04-22T14:38:43.000Z</time>
      </trkpt>
      <trkpt lat="45.09976" lon="5.74921">
        <ele>284.79998779297</ele>
        <time>2011-04-22T14:38:44.000Z</time>
      </trkpt>
      <trkpt lat="45.09975" lon="5.74919">
        <ele>284.60000610352</ele>
        <time>2011-04-22T14:38:47.000Z</time>
      </trkpt>
      <trkpt lat="45.09975" lon="5.74918">
        <ele>284.60000610352</ele>
        <time>2011-04-22T14:38:54.000Z</time>
      </trkpt>
      <trkpt lat="45.09972" lon="5.74916">
        <ele>284.60000610352</ele>
        <time>2011-04-22T14:38:57.000Z</time>
      </trkpt>
      <trkpt lat="45.09969" lon="5.74912">
        <ele>284.39999389648</ele>
        <time>2011-04-22T14:38:59.000Z</time>
      </trkpt>
      <trkpt lat="45.09956" lon="5.74899">
        <ele>283.79998779297</ele>
        <time>2011-04-22T14:39:05.000Z</time>
      </trkpt>
      <trkpt lat="45.09954" lon="5.74896">
        <ele>283.79998779297</ele>
        <time>2011-04-22T14:39:06.000Z</time>
      </trkpt>
      <trkpt lat="45.09944" lon="5.74889">
        <ele>283.39999389648</ele>
        <time>2011-04-22T14:39:10.000Z</time>
      </trkpt>
      <trkpt lat="45.09937" lon="5.74883">
        <ele>283.20001220703</ele>
        <time>2011-04-22T14:39:13.000Z</time>
      </trkpt>
      <trkpt lat="45.09932" lon="5.74879">
        <ele>283</ele>
        <time>2011-04-22T14:39:15.000Z</time>
      </trkpt>
      <trkpt lat="45.0992" lon="5.74868">
        <ele>282.39999389648</ele>
        <time>2011-04-22T14:39:20.000Z</time>
      </trkpt>
      <trkpt lat="45.09917" lon="5.74866">
        <ele>282.20001220703</ele>
        <time>2011-04-22T14:39:21.000Z</time>
      </trkpt>
      <trkpt lat="45.09905" lon="5.74855">
        <ele>281</ele>
        <time>2011-04-22T14:39:26.000Z</time>
      </trkpt>
      <trkpt lat="45.09902" lon="5.74852">
        <ele>280.79998779297</ele>
        <time>2011-04-22T14:39:27.000Z</time>
      </trkpt>
      <trkpt lat="45.09892" lon="5.74843">
        <ele>279.79998779297</ele>
        <time>2011-04-22T14:39:31.000Z</time>
      </trkpt>
      <trkpt lat="45.09886" lon="5.74838">
        <ele>279.20001220703</ele>
        <time>2011-04-22T14:39:33.000Z</time>
      </trkpt>
      <trkpt lat="45.09879" lon="5.74831">
        <ele>278.39999389648</ele>
        <time>2011-04-22T14:39:36.000Z</time>
      </trkpt>
      <trkpt lat="45.09871" lon="5.74823">
        <ele>277.79998779297</ele>
        <time>2011-04-22T14:39:39.000Z</time>
      </trkpt>
      <trkpt lat="45.09866" lon="5.74819">
        <ele>277.39999389648</ele>
        <time>2011-04-22T14:39:41.000Z</time>
      </trkpt>
      <trkpt lat="45.09855" lon="5.74811">
        <ele>276.60000610352</ele>
        <time>2011-04-22T14:39:45.000Z</time>
      </trkpt>
      <trkpt lat="45.0985" lon="5.74807">
        <ele>276.20001220703</ele>
        <time>2011-04-22T14:39:47.000Z</time>
      </trkpt>
      <trkpt lat="45.09837" lon="5.74797">
        <ele>275.39999389648</ele>
        <time>2011-04-22T14:39:52.000Z</time>
      </trkpt>
      <trkpt lat="45.09821" lon="5.74788">
        <ele>274.79998779297</ele>
        <time>2011-04-22T14:39:58.000Z</time>
      </trkpt>
      <trkpt lat="45.09819" lon="5.74785">
        <ele>274.79998779297</ele>
        <time>2011-04-22T14:39:59.000Z</time>
      </trkpt>
      <trkpt lat="45.09806" lon="5.74771">
        <ele>274</ele>
        <time>2011-04-22T14:40:05.000Z</time>
      </trkpt>
      <trkpt lat="45.09804" lon="5.74769">
        <ele>274</ele>
        <time>2011-04-22T14:40:06.000Z</time>
      </trkpt>
      <trkpt lat="45.09792" lon="5.74763">
        <ele>273.60000610352</ele>
        <time>2011-04-22T14:40:11.000Z</time>
      </trkpt>
      <trkpt lat="45.09788" lon="5.74759">
        <ele>273.39999389648</ele>
        <time>2011-04-22T14:40:13.000Z</time>
      </trkpt>
      <trkpt lat="45.09779" lon="5.74747">
        <ele>272.79998779297</ele>
        <time>2011-04-22T14:40:17.000Z</time>
      </trkpt>
      <trkpt lat="45.09773" lon="5.74739">
        <ele>272.60000610352</ele>
        <time>2011-04-22T14:40:20.000Z</time>
      </trkpt>
      <trkpt lat="45.09769" lon="5.74734">
        <ele>272.60000610352</ele>
        <time>2011-04-22T14:40:22.000Z</time>
      </trkpt>
      <trkpt lat="45.09761" lon="5.74716">
        <ele>272.20001220703</ele>
        <time>2011-04-22T14:40:27.000Z</time>
      </trkpt>
      <trkpt lat="45.09754" lon="5.74705">
        <ele>271.79998779297</ele>
        <time>2011-04-22T14:40:31.000Z</time>
      </trkpt>
      <trkpt lat="45.09749" lon="5.74696">
        <ele>271.60000610352</ele>
        <time>2011-04-22T14:40:34.000Z</time>
      </trkpt>
      <trkpt lat="45.09747" lon="5.7469">
        <ele>271.39999389648</ele>
        <time>2011-04-22T14:40:36.000Z</time>
      </trkpt>
      <trkpt lat="45.0974" lon="5.74673">
        <ele>270.79998779297</ele>
        <time>2011-04-22T14:40:41.000Z</time>
      </trkpt>
      <trkpt lat="45.0973" lon="5.74654">
        <ele>270</ele>
        <time>2011-04-22T14:40:47.000Z</time>
      </trkpt>
      <trkpt lat="45.09728" lon="5.74651">
        <ele>269.79998779297</ele>
        <time>2011-04-22T14:40:48.000Z</time>
      </trkpt>
      <trkpt lat="45.09723" lon="5.74638">
        <ele>269.39999389648</ele>
        <time>2011-04-22T14:40:52.000Z</time>
      </trkpt>
      <trkpt lat="45.09717" lon="5.7463">
        <ele>269.20001220703</ele>
        <time>2011-04-22T14:40:55.000Z</time>
      </trkpt>
      <trkpt lat="45.09713" lon="5.74623">
        <ele>269</ele>
        <time>2011-04-22T14:40:57.000Z</time>
      </trkpt>
      <trkpt lat="45.09704" lon="5.74611">
        <ele>268.60000610352</ele>
        <time>2011-04-22T14:41:01.000Z</time>
      </trkpt>
      <trkpt lat="45.097" lon="5.74606">
        <ele>268.60000610352</ele>
        <time>2011-04-22T14:41:03.000Z</time>
      </trkpt>
      <trkpt lat="45.09692" lon="5.74592">
        <ele>268.20001220703</ele>
        <time>2011-04-22T14:41:08.000Z</time>
      </trkpt>
      <trkpt lat="45.0969" lon="5.7459">
        <ele>268.20001220703</ele>
        <time>2011-04-22T14:41:09.000Z</time>
      </trkpt>
      <trkpt lat="45.09678" lon="5.74584">
        <ele>268</ele>
        <time>2011-04-22T14:41:13.000Z</time>
      </trkpt>
      <trkpt lat="45.09675" lon="5.74581">
        <ele>268</ele>
        <time>2011-04-22T14:41:14.000Z</time>
      </trkpt>
      <trkpt lat="45.09668" lon="5.74576">
        <ele>268</ele>
        <time>2011-04-22T14:41:16.000Z</time>
      </trkpt>
      <trkpt lat="45.09662" lon="5.74573">
        <ele>268.20001220703</ele>
        <time>2011-04-22T14:41:18.000Z</time>
      </trkpt>
      <trkpt lat="45.09656" lon="5.74571">
        <ele>268.60000610352</ele>
        <time>2011-04-22T14:41:20.000Z</time>
      </trkpt>
      <trkpt lat="45.09648" lon="5.74568">
        <ele>269.20001220703</ele>
        <time>2011-04-22T14:41:23.000Z</time>
      </trkpt>
      <trkpt lat="45.09637" lon="5.74564">
        <ele>270</ele>
        <time>2011-04-22T14:41:27.000Z</time>
      </trkpt>
      <trkpt lat="45.09624" lon="5.74558">
        <ele>270.79998779297</ele>
        <time>2011-04-22T14:41:32.000Z</time>
      </trkpt>
      <trkpt lat="45.09618" lon="5.74556">
        <ele>271.20001220703</ele>
        <time>2011-04-22T14:41:34.000Z</time>
      </trkpt>
      <trkpt lat="45.09607" lon="5.74552">
        <ele>271.79998779297</ele>
        <time>2011-04-22T14:41:38.000Z</time>
      </trkpt>
      <trkpt lat="45.09599" lon="5.7455">
        <ele>272.39999389648</ele>
        <time>2011-04-22T14:41:41.000Z</time>
      </trkpt>
      <trkpt lat="45.09591" lon="5.74549">
        <ele>272.79998779297</ele>
        <time>2011-04-22T14:41:44.000Z</time>
      </trkpt>
      <trkpt lat="45.0958" lon="5.74547">
        <ele>273.39999389648</ele>
        <time>2011-04-22T14:41:48.000Z</time>
      </trkpt>
      <trkpt lat="45.09569" lon="5.74541">
        <ele>273.60000610352</ele>
        <time>2011-04-22T14:41:52.000Z</time>
      </trkpt>
      <trkpt lat="45.09561" lon="5.74537">
        <ele>273.60000610352</ele>
        <time>2011-04-22T14:41:55.000Z</time>
      </trkpt>
      <trkpt lat="45.09556" lon="5.74532">
        <ele>273.60000610352</ele>
        <time>2011-04-22T14:41:57.000Z</time>
      </trkpt>
      <trkpt lat="45.09548" lon="5.74523">
        <ele>273.20001220703</ele>
        <time>2011-04-22T14:42:01.000Z</time>
      </trkpt>
      <trkpt lat="45.09545" lon="5.74521">
        <ele>273.20001220703</ele>
        <time>2011-04-22T14:42:02.000Z</time>
      </trkpt>
      <trkpt lat="45.09535" lon="5.74511">
        <ele>272.60000610352</ele>
        <time>2011-04-22T14:42:06.000Z</time>
      </trkpt>
      <trkpt lat="45.0953" lon="5.74507">
        <ele>272.39999389648</ele>
        <time>2011-04-22T14:42:08.000Z</time>
      </trkpt>
      <trkpt lat="45.09523" lon="5.74501">
        <ele>271.79998779297</ele>
        <time>2011-04-22T14:42:11.000Z</time>
      </trkpt>
      <trkpt lat="45.09512" lon="5.74493">
        <ele>271.20001220703</ele>
        <time>2011-04-22T14:42:15.000Z</time>
      </trkpt>
      <trkpt lat="45.0951" lon="5.7449">
        <ele>271.20001220703</ele>
        <time>2011-04-22T14:42:16.000Z</time>
      </trkpt>
      <trkpt lat="45.09496" lon="5.74478">
        <ele>270.60000610352</ele>
        <time>2011-04-22T14:42:22.000Z</time>
      </trkpt>
      <trkpt lat="45.09494" lon="5.74476">
        <ele>270.60000610352</ele>
        <time>2011-04-22T14:42:23.000Z</time>
      </trkpt>
      <trkpt lat="45.09482" lon="5.74464">
        <ele>270.60000610352</ele>
        <time>2011-04-22T14:42:28.000Z</time>
      </trkpt>
      <trkpt lat="45.0948" lon="5.74462">
        <ele>270.60000610352</ele>
        <time>2011-04-22T14:42:29.000Z</time>
      </trkpt>
      <trkpt lat="45.09474" lon="5.74454">
        <ele>270.60000610352</ele>
        <time>2011-04-22T14:42:32.000Z</time>
      </trkpt>
      <trkpt lat="45.09465" lon="5.74444">
        <ele>270.60000610352</ele>
        <time>2011-04-22T14:42:36.000Z</time>
      </trkpt>
      <trkpt lat="45.09463" lon="5.74442">
        <ele>270.60000610352</ele>
        <time>2011-04-22T14:42:37.000Z</time>
      </trkpt>
      <trkpt lat="45.09449" lon="5.7443">
        <ele>270.60000610352</ele>
        <time>2011-04-22T14:42:43.000Z</time>
      </trkpt>
      <trkpt lat="45.09443" lon="5.74428">
        <ele>270.79998779297</ele>
        <time>2011-04-22T14:42:46.000Z</time>
      </trkpt>
      <trkpt lat="45.09441" lon="5.74429">
        <ele>270.79998779297</ele>
        <time>2011-04-22T14:42:47.000Z</time>
      </trkpt>
      <trkpt lat="45.09434" lon="5.74437">
        <ele>271</ele>
        <time>2011-04-22T14:42:52.000Z</time>
      </trkpt>
      <trkpt lat="45.09433" lon="5.74439">
        <ele>271</ele>
        <time>2011-04-22T14:42:53.000Z</time>
      </trkpt>
      <trkpt lat="45.09426" lon="5.7445">
        <ele>271.20001220703</ele>
        <time>2011-04-22T14:42:57.000Z</time>
      </trkpt>
      <trkpt lat="45.09421" lon="5.74459">
        <ele>271.39999389648</ele>
        <time>2011-04-22T14:43:01.000Z</time>
      </trkpt>
      <trkpt lat="45.09419" lon="5.74463">
        <ele>271.39999389648</ele>
        <time>2011-04-22T14:43:03.000Z</time>
      </trkpt>
      <trkpt lat="45.09416" lon="5.74485">
        <ele>271.79998779297</ele>
        <time>2011-04-22T14:43:10.000Z</time>
      </trkpt>
      <trkpt lat="45.09415" lon="5.74503">
        <ele>272.20001220703</ele>
        <time>2011-04-22T14:43:16.000Z</time>
      </trkpt>
      <trkpt lat="45.09416" lon="5.74511">
        <ele>273</ele>
        <time>2011-04-22T14:43:19.000Z</time>
      </trkpt>
      <trkpt lat="45.09416" lon="5.74516">
        <ele>273.60000610352</ele>
        <time>2011-04-22T14:43:21.000Z</time>
      </trkpt>
      <trkpt lat="45.09418" lon="5.74531">
        <ele>275.20001220703</ele>
        <time>2011-04-22T14:43:26.000Z</time>
      </trkpt>
      <trkpt lat="45.09417" lon="5.74537">
        <ele>276</ele>
        <time>2011-04-22T14:43:28.000Z</time>
      </trkpt>
      <trkpt lat="45.09416" lon="5.74548">
        <ele>277.20001220703</ele>
        <time>2011-04-22T14:43:32.000Z</time>
      </trkpt>
      <trkpt lat="45.09411" lon="5.7456">
        <ele>278.79998779297</ele>
        <time>2011-04-22T14:43:37.000Z</time>
      </trkpt>
      <trkpt lat="45.09411" lon="5.74563">
        <ele>279</ele>
        <time>2011-04-22T14:43:38.000Z</time>
      </trkpt>
      <trkpt lat="45.09405" lon="5.74568">
        <ele>280</ele>
        <time>2011-04-22T14:43:41.000Z</time>
      </trkpt>
      <trkpt lat="45.09404" lon="5.7457">
        <ele>280.39999389648</ele>
        <time>2011-04-22T14:43:42.000Z</time>
      </trkpt>
      <trkpt lat="45.09399" lon="5.74581">
        <ele>282</ele>
        <time>2011-04-22T14:43:47.000Z</time>
      </trkpt>
      <trkpt lat="45.09398" lon="5.74583">
        <ele>282.20001220703</ele>
        <time>2011-04-22T14:43:48.000Z</time>
      </trkpt>
      <trkpt lat="45.09394" lon="5.74594">
        <ele>284.20001220703</ele>
        <time>2011-04-22T14:43:53.000Z</time>
      </trkpt>
      <trkpt lat="45.09392" lon="5.74596">
        <ele>284.79998779297</ele>
        <time>2011-04-22T14:43:54.000Z</time>
      </trkpt>
      <trkpt lat="45.09389" lon="5.74604">
        <ele>286.39999389648</ele>
        <time>2011-04-22T14:43:57.000Z</time>
      </trkpt>
      <trkpt lat="45.09387" lon="5.74608">
        <ele>287.39999389648</ele>
        <time>2011-04-22T14:43:59.000Z</time>
      </trkpt>
      <trkpt lat="45.09381" lon="5.74617">
        <ele>289.79998779297</ele>
        <time>2011-04-22T14:44:05.000Z</time>
      </trkpt>
      <trkpt lat="45.0938" lon="5.74618">
        <ele>290.20001220703</ele>
        <time>2011-04-22T14:44:06.000Z</time>
      </trkpt>
      <trkpt lat="45.09376" lon="5.74625">
        <ele>292.20001220703</ele>
        <time>2011-04-22T14:44:10.000Z</time>
      </trkpt>
      <trkpt lat="45.09369" lon="5.74635">
        <ele>295.60000610352</ele>
        <time>2011-04-22T14:44:14.000Z</time>
      </trkpt>
      <trkpt lat="45.09366" lon="5.74637">
        <ele>296.60000610352</ele>
        <time>2011-04-22T14:44:16.000Z</time>
      </trkpt>
      <trkpt lat="45.09363" lon="5.74642">
        <ele>298.20001220703</ele>
        <time>2011-04-22T14:44:19.000Z</time>
      </trkpt>
      <trkpt lat="45.09362" lon="5.74643">
        <ele>298.60000610352</ele>
        <time>2011-04-22T14:44:20.000Z</time>
      </trkpt>
      <trkpt lat="45.09355" lon="5.74647">
        <ele>301.39999389648</ele>
        <time>2011-04-22T14:44:26.000Z</time>
      </trkpt>
      <trkpt lat="45.09354" lon="5.74654">
        <ele>303.20001220703</ele>
        <time>2011-04-22T14:44:30.000Z</time>
      </trkpt>
      <trkpt lat="45.09349" lon="5.74653">
        <ele>304.20001220703</ele>
        <time>2011-04-22T14:44:33.000Z</time>
      </trkpt>
      <trkpt lat="45.09346" lon="5.74653">
        <ele>305</ele>
        <time>2011-04-22T14:44:35.000Z</time>
      </trkpt>
      <trkpt lat="45.09341" lon="5.74654">
        <ele>306.20001220703</ele>
        <time>2011-04-22T14:44:38.000Z</time>
      </trkpt>
      <trkpt lat="45.09338" lon="5.74654">
        <ele>306.79998779297</ele>
        <time>2011-04-22T14:44:40.000Z</time>
      </trkpt>
      <trkpt lat="45.09332" lon="5.74655">
        <ele>308.60000610352</ele>
        <time>2011-04-22T14:44:44.000Z</time>
      </trkpt>
      <trkpt lat="45.09331" lon="5.74657">
        <ele>309.20001220703</ele>
        <time>2011-04-22T14:44:46.000Z</time>
      </trkpt>
      <trkpt lat="45.09325" lon="5.74657">
        <ele>310.20001220703</ele>
        <time>2011-04-22T14:44:50.000Z</time>
      </trkpt>
      <trkpt lat="45.09319" lon="5.74656">
        <ele>311</ele>
        <time>2011-04-22T14:44:55.000Z</time>
      </trkpt>
      <trkpt lat="45.09316" lon="5.74655">
        <ele>311.20001220703</ele>
        <time>2011-04-22T14:44:58.000Z</time>
      </trkpt>
      <trkpt lat="45.09313" lon="5.74655">
        <ele>311.39999389648</ele>
        <time>2011-04-22T14:45:00.000Z</time>
      </trkpt>
      <trkpt lat="45.09311" lon="5.74656">
        <ele>312</ele>
        <time>2011-04-22T14:45:02.000Z</time>
      </trkpt>
      <trkpt lat="45.09308" lon="5.74657">
        <ele>312.79998779297</ele>
        <time>2011-04-22T14:45:04.000Z</time>
      </trkpt>
      <trkpt lat="45.09307" lon="5.74657">
        <ele>313.20001220703</ele>
        <time>2011-04-22T14:45:06.000Z</time>
      </trkpt>
      <trkpt lat="45.09306" lon="5.74658">
        <ele>313.60000610352</ele>
        <time>2011-04-22T14:45:08.000Z</time>
      </trkpt>
      <trkpt lat="45.09304" lon="5.7466">
        <ele>314.39999389648</ele>
        <time>2011-04-22T14:45:11.000Z</time>
      </trkpt>
      <trkpt lat="45.09303" lon="5.74661">
        <ele>314.60000610352</ele>
        <time>2011-04-22T14:45:12.000Z</time>
      </trkpt>
      <trkpt lat="45.09301" lon="5.74661">
        <ele>315</ele>
        <time>2011-04-22T14:45:14.000Z</time>
      </trkpt>
      <trkpt lat="45.09299" lon="5.74661">
        <ele>315.39999389648</ele>
        <time>2011-04-22T14:45:16.000Z</time>
      </trkpt>
      <trkpt lat="45.09296" lon="5.74661">
        <ele>316</ele>
        <time>2011-04-22T14:45:18.000Z</time>
      </trkpt>
      <trkpt lat="45.09293" lon="5.7466">
        <ele>316</ele>
        <time>2011-04-22T14:45:20.000Z</time>
      </trkpt>
      <trkpt lat="45.09291" lon="5.74658">
        <ele>315.79998779297</ele>
        <time>2011-04-22T14:45:22.000Z</time>
      </trkpt>
      <trkpt lat="45.09287" lon="5.74655">
        <ele>315.20001220703</ele>
        <time>2011-04-22T14:45:27.000Z</time>
      </trkpt>
      <trkpt lat="45.0928" lon="5.74653">
        <ele>315.60000610352</ele>
        <time>2011-04-22T14:45:35.000Z</time>
      </trkpt>
      <trkpt lat="45.09278" lon="5.74652">
        <ele>315.79998779297</ele>
        <time>2011-04-22T14:45:37.000Z</time>
      </trkpt>
      <trkpt lat="45.09276" lon="5.7465">
        <ele>315.60000610352</ele>
        <time>2011-04-22T14:45:41.000Z</time>
      </trkpt>
      <trkpt lat="45.0927" lon="5.74652">
        <ele>316.79998779297</ele>
        <time>2011-04-22T14:45:46.000Z</time>
      </trkpt>
      <trkpt lat="45.09265" lon="5.74649">
        <ele>316.79998779297</ele>
        <time>2011-04-22T14:45:51.000Z</time>
      </trkpt>
      <trkpt lat="45.09264" lon="5.74648">
        <ele>316.60000610352</ele>
        <time>2011-04-22T14:45:52.000Z</time>
      </trkpt>
      <trkpt lat="45.09261" lon="5.74648">
        <ele>317</ele>
        <time>2011-04-22T14:45:55.000Z</time>
      </trkpt>
      <trkpt lat="45.09259" lon="5.74647">
        <ele>317.20001220703</ele>
        <time>2011-04-22T14:45:57.000Z</time>
      </trkpt>
      <trkpt lat="45.09251" lon="5.74643">
        <ele>316.60000610352</ele>
        <time>2011-04-22T14:46:01.000Z</time>
      </trkpt>
      <trkpt lat="45.0925" lon="5.74643">
        <ele>317</ele>
        <time>2011-04-22T14:46:02.000Z</time>
      </trkpt>
      <trkpt lat="45.09245" lon="5.74643">
        <ele>316.60000610352</ele>
        <time>2011-04-22T14:46:06.000Z</time>
      </trkpt>
      <trkpt lat="45.09244" lon="5.74642">
        <ele>316.20001220703</ele>
        <time>2011-04-22T14:46:07.000Z</time>
      </trkpt>
      <trkpt lat="45.09242" lon="5.74641">
        <ele>316</ele>
        <time>2011-04-22T14:46:08.000Z</time>
      </trkpt>
      <trkpt lat="45.09242" lon="5.7464">
        <ele>315.79998779297</ele>
        <time>2011-04-22T14:46:09.000Z</time>
      </trkpt>
      <trkpt lat="45.09239" lon="5.74642">
        <ele>316.20001220703</ele>
        <time>2011-04-22T14:46:12.000Z</time>
      </trkpt>
      <trkpt lat="45.09238" lon="5.74643">
        <ele>316.39999389648</ele>
        <time>2011-04-22T14:46:13.000Z</time>
      </trkpt>
      <trkpt lat="45.09237" lon="5.74645">
        <ele>317.20001220703</ele>
        <time>2011-04-22T14:46:18.000Z</time>
      </trkpt>
      <trkpt lat="45.09235" lon="5.74654">
        <ele>319.79998779297</ele>
        <time>2011-04-22T14:46:23.000Z</time>
      </trkpt>
      <trkpt lat="45.09233" lon="5.74656">
        <ele>320.39999389648</ele>
        <time>2011-04-22T14:46:24.000Z</time>
      </trkpt>
      <trkpt lat="45.09231" lon="5.74657">
        <ele>320.60000610352</ele>
        <time>2011-04-22T14:46:25.000Z</time>
      </trkpt>
      <trkpt lat="45.09225" lon="5.74664">
        <ele>322</ele>
        <time>2011-04-22T14:46:28.000Z</time>
      </trkpt>
      <trkpt lat="45.09223" lon="5.74671">
        <ele>323.20001220703</ele>
        <time>2011-04-22T14:46:30.000Z</time>
      </trkpt>
      <trkpt lat="45.0922" lon="5.74678">
        <ele>324</ele>
        <time>2011-04-22T14:46:32.000Z</time>
      </trkpt>
      <trkpt lat="45.09215" lon="5.74698">
        <ele>326.39999389648</ele>
        <time>2011-04-22T14:46:38.000Z</time>
      </trkpt>
      <trkpt lat="45.09214" lon="5.74704">
        <ele>327.39999389648</ele>
        <time>2011-04-22T14:46:40.000Z</time>
      </trkpt>
      <trkpt lat="45.0921" lon="5.74721">
        <ele>329.60000610352</ele>
        <time>2011-04-22T14:46:46.000Z</time>
      </trkpt>
      <trkpt lat="45.09208" lon="5.74729">
        <ele>330.79998779297</ele>
        <time>2011-04-22T14:46:49.000Z</time>
      </trkpt>
      <trkpt lat="45.09205" lon="5.74739">
        <ele>332.20001220703</ele>
        <time>2011-04-22T14:46:53.000Z</time>
      </trkpt>
      <trkpt lat="45.092" lon="5.74749">
        <ele>333.60000610352</ele>
        <time>2011-04-22T14:46:58.000Z</time>
      </trkpt>
      <trkpt lat="45.09199" lon="5.74752">
        <ele>334.39999389648</ele>
        <time>2011-04-22T14:47:00.000Z</time>
      </trkpt>
      <trkpt lat="45.09198" lon="5.74758">
        <ele>336.60000610352</ele>
        <time>2011-04-22T14:47:04.000Z</time>
      </trkpt>
      <trkpt lat="45.09198" lon="5.74768">
        <ele>340.20001220703</ele>
        <time>2011-04-22T14:47:11.000Z</time>
      </trkpt>
      <trkpt lat="45.09196" lon="5.74774">
        <ele>342.20001220703</ele>
        <time>2011-04-22T14:47:15.000Z</time>
      </trkpt>
      <trkpt lat="45.09195" lon="5.74775">
        <ele>342.79998779297</ele>
        <time>2011-04-22T14:47:17.000Z</time>
      </trkpt>
      <trkpt lat="45.09195" lon="5.74777">
        <ele>343.39999389648</ele>
        <time>2011-04-22T14:47:18.000Z</time>
      </trkpt>
      <trkpt lat="45.09194" lon="5.74779">
        <ele>344.39999389648</ele>
        <time>2011-04-22T14:47:20.000Z</time>
      </trkpt>
      <trkpt lat="45.09194" lon="5.7478">
        <ele>344.79998779297</ele>
        <time>2011-04-22T14:47:21.000Z</time>
      </trkpt>
      <trkpt lat="45.09193" lon="5.74791">
        <ele>348.60000610352</ele>
        <time>2011-04-22T14:47:26.000Z</time>
      </trkpt>
      <trkpt lat="45.09189" lon="5.74797">
        <ele>350.79998779297</ele>
        <time>2011-04-22T14:47:31.000Z</time>
      </trkpt>
      <trkpt lat="45.09188" lon="5.74799">
        <ele>351.79998779297</ele>
        <time>2011-04-22T14:47:33.000Z</time>
      </trkpt>
      <trkpt lat="45.09187" lon="5.74799">
        <ele>351.79998779297</ele>
        <time>2011-04-22T14:47:34.000Z</time>
      </trkpt>
      <trkpt lat="45.09184" lon="5.748">
        <ele>352.20001220703</ele>
        <time>2011-04-22T14:47:36.000Z</time>
      </trkpt>
      <trkpt lat="45.09181" lon="5.748">
        <ele>352</ele>
        <time>2011-04-22T14:47:38.000Z</time>
      </trkpt>
      <trkpt lat="45.09176" lon="5.74801">
        <ele>352.39999389648</ele>
        <time>2011-04-22T14:47:41.000Z</time>
      </trkpt>
      <trkpt lat="45.09171" lon="5.74802">
        <ele>352.79998779297</ele>
        <time>2011-04-22T14:47:45.000Z</time>
      </trkpt>
      <trkpt lat="45.09169" lon="5.74802">
        <ele>353</ele>
        <time>2011-04-22T14:47:46.000Z</time>
      </trkpt>
      <trkpt lat="45.09166" lon="5.74804">
        <ele>353.60000610352</ele>
        <time>2011-04-22T14:47:49.000Z</time>
      </trkpt>
      <trkpt lat="45.09164" lon="5.74805">
        <ele>353.79998779297</ele>
        <time>2011-04-22T14:47:51.000Z</time>
      </trkpt>
      <trkpt lat="45.09162" lon="5.74805">
        <ele>354.20001220703</ele>
        <time>2011-04-22T14:47:53.000Z</time>
      </trkpt>
      <trkpt lat="45.0916" lon="5.74806">
        <ele>354.60000610352</ele>
        <time>2011-04-22T14:47:55.000Z</time>
      </trkpt>
      <trkpt lat="45.09156" lon="5.74811">
        <ele>356.60000610352</ele>
        <time>2011-04-22T14:48:00.000Z</time>
      </trkpt>
      <trkpt lat="45.09154" lon="5.74814">
        <ele>357.79998779297</ele>
        <time>2011-04-22T14:48:02.000Z</time>
      </trkpt>
      <trkpt lat="45.09153" lon="5.74816">
        <ele>358.39999389648</ele>
        <time>2011-04-22T14:48:03.000Z</time>
      </trkpt>
      <trkpt lat="45.09148" lon="5.74822">
        <ele>361</ele>
        <time>2011-04-22T14:48:08.000Z</time>
      </trkpt>
      <trkpt lat="45.09144" lon="5.74825">
        <ele>362.60000610352</ele>
        <time>2011-04-22T14:48:11.000Z</time>
      </trkpt>
      <trkpt lat="45.09138" lon="5.74831">
        <ele>365.20001220703</ele>
        <time>2011-04-22T14:48:15.000Z</time>
      </trkpt>
      <trkpt lat="45.09131" lon="5.74837">
        <ele>367.60000610352</ele>
        <time>2011-04-22T14:48:19.000Z</time>
      </trkpt>
      <trkpt lat="45.09128" lon="5.74839">
        <ele>368.39999389648</ele>
        <time>2011-04-22T14:48:21.000Z</time>
      </trkpt>
      <trkpt lat="45.09123" lon="5.7484">
        <ele>369</ele>
        <time>2011-04-22T14:48:23.000Z</time>
      </trkpt>
      <trkpt lat="45.09121" lon="5.74841">
        <ele>369.39999389648</ele>
        <time>2011-04-22T14:48:24.000Z</time>
      </trkpt>
      <trkpt lat="45.09117" lon="5.74842">
        <ele>370</ele>
        <time>2011-04-22T14:48:26.000Z</time>
      </trkpt>
      <trkpt lat="45.09106" lon="5.74845">
        <ele>371.79998779297</ele>
        <time>2011-04-22T14:48:32.000Z</time>
      </trkpt>
      <trkpt lat="45.09104" lon="5.74846">
        <ele>372.20001220703</ele>
        <time>2011-04-22T14:48:33.000Z</time>
      </trkpt>
      <trkpt lat="45.09092" lon="5.74846">
        <ele>372.60000610352</ele>
        <time>2011-04-22T14:48:38.000Z</time>
      </trkpt>
      <trkpt lat="45.09087" lon="5.74845">
        <ele>372.39999389648</ele>
        <time>2011-04-22T14:48:40.000Z</time>
      </trkpt>
      <trkpt lat="45.09086" lon="5.74843">
        <ele>371.79998779297</ele>
        <time>2011-04-22T14:48:41.000Z</time>
      </trkpt>
      <trkpt lat="45.09084" lon="5.74842">
        <ele>371.20001220703</ele>
        <time>2011-04-22T14:48:42.000Z</time>
      </trkpt>
      <trkpt lat="45.09072" lon="5.74834">
        <ele>370.79998779297</ele>
        <time>2011-04-22T14:48:49.000Z</time>
      </trkpt>
      <trkpt lat="45.09071" lon="5.74833">
        <ele>370.60000610352</ele>
        <time>2011-04-22T14:48:50.000Z</time>
      </trkpt>
      <trkpt lat="45.09067" lon="5.7483">
        <ele>370.39999389648</ele>
        <time>2011-04-22T14:48:52.000Z</time>
      </trkpt>
      <trkpt lat="45.09062" lon="5.74828">
        <ele>370.60000610352</ele>
        <time>2011-04-22T14:48:55.000Z</time>
      </trkpt>
      <trkpt lat="45.09049" lon="5.74825">
        <ele>372.39999389648</ele>
        <time>2011-04-22T14:49:03.000Z</time>
      </trkpt>
      <trkpt lat="45.09039" lon="5.74821">
        <ele>373</ele>
        <time>2011-04-22T14:49:09.000Z</time>
      </trkpt>
      <trkpt lat="45.0903" lon="5.7482">
        <ele>374.60000610352</ele>
        <time>2011-04-22T14:49:13.000Z</time>
      </trkpt>
      <trkpt lat="45.09028" lon="5.7482">
        <ele>375</ele>
        <time>2011-04-22T14:49:14.000Z</time>
      </trkpt>
      <trkpt lat="45.09018" lon="5.74815">
        <ele>375</ele>
        <time>2011-04-22T14:49:19.000Z</time>
      </trkpt>
      <trkpt lat="45.09012" lon="5.74813">
        <ele>375.39999389648</ele>
        <time>2011-04-22T14:49:22.000Z</time>
      </trkpt>
      <trkpt lat="45.0901" lon="5.74812">
        <ele>375.60000610352</ele>
        <time>2011-04-22T14:49:23.000Z</time>
      </trkpt>
      <trkpt lat="45.09008" lon="5.74812">
        <ele>375.79998779297</ele>
        <time>2011-04-22T14:49:24.000Z</time>
      </trkpt>
      <trkpt lat="45.08994" lon="5.74812">
        <ele>378.39999389648</ele>
        <time>2011-04-22T14:49:30.000Z</time>
      </trkpt>
      <trkpt lat="45.08992" lon="5.74812">
        <ele>379</ele>
        <time>2011-04-22T14:49:31.000Z</time>
      </trkpt>
      <trkpt lat="45.08982" lon="5.74812">
        <ele>380.39999389648</ele>
        <time>2011-04-22T14:49:36.000Z</time>
      </trkpt>
      <trkpt lat="45.08972" lon="5.74811">
        <ele>381.20001220703</ele>
        <time>2011-04-22T14:49:41.000Z</time>
      </trkpt>
      <trkpt lat="45.08971" lon="5.7481">
        <ele>381</ele>
        <time>2011-04-22T14:49:42.000Z</time>
      </trkpt>
      <trkpt lat="45.08969" lon="5.74809">
        <ele>381</ele>
        <time>2011-04-22T14:49:43.000Z</time>
      </trkpt>
      <trkpt lat="45.08961" lon="5.74806">
        <ele>381</ele>
        <time>2011-04-22T14:49:47.000Z</time>
      </trkpt>
      <trkpt lat="45.08959" lon="5.74807">
        <ele>381.60000610352</ele>
        <time>2011-04-22T14:49:48.000Z</time>
      </trkpt>
      <trkpt lat="45.08955" lon="5.74807">
        <ele>382.20001220703</ele>
        <time>2011-04-22T14:49:50.000Z</time>
      </trkpt>
      <trkpt lat="45.08952" lon="5.74807">
        <ele>382.60000610352</ele>
        <time>2011-04-22T14:49:52.000Z</time>
      </trkpt>
      <trkpt lat="45.08949" lon="5.74808">
        <ele>383.39999389648</ele>
        <time>2011-04-22T14:49:54.000Z</time>
      </trkpt>
      <trkpt lat="45.08942" lon="5.74809">
        <ele>385.20001220703</ele>
        <time>2011-04-22T14:49:58.000Z</time>
      </trkpt>
      <trkpt lat="45.08938" lon="5.74811">
        <ele>386.39999389648</ele>
        <time>2011-04-22T14:50:01.000Z</time>
      </trkpt>
      <trkpt lat="45.08936" lon="5.74813">
        <ele>387.39999389648</ele>
        <time>2011-04-22T14:50:04.000Z</time>
      </trkpt>
      <trkpt lat="45.08935" lon="5.74814">
        <ele>388.20001220703</ele>
        <time>2011-04-22T14:50:06.000Z</time>
      </trkpt>
      <trkpt lat="45.0893" lon="5.74817">
        <ele>389.79998779297</ele>
        <time>2011-04-22T14:50:10.000Z</time>
      </trkpt>
      <trkpt lat="45.08929" lon="5.74818">
        <ele>390.39999389648</ele>
        <time>2011-04-22T14:50:11.000Z</time>
      </trkpt>
      <trkpt lat="45.08923" lon="5.74823">
        <ele>393</ele>
        <time>2011-04-22T14:50:17.000Z</time>
      </trkpt>
      <trkpt lat="45.0892" lon="5.74825">
        <ele>394.39999389648</ele>
        <time>2011-04-22T14:50:22.000Z</time>
      </trkpt>
      <trkpt lat="45.08919" lon="5.74825">
        <ele>394.39999389648</ele>
        <time>2011-04-22T14:50:23.000Z</time>
      </trkpt>
      <trkpt lat="45.08913" lon="5.74827">
        <ele>396.20001220703</ele>
        <time>2011-04-22T14:50:27.000Z</time>
      </trkpt>
      <trkpt lat="45.0891" lon="5.74828">
        <ele>396.79998779297</ele>
        <time>2011-04-22T14:50:29.000Z</time>
      </trkpt>
      <trkpt lat="45.08903" lon="5.74827">
        <ele>397.60000610352</ele>
        <time>2011-04-22T14:50:34.000Z</time>
      </trkpt>
      <trkpt lat="45.08901" lon="5.74827">
        <ele>397.79998779297</ele>
        <time>2011-04-22T14:50:35.000Z</time>
      </trkpt>
      <trkpt lat="45.08895" lon="5.74827">
        <ele>398.60000610352</ele>
        <time>2011-04-22T14:50:40.000Z</time>
      </trkpt>
      <trkpt lat="45.08894" lon="5.74827">
        <ele>398.79998779297</ele>
        <time>2011-04-22T14:50:41.000Z</time>
      </trkpt>
      <trkpt lat="45.08884" lon="5.74828">
        <ele>400.39999389648</ele>
        <time>2011-04-22T14:50:47.000Z</time>
      </trkpt>
      <trkpt lat="45.08882" lon="5.74828">
        <ele>400.79998779297</ele>
        <time>2011-04-22T14:50:48.000Z</time>
      </trkpt>
      <trkpt lat="45.08873" lon="5.74829">
        <ele>402.39999389648</ele>
        <time>2011-04-22T14:50:53.000Z</time>
      </trkpt>
      <trkpt lat="45.08871" lon="5.74829">
        <ele>402.60000610352</ele>
        <time>2011-04-22T14:50:54.000Z</time>
      </trkpt>
      <trkpt lat="45.08864" lon="5.7483">
        <ele>403.79998779297</ele>
        <time>2011-04-22T14:50:58.000Z</time>
      </trkpt>
      <trkpt lat="45.08863" lon="5.7483">
        <ele>404</ele>
        <time>2011-04-22T14:50:59.000Z</time>
      </trkpt>
      <trkpt lat="45.08854" lon="5.74831">
        <ele>405.60000610352</ele>
        <time>2011-04-22T14:51:03.000Z</time>
      </trkpt>
      <trkpt lat="45.08851" lon="5.74831">
        <ele>405.79998779297</ele>
        <time>2011-04-22T14:51:04.000Z</time>
      </trkpt>
      <trkpt lat="45.08845" lon="5.74833">
        <ele>407.20001220703</ele>
        <time>2011-04-22T14:51:08.000Z</time>
      </trkpt>
      <trkpt lat="45.08842" lon="5.74834">
        <ele>408</ele>
        <time>2011-04-22T14:51:10.000Z</time>
      </trkpt>
      <trkpt lat="45.08834" lon="5.74836">
        <ele>409.79998779297</ele>
        <time>2011-04-22T14:51:16.000Z</time>
      </trkpt>
      <trkpt lat="45.08827" lon="5.74834">
        <ele>409</ele>
        <time>2011-04-22T14:51:21.000Z</time>
      </trkpt>
      <trkpt lat="45.08824" lon="5.74834">
        <ele>408.79998779297</ele>
        <time>2011-04-22T14:51:23.000Z</time>
      </trkpt>
      <trkpt lat="45.08815" lon="5.74828">
        <ele>407</ele>
        <time>2011-04-22T14:51:27.000Z</time>
      </trkpt>
      <trkpt lat="45.08811" lon="5.74828">
        <ele>406.79998779297</ele>
        <time>2011-04-22T14:51:30.000Z</time>
      </trkpt>
      <trkpt lat="45.0881" lon="5.74829">
        <ele>407</ele>
        <time>2011-04-22T14:51:31.000Z</time>
      </trkpt>
      <trkpt lat="45.08811" lon="5.7483">
        <ele>407.39999389648</ele>
        <time>2011-04-22T14:51:32.000Z</time>
      </trkpt>
      <trkpt lat="45.08811" lon="5.74833">
        <ele>408.39999389648</ele>
        <time>2011-04-22T14:51:34.000Z</time>
      </trkpt>
      <trkpt lat="45.08814" lon="5.74837">
        <ele>409.60000610352</ele>
        <time>2011-04-22T14:51:37.000Z</time>
      </trkpt>
      <trkpt lat="45.08816" lon="5.74839">
        <ele>410.20001220703</ele>
        <time>2011-04-22T14:51:39.000Z</time>
      </trkpt>
      <trkpt lat="45.08817" lon="5.74845">
        <ele>412.20001220703</ele>
        <time>2011-04-22T14:51:43.000Z</time>
      </trkpt>
      <trkpt lat="45.08812" lon="5.74847">
        <ele>412.79998779297</ele>
        <time>2011-04-22T14:51:47.000Z</time>
      </trkpt>
      <trkpt lat="45.08811" lon="5.74847">
        <ele>412.79998779297</ele>
        <time>2011-04-22T14:51:48.000Z</time>
      </trkpt>
      <trkpt lat="45.08805" lon="5.74846">
        <ele>412.39999389648</ele>
        <time>2011-04-22T14:51:53.000Z</time>
      </trkpt>
      <trkpt lat="45.08801" lon="5.74845">
        <ele>412</ele>
        <time>2011-04-22T14:51:56.000Z</time>
      </trkpt>
      <trkpt lat="45.08799" lon="5.74845">
        <ele>412</ele>
        <time>2011-04-22T14:51:59.000Z</time>
      </trkpt>
      <trkpt lat="45.08803" lon="5.74837">
        <ele>409.39999389648</ele>
        <time>2011-04-22T14:52:15.000Z</time>
      </trkpt>
      <trkpt lat="45.08803" lon="5.74838">
        <ele>409.79998779297</ele>
        <time>2011-04-22T14:52:33.000Z</time>
      </trkpt>
      <trkpt lat="45.08808" lon="5.74838">
        <ele>409.60000610352</ele>
        <time>2011-04-22T14:52:45.000Z</time>
      </trkpt>
      <trkpt lat="45.08808" lon="5.74844">
        <ele>411.60000610352</ele>
        <time>2011-04-22T14:53:05.000Z</time>
      </trkpt>
      <trkpt lat="45.088" lon="5.74844">
        <ele>411.60000610352</ele>
        <time>2011-04-22T14:53:43.000Z</time>
      </trkpt>
      <trkpt lat="45.08799" lon="5.74845">
        <ele>411.79998779297</ele>
        <time>2011-04-22T14:53:50.000Z</time>
      </trkpt>
      <trkpt lat="45.08793" lon="5.74842">
        <ele>410.79998779297</ele>
        <time>2011-04-22T14:53:54.000Z</time>
      </trkpt>
      <trkpt lat="45.08789" lon="5.74841">
        <ele>410.39999389648</ele>
        <time>2011-04-22T14:53:56.000Z</time>
      </trkpt>
      <trkpt lat="45.08779" lon="5.74841">
        <ele>410.20001220703</ele>
        <time>2011-04-22T14:54:01.000Z</time>
      </trkpt>
      <trkpt lat="45.08773" lon="5.74841">
        <ele>409.79998779297</ele>
        <time>2011-04-22T14:54:04.000Z</time>
      </trkpt>
      <trkpt lat="45.08771" lon="5.7484">
        <ele>409.60000610352</ele>
        <time>2011-04-22T14:54:06.000Z</time>
      </trkpt>
      <trkpt lat="45.08766" lon="5.74841">
        <ele>409.79998779297</ele>
        <time>2011-04-22T14:54:10.000Z</time>
      </trkpt>
      <trkpt lat="45.08765" lon="5.74842">
        <ele>410.20001220703</ele>
        <time>2011-04-22T14:54:11.000Z</time>
      </trkpt>
      <trkpt lat="45.08762" lon="5.74843">
        <ele>410.60000610352</ele>
        <time>2011-04-22T14:54:14.000Z</time>
      </trkpt>
      <trkpt lat="45.08762" lon="5.74844">
        <ele>410.79998779297</ele>
        <time>2011-04-22T14:54:15.000Z</time>
      </trkpt>
      <trkpt lat="45.08762" lon="5.74844">
        <ele>411</ele>
        <time>2011-04-22T14:54:20.000Z</time>
      </trkpt>
      <trkpt lat="45.08761" lon="5.74847">
        <ele>412</ele>
        <time>2011-04-22T14:54:29.000Z</time>
      </trkpt>
      <trkpt lat="45.08759" lon="5.74848">
        <ele>412.20001220703</ele>
        <time>2011-04-22T14:54:30.000Z</time>
      </trkpt>
      <trkpt lat="45.08745" lon="5.74853">
        <ele>413</ele>
        <time>2011-04-22T14:54:35.000Z</time>
      </trkpt>
      <trkpt lat="45.08741" lon="5.74853">
        <ele>412.79998779297</ele>
        <time>2011-04-22T14:54:36.000Z</time>
      </trkpt>
      <trkpt lat="45.08729" lon="5.74857">
        <ele>412.60000610352</ele>
        <time>2011-04-22T14:54:41.000Z</time>
      </trkpt>
      <trkpt lat="45.08723" lon="5.7486">
        <ele>412.79998779297</ele>
        <time>2011-04-22T14:54:44.000Z</time>
      </trkpt>
      <trkpt lat="45.08718" lon="5.74862">
        <ele>413</ele>
        <time>2011-04-22T14:54:46.000Z</time>
      </trkpt>
      <trkpt lat="45.08715" lon="5.74864">
        <ele>413</ele>
        <time>2011-04-22T14:54:47.000Z</time>
      </trkpt>
      <trkpt lat="45.08711" lon="5.74866">
        <ele>413.20001220703</ele>
        <time>2011-04-22T14:54:49.000Z</time>
      </trkpt>
      <trkpt lat="45.08709" lon="5.74868">
        <ele>413.39999389648</ele>
        <time>2011-04-22T14:54:50.000Z</time>
      </trkpt>
      <trkpt lat="45.08704" lon="5.74872">
        <ele>413.79998779297</ele>
        <time>2011-04-22T14:54:53.000Z</time>
      </trkpt>
      <trkpt lat="45.087" lon="5.74876">
        <ele>414</ele>
        <time>2011-04-22T14:54:55.000Z</time>
      </trkpt>
      <trkpt lat="45.0869" lon="5.74882">
        <ele>414.20001220703</ele>
        <time>2011-04-22T14:55:00.000Z</time>
      </trkpt>
      <trkpt lat="45.08688" lon="5.74883">
        <ele>414</ele>
        <time>2011-04-22T14:55:01.000Z</time>
      </trkpt>
      <trkpt lat="45.08683" lon="5.74884">
        <ele>413.39999389648</ele>
        <time>2011-04-22T14:55:03.000Z</time>
      </trkpt>
      <trkpt lat="45.08679" lon="5.74886">
        <ele>413</ele>
        <time>2011-04-22T14:55:05.000Z</time>
      </trkpt>
      <trkpt lat="45.0867" lon="5.74889">
        <ele>412.20001220703</ele>
        <time>2011-04-22T14:55:09.000Z</time>
      </trkpt>
      <trkpt lat="45.08668" lon="5.74889">
        <ele>411.79998779297</ele>
        <time>2011-04-22T14:55:10.000Z</time>
      </trkpt>
      <trkpt lat="45.08659" lon="5.74897">
        <ele>411</ele>
        <time>2011-04-22T14:55:15.000Z</time>
      </trkpt>
      <trkpt lat="45.08656" lon="5.74903">
        <ele>411.39999389648</ele>
        <time>2011-04-22T14:55:17.000Z</time>
      </trkpt>
      <trkpt lat="45.08653" lon="5.74909">
        <ele>411.60000610352</ele>
        <time>2011-04-22T14:55:19.000Z</time>
      </trkpt>
      <trkpt lat="45.08651" lon="5.74919">
        <ele>412.39999389648</ele>
        <time>2011-04-22T14:55:22.000Z</time>
      </trkpt>
      <trkpt lat="45.0865" lon="5.74922">
        <ele>412.20001220703</ele>
        <time>2011-04-22T14:55:23.000Z</time>
      </trkpt>
      <trkpt lat="45.08648" lon="5.74926">
        <ele>412</ele>
        <time>2011-04-22T14:55:24.000Z</time>
      </trkpt>
      <trkpt lat="45.08644" lon="5.74936">
        <ele>411.20001220703</ele>
        <time>2011-04-22T14:55:27.000Z</time>
      </trkpt>
      <trkpt lat="45.0864" lon="5.74949">
        <ele>410.39999389648</ele>
        <time>2011-04-22T14:55:31.000Z</time>
      </trkpt>
      <trkpt lat="45.0864" lon="5.74952">
        <ele>410.20001220703</ele>
        <time>2011-04-22T14:55:32.000Z</time>
      </trkpt>
      <trkpt lat="45.08638" lon="5.7497">
        <ele>410.20001220703</ele>
        <time>2011-04-22T14:55:37.000Z</time>
      </trkpt>
      <trkpt lat="45.08637" lon="5.74975">
        <ele>410</ele>
        <time>2011-04-22T14:55:38.000Z</time>
      </trkpt>
      <trkpt lat="45.08638" lon="5.74987">
        <ele>411</ele>
        <time>2011-04-22T14:55:41.000Z</time>
      </trkpt>
      <trkpt lat="45.08638" lon="5.74993">
        <ele>411.20001220703</ele>
        <time>2011-04-22T14:55:43.000Z</time>
      </trkpt>
      <trkpt lat="45.08637" lon="5.74999">
        <ele>411</ele>
        <time>2011-04-22T14:55:45.000Z</time>
      </trkpt>
      <trkpt lat="45.08637" lon="5.75003">
        <ele>410.79998779297</ele>
        <time>2011-04-22T14:55:46.000Z</time>
      </trkpt>
      <trkpt lat="45.08637" lon="5.75019">
        <ele>410.39999389648</ele>
        <time>2011-04-22T14:55:50.000Z</time>
      </trkpt>
      <trkpt lat="45.08638" lon="5.75027">
        <ele>410.39999389648</ele>
        <time>2011-04-22T14:55:52.000Z</time>
      </trkpt>
      <trkpt lat="45.08638" lon="5.7503">
        <ele>410.39999389648</ele>
        <time>2011-04-22T14:55:53.000Z</time>
      </trkpt>
      <trkpt lat="45.08639" lon="5.75033">
        <ele>410.60000610352</ele>
        <time>2011-04-22T14:55:54.000Z</time>
      </trkpt>
      <trkpt lat="45.08642" lon="5.75049">
        <ele>411.20001220703</ele>
        <time>2011-04-22T14:55:59.000Z</time>
      </trkpt>
      <trkpt lat="45.08643" lon="5.75058">
        <ele>411.39999389648</ele>
        <time>2011-04-22T14:56:02.000Z</time>
      </trkpt>
      <trkpt lat="45.08644" lon="5.75065">
        <ele>411.39999389648</ele>
        <time>2011-04-22T14:56:04.000Z</time>
      </trkpt>
      <trkpt lat="45.08645" lon="5.75068">
        <ele>411.79998779297</ele>
        <time>2011-04-22T14:56:05.000Z</time>
      </trkpt>
      <trkpt lat="45.08646" lon="5.75082">
        <ele>411.60000610352</ele>
        <time>2011-04-22T14:56:09.000Z</time>
      </trkpt>
      <trkpt lat="45.08646" lon="5.75086">
        <ele>411.60000610352</ele>
        <time>2011-04-22T14:56:10.000Z</time>
      </trkpt>
      <trkpt lat="45.08652" lon="5.75098">
        <ele>413</ele>
        <time>2011-04-22T14:56:14.000Z</time>
      </trkpt>
      <trkpt lat="45.08658" lon="5.75108">
        <ele>414.79998779297</ele>
        <time>2011-04-22T14:56:18.000Z</time>
      </trkpt>
      <trkpt lat="45.0866" lon="5.7511">
        <ele>415.60000610352</ele>
        <time>2011-04-22T14:56:19.000Z</time>
      </trkpt>
      <trkpt lat="45.08667" lon="5.75125">
        <ele>417.60000610352</ele>
        <time>2011-04-22T14:56:25.000Z</time>
      </trkpt>
      <trkpt lat="45.08668" lon="5.75128">
        <ele>418</ele>
        <time>2011-04-22T14:56:26.000Z</time>
      </trkpt>
      <trkpt lat="45.0867" lon="5.75137">
        <ele>418.79998779297</ele>
        <time>2011-04-22T14:56:29.000Z</time>
      </trkpt>
      <trkpt lat="45.08671" lon="5.75156">
        <ele>417.39999389648</ele>
        <time>2011-04-22T14:56:35.000Z</time>
      </trkpt>
      <trkpt lat="45.08672" lon="5.75166">
        <ele>417</ele>
        <time>2011-04-22T14:56:38.000Z</time>
      </trkpt>
      <trkpt lat="45.08673" lon="5.75173">
        <ele>417.79998779297</ele>
        <time>2011-04-22T14:56:40.000Z</time>
      </trkpt>
      <trkpt lat="45.08676" lon="5.75182">
        <ele>420.20001220703</ele>
        <time>2011-04-22T14:56:43.000Z</time>
      </trkpt>
      <trkpt lat="45.08677" lon="5.75185">
        <ele>421.20001220703</ele>
        <time>2011-04-22T14:56:44.000Z</time>
      </trkpt>
      <trkpt lat="45.0868" lon="5.75192">
        <ele>423</ele>
        <time>2011-04-22T14:56:46.000Z</time>
      </trkpt>
      <trkpt lat="45.08681" lon="5.75199">
        <ele>424.39999389648</ele>
        <time>2011-04-22T14:56:48.000Z</time>
      </trkpt>
      <trkpt lat="45.08682" lon="5.75208">
        <ele>424.79998779297</ele>
        <time>2011-04-22T14:56:51.000Z</time>
      </trkpt>
      <trkpt lat="45.08684" lon="5.75215">
        <ele>426</ele>
        <time>2011-04-22T14:56:54.000Z</time>
      </trkpt>
      <trkpt lat="45.08686" lon="5.75234">
        <ele>427.20001220703</ele>
        <time>2011-04-22T14:57:01.000Z</time>
      </trkpt>
      <trkpt lat="45.0869" lon="5.75246">
        <ele>429.79998779297</ele>
        <time>2011-04-22T14:57:06.000Z</time>
      </trkpt>
      <trkpt lat="45.08689" lon="5.75254">
        <ele>428.79998779297</ele>
        <time>2011-04-22T14:57:09.000Z</time>
      </trkpt>
      <trkpt lat="45.08689" lon="5.75256">
        <ele>428.79998779297</ele>
        <time>2011-04-22T14:57:10.000Z</time>
      </trkpt>
      <trkpt lat="45.08689" lon="5.75259">
        <ele>428.60000610352</ele>
        <time>2011-04-22T14:57:11.000Z</time>
      </trkpt>
      <trkpt lat="45.0869" lon="5.7527">
        <ele>427.60000610352</ele>
        <time>2011-04-22T14:57:14.000Z</time>
      </trkpt>
      <trkpt lat="45.08691" lon="5.75277">
        <ele>428</ele>
        <time>2011-04-22T14:57:16.000Z</time>
      </trkpt>
      <trkpt lat="45.08694" lon="5.75284">
        <ele>429.39999389648</ele>
        <time>2011-04-22T14:57:18.000Z</time>
      </trkpt>
      <trkpt lat="45.08699" lon="5.75293">
        <ele>431.60000610352</ele>
        <time>2011-04-22T14:57:21.000Z</time>
      </trkpt>
      <trkpt lat="45.087" lon="5.75303">
        <ele>431.79998779297</ele>
        <time>2011-04-22T14:57:24.000Z</time>
      </trkpt>
      <trkpt lat="45.08701" lon="5.75309">
        <ele>432.20001220703</ele>
        <time>2011-04-22T14:57:26.000Z</time>
      </trkpt>
      <trkpt lat="45.08707" lon="5.75327">
        <ele>434.60000610352</ele>
        <time>2011-04-22T14:57:32.000Z</time>
      </trkpt>
      <trkpt lat="45.08709" lon="5.75333">
        <ele>435.39999389648</ele>
        <time>2011-04-22T14:57:34.000Z</time>
      </trkpt>
      <trkpt lat="45.08711" lon="5.75345">
        <ele>435.60000610352</ele>
        <time>2011-04-22T14:57:38.000Z</time>
      </trkpt>
      <trkpt lat="45.08711" lon="5.7535">
        <ele>435</ele>
        <time>2011-04-22T14:57:40.000Z</time>
      </trkpt>
      <trkpt lat="45.08712" lon="5.75359">
        <ele>434.79998779297</ele>
        <time>2011-04-22T14:57:43.000Z</time>
      </trkpt>
      <trkpt lat="45.08713" lon="5.75363">
        <ele>435.39999389648</ele>
        <time>2011-04-22T14:57:44.000Z</time>
      </trkpt>
      <trkpt lat="45.08716" lon="5.75376">
        <ele>436.60000610352</ele>
        <time>2011-04-22T14:57:48.000Z</time>
      </trkpt>
      <trkpt lat="45.08719" lon="5.75385">
        <ele>437.60000610352</ele>
        <time>2011-04-22T14:57:51.000Z</time>
      </trkpt>
      <trkpt lat="45.08722" lon="5.75397">
        <ele>438.39999389648</ele>
        <time>2011-04-22T14:57:54.000Z</time>
      </trkpt>
      <trkpt lat="45.08724" lon="5.7541">
        <ele>438</ele>
        <time>2011-04-22T14:57:57.000Z</time>
      </trkpt>
      <trkpt lat="45.08725" lon="5.75417">
        <ele>437.79998779297</ele>
        <time>2011-04-22T14:57:59.000Z</time>
      </trkpt>
      <trkpt lat="45.08724" lon="5.75435">
        <ele>437.39999389648</ele>
        <time>2011-04-22T14:58:03.000Z</time>
      </trkpt>
      <trkpt lat="45.08722" lon="5.75439">
        <ele>435.79998779297</ele>
        <time>2011-04-22T14:58:04.000Z</time>
      </trkpt>
      <trkpt lat="45.0872" lon="5.75457">
        <ele>434</ele>
        <time>2011-04-22T14:58:09.000Z</time>
      </trkpt>
      <trkpt lat="45.08719" lon="5.75461">
        <ele>433.20001220703</ele>
        <time>2011-04-22T14:58:10.000Z</time>
      </trkpt>
      <trkpt lat="45.08715" lon="5.7548">
        <ele>429.79998779297</ele>
        <time>2011-04-22T14:58:15.000Z</time>
      </trkpt>
      <trkpt lat="45.08713" lon="5.75488">
        <ele>428.39999389648</ele>
        <time>2011-04-22T14:58:17.000Z</time>
      </trkpt>
      <trkpt lat="45.08713" lon="5.75498">
        <ele>428.20001220703</ele>
        <time>2011-04-22T14:58:20.000Z</time>
      </trkpt>
      <trkpt lat="45.08713" lon="5.75505">
        <ele>427.79998779297</ele>
        <time>2011-04-22T14:58:22.000Z</time>
      </trkpt>
      <trkpt lat="45.08712" lon="5.75514">
        <ele>426.79998779297</ele>
        <time>2011-04-22T14:58:25.000Z</time>
      </trkpt>
      <trkpt lat="45.08713" lon="5.75536">
        <ele>426.20001220703</ele>
        <time>2011-04-22T14:58:31.000Z</time>
      </trkpt>
      <trkpt lat="45.08713" lon="5.7554">
        <ele>426</ele>
        <time>2011-04-22T14:58:32.000Z</time>
      </trkpt>
      <trkpt lat="45.08715" lon="5.75544">
        <ele>426.60000610352</ele>
        <time>2011-04-22T14:58:33.000Z</time>
      </trkpt>
      <trkpt lat="45.08716" lon="5.75553">
        <ele>427</ele>
        <time>2011-04-22T14:58:36.000Z</time>
      </trkpt>
      <trkpt lat="45.08717" lon="5.75556">
        <ele>427.39999389648</ele>
        <time>2011-04-22T14:58:37.000Z</time>
      </trkpt>
      <trkpt lat="45.08724" lon="5.75564">
        <ele>431</ele>
        <time>2011-04-22T14:58:40.000Z</time>
      </trkpt>
      <trkpt lat="45.0873" lon="5.75572">
        <ele>433.79998779297</ele>
        <time>2011-04-22T14:58:43.000Z</time>
      </trkpt>
      <trkpt lat="45.08731" lon="5.75575">
        <ele>434.20001220703</ele>
        <time>2011-04-22T14:58:44.000Z</time>
      </trkpt>
      <trkpt lat="45.08736" lon="5.75585">
        <ele>436</ele>
        <time>2011-04-22T14:58:48.000Z</time>
      </trkpt>
      <trkpt lat="45.08736" lon="5.75588">
        <ele>435.79998779297</ele>
        <time>2011-04-22T14:58:49.000Z</time>
      </trkpt>
      <trkpt lat="45.08737" lon="5.75591">
        <ele>435.39999389648</ele>
        <time>2011-04-22T14:58:50.000Z</time>
      </trkpt>
      <trkpt lat="45.08743" lon="5.75607">
        <ele>435.39999389648</ele>
        <time>2011-04-22T14:58:55.000Z</time>
      </trkpt>
      <trkpt lat="45.08744" lon="5.7561">
        <ele>434.79998779297</ele>
        <time>2011-04-22T14:58:56.000Z</time>
      </trkpt>
      <trkpt lat="45.08747" lon="5.75623">
        <ele>433.79998779297</ele>
        <time>2011-04-22T14:59:01.000Z</time>
      </trkpt>
      <trkpt lat="45.08753" lon="5.75633">
        <ele>434</ele>
        <time>2011-04-22T14:59:06.000Z</time>
      </trkpt>
      <trkpt lat="45.08761" lon="5.75644">
        <ele>434.20001220703</ele>
        <time>2011-04-22T14:59:11.000Z</time>
      </trkpt>
      <trkpt lat="45.08768" lon="5.75646">
        <ele>436.39999389648</ele>
        <time>2011-04-22T14:59:16.000Z</time>
      </trkpt>
      <trkpt lat="45.08771" lon="5.75646">
        <ele>437</ele>
        <time>2011-04-22T14:59:17.000Z</time>
      </trkpt>
      <trkpt lat="45.08779" lon="5.75647">
        <ele>440</ele>
        <time>2011-04-22T14:59:22.000Z</time>
      </trkpt>
      <trkpt lat="45.08781" lon="5.75647">
        <ele>440.39999389648</ele>
        <time>2011-04-22T14:59:23.000Z</time>
      </trkpt>
      <trkpt lat="45.08787" lon="5.75647">
        <ele>442.60000610352</ele>
        <time>2011-04-22T14:59:26.000Z</time>
      </trkpt>
      <trkpt lat="45.08789" lon="5.75649">
        <ele>442.60000610352</ele>
        <time>2011-04-22T14:59:27.000Z</time>
      </trkpt>
      <trkpt lat="45.08802" lon="5.75654">
        <ele>445.60000610352</ele>
        <time>2011-04-22T14:59:33.000Z</time>
      </trkpt>
      <trkpt lat="45.08807" lon="5.75655">
        <ele>447</ele>
        <time>2011-04-22T14:59:35.000Z</time>
      </trkpt>
      <trkpt lat="45.08814" lon="5.75659">
        <ele>448.39999389648</ele>
        <time>2011-04-22T14:59:38.000Z</time>
      </trkpt>
      <trkpt lat="45.08817" lon="5.75659">
        <ele>449</ele>
        <time>2011-04-22T14:59:39.000Z</time>
      </trkpt>
      <trkpt lat="45.08826" lon="5.75665">
        <ele>450.20001220703</ele>
        <time>2011-04-22T14:59:43.000Z</time>
      </trkpt>
      <trkpt lat="45.0883" lon="5.75668">
        <ele>450.39999389648</ele>
        <time>2011-04-22T14:59:45.000Z</time>
      </trkpt>
      <trkpt lat="45.08841" lon="5.75675">
        <ele>451.60000610352</ele>
        <time>2011-04-22T14:59:51.000Z</time>
      </trkpt>
      <trkpt lat="45.08843" lon="5.75676">
        <ele>452</ele>
        <time>2011-04-22T14:59:52.000Z</time>
      </trkpt>
      <trkpt lat="45.08849" lon="5.75683">
        <ele>451.79998779297</ele>
        <time>2011-04-22T14:59:56.000Z</time>
      </trkpt>
      <trkpt lat="45.08856" lon="5.75688">
        <ele>452.20001220703</ele>
        <time>2011-04-22T15:00:00.000Z</time>
      </trkpt>
      <trkpt lat="45.08858" lon="5.7569">
        <ele>452.39999389648</ele>
        <time>2011-04-22T15:00:01.000Z</time>
      </trkpt>
      <trkpt lat="45.0886" lon="5.75691">
        <ele>452.39999389648</ele>
        <time>2011-04-22T15:00:02.000Z</time>
      </trkpt>
      <trkpt lat="45.08863" lon="5.75693">
        <ele>452.60000610352</ele>
        <time>2011-04-22T15:00:04.000Z</time>
      </trkpt>
      <trkpt lat="45.08869" lon="5.75695">
        <ele>453.60000610352</ele>
        <time>2011-04-22T15:00:08.000Z</time>
      </trkpt>
      <trkpt lat="45.08877" lon="5.757">
        <ele>454.39999389648</ele>
        <time>2011-04-22T15:00:13.000Z</time>
      </trkpt>
      <trkpt lat="45.08889" lon="5.75707">
        <ele>455.60000610352</ele>
        <time>2011-04-22T15:00:19.000Z</time>
      </trkpt>
      <trkpt lat="45.08894" lon="5.75711">
        <ele>456</ele>
        <time>2011-04-22T15:00:22.000Z</time>
      </trkpt>
      <trkpt lat="45.08897" lon="5.75713">
        <ele>456</ele>
        <time>2011-04-22T15:00:24.000Z</time>
      </trkpt>
      <trkpt lat="45.08899" lon="5.75714">
        <ele>456.20001220703</ele>
        <time>2011-04-22T15:00:25.000Z</time>
      </trkpt>
      <trkpt lat="45.08906" lon="5.75717">
        <ele>457.39999389648</ele>
        <time>2011-04-22T15:00:29.000Z</time>
      </trkpt>
      <trkpt lat="45.08913" lon="5.7572">
        <ele>458.20001220703</ele>
        <time>2011-04-22T15:00:33.000Z</time>
      </trkpt>
      <trkpt lat="45.08915" lon="5.7572">
        <ele>458.60000610352</ele>
        <time>2011-04-22T15:00:34.000Z</time>
      </trkpt>
      <trkpt lat="45.08928" lon="5.75731">
        <ele>459.20001220703</ele>
        <time>2011-04-22T15:00:42.000Z</time>
      </trkpt>
      <trkpt lat="45.0893" lon="5.75732">
        <ele>459.20001220703</ele>
        <time>2011-04-22T15:00:43.000Z</time>
      </trkpt>
      <trkpt lat="45.08941" lon="5.75743">
        <ele>459.20001220703</ele>
        <time>2011-04-22T15:00:49.000Z</time>
      </trkpt>
      <trkpt lat="45.08945" lon="5.75746">
        <ele>459.60000610352</ele>
        <time>2011-04-22T15:00:51.000Z</time>
      </trkpt>
      <trkpt lat="45.08954" lon="5.75749">
        <ele>461.39999389648</ele>
        <time>2011-04-22T15:00:55.000Z</time>
      </trkpt>
      <trkpt lat="45.08963" lon="5.75752">
        <ele>463.60000610352</ele>
        <time>2011-04-22T15:00:59.000Z</time>
      </trkpt>
      <trkpt lat="45.08965" lon="5.75752">
        <ele>464.20001220703</ele>
        <time>2011-04-22T15:01:00.000Z</time>
      </trkpt>
      <trkpt lat="45.08973" lon="5.75751">
        <ele>466.60000610352</ele>
        <time>2011-04-22T15:01:06.000Z</time>
      </trkpt>
      <trkpt lat="45.08981" lon="5.75753">
        <ele>468.60000610352</ele>
        <time>2011-04-22T15:01:11.000Z</time>
      </trkpt>
      <trkpt lat="45.08983" lon="5.75754">
        <ele>469</ele>
        <time>2011-04-22T15:01:12.000Z</time>
      </trkpt>
      <trkpt lat="45.08992" lon="5.75765">
        <ele>471.39999389648</ele>
        <time>2011-04-22T15:01:19.000Z</time>
      </trkpt>
      <trkpt lat="45.08993" lon="5.7577">
        <ele>471.79998779297</ele>
        <time>2011-04-22T15:01:21.000Z</time>
      </trkpt>
      <trkpt lat="45.08996" lon="5.75781">
        <ele>472.20001220703</ele>
        <time>2011-04-22T15:01:25.000Z</time>
      </trkpt>
      <trkpt lat="45.08997" lon="5.75795">
        <ele>472.39999389648</ele>
        <time>2011-04-22T15:01:30.000Z</time>
      </trkpt>
      <trkpt lat="45.08997" lon="5.75798">
        <ele>472.39999389648</ele>
        <time>2011-04-22T15:01:31.000Z</time>
      </trkpt>
      <trkpt lat="45.08996" lon="5.75807">
        <ele>472</ele>
        <time>2011-04-22T15:01:35.000Z</time>
      </trkpt>
      <trkpt lat="45.08995" lon="5.75809">
        <ele>471.79998779297</ele>
        <time>2011-04-22T15:01:36.000Z</time>
      </trkpt>
      <trkpt lat="45.08994" lon="5.75822">
        <ele>471.20001220703</ele>
        <time>2011-04-22T15:01:41.000Z</time>
      </trkpt>
      <trkpt lat="45.08994" lon="5.75828">
        <ele>471.20001220703</ele>
        <time>2011-04-22T15:01:44.000Z</time>
      </trkpt>
      <trkpt lat="45.08994" lon="5.75833">
        <ele>471.20001220703</ele>
        <time>2011-04-22T15:01:46.000Z</time>
      </trkpt>
      <trkpt lat="45.08994" lon="5.75847">
        <ele>472.20001220703</ele>
        <time>2011-04-22T15:01:52.000Z</time>
      </trkpt>
      <trkpt lat="45.08994" lon="5.75849">
        <ele>472.39999389648</ele>
        <time>2011-04-22T15:01:53.000Z</time>
      </trkpt>
      <trkpt lat="45.08992" lon="5.75873">
        <ele>473.60000610352</ele>
        <time>2011-04-22T15:02:02.000Z</time>
      </trkpt>
      <trkpt lat="45.08992" lon="5.7589">
        <ele>474.79998779297</ele>
        <time>2011-04-22T15:02:08.000Z</time>
      </trkpt>
      <trkpt lat="45.08991" lon="5.75899">
        <ele>475.39999389648</ele>
        <time>2011-04-22T15:02:11.000Z</time>
      </trkpt>
      <trkpt lat="45.0899" lon="5.7591">
        <ele>475.79998779297</ele>
        <time>2011-04-22T15:02:15.000Z</time>
      </trkpt>
      <trkpt lat="45.08988" lon="5.75924">
        <ele>476.60000610352</ele>
        <time>2011-04-22T15:02:20.000Z</time>
      </trkpt>
      <trkpt lat="45.08987" lon="5.75927">
        <ele>476.79998779297</ele>
        <time>2011-04-22T15:02:21.000Z</time>
      </trkpt>
      <trkpt lat="45.08986" lon="5.75941">
        <ele>477.79998779297</ele>
        <time>2011-04-22T15:02:26.000Z</time>
      </trkpt>
      <trkpt lat="45.08985" lon="5.7595">
        <ele>478.39999389648</ele>
        <time>2011-04-22T15:02:29.000Z</time>
      </trkpt>
      <trkpt lat="45.08984" lon="5.75954">
        <ele>478.79998779297</ele>
        <time>2011-04-22T15:02:31.000Z</time>
      </trkpt>
      <trkpt lat="45.08984" lon="5.75958">
        <ele>479</ele>
        <time>2011-04-22T15:02:33.000Z</time>
      </trkpt>
      <trkpt lat="45.08983" lon="5.75966">
        <ele>479.60000610352</ele>
        <time>2011-04-22T15:02:36.000Z</time>
      </trkpt>
      <trkpt lat="45.08983" lon="5.7597">
        <ele>480</ele>
        <time>2011-04-22T15:02:38.000Z</time>
      </trkpt>
      <trkpt lat="45.08984" lon="5.75977">
        <ele>481</ele>
        <time>2011-04-22T15:02:41.000Z</time>
      </trkpt>
      <trkpt lat="45.08984" lon="5.75982">
        <ele>481.39999389648</ele>
        <time>2011-04-22T15:02:43.000Z</time>
      </trkpt>
      <trkpt lat="45.08977" lon="5.75999">
        <ele>481.20001220703</ele>
        <time>2011-04-22T15:02:50.000Z</time>
      </trkpt>
      <trkpt lat="45.08976" lon="5.7601">
        <ele>481</ele>
        <time>2011-04-22T15:02:54.000Z</time>
      </trkpt>
      <trkpt lat="45.08976" lon="5.76013">
        <ele>481</ele>
        <time>2011-04-22T15:02:55.000Z</time>
      </trkpt>
      <trkpt lat="45.08977" lon="5.76014">
        <ele>481</ele>
        <time>2011-04-22T15:02:56.000Z</time>
      </trkpt>
      <trkpt lat="45.0898" lon="5.76018">
        <ele>482</ele>
        <time>2011-04-22T15:02:59.000Z</time>
      </trkpt>
      <trkpt lat="45.08983" lon="5.76021">
        <ele>482.60000610352</ele>
        <time>2011-04-22T15:03:01.000Z</time>
      </trkpt>
      <trkpt lat="45.08986" lon="5.76025">
        <ele>483.20001220703</ele>
        <time>2011-04-22T15:03:03.000Z</time>
      </trkpt>
      <trkpt lat="45.08988" lon="5.76029">
        <ele>484</ele>
        <time>2011-04-22T15:03:05.000Z</time>
      </trkpt>
      <trkpt lat="45.08996" lon="5.76039">
        <ele>486.20001220703</ele>
        <time>2011-04-22T15:03:10.000Z</time>
      </trkpt>
      <trkpt lat="45.09002" lon="5.76048">
        <ele>488</ele>
        <time>2011-04-22T15:03:15.000Z</time>
      </trkpt>
      <trkpt lat="45.0901" lon="5.76058">
        <ele>490.20001220703</ele>
        <time>2011-04-22T15:03:20.000Z</time>
      </trkpt>
      <trkpt lat="45.09017" lon="5.76068">
        <ele>492.20001220703</ele>
        <time>2011-04-22T15:03:25.000Z</time>
      </trkpt>
      <trkpt lat="45.09023" lon="5.76077">
        <ele>493.79998779297</ele>
        <time>2011-04-22T15:03:30.000Z</time>
      </trkpt>
      <trkpt lat="45.09031" lon="5.76087">
        <ele>495.60000610352</ele>
        <time>2011-04-22T15:03:36.000Z</time>
      </trkpt>
      <trkpt lat="45.09036" lon="5.76094">
        <ele>496.39999389648</ele>
        <time>2011-04-22T15:03:40.000Z</time>
      </trkpt>
      <trkpt lat="45.09038" lon="5.76096">
        <ele>496.60000610352</ele>
        <time>2011-04-22T15:03:41.000Z</time>
      </trkpt>
      <trkpt lat="45.09045" lon="5.76103">
        <ele>498</ele>
        <time>2011-04-22T15:03:46.000Z</time>
      </trkpt>
      <trkpt lat="45.09051" lon="5.7611">
        <ele>499.20001220703</ele>
        <time>2011-04-22T15:03:51.000Z</time>
      </trkpt>
      <trkpt lat="45.09052" lon="5.76111">
        <ele>499.39999389648</ele>
        <time>2011-04-22T15:03:52.000Z</time>
      </trkpt>
      <trkpt lat="45.09059" lon="5.76121">
        <ele>500.60000610352</ele>
        <time>2011-04-22T15:03:58.000Z</time>
      </trkpt>
      <trkpt lat="45.09065" lon="5.76129">
        <ele>501.60000610352</ele>
        <time>2011-04-22T15:04:03.000Z</time>
      </trkpt>
      <trkpt lat="45.09066" lon="5.76131">
        <ele>501.79998779297</ele>
        <time>2011-04-22T15:04:04.000Z</time>
      </trkpt>
      <trkpt lat="45.09068" lon="5.76136">
        <ele>502.20001220703</ele>
        <time>2011-04-22T15:04:07.000Z</time>
      </trkpt>
      <trkpt lat="45.09072" lon="5.76139">
        <ele>503</ele>
        <time>2011-04-22T15:04:09.000Z</time>
      </trkpt>
      <trkpt lat="45.09079" lon="5.76147">
        <ele>504.60000610352</ele>
        <time>2011-04-22T15:04:14.000Z</time>
      </trkpt>
      <trkpt lat="45.0908" lon="5.76149">
        <ele>504.79998779297</ele>
        <time>2011-04-22T15:04:15.000Z</time>
      </trkpt>
      <trkpt lat="45.09087" lon="5.76157">
        <ele>506</ele>
        <time>2011-04-22T15:04:20.000Z</time>
      </trkpt>
      <trkpt lat="45.09094" lon="5.76164">
        <ele>506.79998779297</ele>
        <time>2011-04-22T15:04:24.000Z</time>
      </trkpt>
      <trkpt lat="45.09096" lon="5.76167">
        <ele>507</ele>
        <time>2011-04-22T15:04:26.000Z</time>
      </trkpt>
      <trkpt lat="45.09105" lon="5.7618">
        <ele>507.60000610352</ele>
        <time>2011-04-22T15:04:34.000Z</time>
      </trkpt>
      <trkpt lat="45.09107" lon="5.76182">
        <ele>507.60000610352</ele>
        <time>2011-04-22T15:04:35.000Z</time>
      </trkpt>
      <trkpt lat="45.09111" lon="5.76188">
        <ele>507.79998779297</ele>
        <time>2011-04-22T15:04:38.000Z</time>
      </trkpt>
      <trkpt lat="45.09119" lon="5.76191">
        <ele>508.79998779297</ele>
        <time>2011-04-22T15:04:43.000Z</time>
      </trkpt>
      <trkpt lat="45.09124" lon="5.76194">
        <ele>509.20001220703</ele>
        <time>2011-04-22T15:04:46.000Z</time>
      </trkpt>
      <trkpt lat="45.09127" lon="5.76194">
        <ele>509.60000610352</ele>
        <time>2011-04-22T15:04:48.000Z</time>
      </trkpt>
      <trkpt lat="45.09135" lon="5.76193">
        <ele>510.79998779297</ele>
        <time>2011-04-22T15:04:53.000Z</time>
      </trkpt>
      <trkpt lat="45.09139" lon="5.76191">
        <ele>511.60000610352</ele>
        <time>2011-04-22T15:04:56.000Z</time>
      </trkpt>
      <trkpt lat="45.09142" lon="5.7619">
        <ele>512.20001220703</ele>
        <time>2011-04-22T15:04:59.000Z</time>
      </trkpt>
      <trkpt lat="45.09151" lon="5.76183">
        <ele>514.20001220703</ele>
        <time>2011-04-22T15:05:05.000Z</time>
      </trkpt>
      <trkpt lat="45.09155" lon="5.76174">
        <ele>516</ele>
        <time>2011-04-22T15:05:10.000Z</time>
      </trkpt>
      <trkpt lat="45.09157" lon="5.76172">
        <ele>516.40002441406</ele>
        <time>2011-04-22T15:05:11.000Z</time>
      </trkpt>
      <trkpt lat="45.09161" lon="5.76163">
        <ele>518.40002441406</ele>
        <time>2011-04-22T15:05:16.000Z</time>
      </trkpt>
      <trkpt lat="45.09166" lon="5.76149">
        <ele>521.20001220703</ele>
        <time>2011-04-22T15:05:23.000Z</time>
      </trkpt>
      <trkpt lat="45.09172" lon="5.76144">
        <ele>522.59997558594</ele>
        <time>2011-04-22T15:05:28.000Z</time>
      </trkpt>
      <trkpt lat="45.09173" lon="5.76143">
        <ele>522.79998779297</ele>
        <time>2011-04-22T15:05:29.000Z</time>
      </trkpt>
      <trkpt lat="45.0918" lon="5.76144">
        <ele>523.40002441406</ele>
        <time>2011-04-22T15:05:33.000Z</time>
      </trkpt>
      <trkpt lat="45.09184" lon="5.76144">
        <ele>523.59997558594</ele>
        <time>2011-04-22T15:05:35.000Z</time>
      </trkpt>
      <trkpt lat="45.09194" lon="5.76144">
        <ele>524.40002441406</ele>
        <time>2011-04-22T15:05:39.000Z</time>
      </trkpt>
      <trkpt lat="45.09203" lon="5.76145">
        <ele>525.20001220703</ele>
        <time>2011-04-22T15:05:42.000Z</time>
      </trkpt>
      <trkpt lat="45.09208" lon="5.76144">
        <ele>525.59997558594</ele>
        <time>2011-04-22T15:05:44.000Z</time>
      </trkpt>
      <trkpt lat="45.09223" lon="5.76143">
        <ele>527</ele>
        <time>2011-04-22T15:05:50.000Z</time>
      </trkpt>
      <trkpt lat="45.09232" lon="5.76143">
        <ele>528</ele>
        <time>2011-04-22T15:05:54.000Z</time>
      </trkpt>
      <trkpt lat="45.09242" lon="5.76141">
        <ele>529.20001220703</ele>
        <time>2011-04-22T15:05:58.000Z</time>
      </trkpt>
      <trkpt lat="45.09247" lon="5.76142">
        <ele>529.59997558594</ele>
        <time>2011-04-22T15:06:00.000Z</time>
      </trkpt>
      <trkpt lat="45.09258" lon="5.76141">
        <ele>529.79998779297</ele>
        <time>2011-04-22T15:06:05.000Z</time>
      </trkpt>
      <trkpt lat="45.09261" lon="5.76141">
        <ele>529.79998779297</ele>
        <time>2011-04-22T15:06:06.000Z</time>
      </trkpt>
      <trkpt lat="45.09274" lon="5.7614">
        <ele>529.40002441406</ele>
        <time>2011-04-22T15:06:11.000Z</time>
      </trkpt>
      <trkpt lat="45.09279" lon="5.7614">
        <ele>529.20001220703</ele>
        <time>2011-04-22T15:06:13.000Z</time>
      </trkpt>
      <trkpt lat="45.09288" lon="5.76141">
        <ele>528.79998779297</ele>
        <time>2011-04-22T15:06:16.000Z</time>
      </trkpt>
      <trkpt lat="45.09299" lon="5.7614">
        <ele>528.59997558594</ele>
        <time>2011-04-22T15:06:20.000Z</time>
      </trkpt>
      <trkpt lat="45.093" lon="5.7614">
        <ele>528.59997558594</ele>
        <time>2011-04-22T15:06:21.000Z</time>
      </trkpt>
      <trkpt lat="45.09313" lon="5.76136">
        <ele>528.79998779297</ele>
        <time>2011-04-22T15:06:25.000Z</time>
      </trkpt>
      <trkpt lat="45.09317" lon="5.76136">
        <ele>528.79998779297</ele>
        <time>2011-04-22T15:06:26.000Z</time>
      </trkpt>
      <trkpt lat="45.09335" lon="5.76136">
        <ele>528.20001220703</ele>
        <time>2011-04-22T15:06:31.000Z</time>
      </trkpt>
      <trkpt lat="45.09338" lon="5.76136">
        <ele>528.20001220703</ele>
        <time>2011-04-22T15:06:32.000Z</time>
      </trkpt>
      <trkpt lat="45.09354" lon="5.76136">
        <ele>527.79998779297</ele>
        <time>2011-04-22T15:06:37.000Z</time>
      </trkpt>
      <trkpt lat="45.09357" lon="5.76136">
        <ele>527.79998779297</ele>
        <time>2011-04-22T15:06:38.000Z</time>
      </trkpt>
      <trkpt lat="45.09368" lon="5.76137">
        <ele>527.40002441406</ele>
        <time>2011-04-22T15:06:42.000Z</time>
      </trkpt>
      <trkpt lat="45.09376" lon="5.76137">
        <ele>527.20001220703</ele>
        <time>2011-04-22T15:06:45.000Z</time>
      </trkpt>
      <trkpt lat="45.09381" lon="5.76137">
        <ele>527.20001220703</ele>
        <time>2011-04-22T15:06:47.000Z</time>
      </trkpt>
      <trkpt lat="45.09394" lon="5.7614">
        <ele>526.79998779297</ele>
        <time>2011-04-22T15:06:53.000Z</time>
      </trkpt>
      <trkpt lat="45.09396" lon="5.7614">
        <ele>526.59997558594</ele>
        <time>2011-04-22T15:06:54.000Z</time>
      </trkpt>
      <trkpt lat="45.09405" lon="5.76142">
        <ele>526.20001220703</ele>
        <time>2011-04-22T15:06:58.000Z</time>
      </trkpt>
      <trkpt lat="45.09415" lon="5.76143">
        <ele>526</ele>
        <time>2011-04-22T15:07:02.000Z</time>
      </trkpt>
      <trkpt lat="45.09423" lon="5.76143">
        <ele>526.20001220703</ele>
        <time>2011-04-22T15:07:05.000Z</time>
      </trkpt>
      <trkpt lat="45.09433" lon="5.76144">
        <ele>526.20001220703</ele>
        <time>2011-04-22T15:07:08.000Z</time>
      </trkpt>
      <trkpt lat="45.09441" lon="5.76144">
        <ele>526.59997558594</ele>
        <time>2011-04-22T15:07:11.000Z</time>
      </trkpt>
      <trkpt lat="45.09451" lon="5.76144">
        <ele>526.79998779297</ele>
        <time>2011-04-22T15:07:14.000Z</time>
      </trkpt>
      <trkpt lat="45.0946" lon="5.76145">
        <ele>527</ele>
        <time>2011-04-22T15:07:17.000Z</time>
      </trkpt>
      <trkpt lat="45.09471" lon="5.76145">
        <ele>527.40002441406</ele>
        <time>2011-04-22T15:07:21.000Z</time>
      </trkpt>
      <trkpt lat="45.0948" lon="5.76147">
        <ele>527.40002441406</ele>
        <time>2011-04-22T15:07:24.000Z</time>
      </trkpt>
      <trkpt lat="45.09491" lon="5.7615">
        <ele>527.79998779297</ele>
        <time>2011-04-22T15:07:28.000Z</time>
      </trkpt>
      <trkpt lat="45.09494" lon="5.7615">
        <ele>527.79998779297</ele>
        <time>2011-04-22T15:07:29.000Z</time>
      </trkpt>
      <trkpt lat="45.09509" lon="5.76156">
        <ele>528.79998779297</ele>
        <time>2011-04-22T15:07:35.000Z</time>
      </trkpt>
      <trkpt lat="45.09522" lon="5.76165">
        <ele>530</ele>
        <time>2011-04-22T15:07:41.000Z</time>
      </trkpt>
      <trkpt lat="45.09527" lon="5.7617">
        <ele>530.40002441406</ele>
        <time>2011-04-22T15:07:43.000Z</time>
      </trkpt>
      <trkpt lat="45.09535" lon="5.76178">
        <ele>531</ele>
        <time>2011-04-22T15:07:47.000Z</time>
      </trkpt>
      <trkpt lat="45.09541" lon="5.76188">
        <ele>531.40002441406</ele>
        <time>2011-04-22T15:07:52.000Z</time>
      </trkpt>
      <trkpt lat="45.09546" lon="5.76197">
        <ele>531.59997558594</ele>
        <time>2011-04-22T15:07:56.000Z</time>
      </trkpt>
      <trkpt lat="45.09547" lon="5.762">
        <ele>531.79998779297</ele>
        <time>2011-04-22T15:07:57.000Z</time>
      </trkpt>
      <trkpt lat="45.09552" lon="5.76207">
        <ele>532.40002441406</ele>
        <time>2011-04-22T15:08:00.000Z</time>
      </trkpt>
      <trkpt lat="45.09556" lon="5.76211">
        <ele>532.79998779297</ele>
        <time>2011-04-22T15:08:02.000Z</time>
      </trkpt>
      <trkpt lat="45.09558" lon="5.76212">
        <ele>533</ele>
        <time>2011-04-22T15:08:06.000Z</time>
      </trkpt>
      <trkpt lat="45.0956" lon="5.76211">
        <ele>533.40002441406</ele>
        <time>2011-04-22T15:08:08.000Z</time>
      </trkpt>
      <trkpt lat="45.0956" lon="5.76211">
        <ele>533.40002441406</ele>
        <time>2011-04-22T15:08:10.000Z</time>
      </trkpt>
      <trkpt lat="45.09561" lon="5.76209">
        <ele>533.40002441406</ele>
        <time>2011-04-22T15:08:40.000Z</time>
      </trkpt>
      <trkpt lat="45.09562" lon="5.76208">
        <ele>533.59997558594</ele>
        <time>2011-04-22T15:08:51.000Z</time>
      </trkpt>
      <trkpt lat="45.09561" lon="5.76211">
        <ele>533.40002441406</ele>
        <time>2011-04-22T15:09:59.000Z</time>
      </trkpt>
      <trkpt lat="45.09561" lon="5.76212">
        <ele>533.40002441406</ele>
        <time>2011-04-22T15:10:04.000Z</time>
      </trkpt>
      <trkpt lat="45.09561" lon="5.76211">
        <ele>533.40002441406</ele>
        <time>2011-04-22T15:10:12.000Z</time>
      </trkpt>
      <trkpt lat="45.09562" lon="5.76212">
        <ele>533.59997558594</ele>
        <time>2011-04-22T15:10:18.000Z</time>
      </trkpt>
      <trkpt lat="45.09562" lon="5.76213">
        <ele>533.59997558594</ele>
        <time>2011-04-22T15:10:22.000Z</time>
      </trkpt>
      <trkpt lat="45.09561" lon="5.76212">
        <ele>533.40002441406</ele>
        <time>2011-04-22T15:10:32.000Z</time>
      </trkpt>
      <trkpt lat="45.09561" lon="5.76212">
        <ele>533.40002441406</ele>
        <time>2011-04-22T15:10:56.000Z</time>
      </trkpt>
      <trkpt lat="45.0956" lon="5.76212">
        <ele>533.20001220703</ele>
        <time>2011-04-22T15:11:05.000Z</time>
      </trkpt>
      <trkpt lat="45.09562" lon="5.76217">
        <ele>533.59997558594</ele>
        <time>2011-04-22T15:11:19.000Z</time>
      </trkpt>
      <trkpt lat="45.09561" lon="5.76217">
        <ele>533.40002441406</ele>
        <time>2011-04-22T15:11:39.000Z</time>
      </trkpt>
      <trkpt lat="45.0956" lon="5.76216">
        <ele>533.20001220703</ele>
        <time>2011-04-22T15:11:47.000Z</time>
      </trkpt>
      <trkpt lat="45.09562" lon="5.76215">
        <ele>533.59997558594</ele>
        <time>2011-04-22T15:12:15.000Z</time>
      </trkpt>
      <trkpt lat="45.09569" lon="5.76225">
        <ele>534.40002441406</ele>
        <time>2011-04-22T15:12:21.000Z</time>
      </trkpt>
      <trkpt lat="45.09574" lon="5.76234">
        <ele>535.40002441406</ele>
        <time>2011-04-22T15:12:25.000Z</time>
      </trkpt>
      <trkpt lat="45.09578" lon="5.76238">
        <ele>535.79998779297</ele>
        <time>2011-04-22T15:12:27.000Z</time>
      </trkpt>
      <trkpt lat="45.0958" lon="5.76247">
        <ele>536.40002441406</ele>
        <time>2011-04-22T15:12:30.000Z</time>
      </trkpt>
      <trkpt lat="45.0958" lon="5.76251">
        <ele>536.40002441406</ele>
        <time>2011-04-22T15:12:32.000Z</time>
      </trkpt>
      <trkpt lat="45.09583" lon="5.76258">
        <ele>537</ele>
        <time>2011-04-22T15:12:37.000Z</time>
      </trkpt>
      <trkpt lat="45.09583" lon="5.76263">
        <ele>537.20001220703</ele>
        <time>2011-04-22T15:12:40.000Z</time>
      </trkpt>
      <trkpt lat="45.09582" lon="5.76275">
        <ele>537.20001220703</ele>
        <time>2011-04-22T15:12:47.000Z</time>
      </trkpt>
      <trkpt lat="45.09582" lon="5.76283">
        <ele>537.40002441406</ele>
        <time>2011-04-22T15:12:51.000Z</time>
      </trkpt>
      <trkpt lat="45.09582" lon="5.76292">
        <ele>537.59997558594</ele>
        <time>2011-04-22T15:12:56.000Z</time>
      </trkpt>
      <trkpt lat="45.09582" lon="5.76298">
        <ele>537.79998779297</ele>
        <time>2011-04-22T15:12:59.000Z</time>
      </trkpt>
      <trkpt lat="45.09583" lon="5.76302">
        <ele>538.20001220703</ele>
        <time>2011-04-22T15:13:01.000Z</time>
      </trkpt>
      <trkpt lat="45.09587" lon="5.76307">
        <ele>539.59997558594</ele>
        <time>2011-04-22T15:13:04.000Z</time>
      </trkpt>
      <trkpt lat="45.09588" lon="5.76309">
        <ele>540.20001220703</ele>
        <time>2011-04-22T15:13:06.000Z</time>
      </trkpt>
      <trkpt lat="45.09592" lon="5.7632">
        <ele>542</ele>
        <time>2011-04-22T15:13:11.000Z</time>
      </trkpt>
      <trkpt lat="45.09592" lon="5.76331">
        <ele>542.40002441406</ele>
        <time>2011-04-22T15:13:14.000Z</time>
      </trkpt>
      <trkpt lat="45.09591" lon="5.76334">
        <ele>542</ele>
        <time>2011-04-22T15:13:15.000Z</time>
      </trkpt>
      <trkpt lat="45.09585" lon="5.76355">
        <ele>539.40002441406</ele>
        <time>2011-04-22T15:13:21.000Z</time>
      </trkpt>
      <trkpt lat="45.09585" lon="5.76358">
        <ele>539.59997558594</ele>
        <time>2011-04-22T15:13:22.000Z</time>
      </trkpt>
      <trkpt lat="45.09583" lon="5.76367">
        <ele>538.79998779297</ele>
        <time>2011-04-22T15:13:25.000Z</time>
      </trkpt>
      <trkpt lat="45.09581" lon="5.76382">
        <ele>538.40002441406</ele>
        <time>2011-04-22T15:13:30.000Z</time>
      </trkpt>
      <trkpt lat="45.09581" lon="5.76385">
        <ele>538.20001220703</ele>
        <time>2011-04-22T15:13:31.000Z</time>
      </trkpt>
      <trkpt lat="45.09581" lon="5.76401">
        <ele>538.20001220703</ele>
        <time>2011-04-22T15:13:37.000Z</time>
      </trkpt>
      <trkpt lat="45.09581" lon="5.76404">
        <ele>538.40002441406</ele>
        <time>2011-04-22T15:13:38.000Z</time>
      </trkpt>
      <trkpt lat="45.09586" lon="5.7641">
        <ele>540</ele>
        <time>2011-04-22T15:13:42.000Z</time>
      </trkpt>
      <trkpt lat="45.09594" lon="5.76421">
        <ele>544.20001220703</ele>
        <time>2011-04-22T15:13:48.000Z</time>
      </trkpt>
      <trkpt lat="45.09595" lon="5.76422">
        <ele>545</ele>
        <time>2011-04-22T15:13:49.000Z</time>
      </trkpt>
      <trkpt lat="45.09598" lon="5.76427">
        <ele>546.40002441406</ele>
        <time>2011-04-22T15:13:51.000Z</time>
      </trkpt>
      <trkpt lat="45.09598" lon="5.76432">
        <ele>546.79998779297</ele>
        <time>2011-04-22T15:13:53.000Z</time>
      </trkpt>
      <trkpt lat="45.09598" lon="5.76435">
        <ele>547.20001220703</ele>
        <time>2011-04-22T15:13:55.000Z</time>
      </trkpt>
      <trkpt lat="45.09599" lon="5.76447">
        <ele>548.20001220703</ele>
        <time>2011-04-22T15:14:00.000Z</time>
      </trkpt>
      <trkpt lat="45.096" lon="5.76457">
        <ele>549.20001220703</ele>
        <time>2011-04-22T15:14:04.000Z</time>
      </trkpt>
      <trkpt lat="45.09599" lon="5.76462">
        <ele>549.20001220703</ele>
        <time>2011-04-22T15:14:06.000Z</time>
      </trkpt>
      <trkpt lat="45.09597" lon="5.76475">
        <ele>549.20001220703</ele>
        <time>2011-04-22T15:14:11.000Z</time>
      </trkpt>
      <trkpt lat="45.09597" lon="5.76479">
        <ele>549.20001220703</ele>
        <time>2011-04-22T15:14:13.000Z</time>
      </trkpt>
      <trkpt lat="45.09596" lon="5.76483">
        <ele>549.20001220703</ele>
        <time>2011-04-22T15:14:15.000Z</time>
      </trkpt>
      <trkpt lat="45.09595" lon="5.76485">
        <ele>549</ele>
        <time>2011-04-22T15:14:16.000Z</time>
      </trkpt>
      <trkpt lat="45.09595" lon="5.76487">
        <ele>549.20001220703</ele>
        <time>2011-04-22T15:14:17.000Z</time>
      </trkpt>
      <trkpt lat="45.09593" lon="5.76492">
        <ele>548.59997558594</ele>
        <time>2011-04-22T15:14:20.000Z</time>
      </trkpt>
      <trkpt lat="45.09593" lon="5.76494">
        <ele>548.59997558594</ele>
        <time>2011-04-22T15:14:21.000Z</time>
      </trkpt>
      <trkpt lat="45.09592" lon="5.765">
        <ele>548.59997558594</ele>
        <time>2011-04-22T15:14:24.000Z</time>
      </trkpt>
      <trkpt lat="45.09592" lon="5.76509">
        <ele>549.40002441406</ele>
        <time>2011-04-22T15:14:28.000Z</time>
      </trkpt>
      <trkpt lat="45.09592" lon="5.76511">
        <ele>549.40002441406</ele>
        <time>2011-04-22T15:14:29.000Z</time>
      </trkpt>
      <trkpt lat="45.09592" lon="5.76515">
        <ele>549.79998779297</ele>
        <time>2011-04-22T15:14:31.000Z</time>
      </trkpt>
      <trkpt lat="45.09594" lon="5.76527">
        <ele>551.40002441406</ele>
        <time>2011-04-22T15:14:36.000Z</time>
      </trkpt>
      <trkpt lat="45.09595" lon="5.76535">
        <ele>552.40002441406</ele>
        <time>2011-04-22T15:14:39.000Z</time>
      </trkpt>
      <trkpt lat="45.09596" lon="5.7654">
        <ele>553.40002441406</ele>
        <time>2011-04-22T15:14:41.000Z</time>
      </trkpt>
      <trkpt lat="45.09599" lon="5.76553">
        <ele>555.20001220703</ele>
        <time>2011-04-22T15:14:46.000Z</time>
      </trkpt>
      <trkpt lat="45.09601" lon="5.76561">
        <ele>556.40002441406</ele>
        <time>2011-04-22T15:14:49.000Z</time>
      </trkpt>
      <trkpt lat="45.09602" lon="5.76566">
        <ele>557</ele>
        <time>2011-04-22T15:14:51.000Z</time>
      </trkpt>
      <trkpt lat="45.09604" lon="5.7658">
        <ele>558.59997558594</ele>
        <time>2011-04-22T15:14:56.000Z</time>
      </trkpt>
      <trkpt lat="45.09605" lon="5.76585">
        <ele>559.40002441406</ele>
        <time>2011-04-22T15:14:58.000Z</time>
      </trkpt>
      <trkpt lat="45.09609" lon="5.76593">
        <ele>560.59997558594</ele>
        <time>2011-04-22T15:15:01.000Z</time>
      </trkpt>
      <trkpt lat="45.09615" lon="5.76605">
        <ele>563</ele>
        <time>2011-04-22T15:15:07.000Z</time>
      </trkpt>
      <trkpt lat="45.09617" lon="5.76607">
        <ele>563.40002441406</ele>
        <time>2011-04-22T15:15:08.000Z</time>
      </trkpt>
      <trkpt lat="45.09619" lon="5.76613">
        <ele>564.40002441406</ele>
        <time>2011-04-22T15:15:11.000Z</time>
      </trkpt>
      <trkpt lat="45.09622" lon="5.76617">
        <ele>565.20001220703</ele>
        <time>2011-04-22T15:15:13.000Z</time>
      </trkpt>
      <trkpt lat="45.09629" lon="5.76626">
        <ele>567.59997558594</ele>
        <time>2011-04-22T15:15:18.000Z</time>
      </trkpt>
      <trkpt lat="45.09635" lon="5.76637">
        <ele>569.59997558594</ele>
        <time>2011-04-22T15:15:24.000Z</time>
      </trkpt>
      <trkpt lat="45.0964" lon="5.76641">
        <ele>571</ele>
        <time>2011-04-22T15:15:27.000Z</time>
      </trkpt>
      <trkpt lat="45.09642" lon="5.76645">
        <ele>571.79998779297</ele>
        <time>2011-04-22T15:15:29.000Z</time>
      </trkpt>
      <trkpt lat="45.09648" lon="5.76653">
        <ele>573.59997558594</ele>
        <time>2011-04-22T15:15:34.000Z</time>
      </trkpt>
      <trkpt lat="45.09649" lon="5.76658">
        <ele>573.79998779297</ele>
        <time>2011-04-22T15:15:36.000Z</time>
      </trkpt>
      <trkpt lat="45.09649" lon="5.7666">
        <ele>574</ele>
        <time>2011-04-22T15:15:37.000Z</time>
      </trkpt>
      <trkpt lat="45.0965" lon="5.76663">
        <ele>574</ele>
        <time>2011-04-22T15:15:38.000Z</time>
      </trkpt>
      <trkpt lat="45.0965" lon="5.76665">
        <ele>574.20001220703</ele>
        <time>2011-04-22T15:15:39.000Z</time>
      </trkpt>
      <trkpt lat="45.09651" lon="5.7667">
        <ele>574.59997558594</ele>
        <time>2011-04-22T15:15:41.000Z</time>
      </trkpt>
      <trkpt lat="45.09652" lon="5.76676">
        <ele>575</ele>
        <time>2011-04-22T15:15:43.000Z</time>
      </trkpt>
      <trkpt lat="45.09654" lon="5.76683">
        <ele>575.79998779297</ele>
        <time>2011-04-22T15:15:46.000Z</time>
      </trkpt>
      <trkpt lat="45.09654" lon="5.76686">
        <ele>576</ele>
        <time>2011-04-22T15:15:47.000Z</time>
      </trkpt>
      <trkpt lat="45.09653" lon="5.76691">
        <ele>575.79998779297</ele>
        <time>2011-04-22T15:15:49.000Z</time>
      </trkpt>
      <trkpt lat="45.09652" lon="5.76697">
        <ele>575.79998779297</ele>
        <time>2011-04-22T15:15:51.000Z</time>
      </trkpt>
      <trkpt lat="45.09651" lon="5.76702">
        <ele>575.79998779297</ele>
        <time>2011-04-22T15:15:53.000Z</time>
      </trkpt>
      <trkpt lat="45.09649" lon="5.76716">
        <ele>576.20001220703</ele>
        <time>2011-04-22T15:15:58.000Z</time>
      </trkpt>
      <trkpt lat="45.09649" lon="5.76719">
        <ele>576.20001220703</ele>
        <time>2011-04-22T15:15:59.000Z</time>
      </trkpt>
      <trkpt lat="45.0965" lon="5.76733">
        <ele>577</ele>
        <time>2011-04-22T15:16:05.000Z</time>
      </trkpt>
      <trkpt lat="45.09652" lon="5.76742">
        <ele>577.59997558594</ele>
        <time>2011-04-22T15:16:09.000Z</time>
      </trkpt>
      <trkpt lat="45.09652" lon="5.76744">
        <ele>577.59997558594</ele>
        <time>2011-04-22T15:16:10.000Z</time>
      </trkpt>
      <trkpt lat="45.09652" lon="5.76747">
        <ele>577.79998779297</ele>
        <time>2011-04-22T15:16:11.000Z</time>
      </trkpt>
      <trkpt lat="45.09657" lon="5.76758">
        <ele>579.59997558594</ele>
        <time>2011-04-22T15:16:16.000Z</time>
      </trkpt>
      <trkpt lat="45.0966" lon="5.76763">
        <ele>580.59997558594</ele>
        <time>2011-04-22T15:16:19.000Z</time>
      </trkpt>
      <trkpt lat="45.09662" lon="5.76766">
        <ele>581</ele>
        <time>2011-04-22T15:16:20.000Z</time>
      </trkpt>
      <trkpt lat="45.09666" lon="5.76774">
        <ele>582.40002441406</ele>
        <time>2011-04-22T15:16:25.000Z</time>
      </trkpt>
      <trkpt lat="45.09667" lon="5.76777">
        <ele>583.20001220703</ele>
        <time>2011-04-22T15:16:27.000Z</time>
      </trkpt>
      <trkpt lat="45.09669" lon="5.7678">
        <ele>584</ele>
        <time>2011-04-22T15:16:29.000Z</time>
      </trkpt>
      <trkpt lat="45.09672" lon="5.76785">
        <ele>585.79998779297</ele>
        <time>2011-04-22T15:16:32.000Z</time>
      </trkpt>
      <trkpt lat="45.09674" lon="5.76787">
        <ele>587</ele>
        <time>2011-04-22T15:16:34.000Z</time>
      </trkpt>
      <trkpt lat="45.09679" lon="5.76794">
        <ele>589.79998779297</ele>
        <time>2011-04-22T15:16:39.000Z</time>
      </trkpt>
      <trkpt lat="45.09684" lon="5.76803">
        <ele>592.59997558594</ele>
        <time>2011-04-22T15:16:44.000Z</time>
      </trkpt>
      <trkpt lat="45.09685" lon="5.76804">
        <ele>593</ele>
        <time>2011-04-22T15:16:45.000Z</time>
      </trkpt>
      <trkpt lat="45.09687" lon="5.76808">
        <ele>594.40002441406</ele>
        <time>2011-04-22T15:16:48.000Z</time>
      </trkpt>
      <trkpt lat="45.09686" lon="5.76819">
        <ele>595.40002441406</ele>
        <time>2011-04-22T15:16:53.000Z</time>
      </trkpt>
      <trkpt lat="45.09687" lon="5.76828">
        <ele>596.59997558594</ele>
        <time>2011-04-22T15:16:58.000Z</time>
      </trkpt>
      <trkpt lat="45.09687" lon="5.76829">
        <ele>597</ele>
        <time>2011-04-22T15:16:59.000Z</time>
      </trkpt>
      <trkpt lat="45.09689" lon="5.76838">
        <ele>599.40002441406</ele>
        <time>2011-04-22T15:17:05.000Z</time>
      </trkpt>
      <trkpt lat="45.0969" lon="5.76841">
        <ele>600.40002441406</ele>
        <time>2011-04-22T15:17:07.000Z</time>
      </trkpt>
      <trkpt lat="45.09691" lon="5.76842">
        <ele>601</ele>
        <time>2011-04-22T15:17:09.000Z</time>
      </trkpt>
      <trkpt lat="45.09691" lon="5.76843">
        <ele>601.59997558594</ele>
        <time>2011-04-22T15:17:10.000Z</time>
      </trkpt>
      <trkpt lat="45.09693" lon="5.76845">
        <ele>602.59997558594</ele>
        <time>2011-04-22T15:17:13.000Z</time>
      </trkpt>
      <trkpt lat="45.09697" lon="5.7685">
        <ele>605</ele>
        <time>2011-04-22T15:17:17.000Z</time>
      </trkpt>
      <trkpt lat="45.09698" lon="5.76851">
        <ele>605.59997558594</ele>
        <time>2011-04-22T15:17:18.000Z</time>
      </trkpt>
      <trkpt lat="45.09701" lon="5.76854">
        <ele>607</ele>
        <time>2011-04-22T15:17:21.000Z</time>
      </trkpt>
      <trkpt lat="45.09702" lon="5.76856">
        <ele>608.20001220703</ele>
        <time>2011-04-22T15:17:23.000Z</time>
      </trkpt>
      <trkpt lat="45.09704" lon="5.76859">
        <ele>609.40002441406</ele>
        <time>2011-04-22T15:17:25.000Z</time>
      </trkpt>
      <trkpt lat="45.09708" lon="5.76861">
        <ele>611.20001220703</ele>
        <time>2011-04-22T15:17:28.000Z</time>
      </trkpt>
      <trkpt lat="45.09713" lon="5.76865">
        <ele>613</ele>
        <time>2011-04-22T15:17:32.000Z</time>
      </trkpt>
      <trkpt lat="45.09714" lon="5.76866">
        <ele>613.79998779297</ele>
        <time>2011-04-22T15:17:33.000Z</time>
      </trkpt>
      <trkpt lat="45.09717" lon="5.7687">
        <ele>615.40002441406</ele>
        <time>2011-04-22T15:17:37.000Z</time>
      </trkpt>
      <trkpt lat="45.0972" lon="5.76872">
        <ele>616.59997558594</ele>
        <time>2011-04-22T15:17:39.000Z</time>
      </trkpt>
      <trkpt lat="45.09725" lon="5.76878">
        <ele>619.40002441406</ele>
        <time>2011-04-22T15:17:45.000Z</time>
      </trkpt>
      <trkpt lat="45.09728" lon="5.76886">
        <ele>621.59997558594</ele>
        <time>2011-04-22T15:17:50.000Z</time>
      </trkpt>
      <trkpt lat="45.0973" lon="5.76895">
        <ele>624.20001220703</ele>
        <time>2011-04-22T15:17:55.000Z</time>
      </trkpt>
      <trkpt lat="45.0973" lon="5.76897">
        <ele>624.40002441406</ele>
        <time>2011-04-22T15:17:56.000Z</time>
      </trkpt>
      <trkpt lat="45.09727" lon="5.76907">
        <ele>626.20001220703</ele>
        <time>2011-04-22T15:18:01.000Z</time>
      </trkpt>
      <trkpt lat="45.09726" lon="5.7691">
        <ele>626.59997558594</ele>
        <time>2011-04-22T15:18:03.000Z</time>
      </trkpt>
      <trkpt lat="45.09725" lon="5.76913">
        <ele>627.20001220703</ele>
        <time>2011-04-22T15:18:05.000Z</time>
      </trkpt>
      <trkpt lat="45.09724" lon="5.76921">
        <ele>628.79998779297</ele>
        <time>2011-04-22T15:18:08.000Z</time>
      </trkpt>
      <trkpt lat="45.09725" lon="5.76923">
        <ele>629.79998779297</ele>
        <time>2011-04-22T15:18:10.000Z</time>
      </trkpt>
      <trkpt lat="45.09723" lon="5.76928">
        <ele>630.59997558594</ele>
        <time>2011-04-22T15:18:14.000Z</time>
      </trkpt>
      <trkpt lat="45.09723" lon="5.7693">
        <ele>631.20001220703</ele>
        <time>2011-04-22T15:18:16.000Z</time>
      </trkpt>
      <trkpt lat="45.09721" lon="5.76936">
        <ele>632.40002441406</ele>
        <time>2011-04-22T15:18:20.000Z</time>
      </trkpt>
      <trkpt lat="45.09721" lon="5.76939">
        <ele>633.20001220703</ele>
        <time>2011-04-22T15:18:22.000Z</time>
      </trkpt>
      <trkpt lat="45.0972" lon="5.76945">
        <ele>634.59997558594</ele>
        <time>2011-04-22T15:18:25.000Z</time>
      </trkpt>
      <trkpt lat="45.0972" lon="5.76946">
        <ele>634.79998779297</ele>
        <time>2011-04-22T15:18:26.000Z</time>
      </trkpt>
      <trkpt lat="45.0972" lon="5.76948">
        <ele>635.20001220703</ele>
        <time>2011-04-22T15:18:27.000Z</time>
      </trkpt>
      <trkpt lat="45.0972" lon="5.76956">
        <ele>637.20001220703</ele>
        <time>2011-04-22T15:18:31.000Z</time>
      </trkpt>
      <trkpt lat="45.09719" lon="5.76958">
        <ele>637.79998779297</ele>
        <time>2011-04-22T15:18:33.000Z</time>
      </trkpt>
      <trkpt lat="45.09718" lon="5.76961">
        <ele>638.40002441406</ele>
        <time>2011-04-22T15:18:35.000Z</time>
      </trkpt>
      <trkpt lat="45.09717" lon="5.76962">
        <ele>638.59997558594</ele>
        <time>2011-04-22T15:18:36.000Z</time>
      </trkpt>
      <trkpt lat="45.09718" lon="5.76967">
        <ele>640</ele>
        <time>2011-04-22T15:18:40.000Z</time>
      </trkpt>
      <trkpt lat="45.09719" lon="5.76969">
        <ele>640.59997558594</ele>
        <time>2011-04-22T15:18:41.000Z</time>
      </trkpt>
      <trkpt lat="45.0972" lon="5.7697">
        <ele>641</ele>
        <time>2011-04-22T15:18:42.000Z</time>
      </trkpt>
      <trkpt lat="45.09718" lon="5.76977">
        <ele>642.40002441406</ele>
        <time>2011-04-22T15:18:46.000Z</time>
      </trkpt>
      <trkpt lat="45.09717" lon="5.76984">
        <ele>644.20001220703</ele>
        <time>2011-04-22T15:18:51.000Z</time>
      </trkpt>
      <trkpt lat="45.09717" lon="5.76988">
        <ele>645.20001220703</ele>
        <time>2011-04-22T15:18:53.000Z</time>
      </trkpt>
      <trkpt lat="45.09717" lon="5.76989">
        <ele>645.40002441406</ele>
        <time>2011-04-22T15:18:54.000Z</time>
      </trkpt>
      <trkpt lat="45.09717" lon="5.76995">
        <ele>647.20001220703</ele>
        <time>2011-04-22T15:18:59.000Z</time>
      </trkpt>
      <trkpt lat="45.09718" lon="5.77001">
        <ele>648.59997558594</ele>
        <time>2011-04-22T15:19:04.000Z</time>
      </trkpt>
      <trkpt lat="45.0972" lon="5.77003">
        <ele>649.20001220703</ele>
        <time>2011-04-22T15:19:05.000Z</time>
      </trkpt>
      <trkpt lat="45.09723" lon="5.7701">
        <ele>651.20001220703</ele>
        <time>2011-04-22T15:19:11.000Z</time>
      </trkpt>
      <trkpt lat="45.09723" lon="5.77013">
        <ele>651.59997558594</ele>
        <time>2011-04-22T15:19:14.000Z</time>
      </trkpt>
      <trkpt lat="45.09723" lon="5.77014">
        <ele>652</ele>
        <time>2011-04-22T15:19:15.000Z</time>
      </trkpt>
      <trkpt lat="45.09722" lon="5.77017">
        <ele>652.40002441406</ele>
        <time>2011-04-22T15:19:18.000Z</time>
      </trkpt>
      <trkpt lat="45.09722" lon="5.77019">
        <ele>652.79998779297</ele>
        <time>2011-04-22T15:19:19.000Z</time>
      </trkpt>
      <trkpt lat="45.09722" lon="5.7702">
        <ele>653</ele>
        <time>2011-04-22T15:19:20.000Z</time>
      </trkpt>
      <trkpt lat="45.09723" lon="5.77025">
        <ele>654.20001220703</ele>
        <time>2011-04-22T15:19:23.000Z</time>
      </trkpt>
      <trkpt lat="45.09726" lon="5.77027">
        <ele>655</ele>
        <time>2011-04-22T15:19:27.000Z</time>
      </trkpt>
      <trkpt lat="45.09726" lon="5.77029">
        <ele>655.20001220703</ele>
        <time>2011-04-22T15:19:29.000Z</time>
      </trkpt>
      <trkpt lat="45.09726" lon="5.77031">
        <ele>655.79998779297</ele>
        <time>2011-04-22T15:19:31.000Z</time>
      </trkpt>
      <trkpt lat="45.09728" lon="5.77031">
        <ele>656</ele>
        <time>2011-04-22T15:19:33.000Z</time>
      </trkpt>
      <trkpt lat="45.0973" lon="5.77032">
        <ele>656.20001220703</ele>
        <time>2011-04-22T15:19:35.000Z</time>
      </trkpt>
      <trkpt lat="45.0973" lon="5.77029">
        <ele>655.79998779297</ele>
        <time>2011-04-22T15:19:43.000Z</time>
      </trkpt>
      <trkpt lat="45.09735" lon="5.77023">
        <ele>654.79998779297</ele>
        <time>2011-04-22T15:19:55.000Z</time>
      </trkpt>
      <trkpt lat="45.09737" lon="5.77024">
        <ele>655.20001220703</ele>
        <time>2011-04-22T15:19:57.000Z</time>
      </trkpt>
      <trkpt lat="45.09742" lon="5.77024">
        <ele>655.79998779297</ele>
        <time>2011-04-22T15:20:01.000Z</time>
      </trkpt>
      <trkpt lat="45.09752" lon="5.77027">
        <ele>657.79998779297</ele>
        <time>2011-04-22T15:20:05.000Z</time>
      </trkpt>
      <trkpt lat="45.09753" lon="5.77029">
        <ele>658.40002441406</ele>
        <time>2011-04-22T15:20:06.000Z</time>
      </trkpt>
      <trkpt lat="45.09754" lon="5.77031">
        <ele>659</ele>
        <time>2011-04-22T15:20:08.000Z</time>
      </trkpt>
      <trkpt lat="45.09755" lon="5.77033">
        <ele>659.40002441406</ele>
        <time>2011-04-22T15:20:09.000Z</time>
      </trkpt>
      <trkpt lat="45.09755" lon="5.77036">
        <ele>660.20001220703</ele>
        <time>2011-04-22T15:20:15.000Z</time>
      </trkpt>
      <trkpt lat="45.09753" lon="5.77044">
        <ele>661</ele>
        <time>2011-04-22T15:20:19.000Z</time>
      </trkpt>
      <trkpt lat="45.09752" lon="5.77047">
        <ele>661.40002441406</ele>
        <time>2011-04-22T15:20:21.000Z</time>
      </trkpt>
      <trkpt lat="45.0975" lon="5.77052">
        <ele>661.79998779297</ele>
        <time>2011-04-22T15:20:25.000Z</time>
      </trkpt>
      <trkpt lat="45.0974" lon="5.7706">
        <ele>662.79998779297</ele>
        <time>2011-04-22T15:20:31.000Z</time>
      </trkpt>
      <trkpt lat="45.09737" lon="5.77066">
        <ele>663.59997558594</ele>
        <time>2011-04-22T15:20:33.000Z</time>
      </trkpt>
      <trkpt lat="45.09734" lon="5.77069">
        <ele>664</ele>
        <time>2011-04-22T15:20:35.000Z</time>
      </trkpt>
      <trkpt lat="45.09732" lon="5.7707">
        <ele>664.20001220703</ele>
        <time>2011-04-22T15:20:36.000Z</time>
      </trkpt>
      <trkpt lat="45.09727" lon="5.77078">
        <ele>665.40002441406</ele>
        <time>2011-04-22T15:20:40.000Z</time>
      </trkpt>
      <trkpt lat="45.09725" lon="5.77079">
        <ele>665.40002441406</ele>
        <time>2011-04-22T15:20:41.000Z</time>
      </trkpt>
      <trkpt lat="45.09717" lon="5.77081">
        <ele>665.40002441406</ele>
        <time>2011-04-22T15:20:45.000Z</time>
      </trkpt>
      <trkpt lat="45.09715" lon="5.77082">
        <ele>665.59997558594</ele>
        <time>2011-04-22T15:20:46.000Z</time>
      </trkpt>
      <trkpt lat="45.09706" lon="5.77083">
        <ele>665.20001220703</ele>
        <time>2011-04-22T15:20:50.000Z</time>
      </trkpt>
      <trkpt lat="45.09697" lon="5.77083">
        <ele>664.59997558594</ele>
        <time>2011-04-22T15:20:54.000Z</time>
      </trkpt>
      <trkpt lat="45.09695" lon="5.77083">
        <ele>664.40002441406</ele>
        <time>2011-04-22T15:20:55.000Z</time>
      </trkpt>
      <trkpt lat="45.09682" lon="5.77084">
        <ele>663.79998779297</ele>
        <time>2011-04-22T15:21:01.000Z</time>
      </trkpt>
      <trkpt lat="45.09678" lon="5.77083">
        <ele>663.40002441406</ele>
        <time>2011-04-22T15:21:04.000Z</time>
      </trkpt>
      <trkpt lat="45.09674" lon="5.77082">
        <ele>663</ele>
        <time>2011-04-22T15:21:06.000Z</time>
      </trkpt>
      <trkpt lat="45.09667" lon="5.77078">
        <ele>661.79998779297</ele>
        <time>2011-04-22T15:21:10.000Z</time>
      </trkpt>
      <trkpt lat="45.09661" lon="5.77079">
        <ele>661</ele>
        <time>2011-04-22T15:21:13.000Z</time>
      </trkpt>
      <trkpt lat="45.09659" lon="5.77079">
        <ele>660.79998779297</ele>
        <time>2011-04-22T15:21:14.000Z</time>
      </trkpt>
      <trkpt lat="45.09655" lon="5.77079">
        <ele>660.40002441406</ele>
        <time>2011-04-22T15:21:16.000Z</time>
      </trkpt>
      <trkpt lat="45.09653" lon="5.77079">
        <ele>660</ele>
        <time>2011-04-22T15:21:17.000Z</time>
      </trkpt>
      <trkpt lat="45.09649" lon="5.77079">
        <ele>659.59997558594</ele>
        <time>2011-04-22T15:21:19.000Z</time>
      </trkpt>
      <trkpt lat="45.09647" lon="5.77078">
        <ele>659.20001220703</ele>
        <time>2011-04-22T15:21:21.000Z</time>
      </trkpt>
      <trkpt lat="45.0964" lon="5.77077">
        <ele>658</ele>
        <time>2011-04-22T15:21:25.000Z</time>
      </trkpt>
      <trkpt lat="45.09638" lon="5.77075">
        <ele>657.20001220703</ele>
        <time>2011-04-22T15:21:27.000Z</time>
      </trkpt>
      <trkpt lat="45.09633" lon="5.77073">
        <ele>656.40002441406</ele>
        <time>2011-04-22T15:21:31.000Z</time>
      </trkpt>
      <trkpt lat="45.09633" lon="5.77075">
        <ele>656.79998779297</ele>
        <time>2011-04-22T15:21:33.000Z</time>
      </trkpt>
      <trkpt lat="45.09637" lon="5.77083">
        <ele>658.40002441406</ele>
        <time>2011-04-22T15:21:37.000Z</time>
      </trkpt>
      <trkpt lat="45.09638" lon="5.77086">
        <ele>659</ele>
        <time>2011-04-22T15:21:39.000Z</time>
      </trkpt>
      <trkpt lat="45.09642" lon="5.77091">
        <ele>660</ele>
        <time>2011-04-22T15:21:43.000Z</time>
      </trkpt>
      <trkpt lat="45.09645" lon="5.77097">
        <ele>661.20001220703</ele>
        <time>2011-04-22T15:21:47.000Z</time>
      </trkpt>
      <trkpt lat="45.09647" lon="5.77101">
        <ele>661.79998779297</ele>
        <time>2011-04-22T15:21:49.000Z</time>
      </trkpt>
      <trkpt lat="45.0965" lon="5.77106">
        <ele>663</ele>
        <time>2011-04-22T15:21:52.000Z</time>
      </trkpt>
      <trkpt lat="45.09652" lon="5.77108">
        <ele>663.79998779297</ele>
        <time>2011-04-22T15:21:54.000Z</time>
      </trkpt>
      <trkpt lat="45.09656" lon="5.77113">
        <ele>665</ele>
        <time>2011-04-22T15:21:57.000Z</time>
      </trkpt>
      <trkpt lat="45.09659" lon="5.77119">
        <ele>666.79998779297</ele>
        <time>2011-04-22T15:22:00.000Z</time>
      </trkpt>
      <trkpt lat="45.09663" lon="5.77125">
        <ele>668.40002441406</ele>
        <time>2011-04-22T15:22:04.000Z</time>
      </trkpt>
      <trkpt lat="45.09663" lon="5.77127">
        <ele>668.79998779297</ele>
        <time>2011-04-22T15:22:05.000Z</time>
      </trkpt>
      <trkpt lat="45.09666" lon="5.77133">
        <ele>670.59997558594</ele>
        <time>2011-04-22T15:22:09.000Z</time>
      </trkpt>
      <trkpt lat="45.09668" lon="5.77136">
        <ele>671.20001220703</ele>
        <time>2011-04-22T15:22:11.000Z</time>
      </trkpt>
      <trkpt lat="45.09671" lon="5.77143">
        <ele>672.59997558594</ele>
        <time>2011-04-22T15:22:15.000Z</time>
      </trkpt>
      <trkpt lat="45.09672" lon="5.77145">
        <ele>672.79998779297</ele>
        <time>2011-04-22T15:22:16.000Z</time>
      </trkpt>
      <trkpt lat="45.09673" lon="5.77146">
        <ele>673.20001220703</ele>
        <time>2011-04-22T15:22:17.000Z</time>
      </trkpt>
      <trkpt lat="45.09674" lon="5.77147">
        <ele>673.40002441406</ele>
        <time>2011-04-22T15:22:18.000Z</time>
      </trkpt>
      <trkpt lat="45.09676" lon="5.77152">
        <ele>674.40002441406</ele>
        <time>2011-04-22T15:22:21.000Z</time>
      </trkpt>
      <trkpt lat="45.09677" lon="5.77153">
        <ele>674.59997558594</ele>
        <time>2011-04-22T15:22:22.000Z</time>
      </trkpt>
      <trkpt lat="45.0968" lon="5.77162">
        <ele>676.40002441406</ele>
        <time>2011-04-22T15:22:27.000Z</time>
      </trkpt>
      <trkpt lat="45.09681" lon="5.77166">
        <ele>677</ele>
        <time>2011-04-22T15:22:30.000Z</time>
      </trkpt>
      <trkpt lat="45.09683" lon="5.7717">
        <ele>677.59997558594</ele>
        <time>2011-04-22T15:22:32.000Z</time>
      </trkpt>
      <trkpt lat="45.09685" lon="5.77172">
        <ele>678</ele>
        <time>2011-04-22T15:22:34.000Z</time>
      </trkpt>
      <trkpt lat="45.09689" lon="5.77172">
        <ele>678.40002441406</ele>
        <time>2011-04-22T15:22:37.000Z</time>
      </trkpt>
      <trkpt lat="45.09692" lon="5.77175">
        <ele>679</ele>
        <time>2011-04-22T15:22:40.000Z</time>
      </trkpt>
      <trkpt lat="45.09695" lon="5.7718">
        <ele>680</ele>
        <time>2011-04-22T15:22:44.000Z</time>
      </trkpt>
      <trkpt lat="45.09697" lon="5.77182">
        <ele>680.40002441406</ele>
        <time>2011-04-22T15:22:46.000Z</time>
      </trkpt>
      <trkpt lat="45.09697" lon="5.77184">
        <ele>680.79998779297</ele>
        <time>2011-04-22T15:22:47.000Z</time>
      </trkpt>
      <trkpt lat="45.09698" lon="5.77185">
        <ele>681</ele>
        <time>2011-04-22T15:22:48.000Z</time>
      </trkpt>
      <trkpt lat="45.097" lon="5.77189">
        <ele>681.79998779297</ele>
        <time>2011-04-22T15:22:53.000Z</time>
      </trkpt>
      <trkpt lat="45.09701" lon="5.77195">
        <ele>683</ele>
        <time>2011-04-22T15:22:58.000Z</time>
      </trkpt>
      <trkpt lat="45.09701" lon="5.77198">
        <ele>683.20001220703</ele>
        <time>2011-04-22T15:23:00.000Z</time>
      </trkpt>
      <trkpt lat="45.09699" lon="5.7721">
        <ele>684.59997558594</ele>
        <time>2011-04-22T15:23:08.000Z</time>
      </trkpt>
      <trkpt lat="45.09698" lon="5.77226">
        <ele>686.59997558594</ele>
        <time>2011-04-22T15:23:13.000Z</time>
      </trkpt>
      <trkpt lat="45.09697" lon="5.77228">
        <ele>686.79998779297</ele>
        <time>2011-04-22T15:23:14.000Z</time>
      </trkpt>
      <trkpt lat="45.09697" lon="5.77236">
        <ele>687.79998779297</ele>
        <time>2011-04-22T15:23:16.000Z</time>
      </trkpt>
      <trkpt lat="45.09697" lon="5.77239">
        <ele>688.20001220703</ele>
        <time>2011-04-22T15:23:17.000Z</time>
      </trkpt>
      <trkpt lat="45.09696" lon="5.77256">
        <ele>689.40002441406</ele>
        <time>2011-04-22T15:23:21.000Z</time>
      </trkpt>
      <trkpt lat="45.09695" lon="5.77261">
        <ele>689.20001220703</ele>
        <time>2011-04-22T15:23:22.000Z</time>
      </trkpt>
      <trkpt lat="45.09693" lon="5.7727">
        <ele>688.79998779297</ele>
        <time>2011-04-22T15:23:24.000Z</time>
      </trkpt>
      <trkpt lat="45.09693" lon="5.77274">
        <ele>688.59997558594</ele>
        <time>2011-04-22T15:23:25.000Z</time>
      </trkpt>
      <trkpt lat="45.09693" lon="5.77289">
        <ele>688.79998779297</ele>
        <time>2011-04-22T15:23:29.000Z</time>
      </trkpt>
      <trkpt lat="45.09693" lon="5.77294">
        <ele>689</ele>
        <time>2011-04-22T15:23:30.000Z</time>
      </trkpt>
      <trkpt lat="45.09693" lon="5.77314">
        <ele>689</ele>
        <time>2011-04-22T15:23:35.000Z</time>
      </trkpt>
      <trkpt lat="45.09691" lon="5.77335">
        <ele>688</ele>
        <time>2011-04-22T15:23:40.000Z</time>
      </trkpt>
      <trkpt lat="45.0969" lon="5.77343">
        <ele>687.59997558594</ele>
        <time>2011-04-22T15:23:42.000Z</time>
      </trkpt>
      <trkpt lat="45.09688" lon="5.77355">
        <ele>686.40002441406</ele>
        <time>2011-04-22T15:23:45.000Z</time>
      </trkpt>
      <trkpt lat="45.09686" lon="5.7737">
        <ele>684.59997558594</ele>
        <time>2011-04-22T15:23:49.000Z</time>
      </trkpt>
      <trkpt lat="45.09685" lon="5.77374">
        <ele>684.20001220703</ele>
        <time>2011-04-22T15:23:50.000Z</time>
      </trkpt>
      <trkpt lat="45.09685" lon="5.77397">
        <ele>683.20001220703</ele>
        <time>2011-04-22T15:23:55.000Z</time>
      </trkpt>
      <trkpt lat="45.09685" lon="5.77401">
        <ele>683.20001220703</ele>
        <time>2011-04-22T15:23:56.000Z</time>
      </trkpt>
      <trkpt lat="45.09689" lon="5.77421">
        <ele>683.59997558594</ele>
        <time>2011-04-22T15:24:01.000Z</time>
      </trkpt>
      <trkpt lat="45.0969" lon="5.77424">
        <ele>683.59997558594</ele>
        <time>2011-04-22T15:24:02.000Z</time>
      </trkpt>
      <trkpt lat="45.0969" lon="5.77427">
        <ele>683.20001220703</ele>
        <time>2011-04-22T15:24:03.000Z</time>
      </trkpt>
      <trkpt lat="45.0969" lon="5.77438">
        <ele>681.40002441406</ele>
        <time>2011-04-22T15:24:06.000Z</time>
      </trkpt>
      <trkpt lat="45.09692" lon="5.77447">
        <ele>680.59997558594</ele>
        <time>2011-04-22T15:24:08.000Z</time>
      </trkpt>
      <trkpt lat="45.09693" lon="5.77451">
        <ele>680</ele>
        <time>2011-04-22T15:24:09.000Z</time>
      </trkpt>
      <trkpt lat="45.09693" lon="5.77457">
        <ele>679.20001220703</ele>
        <time>2011-04-22T15:24:10.000Z</time>
      </trkpt>
      <trkpt lat="45.09694" lon="5.77477">
        <ele>675.79998779297</ele>
        <time>2011-04-22T15:24:14.000Z</time>
      </trkpt>
      <trkpt lat="45.09694" lon="5.77482">
        <ele>675</ele>
        <time>2011-04-22T15:24:15.000Z</time>
      </trkpt>
      <trkpt lat="45.09698" lon="5.77504">
        <ele>673.40002441406</ele>
        <time>2011-04-22T15:24:20.000Z</time>
      </trkpt>
      <trkpt lat="45.09699" lon="5.77507">
        <ele>673.59997558594</ele>
        <time>2011-04-22T15:24:21.000Z</time>
      </trkpt>
      <trkpt lat="45.09708" lon="5.77526">
        <ele>675.79998779297</ele>
        <time>2011-04-22T15:24:26.000Z</time>
      </trkpt>
      <trkpt lat="45.09715" lon="5.77548">
        <ele>676.40002441406</ele>
        <time>2011-04-22T15:24:31.000Z</time>
      </trkpt>
      <trkpt lat="45.09716" lon="5.77553">
        <ele>676.20001220703</ele>
        <time>2011-04-22T15:24:32.000Z</time>
      </trkpt>
      <trkpt lat="45.09723" lon="5.7757">
        <ele>677.20001220703</ele>
        <time>2011-04-22T15:24:36.000Z</time>
      </trkpt>
      <trkpt lat="45.09724" lon="5.77575">
        <ele>677</ele>
        <time>2011-04-22T15:24:37.000Z</time>
      </trkpt>
      <trkpt lat="45.09728" lon="5.7759">
        <ele>675.59997558594</ele>
        <time>2011-04-22T15:24:40.000Z</time>
      </trkpt>
      <trkpt lat="45.09731" lon="5.77599">
        <ele>674.40002441406</ele>
        <time>2011-04-22T15:24:42.000Z</time>
      </trkpt>
      <trkpt lat="45.09735" lon="5.77606">
        <ele>673.79998779297</ele>
        <time>2011-04-22T15:24:44.000Z</time>
      </trkpt>
      <trkpt lat="45.0974" lon="5.77623">
        <ele>671.20001220703</ele>
        <time>2011-04-22T15:24:48.000Z</time>
      </trkpt>
      <trkpt lat="45.09752" lon="5.7764">
        <ele>671.40002441406</ele>
        <time>2011-04-22T15:24:53.000Z</time>
      </trkpt>
      <trkpt lat="45.09754" lon="5.77642">
        <ele>671.20001220703</ele>
        <time>2011-04-22T15:24:54.000Z</time>
      </trkpt>
      <trkpt lat="45.09759" lon="5.7765">
        <ele>670.40002441406</ele>
        <time>2011-04-22T15:24:57.000Z</time>
      </trkpt>
      <trkpt lat="45.09766" lon="5.77666">
        <ele>667.79998779297</ele>
        <time>2011-04-22T15:25:01.000Z</time>
      </trkpt>
      <trkpt lat="45.09767" lon="5.7767">
        <ele>667.20001220703</ele>
        <time>2011-04-22T15:25:02.000Z</time>
      </trkpt>
      <trkpt lat="45.09775" lon="5.77683">
        <ele>666.20001220703</ele>
        <time>2011-04-22T15:25:06.000Z</time>
      </trkpt>
      <trkpt lat="45.09778" lon="5.77688">
        <ele>666</ele>
        <time>2011-04-22T15:25:08.000Z</time>
      </trkpt>
      <trkpt lat="45.09784" lon="5.77697">
        <ele>665.79998779297</ele>
        <time>2011-04-22T15:25:11.000Z</time>
      </trkpt>
      <trkpt lat="45.0979" lon="5.77708">
        <ele>664.79998779297</ele>
        <time>2011-04-22T15:25:14.000Z</time>
      </trkpt>
      <trkpt lat="45.09794" lon="5.77714">
        <ele>665</ele>
        <time>2011-04-22T15:25:16.000Z</time>
      </trkpt>
      <trkpt lat="45.09799" lon="5.77718">
        <ele>665.59997558594</ele>
        <time>2011-04-22T15:25:18.000Z</time>
      </trkpt>
      <trkpt lat="45.09804" lon="5.77725">
        <ele>666</ele>
        <time>2011-04-22T15:25:20.000Z</time>
      </trkpt>
      <trkpt lat="45.09807" lon="5.77728">
        <ele>666</ele>
        <time>2011-04-22T15:25:21.000Z</time>
      </trkpt>
      <trkpt lat="45.09819" lon="5.77739">
        <ele>668.20001220703</ele>
        <time>2011-04-22T15:25:25.000Z</time>
      </trkpt>
      <trkpt lat="45.09824" lon="5.77746">
        <ele>668.40002441406</ele>
        <time>2011-04-22T15:25:27.000Z</time>
      </trkpt>
      <trkpt lat="45.09833" lon="5.77761">
        <ele>667</ele>
        <time>2011-04-22T15:25:32.000Z</time>
      </trkpt>
      <trkpt lat="45.09834" lon="5.77763">
        <ele>667</ele>
        <time>2011-04-22T15:25:33.000Z</time>
      </trkpt>
      <trkpt lat="45.09843" lon="5.77776">
        <ele>666</ele>
        <time>2011-04-22T15:25:37.000Z</time>
      </trkpt>
      <trkpt lat="45.09845" lon="5.77779">
        <ele>666</ele>
        <time>2011-04-22T15:25:38.000Z</time>
      </trkpt>
      <trkpt lat="45.09854" lon="5.7779">
        <ele>665.79998779297</ele>
        <time>2011-04-22T15:25:42.000Z</time>
      </trkpt>
      <trkpt lat="45.0986" lon="5.77797">
        <ele>666.20001220703</ele>
        <time>2011-04-22T15:25:44.000Z</time>
      </trkpt>
      <trkpt lat="45.09865" lon="5.77803">
        <ele>666.40002441406</ele>
        <time>2011-04-22T15:25:46.000Z</time>
      </trkpt>
      <trkpt lat="45.09873" lon="5.77813">
        <ele>666.79998779297</ele>
        <time>2011-04-22T15:25:49.000Z</time>
      </trkpt>
      <trkpt lat="45.09879" lon="5.7782">
        <ele>666.79998779297</ele>
        <time>2011-04-22T15:25:51.000Z</time>
      </trkpt>
      <trkpt lat="45.09888" lon="5.77831">
        <ele>667.40002441406</ele>
        <time>2011-04-22T15:25:54.000Z</time>
      </trkpt>
      <trkpt lat="45.09892" lon="5.77837">
        <ele>667.40002441406</ele>
        <time>2011-04-22T15:25:56.000Z</time>
      </trkpt>
      <trkpt lat="45.09902" lon="5.77852">
        <ele>666.40002441406</ele>
        <time>2011-04-22T15:26:01.000Z</time>
      </trkpt>
      <trkpt lat="45.09905" lon="5.77854">
        <ele>666.59997558594</ele>
        <time>2011-04-22T15:26:02.000Z</time>
      </trkpt>
      <trkpt lat="45.09907" lon="5.77857">
        <ele>666.59997558594</ele>
        <time>2011-04-22T15:26:03.000Z</time>
      </trkpt>
      <trkpt lat="45.09912" lon="5.77864">
        <ele>666.20001220703</ele>
        <time>2011-04-22T15:26:06.000Z</time>
      </trkpt>
      <trkpt lat="45.09913" lon="5.77866">
        <ele>666</ele>
        <time>2011-04-22T15:26:07.000Z</time>
      </trkpt>
      <trkpt lat="45.09917" lon="5.77871">
        <ele>665.79998779297</ele>
        <time>2011-04-22T15:26:09.000Z</time>
      </trkpt>
      <trkpt lat="45.09919" lon="5.77874">
        <ele>665.59997558594</ele>
        <time>2011-04-22T15:26:10.000Z</time>
      </trkpt>
      <trkpt lat="45.09932" lon="5.77888">
        <ele>664.79998779297</ele>
        <time>2011-04-22T15:26:15.000Z</time>
      </trkpt>
      <trkpt lat="45.09942" lon="5.77899">
        <ele>664.20001220703</ele>
        <time>2011-04-22T15:26:20.000Z</time>
      </trkpt>
      <trkpt lat="45.09947" lon="5.77904">
        <ele>664.20001220703</ele>
        <time>2011-04-22T15:26:22.000Z</time>
      </trkpt>
      <trkpt lat="45.09948" lon="5.77907">
        <ele>663.79998779297</ele>
        <time>2011-04-22T15:26:23.000Z</time>
      </trkpt>
      <trkpt lat="45.0995" lon="5.77909">
        <ele>663.79998779297</ele>
        <time>2011-04-22T15:26:24.000Z</time>
      </trkpt>
      <trkpt lat="45.09962" lon="5.77921">
        <ele>664.20001220703</ele>
        <time>2011-04-22T15:26:29.000Z</time>
      </trkpt>
      <trkpt lat="45.0997" lon="5.77931">
        <ele>663.79998779297</ele>
        <time>2011-04-22T15:26:33.000Z</time>
      </trkpt>
      <trkpt lat="45.09978" lon="5.77942">
        <ele>663.20001220703</ele>
        <time>2011-04-22T15:26:37.000Z</time>
      </trkpt>
      <trkpt lat="45.09991" lon="5.77959">
        <ele>662.20001220703</ele>
        <time>2011-04-22T15:26:42.000Z</time>
      </trkpt>
      <trkpt lat="45.10001" lon="5.77973">
        <ele>661.40002441406</ele>
        <time>2011-04-22T15:26:46.000Z</time>
      </trkpt>
      <trkpt lat="45.10006" lon="5.77979">
        <ele>660.59997558594</ele>
        <time>2011-04-22T15:26:48.000Z</time>
      </trkpt>
      <trkpt lat="45.10013" lon="5.77987">
        <ele>659.59997558594</ele>
        <time>2011-04-22T15:26:51.000Z</time>
      </trkpt>
      <trkpt lat="45.1002" lon="5.77995">
        <ele>659.20001220703</ele>
        <time>2011-04-22T15:26:54.000Z</time>
      </trkpt>
      <trkpt lat="45.10025" lon="5.78001">
        <ele>659</ele>
        <time>2011-04-22T15:26:56.000Z</time>
      </trkpt>
      <trkpt lat="45.10031" lon="5.78015">
        <ele>655.59997558594</ele>
        <time>2011-04-22T15:27:00.000Z</time>
      </trkpt>
      <trkpt lat="45.10034" lon="5.78018">
        <ele>655.20001220703</ele>
        <time>2011-04-22T15:27:01.000Z</time>
      </trkpt>
      <trkpt lat="45.10043" lon="5.78029">
        <ele>654</ele>
        <time>2011-04-22T15:27:05.000Z</time>
      </trkpt>
      <trkpt lat="45.1005" lon="5.78036">
        <ele>654.40002441406</ele>
        <time>2011-04-22T15:27:08.000Z</time>
      </trkpt>
      <trkpt lat="45.10052" lon="5.78038">
        <ele>654.20001220703</ele>
        <time>2011-04-22T15:27:09.000Z</time>
      </trkpt>
      <trkpt lat="45.10057" lon="5.78045">
        <ele>653.59997558594</ele>
        <time>2011-04-22T15:27:11.000Z</time>
      </trkpt>
      <trkpt lat="45.10064" lon="5.78052">
        <ele>653.59997558594</ele>
        <time>2011-04-22T15:27:13.000Z</time>
      </trkpt>
      <trkpt lat="45.10069" lon="5.78057">
        <ele>653.79998779297</ele>
        <time>2011-04-22T15:27:15.000Z</time>
      </trkpt>
      <trkpt lat="45.10076" lon="5.78071">
        <ele>652.40002441406</ele>
        <time>2011-04-22T15:27:19.000Z</time>
      </trkpt>
      <trkpt lat="45.10081" lon="5.78077">
        <ele>652.40002441406</ele>
        <time>2011-04-22T15:27:21.000Z</time>
      </trkpt>
      <trkpt lat="45.10085" lon="5.78084">
        <ele>651.79998779297</ele>
        <time>2011-04-22T15:27:23.000Z</time>
      </trkpt>
      <trkpt lat="45.10091" lon="5.78092">
        <ele>649.79998779297</ele>
        <time>2011-04-22T15:27:26.000Z</time>
      </trkpt>
      <trkpt lat="45.10095" lon="5.78098">
        <ele>648.40002441406</ele>
        <time>2011-04-22T15:27:28.000Z</time>
      </trkpt>
      <trkpt lat="45.10104" lon="5.78109">
        <ele>646.59997558594</ele>
        <time>2011-04-22T15:27:33.000Z</time>
      </trkpt>
      <trkpt lat="45.10105" lon="5.78112">
        <ele>646.20001220703</ele>
        <time>2011-04-22T15:27:34.000Z</time>
      </trkpt>
      <trkpt lat="45.10115" lon="5.78123">
        <ele>645</ele>
        <time>2011-04-22T15:27:38.000Z</time>
      </trkpt>
      <trkpt lat="45.10121" lon="5.78129">
        <ele>644.79998779297</ele>
        <time>2011-04-22T15:27:40.000Z</time>
      </trkpt>
      <trkpt lat="45.10125" lon="5.78134">
        <ele>644.59997558594</ele>
        <time>2011-04-22T15:27:42.000Z</time>
      </trkpt>
      <trkpt lat="45.10137" lon="5.78146">
        <ele>645</ele>
        <time>2011-04-22T15:27:47.000Z</time>
      </trkpt>
      <trkpt lat="45.10139" lon="5.78151">
        <ele>644.79998779297</ele>
        <time>2011-04-22T15:27:49.000Z</time>
      </trkpt>
      <trkpt lat="45.10145" lon="5.78159">
        <ele>645.20001220703</ele>
        <time>2011-04-22T15:27:52.000Z</time>
      </trkpt>
      <trkpt lat="45.10151" lon="5.78164">
        <ele>646.40002441406</ele>
        <time>2011-04-22T15:27:54.000Z</time>
      </trkpt>
      <trkpt lat="45.10155" lon="5.78169">
        <ele>647</ele>
        <time>2011-04-22T15:27:56.000Z</time>
      </trkpt>
      <trkpt lat="45.10164" lon="5.78182">
        <ele>647.79998779297</ele>
        <time>2011-04-22T15:28:01.000Z</time>
      </trkpt>
      <trkpt lat="45.10167" lon="5.78185">
        <ele>648.20001220703</ele>
        <time>2011-04-22T15:28:02.000Z</time>
      </trkpt>
      <trkpt lat="45.10181" lon="5.78198">
        <ele>645.79998779297</ele>
        <time>2011-04-22T15:28:07.000Z</time>
      </trkpt>
      <trkpt lat="45.10183" lon="5.782">
        <ele>645.40002441406</ele>
        <time>2011-04-22T15:28:08.000Z</time>
      </trkpt>
      <trkpt lat="45.10191" lon="5.78211">
        <ele>644</ele>
        <time>2011-04-22T15:28:12.000Z</time>
      </trkpt>
      <trkpt lat="45.10196" lon="5.78216">
        <ele>643.40002441406</ele>
        <time>2011-04-22T15:28:14.000Z</time>
      </trkpt>
      <trkpt lat="45.10204" lon="5.78227">
        <ele>642.59997558594</ele>
        <time>2011-04-22T15:28:18.000Z</time>
      </trkpt>
      <trkpt lat="45.10211" lon="5.78234">
        <ele>642.20001220703</ele>
        <time>2011-04-22T15:28:21.000Z</time>
      </trkpt>
      <trkpt lat="45.10217" lon="5.7824">
        <ele>642.20001220703</ele>
        <time>2011-04-22T15:28:24.000Z</time>
      </trkpt>
      <trkpt lat="45.10225" lon="5.78252">
        <ele>641.79998779297</ele>
        <time>2011-04-22T15:28:29.000Z</time>
      </trkpt>
      <trkpt lat="45.10227" lon="5.78255">
        <ele>641.59997558594</ele>
        <time>2011-04-22T15:28:30.000Z</time>
      </trkpt>
      <trkpt lat="45.10232" lon="5.78276">
        <ele>640</ele>
        <time>2011-04-22T15:28:35.000Z</time>
      </trkpt>
      <trkpt lat="45.10233" lon="5.78281">
        <ele>639.79998779297</ele>
        <time>2011-04-22T15:28:36.000Z</time>
      </trkpt>
      <trkpt lat="45.10236" lon="5.78301">
        <ele>638.20001220703</ele>
        <time>2011-04-22T15:28:41.000Z</time>
      </trkpt>
      <trkpt lat="45.10238" lon="5.78304">
        <ele>638.20001220703</ele>
        <time>2011-04-22T15:28:42.000Z</time>
      </trkpt>
      <trkpt lat="45.10241" lon="5.78315">
        <ele>637.79998779297</ele>
        <time>2011-04-22T15:28:45.000Z</time>
      </trkpt>
      <trkpt lat="45.1025" lon="5.78328">
        <ele>638.20001220703</ele>
        <time>2011-04-22T15:28:49.000Z</time>
      </trkpt>
      <trkpt lat="45.10257" lon="5.78343">
        <ele>635</ele>
        <time>2011-04-22T15:28:53.000Z</time>
      </trkpt>
      <trkpt lat="45.10261" lon="5.78352">
        <ele>633.40002441406</ele>
        <time>2011-04-22T15:28:55.000Z</time>
      </trkpt>
      <trkpt lat="45.1027" lon="5.78367">
        <ele>630.40002441406</ele>
        <time>2011-04-22T15:29:00.000Z</time>
      </trkpt>
      <trkpt lat="45.10275" lon="5.78375">
        <ele>629.20001220703</ele>
        <time>2011-04-22T15:29:02.000Z</time>
      </trkpt>
      <trkpt lat="45.10278" lon="5.78385">
        <ele>628</ele>
        <time>2011-04-22T15:29:05.000Z</time>
      </trkpt>
      <trkpt lat="45.10286" lon="5.78398">
        <ele>626.40002441406</ele>
        <time>2011-04-22T15:29:09.000Z</time>
      </trkpt>
      <trkpt lat="45.10291" lon="5.78407">
        <ele>625.59997558594</ele>
        <time>2011-04-22T15:29:12.000Z</time>
      </trkpt>
      <trkpt lat="45.10297" lon="5.7842">
        <ele>624.59997558594</ele>
        <time>2011-04-22T15:29:16.000Z</time>
      </trkpt>
      <trkpt lat="45.10298" lon="5.78424">
        <ele>624</ele>
        <time>2011-04-22T15:29:17.000Z</time>
      </trkpt>
      <trkpt lat="45.10306" lon="5.78439">
        <ele>622.40002441406</ele>
        <time>2011-04-22T15:29:22.000Z</time>
      </trkpt>
      <trkpt lat="45.10308" lon="5.78442">
        <ele>622.20001220703</ele>
        <time>2011-04-22T15:29:23.000Z</time>
      </trkpt>
      <trkpt lat="45.10313" lon="5.78451">
        <ele>621.59997558594</ele>
        <time>2011-04-22T15:29:26.000Z</time>
      </trkpt>
      <trkpt lat="45.10319" lon="5.78461">
        <ele>621.40002441406</ele>
        <time>2011-04-22T15:29:29.000Z</time>
      </trkpt>
      <trkpt lat="45.10323" lon="5.78468">
        <ele>621.40002441406</ele>
        <time>2011-04-22T15:29:31.000Z</time>
      </trkpt>
      <trkpt lat="45.10329" lon="5.78475">
        <ele>622</ele>
        <time>2011-04-22T15:29:33.000Z</time>
      </trkpt>
      <trkpt lat="45.10331" lon="5.78479">
        <ele>622.20001220703</ele>
        <time>2011-04-22T15:29:34.000Z</time>
      </trkpt>
      <trkpt lat="45.10336" lon="5.78485">
        <ele>621.59997558594</ele>
        <time>2011-04-22T15:29:36.000Z</time>
      </trkpt>
      <trkpt lat="45.10345" lon="5.78497">
        <ele>619</ele>
        <time>2011-04-22T15:29:40.000Z</time>
      </trkpt>
      <trkpt lat="45.10347" lon="5.785">
        <ele>618.59997558594</ele>
        <time>2011-04-22T15:29:41.000Z</time>
      </trkpt>
      <trkpt lat="45.10356" lon="5.78517">
        <ele>614</ele>
        <time>2011-04-22T15:29:46.000Z</time>
      </trkpt>
      <trkpt lat="45.10364" lon="5.78531">
        <ele>611</ele>
        <time>2011-04-22T15:29:50.000Z</time>
      </trkpt>
      <trkpt lat="45.10367" lon="5.78538">
        <ele>610</ele>
        <time>2011-04-22T15:29:52.000Z</time>
      </trkpt>
      <trkpt lat="45.10372" lon="5.78546">
        <ele>608.79998779297</ele>
        <time>2011-04-22T15:29:54.000Z</time>
      </trkpt>
      <trkpt lat="45.10381" lon="5.7856">
        <ele>607.20001220703</ele>
        <time>2011-04-22T15:29:58.000Z</time>
      </trkpt>
      <trkpt lat="45.1039" lon="5.78577">
        <ele>606.40002441406</ele>
        <time>2011-04-22T15:30:03.000Z</time>
      </trkpt>
      <trkpt lat="45.10392" lon="5.7858">
        <ele>606.40002441406</ele>
        <time>2011-04-22T15:30:04.000Z</time>
      </trkpt>
      <trkpt lat="45.10401" lon="5.78592">
        <ele>604.40002441406</ele>
        <time>2011-04-22T15:30:08.000Z</time>
      </trkpt>
      <trkpt lat="45.10407" lon="5.78598">
        <ele>603.20001220703</ele>
        <time>2011-04-22T15:30:10.000Z</time>
      </trkpt>
      <trkpt lat="45.10415" lon="5.78607">
        <ele>602</ele>
        <time>2011-04-22T15:30:13.000Z</time>
      </trkpt>
      <trkpt lat="45.10422" lon="5.78616">
        <ele>599.20001220703</ele>
        <time>2011-04-22T15:30:16.000Z</time>
      </trkpt>
      <trkpt lat="45.1043" lon="5.78625">
        <ele>596</ele>
        <time>2011-04-22T15:30:19.000Z</time>
      </trkpt>
      <trkpt lat="45.10436" lon="5.78635">
        <ele>593.40002441406</ele>
        <time>2011-04-22T15:30:22.000Z</time>
      </trkpt>
      <trkpt lat="45.10438" lon="5.78638">
        <ele>592.79998779297</ele>
        <time>2011-04-22T15:30:23.000Z</time>
      </trkpt>
      <trkpt lat="45.10448" lon="5.78651">
        <ele>589.79998779297</ele>
        <time>2011-04-22T15:30:27.000Z</time>
      </trkpt>
      <trkpt lat="45.1045" lon="5.78653">
        <ele>589.20001220703</ele>
        <time>2011-04-22T15:30:28.000Z</time>
      </trkpt>
      <trkpt lat="45.10458" lon="5.78662">
        <ele>587.59997558594</ele>
        <time>2011-04-22T15:30:31.000Z</time>
      </trkpt>
      <trkpt lat="45.10465" lon="5.78672">
        <ele>584.79998779297</ele>
        <time>2011-04-22T15:30:34.000Z</time>
      </trkpt>
      <trkpt lat="45.10467" lon="5.78675">
        <ele>584</ele>
        <time>2011-04-22T15:30:35.000Z</time>
      </trkpt>
      <trkpt lat="45.10477" lon="5.78688">
        <ele>579.79998779297</ele>
        <time>2011-04-22T15:30:40.000Z</time>
      </trkpt>
      <trkpt lat="45.10478" lon="5.78692">
        <ele>579</ele>
        <time>2011-04-22T15:30:41.000Z</time>
      </trkpt>
      <trkpt lat="45.10488" lon="5.78703">
        <ele>576.79998779297</ele>
        <time>2011-04-22T15:30:45.000Z</time>
      </trkpt>
      <trkpt lat="45.10493" lon="5.78711">
        <ele>576</ele>
        <time>2011-04-22T15:30:47.000Z</time>
      </trkpt>
      <trkpt lat="45.105" lon="5.78722">
        <ele>575.20001220703</ele>
        <time>2011-04-22T15:30:50.000Z</time>
      </trkpt>
      <trkpt lat="45.10508" lon="5.78732">
        <ele>571.59997558594</ele>
        <time>2011-04-22T15:30:53.000Z</time>
      </trkpt>
      <trkpt lat="45.10515" lon="5.78743">
        <ele>568.40002441406</ele>
        <time>2011-04-22T15:30:56.000Z</time>
      </trkpt>
      <trkpt lat="45.10522" lon="5.78755">
        <ele>563.79998779297</ele>
        <time>2011-04-22T15:30:59.000Z</time>
      </trkpt>
      <trkpt lat="45.10528" lon="5.78766">
        <ele>558.20001220703</ele>
        <time>2011-04-22T15:31:02.000Z</time>
      </trkpt>
      <trkpt lat="45.10537" lon="5.7877">
        <ele>554.79998779297</ele>
        <time>2011-04-22T15:31:05.000Z</time>
      </trkpt>
      <trkpt lat="45.10539" lon="5.78769">
        <ele>555</ele>
        <time>2011-04-22T15:31:06.000Z</time>
      </trkpt>
      <trkpt lat="45.10544" lon="5.78754">
        <ele>558</ele>
        <time>2011-04-22T15:31:10.000Z</time>
      </trkpt>
      <trkpt lat="45.10545" lon="5.78749">
        <ele>558.79998779297</ele>
        <time>2011-04-22T15:31:11.000Z</time>
      </trkpt>
      <trkpt lat="45.10547" lon="5.78729">
        <ele>558.79998779297</ele>
        <time>2011-04-22T15:31:15.000Z</time>
      </trkpt>
      <trkpt lat="45.10547" lon="5.78724">
        <ele>559</ele>
        <time>2011-04-22T15:31:16.000Z</time>
      </trkpt>
      <trkpt lat="45.10547" lon="5.7871">
        <ele>559.40002441406</ele>
        <time>2011-04-22T15:31:19.000Z</time>
      </trkpt>
      <trkpt lat="45.10544" lon="5.78698">
        <ele>560.79998779297</ele>
        <time>2011-04-22T15:31:22.000Z</time>
      </trkpt>
      <trkpt lat="45.10544" lon="5.78688">
        <ele>561.40002441406</ele>
        <time>2011-04-22T15:31:24.000Z</time>
      </trkpt>
      <trkpt lat="45.10541" lon="5.78671">
        <ele>563</ele>
        <time>2011-04-22T15:31:28.000Z</time>
      </trkpt>
      <trkpt lat="45.1054" lon="5.78666">
        <ele>563.59997558594</ele>
        <time>2011-04-22T15:31:29.000Z</time>
      </trkpt>
      <trkpt lat="45.10535" lon="5.78647">
        <ele>563.59997558594</ele>
        <time>2011-04-22T15:31:33.000Z</time>
      </trkpt>
      <trkpt lat="45.10534" lon="5.78642">
        <ele>563.40002441406</ele>
        <time>2011-04-22T15:31:34.000Z</time>
      </trkpt>
      <trkpt lat="45.10529" lon="5.78621">
        <ele>562.79998779297</ele>
        <time>2011-04-22T15:31:38.000Z</time>
      </trkpt>
      <trkpt lat="45.10528" lon="5.78616">
        <ele>562.79998779297</ele>
        <time>2011-04-22T15:31:39.000Z</time>
      </trkpt>
      <trkpt lat="45.10523" lon="5.78596">
        <ele>563</ele>
        <time>2011-04-22T15:31:43.000Z</time>
      </trkpt>
      <trkpt lat="45.1052" lon="5.78586">
        <ele>563.40002441406</ele>
        <time>2011-04-22T15:31:45.000Z</time>
      </trkpt>
      <trkpt lat="45.10517" lon="5.78571">
        <ele>562</ele>
        <time>2011-04-22T15:31:48.000Z</time>
      </trkpt>
      <trkpt lat="45.10517" lon="5.78566">
        <ele>561</ele>
        <time>2011-04-22T15:31:49.000Z</time>
      </trkpt>
      <trkpt lat="45.10515" lon="5.78542">
        <ele>557.59997558594</ele>
        <time>2011-04-22T15:31:54.000Z</time>
      </trkpt>
      <trkpt lat="45.10517" lon="5.78523">
        <ele>552</ele>
        <time>2011-04-22T15:31:58.000Z</time>
      </trkpt>
      <trkpt lat="45.10519" lon="5.78513">
        <ele>549.40002441406</ele>
        <time>2011-04-22T15:32:00.000Z</time>
      </trkpt>
      <trkpt lat="45.10519" lon="5.78498">
        <ele>546.20001220703</ele>
        <time>2011-04-22T15:32:03.000Z</time>
      </trkpt>
      <trkpt lat="45.10522" lon="5.78485">
        <ele>543.79998779297</ele>
        <time>2011-04-22T15:32:06.000Z</time>
      </trkpt>
      <trkpt lat="45.10523" lon="5.78475">
        <ele>542.20001220703</ele>
        <time>2011-04-22T15:32:08.000Z</time>
      </trkpt>
      <trkpt lat="45.10524" lon="5.78456">
        <ele>540.20001220703</ele>
        <time>2011-04-22T15:32:12.000Z</time>
      </trkpt>
      <trkpt lat="45.10525" lon="5.78452">
        <ele>539.59997558594</ele>
        <time>2011-04-22T15:32:13.000Z</time>
      </trkpt>
      <trkpt lat="45.10526" lon="5.78433">
        <ele>537.40002441406</ele>
        <time>2011-04-22T15:32:17.000Z</time>
      </trkpt>
      <trkpt lat="45.10527" lon="5.78428">
        <ele>536.59997558594</ele>
        <time>2011-04-22T15:32:18.000Z</time>
      </trkpt>
      <trkpt lat="45.10531" lon="5.7841">
        <ele>533.40002441406</ele>
        <time>2011-04-22T15:32:21.000Z</time>
      </trkpt>
      <trkpt lat="45.10531" lon="5.78406">
        <ele>532.79998779297</ele>
        <time>2011-04-22T15:32:22.000Z</time>
      </trkpt>
      <trkpt lat="45.10532" lon="5.78402">
        <ele>532.20001220703</ele>
        <time>2011-04-22T15:32:23.000Z</time>
      </trkpt>
      <trkpt lat="45.10537" lon="5.78394">
        <ele>529.59997558594</ele>
        <time>2011-04-22T15:32:26.000Z</time>
      </trkpt>
      <trkpt lat="45.10546" lon="5.78382">
        <ele>525.40002441406</ele>
        <time>2011-04-22T15:32:30.000Z</time>
      </trkpt>
      <trkpt lat="45.10549" lon="5.78381">
        <ele>524</ele>
        <time>2011-04-22T15:32:31.000Z</time>
      </trkpt>
      <trkpt lat="45.10558" lon="5.78376">
        <ele>520.20001220703</ele>
        <time>2011-04-22T15:32:34.000Z</time>
      </trkpt>
      <trkpt lat="45.10563" lon="5.78373">
        <ele>518.20001220703</ele>
        <time>2011-04-22T15:32:36.000Z</time>
      </trkpt>
      <trkpt lat="45.10576" lon="5.78365">
        <ele>513.20001220703</ele>
        <time>2011-04-22T15:32:41.000Z</time>
      </trkpt>
      <trkpt lat="45.1058" lon="5.78364">
        <ele>511.79998779297</ele>
        <time>2011-04-22T15:32:42.000Z</time>
      </trkpt>
      <trkpt lat="45.10589" lon="5.78363">
        <ele>509.79998779297</ele>
        <time>2011-04-22T15:32:45.000Z</time>
      </trkpt>
      <trkpt lat="45.106" lon="5.78364">
        <ele>508.20001220703</ele>
        <time>2011-04-22T15:32:49.000Z</time>
      </trkpt>
      <trkpt lat="45.10603" lon="5.78365">
        <ele>507.79998779297</ele>
        <time>2011-04-22T15:32:50.000Z</time>
      </trkpt>
      <trkpt lat="45.10618" lon="5.78369">
        <ele>505.39999389648</ele>
        <time>2011-04-22T15:32:55.000Z</time>
      </trkpt>
      <trkpt lat="45.10631" lon="5.78374">
        <ele>503.60000610352</ele>
        <time>2011-04-22T15:33:00.000Z</time>
      </trkpt>
      <trkpt lat="45.10636" lon="5.78377">
        <ele>502.79998779297</ele>
        <time>2011-04-22T15:33:02.000Z</time>
      </trkpt>
      <trkpt lat="45.10647" lon="5.7838">
        <ele>501.20001220703</ele>
        <time>2011-04-22T15:33:06.000Z</time>
      </trkpt>
      <trkpt lat="45.10655" lon="5.78382">
        <ele>500</ele>
        <time>2011-04-22T15:33:09.000Z</time>
      </trkpt>
      <trkpt lat="45.1066" lon="5.78384">
        <ele>499.20001220703</ele>
        <time>2011-04-22T15:33:11.000Z</time>
      </trkpt>
      <trkpt lat="45.10672" lon="5.78387">
        <ele>498</ele>
        <time>2011-04-22T15:33:16.000Z</time>
      </trkpt>
      <trkpt lat="45.10675" lon="5.78388">
        <ele>498</ele>
        <time>2011-04-22T15:33:17.000Z</time>
      </trkpt>
      <trkpt lat="45.10691" lon="5.78393">
        <ele>497.60000610352</ele>
        <time>2011-04-22T15:33:22.000Z</time>
      </trkpt>
      <trkpt lat="45.10694" lon="5.78394">
        <ele>497.39999389648</ele>
        <time>2011-04-22T15:33:23.000Z</time>
      </trkpt>
      <trkpt lat="45.1071" lon="5.78402">
        <ele>497.20001220703</ele>
        <time>2011-04-22T15:33:28.000Z</time>
      </trkpt>
      <trkpt lat="45.10713" lon="5.78403">
        <ele>497.20001220703</ele>
        <time>2011-04-22T15:33:29.000Z</time>
      </trkpt>
      <trkpt lat="45.1073" lon="5.7841">
        <ele>497</ele>
        <time>2011-04-22T15:33:35.000Z</time>
      </trkpt>
      <trkpt lat="45.10733" lon="5.7841">
        <ele>497</ele>
        <time>2011-04-22T15:33:36.000Z</time>
      </trkpt>
      <trkpt lat="45.10746" lon="5.78411">
        <ele>496.79998779297</ele>
        <time>2011-04-22T15:33:41.000Z</time>
      </trkpt>
      <trkpt lat="45.10751" lon="5.78409">
        <ele>496.60000610352</ele>
        <time>2011-04-22T15:33:43.000Z</time>
      </trkpt>
      <trkpt lat="45.1076" lon="5.78407">
        <ele>496</ele>
        <time>2011-04-22T15:33:46.000Z</time>
      </trkpt>
      <trkpt lat="45.10769" lon="5.78403">
        <ele>495.60000610352</ele>
        <time>2011-04-22T15:33:49.000Z</time>
      </trkpt>
      <trkpt lat="45.10772" lon="5.78402">
        <ele>495.39999389648</ele>
        <time>2011-04-22T15:33:50.000Z</time>
      </trkpt>
      <trkpt lat="45.10788" lon="5.78394">
        <ele>494.39999389648</ele>
        <time>2011-04-22T15:33:55.000Z</time>
      </trkpt>
      <trkpt lat="45.10804" lon="5.78396">
        <ele>493.79998779297</ele>
        <time>2011-04-22T15:34:00.000Z</time>
      </trkpt>
      <trkpt lat="45.10807" lon="5.78396">
        <ele>493.60000610352</ele>
        <time>2011-04-22T15:34:01.000Z</time>
      </trkpt>
      <trkpt lat="45.10826" lon="5.78401">
        <ele>492.79998779297</ele>
        <time>2011-04-22T15:34:07.000Z</time>
      </trkpt>
      <trkpt lat="45.1084" lon="5.78407">
        <ele>492</ele>
        <time>2011-04-22T15:34:12.000Z</time>
      </trkpt>
      <trkpt lat="45.10843" lon="5.78409">
        <ele>492</ele>
        <time>2011-04-22T15:34:13.000Z</time>
      </trkpt>
      <trkpt lat="45.10853" lon="5.78418">
        <ele>491.20001220703</ele>
        <time>2011-04-22T15:34:17.000Z</time>
      </trkpt>
      <trkpt lat="45.1086" lon="5.78425">
        <ele>490.20001220703</ele>
        <time>2011-04-22T15:34:20.000Z</time>
      </trkpt>
      <trkpt lat="45.10868" lon="5.78431">
        <ele>489.39999389648</ele>
        <time>2011-04-22T15:34:23.000Z</time>
      </trkpt>
      <trkpt lat="45.10875" lon="5.78438">
        <ele>488.39999389648</ele>
        <time>2011-04-22T15:34:26.000Z</time>
      </trkpt>
      <trkpt lat="45.10884" lon="5.78445">
        <ele>487.20001220703</ele>
        <time>2011-04-22T15:34:29.000Z</time>
      </trkpt>
      <trkpt lat="45.10892" lon="5.78451">
        <ele>486.20001220703</ele>
        <time>2011-04-22T15:34:32.000Z</time>
      </trkpt>
      <trkpt lat="45.10899" lon="5.78457">
        <ele>485.20001220703</ele>
        <time>2011-04-22T15:34:35.000Z</time>
      </trkpt>
      <trkpt lat="45.10908" lon="5.78463">
        <ele>484</ele>
        <time>2011-04-22T15:34:38.000Z</time>
      </trkpt>
      <trkpt lat="45.10917" lon="5.78469">
        <ele>482.79998779297</ele>
        <time>2011-04-22T15:34:41.000Z</time>
      </trkpt>
      <trkpt lat="45.10925" lon="5.78474">
        <ele>482</ele>
        <time>2011-04-22T15:34:44.000Z</time>
      </trkpt>
      <trkpt lat="45.10938" lon="5.78479">
        <ele>481</ele>
        <time>2011-04-22T15:34:48.000Z</time>
      </trkpt>
      <trkpt lat="45.10944" lon="5.78482">
        <ele>480.60000610352</ele>
        <time>2011-04-22T15:34:50.000Z</time>
      </trkpt>
      <trkpt lat="45.10949" lon="5.78485">
        <ele>480.20001220703</ele>
        <time>2011-04-22T15:34:52.000Z</time>
      </trkpt>
      <trkpt lat="45.1096" lon="5.78493">
        <ele>479.20001220703</ele>
        <time>2011-04-22T15:34:57.000Z</time>
      </trkpt>
      <trkpt lat="45.10973" lon="5.78508">
        <ele>478</ele>
        <time>2011-04-22T15:35:02.000Z</time>
      </trkpt>
      <trkpt lat="45.10974" lon="5.78512">
        <ele>477.79998779297</ele>
        <time>2011-04-22T15:35:03.000Z</time>
      </trkpt>
      <trkpt lat="45.1098" lon="5.78528">
        <ele>477</ele>
        <time>2011-04-22T15:35:07.000Z</time>
      </trkpt>
      <trkpt lat="45.10981" lon="5.78537">
        <ele>476.60000610352</ele>
        <time>2011-04-22T15:35:09.000Z</time>
      </trkpt>
      <trkpt lat="45.10982" lon="5.7855">
        <ele>476.20001220703</ele>
        <time>2011-04-22T15:35:12.000Z</time>
      </trkpt>
      <trkpt lat="45.10982" lon="5.78564">
        <ele>475.79998779297</ele>
        <time>2011-04-22T15:35:15.000Z</time>
      </trkpt>
      <trkpt lat="45.10982" lon="5.78572">
        <ele>475.60000610352</ele>
        <time>2011-04-22T15:35:17.000Z</time>
      </trkpt>
      <trkpt lat="45.10985" lon="5.78593">
        <ele>475</ele>
        <time>2011-04-22T15:35:22.000Z</time>
      </trkpt>
      <trkpt lat="45.1099" lon="5.78613">
        <ele>474.60000610352</ele>
        <time>2011-04-22T15:35:27.000Z</time>
      </trkpt>
      <trkpt lat="45.10993" lon="5.7862">
        <ele>474.39999389648</ele>
        <time>2011-04-22T15:35:29.000Z</time>
      </trkpt>
      <trkpt lat="45.10997" lon="5.78631">
        <ele>474</ele>
        <time>2011-04-22T15:35:32.000Z</time>
      </trkpt>
      <trkpt lat="45.11003" lon="5.78645">
        <ele>474</ele>
        <time>2011-04-22T15:35:36.000Z</time>
      </trkpt>
      <trkpt lat="45.11007" lon="5.78652">
        <ele>474</ele>
        <time>2011-04-22T15:35:38.000Z</time>
      </trkpt>
      <trkpt lat="45.11015" lon="5.78666">
        <ele>474</ele>
        <time>2011-04-22T15:35:42.000Z</time>
      </trkpt>
      <trkpt lat="45.11017" lon="5.7867">
        <ele>474</ele>
        <time>2011-04-22T15:35:43.000Z</time>
      </trkpt>
      <trkpt lat="45.11026" lon="5.78687">
        <ele>474.60000610352</ele>
        <time>2011-04-22T15:35:49.000Z</time>
      </trkpt>
      <trkpt lat="45.11036" lon="5.78701">
        <ele>474.79998779297</ele>
        <time>2011-04-22T15:35:54.000Z</time>
      </trkpt>
      <trkpt lat="45.11041" lon="5.78705">
        <ele>474.79998779297</ele>
        <time>2011-04-22T15:35:56.000Z</time>
      </trkpt>
      <trkpt lat="45.11042" lon="5.78706">
        <ele>474.79998779297</ele>
        <time>2011-04-22T15:35:58.000Z</time>
      </trkpt>
      <trkpt lat="45.11045" lon="5.78711">
        <ele>474.79998779297</ele>
        <time>2011-04-22T15:36:05.000Z</time>
      </trkpt>
      <trkpt lat="45.11053" lon="5.78717">
        <ele>474.60000610352</ele>
        <time>2011-04-22T15:36:10.000Z</time>
      </trkpt>
      <trkpt lat="45.11055" lon="5.78718">
        <ele>474.60000610352</ele>
        <time>2011-04-22T15:36:11.000Z</time>
      </trkpt>
      <trkpt lat="45.11061" lon="5.78723">
        <ele>474.39999389648</ele>
        <time>2011-04-22T15:36:16.000Z</time>
      </trkpt>
      <trkpt lat="45.11064" lon="5.78726">
        <ele>474.20001220703</ele>
        <time>2011-04-22T15:36:19.000Z</time>
      </trkpt>
      <trkpt lat="45.11066" lon="5.78727">
        <ele>474</ele>
        <time>2011-04-22T15:36:22.000Z</time>
      </trkpt>
      <trkpt lat="45.11067" lon="5.78728">
        <ele>474</ele>
        <time>2011-04-22T15:36:23.000Z</time>
      </trkpt>
      <trkpt lat="45.11068" lon="5.78727">
        <ele>474</ele>
        <time>2011-04-22T15:36:28.000Z</time>
      </trkpt>
      <trkpt lat="45.11069" lon="5.78728">
        <ele>474</ele>
        <time>2011-04-22T15:36:36.000Z</time>
      </trkpt>
      <trkpt lat="45.1107" lon="5.78731">
        <ele>473.79998779297</ele>
        <time>2011-04-22T15:36:39.000Z</time>
      </trkpt>
      <trkpt lat="45.11072" lon="5.78733">
        <ele>473.79998779297</ele>
        <time>2011-04-22T15:36:41.000Z</time>
      </trkpt>
      <trkpt lat="45.11073" lon="5.78733">
        <ele>473.79998779297</ele>
        <time>2011-04-22T15:36:42.000Z</time>
      </trkpt>
      <trkpt lat="45.11075" lon="5.78732">
        <ele>473.60000610352</ele>
        <time>2011-04-22T15:36:46.000Z</time>
      </trkpt>
      <trkpt lat="45.11077" lon="5.78734">
        <ele>473.39999389648</ele>
        <time>2011-04-22T15:37:01.000Z</time>
      </trkpt>
      <trkpt lat="45.11074" lon="5.78733">
        <ele>473.60000610352</ele>
        <time>2011-04-22T15:37:47.000Z</time>
      </trkpt>
      <trkpt lat="45.11075" lon="5.78734">
        <ele>473.60000610352</ele>
        <time>2011-04-22T15:37:52.000Z</time>
      </trkpt>
      <trkpt lat="45.11077" lon="5.78733">
        <ele>473.39999389648</ele>
        <time>2011-04-22T15:38:03.000Z</time>
      </trkpt>
      <trkpt lat="45.11075" lon="5.78732">
        <ele>473.60000610352</ele>
        <time>2011-04-22T15:38:10.000Z</time>
      </trkpt>
      <trkpt lat="45.11077" lon="5.78732">
        <ele>473.39999389648</ele>
        <time>2011-04-22T15:38:52.000Z</time>
      </trkpt>
      <trkpt lat="45.11076" lon="5.78733">
        <ele>473.60000610352</ele>
        <time>2011-04-22T15:39:55.000Z</time>
      </trkpt>
      <trkpt lat="45.11078" lon="5.78733">
        <ele>473.39999389648</ele>
        <time>2011-04-22T15:40:56.000Z</time>
      </trkpt>
      <trkpt lat="45.11082" lon="5.78736">
        <ele>473.20001220703</ele>
        <time>2011-04-22T15:41:07.000Z</time>
      </trkpt>
      <trkpt lat="45.11075" lon="5.78733">
        <ele>473.60000610352</ele>
        <time>2011-04-22T15:41:18.000Z</time>
      </trkpt>
      <trkpt lat="45.11074" lon="5.78732">
        <ele>473.60000610352</ele>
        <time>2011-04-22T15:41:23.000Z</time>
      </trkpt>
      <trkpt lat="45.11074" lon="5.7873">
        <ele>473.60000610352</ele>
        <time>2011-04-22T15:41:58.000Z</time>
      </trkpt>
      <trkpt lat="45.11075" lon="5.78728">
        <ele>473.60000610352</ele>
        <time>2011-04-22T15:41:59.000Z</time>
      </trkpt>
      <trkpt lat="45.11076" lon="5.78727">
        <ele>473.60000610352</ele>
        <time>2011-04-22T15:42:00.000Z</time>
      </trkpt>
      <trkpt lat="45.11079" lon="5.7872">
        <ele>473.39999389648</ele>
        <time>2011-04-22T15:42:04.000Z</time>
      </trkpt>
      <trkpt lat="45.11088" lon="5.78712">
        <ele>473.39999389648</ele>
        <time>2011-04-22T15:42:08.000Z</time>
      </trkpt>
      <trkpt lat="45.1109" lon="5.78709">
        <ele>473.39999389648</ele>
        <time>2011-04-22T15:42:09.000Z</time>
      </trkpt>
      <trkpt lat="45.11093" lon="5.78706">
        <ele>473.39999389648</ele>
        <time>2011-04-22T15:42:10.000Z</time>
      </trkpt>
      <trkpt lat="45.11099" lon="5.78697">
        <ele>473.60000610352</ele>
        <time>2011-04-22T15:42:13.000Z</time>
      </trkpt>
      <trkpt lat="45.11102" lon="5.78691">
        <ele>473.79998779297</ele>
        <time>2011-04-22T15:42:15.000Z</time>
      </trkpt>
      <trkpt lat="45.11109" lon="5.78681">
        <ele>474.20001220703</ele>
        <time>2011-04-22T15:42:19.000Z</time>
      </trkpt>
      <trkpt lat="45.11116" lon="5.7867">
        <ele>474.60000610352</ele>
        <time>2011-04-22T15:42:23.000Z</time>
      </trkpt>
      <trkpt lat="45.1112" lon="5.78664">
        <ele>474.79998779297</ele>
        <time>2011-04-22T15:42:25.000Z</time>
      </trkpt>
      <trkpt lat="45.11129" lon="5.78647">
        <ele>474.79998779297</ele>
        <time>2011-04-22T15:42:31.000Z</time>
      </trkpt>
      <trkpt lat="45.11135" lon="5.78642">
        <ele>475</ele>
        <time>2011-04-22T15:42:34.000Z</time>
      </trkpt>
      <trkpt lat="45.11136" lon="5.78642">
        <ele>475</ele>
        <time>2011-04-22T15:42:35.000Z</time>
      </trkpt>
      <trkpt lat="45.11146" lon="5.78647">
        <ele>475.20001220703</ele>
        <time>2011-04-22T15:42:40.000Z</time>
      </trkpt>
      <trkpt lat="45.11154" lon="5.78651">
        <ele>475.39999389648</ele>
        <time>2011-04-22T15:42:45.000Z</time>
      </trkpt>
      <trkpt lat="45.11162" lon="5.78645">
        <ele>475.60000610352</ele>
        <time>2011-04-22T15:42:50.000Z</time>
      </trkpt>
      <trkpt lat="45.11168" lon="5.78643">
        <ele>475.79998779297</ele>
        <time>2011-04-22T15:42:53.000Z</time>
      </trkpt>
      <trkpt lat="45.1117" lon="5.78642">
        <ele>476</ele>
        <time>2011-04-22T15:42:54.000Z</time>
      </trkpt>
      <trkpt lat="45.11177" lon="5.7864">
        <ele>476.79998779297</ele>
        <time>2011-04-22T15:42:58.000Z</time>
      </trkpt>
      <trkpt lat="45.11179" lon="5.78641">
        <ele>477</ele>
        <time>2011-04-22T15:42:59.000Z</time>
      </trkpt>
      <trkpt lat="45.11181" lon="5.78642">
        <ele>477.20001220703</ele>
        <time>2011-04-22T15:43:00.000Z</time>
      </trkpt>
      <trkpt lat="45.11184" lon="5.78646">
        <ele>477.79998779297</ele>
        <time>2011-04-22T15:43:02.000Z</time>
      </trkpt>
      <trkpt lat="45.11189" lon="5.7865">
        <ele>478.39999389648</ele>
        <time>2011-04-22T15:43:05.000Z</time>
      </trkpt>
      <trkpt lat="45.11195" lon="5.78657">
        <ele>479.39999389648</ele>
        <time>2011-04-22T15:43:09.000Z</time>
      </trkpt>
      <trkpt lat="45.11197" lon="5.78659">
        <ele>479.60000610352</ele>
        <time>2011-04-22T15:43:10.000Z</time>
      </trkpt>
      <trkpt lat="45.11207" lon="5.78672">
        <ele>481</ele>
        <time>2011-04-22T15:43:16.000Z</time>
      </trkpt>
      <trkpt lat="45.11209" lon="5.78674">
        <ele>481.20001220703</ele>
        <time>2011-04-22T15:43:17.000Z</time>
      </trkpt>
      <trkpt lat="45.11217" lon="5.78685">
        <ele>481.60000610352</ele>
        <time>2011-04-22T15:43:22.000Z</time>
      </trkpt>
      <trkpt lat="45.11222" lon="5.78692">
        <ele>481.79998779297</ele>
        <time>2011-04-22T15:43:25.000Z</time>
      </trkpt>
      <trkpt lat="45.11226" lon="5.78699">
        <ele>482</ele>
        <time>2011-04-22T15:43:28.000Z</time>
      </trkpt>
      <trkpt lat="45.11232" lon="5.7871">
        <ele>482.39999389648</ele>
        <time>2011-04-22T15:43:33.000Z</time>
      </trkpt>
      <trkpt lat="45.11234" lon="5.78712">
        <ele>482.39999389648</ele>
        <time>2011-04-22T15:43:34.000Z</time>
      </trkpt>
      <trkpt lat="45.1124" lon="5.78719">
        <ele>483</ele>
        <time>2011-04-22T15:43:38.000Z</time>
      </trkpt>
      <trkpt lat="45.11248" lon="5.78731">
        <ele>483.60000610352</ele>
        <time>2011-04-22T15:43:44.000Z</time>
      </trkpt>
      <trkpt lat="45.11262" lon="5.78745">
        <ele>483.79998779297</ele>
        <time>2011-04-22T15:43:52.000Z</time>
      </trkpt>
      <trkpt lat="45.11263" lon="5.78746">
        <ele>483.79998779297</ele>
        <time>2011-04-22T15:43:53.000Z</time>
      </trkpt>
      <trkpt lat="45.11273" lon="5.78756">
        <ele>483.60000610352</ele>
        <time>2011-04-22T15:43:59.000Z</time>
      </trkpt>
      <trkpt lat="45.11278" lon="5.78762">
        <ele>483.20001220703</ele>
        <time>2011-04-22T15:44:02.000Z</time>
      </trkpt>
      <trkpt lat="45.11283" lon="5.78768">
        <ele>483</ele>
        <time>2011-04-22T15:44:05.000Z</time>
      </trkpt>
      <trkpt lat="45.11293" lon="5.78779">
        <ele>482.60000610352</ele>
        <time>2011-04-22T15:44:11.000Z</time>
      </trkpt>
      <trkpt lat="45.11303" lon="5.78786">
        <ele>482.60000610352</ele>
        <time>2011-04-22T15:44:16.000Z</time>
      </trkpt>
      <trkpt lat="45.11309" lon="5.78792">
        <ele>482.60000610352</ele>
        <time>2011-04-22T15:44:19.000Z</time>
      </trkpt>
      <trkpt lat="45.11314" lon="5.788">
        <ele>482.39999389648</ele>
        <time>2011-04-22T15:44:22.000Z</time>
      </trkpt>
      <trkpt lat="45.11322" lon="5.78809">
        <ele>482.60000610352</ele>
        <time>2011-04-22T15:44:26.000Z</time>
      </trkpt>
      <trkpt lat="45.11324" lon="5.78811">
        <ele>482.39999389648</ele>
        <time>2011-04-22T15:44:27.000Z</time>
      </trkpt>
      <trkpt lat="45.11332" lon="5.78821">
        <ele>482.60000610352</ele>
        <time>2011-04-22T15:44:31.000Z</time>
      </trkpt>
      <trkpt lat="45.11339" lon="5.78828">
        <ele>482.79998779297</ele>
        <time>2011-04-22T15:44:34.000Z</time>
      </trkpt>
      <trkpt lat="45.11347" lon="5.78838">
        <ele>483</ele>
        <time>2011-04-22T15:44:37.000Z</time>
      </trkpt>
      <trkpt lat="45.11349" lon="5.78849">
        <ele>483.20001220703</ele>
        <time>2011-04-22T15:44:40.000Z</time>
      </trkpt>
      <trkpt lat="45.1135" lon="5.78853">
        <ele>483.20001220703</ele>
        <time>2011-04-22T15:44:41.000Z</time>
      </trkpt>
      <trkpt lat="45.1135" lon="5.78873">
        <ele>483.39999389648</ele>
        <time>2011-04-22T15:44:46.000Z</time>
      </trkpt>
      <trkpt lat="45.11351" lon="5.78876">
        <ele>483.60000610352</ele>
        <time>2011-04-22T15:44:47.000Z</time>
      </trkpt>
      <trkpt lat="45.11358" lon="5.78888">
        <ele>485</ele>
        <time>2011-04-22T15:44:51.000Z</time>
      </trkpt>
      <trkpt lat="45.11359" lon="5.78892">
        <ele>485.20001220703</ele>
        <time>2011-04-22T15:44:52.000Z</time>
      </trkpt>
      <trkpt lat="45.1136" lon="5.78899">
        <ele>485.39999389648</ele>
        <time>2011-04-22T15:44:54.000Z</time>
      </trkpt>
      <trkpt lat="45.1136" lon="5.78903">
        <ele>485.60000610352</ele>
        <time>2011-04-22T15:44:55.000Z</time>
      </trkpt>
      <trkpt lat="45.11362" lon="5.78911">
        <ele>486.39999389648</ele>
        <time>2011-04-22T15:44:58.000Z</time>
      </trkpt>
      <trkpt lat="45.11363" lon="5.78911">
        <ele>486.60000610352</ele>
        <time>2011-04-22T15:44:59.000Z</time>
      </trkpt>
      <trkpt lat="45.11364" lon="5.78905">
        <ele>486.60000610352</ele>
        <time>2011-04-22T15:45:02.000Z</time>
      </trkpt>
      <trkpt lat="45.11364" lon="5.78903">
        <ele>486.39999389648</ele>
        <time>2011-04-22T15:45:03.000Z</time>
      </trkpt>
      <trkpt lat="45.11364" lon="5.789">
        <ele>486.39999389648</ele>
        <time>2011-04-22T15:45:04.000Z</time>
      </trkpt>
      <trkpt lat="45.11364" lon="5.78892">
        <ele>486.20001220703</ele>
        <time>2011-04-22T15:45:07.000Z</time>
      </trkpt>
      <trkpt lat="45.11366" lon="5.78877">
        <ele>486.20001220703</ele>
        <time>2011-04-22T15:45:12.000Z</time>
      </trkpt>
      <trkpt lat="45.11367" lon="5.78873">
        <ele>486.20001220703</ele>
        <time>2011-04-22T15:45:13.000Z</time>
      </trkpt>
      <trkpt lat="45.11368" lon="5.78867">
        <ele>486.20001220703</ele>
        <time>2011-04-22T15:45:15.000Z</time>
      </trkpt>
      <trkpt lat="45.1137" lon="5.78859">
        <ele>486</ele>
        <time>2011-04-22T15:45:18.000Z</time>
      </trkpt>
      <trkpt lat="45.11372" lon="5.78853">
        <ele>486</ele>
        <time>2011-04-22T15:45:20.000Z</time>
      </trkpt>
      <trkpt lat="45.11375" lon="5.78849">
        <ele>486.20001220703</ele>
        <time>2011-04-22T15:45:22.000Z</time>
      </trkpt>
      <trkpt lat="45.11377" lon="5.78847">
        <ele>486.20001220703</ele>
        <time>2011-04-22T15:45:23.000Z</time>
      </trkpt>
      <trkpt lat="45.11384" lon="5.78845">
        <ele>487</ele>
        <time>2011-04-22T15:45:27.000Z</time>
      </trkpt>
      <trkpt lat="45.11392" lon="5.78849">
        <ele>488.20001220703</ele>
        <time>2011-04-22T15:45:33.000Z</time>
      </trkpt>
      <trkpt lat="45.11393" lon="5.78849">
        <ele>488.39999389648</ele>
        <time>2011-04-22T15:45:34.000Z</time>
      </trkpt>
      <trkpt lat="45.11399" lon="5.78849">
        <ele>489</ele>
        <time>2011-04-22T15:45:39.000Z</time>
      </trkpt>
      <trkpt lat="45.11401" lon="5.78848">
        <ele>489.20001220703</ele>
        <time>2011-04-22T15:45:41.000Z</time>
      </trkpt>
      <trkpt lat="45.11405" lon="5.78849">
        <ele>489.79998779297</ele>
        <time>2011-04-22T15:45:44.000Z</time>
      </trkpt>
      <trkpt lat="45.11409" lon="5.78856">
        <ele>491.20001220703</ele>
        <time>2011-04-22T15:45:48.000Z</time>
      </trkpt>
      <trkpt lat="45.11408" lon="5.78858">
        <ele>491.39999389648</ele>
        <time>2011-04-22T15:45:49.000Z</time>
      </trkpt>
      <trkpt lat="45.11401" lon="5.7887">
        <ele>491.60000610352</ele>
        <time>2011-04-22T15:45:55.000Z</time>
      </trkpt>
      <trkpt lat="45.11399" lon="5.78873">
        <ele>491.60000610352</ele>
        <time>2011-04-22T15:45:57.000Z</time>
      </trkpt>
      <trkpt lat="45.11399" lon="5.78875">
        <ele>491.79998779297</ele>
        <time>2011-04-22T15:45:58.000Z</time>
      </trkpt>
      <trkpt lat="45.11399" lon="5.78877">
        <ele>492</ele>
        <time>2011-04-22T15:45:59.000Z</time>
      </trkpt>
      <trkpt lat="45.11399" lon="5.78879">
        <ele>492.20001220703</ele>
        <time>2011-04-22T15:46:00.000Z</time>
      </trkpt>
      <trkpt lat="45.11399" lon="5.78892">
        <ele>493.60000610352</ele>
        <time>2011-04-22T15:46:06.000Z</time>
      </trkpt>
      <trkpt lat="45.114" lon="5.78904">
        <ele>495</ele>
        <time>2011-04-22T15:46:11.000Z</time>
      </trkpt>
      <trkpt lat="45.114" lon="5.78906">
        <ele>495.39999389648</ele>
        <time>2011-04-22T15:46:12.000Z</time>
      </trkpt>
      <trkpt lat="45.11406" lon="5.78919">
        <ele>497.79998779297</ele>
        <time>2011-04-22T15:46:18.000Z</time>
      </trkpt>
      <trkpt lat="45.1141" lon="5.78927">
        <ele>498.79998779297</ele>
        <time>2011-04-22T15:46:22.000Z</time>
      </trkpt>
      <trkpt lat="45.11412" lon="5.7893">
        <ele>499.20001220703</ele>
        <time>2011-04-22T15:46:24.000Z</time>
      </trkpt>
      <trkpt lat="45.11418" lon="5.7894">
        <ele>500.60000610352</ele>
        <time>2011-04-22T15:46:30.000Z</time>
      </trkpt>
      <trkpt lat="45.11423" lon="5.78945">
        <ele>501</ele>
        <time>2011-04-22T15:46:34.000Z</time>
      </trkpt>
      <trkpt lat="45.11424" lon="5.78948">
        <ele>501.20001220703</ele>
        <time>2011-04-22T15:46:36.000Z</time>
      </trkpt>
      <trkpt lat="45.11427" lon="5.78953">
        <ele>501.79998779297</ele>
        <time>2011-04-22T15:46:40.000Z</time>
      </trkpt>
      <trkpt lat="45.11429" lon="5.78956">
        <ele>502</ele>
        <time>2011-04-22T15:46:42.000Z</time>
      </trkpt>
      <trkpt lat="45.11433" lon="5.78964">
        <ele>502.79998779297</ele>
        <time>2011-04-22T15:46:46.000Z</time>
      </trkpt>
      <trkpt lat="45.11434" lon="5.78966">
        <ele>503</ele>
        <time>2011-04-22T15:46:47.000Z</time>
      </trkpt>
      <trkpt lat="45.11437" lon="5.78973">
        <ele>503.79998779297</ele>
        <time>2011-04-22T15:46:50.000Z</time>
      </trkpt>
      <trkpt lat="45.11443" lon="5.78982">
        <ele>505.39999389648</ele>
        <time>2011-04-22T15:46:55.000Z</time>
      </trkpt>
      <trkpt lat="45.11446" lon="5.78986">
        <ele>506</ele>
        <time>2011-04-22T15:46:57.000Z</time>
      </trkpt>
      <trkpt lat="45.11448" lon="5.7899">
        <ele>506.79998779297</ele>
        <time>2011-04-22T15:46:59.000Z</time>
      </trkpt>
      <trkpt lat="45.11451" lon="5.78996">
        <ele>507.79998779297</ele>
        <time>2011-04-22T15:47:03.000Z</time>
      </trkpt>
      <trkpt lat="45.11455" lon="5.79002">
        <ele>509</ele>
        <time>2011-04-22T15:47:07.000Z</time>
      </trkpt>
      <trkpt lat="45.11456" lon="5.79004">
        <ele>509</ele>
        <time>2011-04-22T15:47:08.000Z</time>
      </trkpt>
      <trkpt lat="45.11457" lon="5.79006">
        <ele>509.20001220703</ele>
        <time>2011-04-22T15:47:09.000Z</time>
      </trkpt>
      <trkpt lat="45.1146" lon="5.79012">
        <ele>509.60000610352</ele>
        <time>2011-04-22T15:47:13.000Z</time>
      </trkpt>
      <trkpt lat="45.11464" lon="5.7902">
        <ele>510.20001220703</ele>
        <time>2011-04-22T15:47:18.000Z</time>
      </trkpt>
      <trkpt lat="45.11464" lon="5.79021">
        <ele>510.39999389648</ele>
        <time>2011-04-22T15:47:19.000Z</time>
      </trkpt>
      <trkpt lat="45.11468" lon="5.79027">
        <ele>511.20001220703</ele>
        <time>2011-04-22T15:47:22.000Z</time>
      </trkpt>
      <trkpt lat="45.11469" lon="5.79029">
        <ele>511.39999389648</ele>
        <time>2011-04-22T15:47:23.000Z</time>
      </trkpt>
      <trkpt lat="45.11474" lon="5.7904">
        <ele>512.20001220703</ele>
        <time>2011-04-22T15:47:28.000Z</time>
      </trkpt>
      <trkpt lat="45.11479" lon="5.79049">
        <ele>513.20001220703</ele>
        <time>2011-04-22T15:47:32.000Z</time>
      </trkpt>
      <trkpt lat="45.1148" lon="5.79051">
        <ele>513.40002441406</ele>
        <time>2011-04-22T15:47:33.000Z</time>
      </trkpt>
      <trkpt lat="45.11485" lon="5.79062">
        <ele>514.59997558594</ele>
        <time>2011-04-22T15:47:38.000Z</time>
      </trkpt>
      <trkpt lat="45.11489" lon="5.79068">
        <ele>515.79998779297</ele>
        <time>2011-04-22T15:47:41.000Z</time>
      </trkpt>
      <trkpt lat="45.11493" lon="5.79072">
        <ele>517</ele>
        <time>2011-04-22T15:47:43.000Z</time>
      </trkpt>
      <trkpt lat="45.11501" lon="5.79084">
        <ele>519</ele>
        <time>2011-04-22T15:47:49.000Z</time>
      </trkpt>
      <trkpt lat="45.11503" lon="5.79085">
        <ele>518.79998779297</ele>
        <time>2011-04-22T15:47:50.000Z</time>
      </trkpt>
      <trkpt lat="45.11508" lon="5.79091">
        <ele>518.40002441406</ele>
        <time>2011-04-22T15:47:54.000Z</time>
      </trkpt>
      <trkpt lat="45.11515" lon="5.79101">
        <ele>517.59997558594</ele>
        <time>2011-04-22T15:48:00.000Z</time>
      </trkpt>
      <trkpt lat="45.11516" lon="5.79103">
        <ele>517.59997558594</ele>
        <time>2011-04-22T15:48:01.000Z</time>
      </trkpt>
      <trkpt lat="45.11518" lon="5.79106">
        <ele>517.40002441406</ele>
        <time>2011-04-22T15:48:03.000Z</time>
      </trkpt>
      <trkpt lat="45.11522" lon="5.7911">
        <ele>517.40002441406</ele>
        <time>2011-04-22T15:48:05.000Z</time>
      </trkpt>
      <trkpt lat="45.1153" lon="5.79118">
        <ele>517.59997558594</ele>
        <time>2011-04-22T15:48:10.000Z</time>
      </trkpt>
      <trkpt lat="45.11532" lon="5.7912">
        <ele>517.59997558594</ele>
        <time>2011-04-22T15:48:11.000Z</time>
      </trkpt>
      <trkpt lat="45.1154" lon="5.7913">
        <ele>518.20001220703</ele>
        <time>2011-04-22T15:48:17.000Z</time>
      </trkpt>
      <trkpt lat="45.11545" lon="5.79136">
        <ele>518.59997558594</ele>
        <time>2011-04-22T15:48:21.000Z</time>
      </trkpt>
      <trkpt lat="45.1155" lon="5.79141">
        <ele>519</ele>
        <time>2011-04-22T15:48:24.000Z</time>
      </trkpt>
      <trkpt lat="45.11559" lon="5.79154">
        <ele>520.20001220703</ele>
        <time>2011-04-22T15:48:30.000Z</time>
      </trkpt>
      <trkpt lat="45.11569" lon="5.79166">
        <ele>522.20001220703</ele>
        <time>2011-04-22T15:48:36.000Z</time>
      </trkpt>
      <trkpt lat="45.11574" lon="5.79171">
        <ele>523.20001220703</ele>
        <time>2011-04-22T15:48:39.000Z</time>
      </trkpt>
      <trkpt lat="45.1158" lon="5.79176">
        <ele>524.20001220703</ele>
        <time>2011-04-22T15:48:42.000Z</time>
      </trkpt>
      <trkpt lat="45.11587" lon="5.79183">
        <ele>524</ele>
        <time>2011-04-22T15:48:46.000Z</time>
      </trkpt>
      <trkpt lat="45.11589" lon="5.79185">
        <ele>523.79998779297</ele>
        <time>2011-04-22T15:48:47.000Z</time>
      </trkpt>
      <trkpt lat="45.11598" lon="5.79195">
        <ele>522.79998779297</ele>
        <time>2011-04-22T15:48:52.000Z</time>
      </trkpt>
      <trkpt lat="45.11606" lon="5.792">
        <ele>522.40002441406</ele>
        <time>2011-04-22T15:48:56.000Z</time>
      </trkpt>
      <trkpt lat="45.11612" lon="5.79206">
        <ele>522.20001220703</ele>
        <time>2011-04-22T15:48:59.000Z</time>
      </trkpt>
      <trkpt lat="45.1162" lon="5.79221">
        <ele>522.40002441406</ele>
        <time>2011-04-22T15:49:05.000Z</time>
      </trkpt>
      <trkpt lat="45.11621" lon="5.79223">
        <ele>522.59997558594</ele>
        <time>2011-04-22T15:49:06.000Z</time>
      </trkpt>
      <trkpt lat="45.11629" lon="5.79234">
        <ele>523.40002441406</ele>
        <time>2011-04-22T15:49:11.000Z</time>
      </trkpt>
      <trkpt lat="45.11634" lon="5.79241">
        <ele>524.20001220703</ele>
        <time>2011-04-22T15:49:14.000Z</time>
      </trkpt>
      <trkpt lat="45.11639" lon="5.79247">
        <ele>525</ele>
        <time>2011-04-22T15:49:17.000Z</time>
      </trkpt>
      <trkpt lat="45.11646" lon="5.79261">
        <ele>526.20001220703</ele>
        <time>2011-04-22T15:49:23.000Z</time>
      </trkpt>
      <trkpt lat="45.11655" lon="5.79275">
        <ele>527.79998779297</ele>
        <time>2011-04-22T15:49:29.000Z</time>
      </trkpt>
      <trkpt lat="45.1166" lon="5.79281">
        <ele>529</ele>
        <time>2011-04-22T15:49:32.000Z</time>
      </trkpt>
      <trkpt lat="45.11663" lon="5.79285">
        <ele>529.79998779297</ele>
        <time>2011-04-22T15:49:34.000Z</time>
      </trkpt>
      <trkpt lat="45.11672" lon="5.79298">
        <ele>531.40002441406</ele>
        <time>2011-04-22T15:49:40.000Z</time>
      </trkpt>
      <trkpt lat="45.11673" lon="5.793">
        <ele>531.59997558594</ele>
        <time>2011-04-22T15:49:41.000Z</time>
      </trkpt>
      <trkpt lat="45.1168" lon="5.7931">
        <ele>532.59997558594</ele>
        <time>2011-04-22T15:49:46.000Z</time>
      </trkpt>
      <trkpt lat="45.11687" lon="5.79318">
        <ele>533.79998779297</ele>
        <time>2011-04-22T15:49:51.000Z</time>
      </trkpt>
      <trkpt lat="45.11695" lon="5.79327">
        <ele>535.59997558594</ele>
        <time>2011-04-22T15:49:57.000Z</time>
      </trkpt>
      <trkpt lat="45.11702" lon="5.79333">
        <ele>537.20001220703</ele>
        <time>2011-04-22T15:50:01.000Z</time>
      </trkpt>
      <trkpt lat="45.11705" lon="5.79337">
        <ele>537.40002441406</ele>
        <time>2011-04-22T15:50:03.000Z</time>
      </trkpt>
      <trkpt lat="45.11708" lon="5.79343">
        <ele>537.59997558594</ele>
        <time>2011-04-22T15:50:06.000Z</time>
      </trkpt>
      <trkpt lat="45.1171" lon="5.79346">
        <ele>537.79998779297</ele>
        <time>2011-04-22T15:50:08.000Z</time>
      </trkpt>
      <trkpt lat="45.11713" lon="5.7935">
        <ele>538</ele>
        <time>2011-04-22T15:50:10.000Z</time>
      </trkpt>
      <trkpt lat="45.11714" lon="5.79352">
        <ele>538.20001220703</ele>
        <time>2011-04-22T15:50:11.000Z</time>
      </trkpt>
      <trkpt lat="45.11718" lon="5.79357">
        <ele>538.79998779297</ele>
        <time>2011-04-22T15:50:14.000Z</time>
      </trkpt>
      <trkpt lat="45.11729" lon="5.7937">
        <ele>540.59997558594</ele>
        <time>2011-04-22T15:50:21.000Z</time>
      </trkpt>
      <trkpt lat="45.11739" lon="5.79379">
        <ele>542.79998779297</ele>
        <time>2011-04-22T15:50:27.000Z</time>
      </trkpt>
      <trkpt lat="45.11744" lon="5.79386">
        <ele>544</ele>
        <time>2011-04-22T15:50:31.000Z</time>
      </trkpt>
      <trkpt lat="45.11745" lon="5.79388">
        <ele>544.40002441406</ele>
        <time>2011-04-22T15:50:32.000Z</time>
      </trkpt>
      <trkpt lat="45.11753" lon="5.794">
        <ele>546</ele>
        <time>2011-04-22T15:50:38.000Z</time>
      </trkpt>
      <trkpt lat="45.11757" lon="5.79405">
        <ele>546.20001220703</ele>
        <time>2011-04-22T15:50:41.000Z</time>
      </trkpt>
      <trkpt lat="45.1176" lon="5.79409">
        <ele>546.40002441406</ele>
        <time>2011-04-22T15:50:43.000Z</time>
      </trkpt>
      <trkpt lat="45.1177" lon="5.79423">
        <ele>546.20001220703</ele>
        <time>2011-04-22T15:50:49.000Z</time>
      </trkpt>
      <trkpt lat="45.11778" lon="5.79436">
        <ele>545</ele>
        <time>2011-04-22T15:50:54.000Z</time>
      </trkpt>
      <trkpt lat="45.11784" lon="5.79444">
        <ele>544.79998779297</ele>
        <time>2011-04-22T15:50:57.000Z</time>
      </trkpt>
      <trkpt lat="45.1179" lon="5.79451">
        <ele>544.59997558594</ele>
        <time>2011-04-22T15:51:00.000Z</time>
      </trkpt>
      <trkpt lat="45.11797" lon="5.79463">
        <ele>545</ele>
        <time>2011-04-22T15:51:04.000Z</time>
      </trkpt>
      <trkpt lat="45.11804" lon="5.79473">
        <ele>545.59997558594</ele>
        <time>2011-04-22T15:51:08.000Z</time>
      </trkpt>
      <trkpt lat="45.1181" lon="5.79483">
        <ele>546.40002441406</ele>
        <time>2011-04-22T15:51:12.000Z</time>
      </trkpt>
      <trkpt lat="45.11813" lon="5.79488">
        <ele>547</ele>
        <time>2011-04-22T15:51:14.000Z</time>
      </trkpt>
      <trkpt lat="45.11821" lon="5.79501">
        <ele>548.79998779297</ele>
        <time>2011-04-22T15:51:18.000Z</time>
      </trkpt>
      <trkpt lat="45.11832" lon="5.79515">
        <ele>548.79998779297</ele>
        <time>2011-04-22T15:51:22.000Z</time>
      </trkpt>
      <trkpt lat="45.11836" lon="5.79522">
        <ele>547.79998779297</ele>
        <time>2011-04-22T15:51:24.000Z</time>
      </trkpt>
      <trkpt lat="45.11841" lon="5.79532">
        <ele>545.79998779297</ele>
        <time>2011-04-22T15:51:27.000Z</time>
      </trkpt>
      <trkpt lat="45.11848" lon="5.79541">
        <ele>544.40002441406</ele>
        <time>2011-04-22T15:51:30.000Z</time>
      </trkpt>
      <trkpt lat="45.11853" lon="5.79546">
        <ele>543.59997558594</ele>
        <time>2011-04-22T15:51:32.000Z</time>
      </trkpt>
      <trkpt lat="45.11864" lon="5.79554">
        <ele>543.20001220703</ele>
        <time>2011-04-22T15:51:36.000Z</time>
      </trkpt>
      <trkpt lat="45.11867" lon="5.79556">
        <ele>543</ele>
        <time>2011-04-22T15:51:37.000Z</time>
      </trkpt>
      <trkpt lat="45.1188" lon="5.79572">
        <ele>543.20001220703</ele>
        <time>2011-04-22T15:51:43.000Z</time>
      </trkpt>
      <trkpt lat="45.11892" lon="5.79585">
        <ele>544.40002441406</ele>
        <time>2011-04-22T15:51:48.000Z</time>
      </trkpt>
      <trkpt lat="45.11895" lon="5.79587">
        <ele>544.20001220703</ele>
        <time>2011-04-22T15:51:49.000Z</time>
      </trkpt>
      <trkpt lat="45.11906" lon="5.79598">
        <ele>543.79998779297</ele>
        <time>2011-04-22T15:51:54.000Z</time>
      </trkpt>
      <trkpt lat="45.11911" lon="5.79602">
        <ele>543.79998779297</ele>
        <time>2011-04-22T15:51:56.000Z</time>
      </trkpt>
      <trkpt lat="45.11917" lon="5.7961">
        <ele>543.40002441406</ele>
        <time>2011-04-22T15:51:59.000Z</time>
      </trkpt>
      <trkpt lat="45.11927" lon="5.79619">
        <ele>541.20001220703</ele>
        <time>2011-04-22T15:52:03.000Z</time>
      </trkpt>
      <trkpt lat="45.1194" lon="5.79633">
        <ele>539.40002441406</ele>
        <time>2011-04-22T15:52:08.000Z</time>
      </trkpt>
      <trkpt lat="45.11942" lon="5.79635">
        <ele>539.40002441406</ele>
        <time>2011-04-22T15:52:09.000Z</time>
      </trkpt>
      <trkpt lat="45.11955" lon="5.79649">
        <ele>539.20001220703</ele>
        <time>2011-04-22T15:52:14.000Z</time>
      </trkpt>
      <trkpt lat="45.11957" lon="5.79653">
        <ele>539.20001220703</ele>
        <time>2011-04-22T15:52:15.000Z</time>
      </trkpt>
      <trkpt lat="45.11967" lon="5.79668">
        <ele>540.20001220703</ele>
        <time>2011-04-22T15:52:20.000Z</time>
      </trkpt>
      <trkpt lat="45.11971" lon="5.79674">
        <ele>539.79998779297</ele>
        <time>2011-04-22T15:52:22.000Z</time>
      </trkpt>
      <trkpt lat="45.11978" lon="5.7968">
        <ele>539.79998779297</ele>
        <time>2011-04-22T15:52:25.000Z</time>
      </trkpt>
      <trkpt lat="45.11987" lon="5.7969">
        <ele>540</ele>
        <time>2011-04-22T15:52:30.000Z</time>
      </trkpt>
      <trkpt lat="45.11991" lon="5.79693">
        <ele>540.20001220703</ele>
        <time>2011-04-22T15:52:32.000Z</time>
      </trkpt>
      <trkpt lat="45.12001" lon="5.79704">
        <ele>540.79998779297</ele>
        <time>2011-04-22T15:52:38.000Z</time>
      </trkpt>
      <trkpt lat="45.12003" lon="5.79706">
        <ele>540.59997558594</ele>
        <time>2011-04-22T15:52:39.000Z</time>
      </trkpt>
      <trkpt lat="45.12008" lon="5.79714">
        <ele>540.20001220703</ele>
        <time>2011-04-22T15:52:43.000Z</time>
      </trkpt>
      <trkpt lat="45.1201" lon="5.79715">
        <ele>540.20001220703</ele>
        <time>2011-04-22T15:52:44.000Z</time>
      </trkpt>
      <trkpt lat="45.12015" lon="5.79721">
        <ele>540.20001220703</ele>
        <time>2011-04-22T15:52:48.000Z</time>
      </trkpt>
      <trkpt lat="45.12018" lon="5.79724">
        <ele>540.40002441406</ele>
        <time>2011-04-22T15:52:50.000Z</time>
      </trkpt>
      <trkpt lat="45.12024" lon="5.7973">
        <ele>540.79998779297</ele>
        <time>2011-04-22T15:52:53.000Z</time>
      </trkpt>
      <trkpt lat="45.1203" lon="5.79734">
        <ele>541.40002441406</ele>
        <time>2011-04-22T15:52:55.000Z</time>
      </trkpt>
      <trkpt lat="45.12036" lon="5.79738">
        <ele>542.40002441406</ele>
        <time>2011-04-22T15:52:58.000Z</time>
      </trkpt>
      <trkpt lat="45.12046" lon="5.79747">
        <ele>544.59997558594</ele>
        <time>2011-04-22T15:53:03.000Z</time>
      </trkpt>
      <trkpt lat="45.12053" lon="5.79753">
        <ele>545</ele>
        <time>2011-04-22T15:53:06.000Z</time>
      </trkpt>
      <trkpt lat="45.12058" lon="5.79758">
        <ele>544.79998779297</ele>
        <time>2011-04-22T15:53:08.000Z</time>
      </trkpt>
      <trkpt lat="45.12069" lon="5.79768">
        <ele>544.40002441406</ele>
        <time>2011-04-22T15:53:13.000Z</time>
      </trkpt>
      <trkpt lat="45.12083" lon="5.79781">
        <ele>544.20001220703</ele>
        <time>2011-04-22T15:53:20.000Z</time>
      </trkpt>
      <trkpt lat="45.12085" lon="5.79782">
        <ele>543.59997558594</ele>
        <time>2011-04-22T15:53:21.000Z</time>
      </trkpt>
      <trkpt lat="45.12098" lon="5.79795">
        <ele>540.79998779297</ele>
        <time>2011-04-22T15:53:27.000Z</time>
      </trkpt>
      <trkpt lat="45.121" lon="5.79797">
        <ele>540.40002441406</ele>
        <time>2011-04-22T15:53:28.000Z</time>
      </trkpt>
      <trkpt lat="45.12109" lon="5.79807">
        <ele>539.40002441406</ele>
        <time>2011-04-22T15:53:32.000Z</time>
      </trkpt>
      <trkpt lat="45.12115" lon="5.79814">
        <ele>539.20001220703</ele>
        <time>2011-04-22T15:53:35.000Z</time>
      </trkpt>
      <trkpt lat="45.12119" lon="5.7982">
        <ele>539.20001220703</ele>
        <time>2011-04-22T15:53:37.000Z</time>
      </trkpt>
      <trkpt lat="45.12129" lon="5.79831">
        <ele>540.20001220703</ele>
        <time>2011-04-22T15:53:42.000Z</time>
      </trkpt>
      <trkpt lat="45.12142" lon="5.79845">
        <ele>540.40002441406</ele>
        <time>2011-04-22T15:53:48.000Z</time>
      </trkpt>
      <trkpt lat="45.12144" lon="5.79847">
        <ele>540.40002441406</ele>
        <time>2011-04-22T15:53:49.000Z</time>
      </trkpt>
      <trkpt lat="45.12153" lon="5.79856">
        <ele>540.59997558594</ele>
        <time>2011-04-22T15:53:53.000Z</time>
      </trkpt>
      <trkpt lat="45.1216" lon="5.79862">
        <ele>541.20001220703</ele>
        <time>2011-04-22T15:53:56.000Z</time>
      </trkpt>
      <trkpt lat="45.12171" lon="5.79872">
        <ele>540.59997558594</ele>
        <time>2011-04-22T15:54:00.000Z</time>
      </trkpt>
      <trkpt lat="45.12175" lon="5.79877">
        <ele>539.20001220703</ele>
        <time>2011-04-22T15:54:02.000Z</time>
      </trkpt>
      <trkpt lat="45.12183" lon="5.79884">
        <ele>537.79998779297</ele>
        <time>2011-04-22T15:54:05.000Z</time>
      </trkpt>
      <trkpt lat="45.12192" lon="5.79893">
        <ele>536.40002441406</ele>
        <time>2011-04-22T15:54:09.000Z</time>
      </trkpt>
      <trkpt lat="45.12194" lon="5.79895">
        <ele>536.20001220703</ele>
        <time>2011-04-22T15:54:10.000Z</time>
      </trkpt>
      <trkpt lat="45.12208" lon="5.79911">
        <ele>535.40002441406</ele>
        <time>2011-04-22T15:54:16.000Z</time>
      </trkpt>
      <trkpt lat="45.1221" lon="5.79914">
        <ele>535.59997558594</ele>
        <time>2011-04-22T15:54:17.000Z</time>
      </trkpt>
      <trkpt lat="45.12222" lon="5.79928">
        <ele>533.59997558594</ele>
        <time>2011-04-22T15:54:22.000Z</time>
      </trkpt>
      <trkpt lat="45.12224" lon="5.79932">
        <ele>533</ele>
        <time>2011-04-22T15:54:23.000Z</time>
      </trkpt>
      <trkpt lat="45.12236" lon="5.79947">
        <ele>531.20001220703</ele>
        <time>2011-04-22T15:54:28.000Z</time>
      </trkpt>
      <trkpt lat="45.12238" lon="5.7995">
        <ele>531</ele>
        <time>2011-04-22T15:54:29.000Z</time>
      </trkpt>
      <trkpt lat="45.12248" lon="5.79965">
        <ele>530</ele>
        <time>2011-04-22T15:54:34.000Z</time>
      </trkpt>
      <trkpt lat="45.1225" lon="5.79969">
        <ele>529.79998779297</ele>
        <time>2011-04-22T15:54:35.000Z</time>
      </trkpt>
      <trkpt lat="45.12262" lon="5.79985">
        <ele>527</ele>
        <time>2011-04-22T15:54:40.000Z</time>
      </trkpt>
      <trkpt lat="45.12264" lon="5.79988">
        <ele>526.79998779297</ele>
        <time>2011-04-22T15:54:41.000Z</time>
      </trkpt>
      <trkpt lat="45.12275" lon="5.80001">
        <ele>526.20001220703</ele>
        <time>2011-04-22T15:54:46.000Z</time>
      </trkpt>
      <trkpt lat="45.12277" lon="5.80004">
        <ele>526</ele>
        <time>2011-04-22T15:54:47.000Z</time>
      </trkpt>
      <trkpt lat="45.12286" lon="5.80015">
        <ele>525.20001220703</ele>
        <time>2011-04-22T15:54:51.000Z</time>
      </trkpt>
      <trkpt lat="45.12292" lon="5.80025">
        <ele>524.79998779297</ele>
        <time>2011-04-22T15:54:55.000Z</time>
      </trkpt>
      <trkpt lat="45.12293" lon="5.80027">
        <ele>524.79998779297</ele>
        <time>2011-04-22T15:54:56.000Z</time>
      </trkpt>
      <trkpt lat="45.12303" lon="5.80038">
        <ele>525.40002441406</ele>
        <time>2011-04-22T15:55:01.000Z</time>
      </trkpt>
      <trkpt lat="45.12306" lon="5.80043">
        <ele>525.59997558594</ele>
        <time>2011-04-22T15:55:03.000Z</time>
      </trkpt>
      <trkpt lat="45.12312" lon="5.80051">
        <ele>526.79998779297</ele>
        <time>2011-04-22T15:55:06.000Z</time>
      </trkpt>
      <trkpt lat="45.12319" lon="5.80058">
        <ele>528.40002441406</ele>
        <time>2011-04-22T15:55:09.000Z</time>
      </trkpt>
      <trkpt lat="45.12324" lon="5.80063">
        <ele>529.59997558594</ele>
        <time>2011-04-22T15:55:11.000Z</time>
      </trkpt>
      <trkpt lat="45.12333" lon="5.80076">
        <ele>532.59997558594</ele>
        <time>2011-04-22T15:55:15.000Z</time>
      </trkpt>
      <trkpt lat="45.12347" lon="5.80094">
        <ele>530.59997558594</ele>
        <time>2011-04-22T15:55:21.000Z</time>
      </trkpt>
      <trkpt lat="45.12361" lon="5.80108">
        <ele>528.79998779297</ele>
        <time>2011-04-22T15:55:27.000Z</time>
      </trkpt>
      <trkpt lat="45.12364" lon="5.80111">
        <ele>528.59997558594</ele>
        <time>2011-04-22T15:55:28.000Z</time>
      </trkpt>
      <trkpt lat="45.12375" lon="5.80125">
        <ele>528.20001220703</ele>
        <time>2011-04-22T15:55:33.000Z</time>
      </trkpt>
      <trkpt lat="45.12389" lon="5.80135">
        <ele>529.20001220703</ele>
        <time>2011-04-22T15:55:38.000Z</time>
      </trkpt>
      <trkpt lat="45.12392" lon="5.80137">
        <ele>529.40002441406</ele>
        <time>2011-04-22T15:55:39.000Z</time>
      </trkpt>
      <trkpt lat="45.12403" lon="5.80144">
        <ele>531</ele>
        <time>2011-04-22T15:55:43.000Z</time>
      </trkpt>
      <trkpt lat="45.12409" lon="5.80151">
        <ele>532.40002441406</ele>
        <time>2011-04-22T15:55:46.000Z</time>
      </trkpt>
      <trkpt lat="45.12413" lon="5.80156">
        <ele>533.40002441406</ele>
        <time>2011-04-22T15:55:48.000Z</time>
      </trkpt>
      <trkpt lat="45.12424" lon="5.80166">
        <ele>534.40002441406</ele>
        <time>2011-04-22T15:55:52.000Z</time>
      </trkpt>
      <trkpt lat="45.12428" lon="5.80171">
        <ele>533.59997558594</ele>
        <time>2011-04-22T15:55:54.000Z</time>
      </trkpt>
      <trkpt lat="45.12432" lon="5.80175">
        <ele>533</ele>
        <time>2011-04-22T15:55:56.000Z</time>
      </trkpt>
      <trkpt lat="45.12438" lon="5.8018">
        <ele>532.20001220703</ele>
        <time>2011-04-22T15:55:59.000Z</time>
      </trkpt>
      <trkpt lat="45.1244" lon="5.80182">
        <ele>531.79998779297</ele>
        <time>2011-04-22T15:56:00.000Z</time>
      </trkpt>
      <trkpt lat="45.12452" lon="5.80189">
        <ele>531.20001220703</ele>
        <time>2011-04-22T15:56:04.000Z</time>
      </trkpt>
      <trkpt lat="45.12457" lon="5.80192">
        <ele>531</ele>
        <time>2011-04-22T15:56:06.000Z</time>
      </trkpt>
      <trkpt lat="45.12469" lon="5.80199">
        <ele>531</ele>
        <time>2011-04-22T15:56:10.000Z</time>
      </trkpt>
      <trkpt lat="45.12475" lon="5.80203">
        <ele>531</ele>
        <time>2011-04-22T15:56:12.000Z</time>
      </trkpt>
      <trkpt lat="45.12484" lon="5.80211">
        <ele>531.59997558594</ele>
        <time>2011-04-22T15:56:16.000Z</time>
      </trkpt>
      <trkpt lat="45.1249" lon="5.80219">
        <ele>532.20001220703</ele>
        <time>2011-04-22T15:56:19.000Z</time>
      </trkpt>
      <trkpt lat="45.12495" lon="5.80224">
        <ele>532.79998779297</ele>
        <time>2011-04-22T15:56:21.000Z</time>
      </trkpt>
      <trkpt lat="45.125" lon="5.8023">
        <ele>533.59997558594</ele>
        <time>2011-04-22T15:56:24.000Z</time>
      </trkpt>
      <trkpt lat="45.12507" lon="5.80237">
        <ele>533.40002441406</ele>
        <time>2011-04-22T15:56:27.000Z</time>
      </trkpt>
      <trkpt lat="45.12519" lon="5.80248">
        <ele>533</ele>
        <time>2011-04-22T15:56:31.000Z</time>
      </trkpt>
      <trkpt lat="45.12523" lon="5.80253">
        <ele>532.40002441406</ele>
        <time>2011-04-22T15:56:33.000Z</time>
      </trkpt>
      <trkpt lat="45.1253" lon="5.80262">
        <ele>531.20001220703</ele>
        <time>2011-04-22T15:56:36.000Z</time>
      </trkpt>
      <trkpt lat="45.12538" lon="5.80272">
        <ele>530</ele>
        <time>2011-04-22T15:56:40.000Z</time>
      </trkpt>
      <trkpt lat="45.12541" lon="5.80277">
        <ele>529.59997558594</ele>
        <time>2011-04-22T15:56:42.000Z</time>
      </trkpt>
      <trkpt lat="45.12551" lon="5.80288">
        <ele>529</ele>
        <time>2011-04-22T15:56:47.000Z</time>
      </trkpt>
      <trkpt lat="45.12554" lon="5.80291">
        <ele>529</ele>
        <time>2011-04-22T15:56:48.000Z</time>
      </trkpt>
      <trkpt lat="45.12559" lon="5.80298">
        <ele>528.79998779297</ele>
        <time>2011-04-22T15:56:51.000Z</time>
      </trkpt>
      <trkpt lat="45.12564" lon="5.8031">
        <ele>529</ele>
        <time>2011-04-22T15:56:56.000Z</time>
      </trkpt>
      <trkpt lat="45.12566" lon="5.80312">
        <ele>529</ele>
        <time>2011-04-22T15:56:57.000Z</time>
      </trkpt>
      <trkpt lat="45.1257" lon="5.80318">
        <ele>529.40002441406</ele>
        <time>2011-04-22T15:57:00.000Z</time>
      </trkpt>
      <trkpt lat="45.12577" lon="5.80323">
        <ele>530</ele>
        <time>2011-04-22T15:57:03.000Z</time>
      </trkpt>
      <trkpt lat="45.12579" lon="5.80327">
        <ele>530.20001220703</ele>
        <time>2011-04-22T15:57:05.000Z</time>
      </trkpt>
      <trkpt lat="45.12581" lon="5.80328">
        <ele>530.40002441406</ele>
        <time>2011-04-22T15:57:06.000Z</time>
      </trkpt>
      <trkpt lat="45.12584" lon="5.8033">
        <ele>530.59997558594</ele>
        <time>2011-04-22T15:57:07.000Z</time>
      </trkpt>
      <trkpt lat="45.12592" lon="5.80335">
        <ele>530</ele>
        <time>2011-04-22T15:57:10.000Z</time>
      </trkpt>
      <trkpt lat="45.12596" lon="5.80339">
        <ele>529.59997558594</ele>
        <time>2011-04-22T15:57:12.000Z</time>
      </trkpt>
      <trkpt lat="45.12602" lon="5.80344">
        <ele>529</ele>
        <time>2011-04-22T15:57:15.000Z</time>
      </trkpt>
      <trkpt lat="45.12614" lon="5.80353">
        <ele>528.20001220703</ele>
        <time>2011-04-22T15:57:20.000Z</time>
      </trkpt>
      <trkpt lat="45.12616" lon="5.80355">
        <ele>528.20001220703</ele>
        <time>2011-04-22T15:57:21.000Z</time>
      </trkpt>
      <trkpt lat="45.1263" lon="5.80366">
        <ele>528</ele>
        <time>2011-04-22T15:57:27.000Z</time>
      </trkpt>
      <trkpt lat="45.12632" lon="5.80367">
        <ele>528</ele>
        <time>2011-04-22T15:57:28.000Z</time>
      </trkpt>
      <trkpt lat="45.12642" lon="5.80374">
        <ele>528.20001220703</ele>
        <time>2011-04-22T15:57:32.000Z</time>
      </trkpt>
      <trkpt lat="45.12648" lon="5.80379">
        <ele>528.40002441406</ele>
        <time>2011-04-22T15:57:35.000Z</time>
      </trkpt>
      <trkpt lat="45.12653" lon="5.80382">
        <ele>528.79998779297</ele>
        <time>2011-04-22T15:57:37.000Z</time>
      </trkpt>
      <trkpt lat="45.12662" lon="5.80397">
        <ele>530.40002441406</ele>
        <time>2011-04-22T15:57:42.000Z</time>
      </trkpt>
      <trkpt lat="45.12658" lon="5.80405">
        <ele>531.20001220703</ele>
        <time>2011-04-22T15:57:46.000Z</time>
      </trkpt>
      <trkpt lat="45.12651" lon="5.80407">
        <ele>531</ele>
        <time>2011-04-22T15:57:51.000Z</time>
      </trkpt>
      <trkpt lat="45.1265" lon="5.80407">
        <ele>530.79998779297</ele>
        <time>2011-04-22T15:57:52.000Z</time>
      </trkpt>
      <trkpt lat="45.12647" lon="5.80407">
        <ele>530.79998779297</ele>
        <time>2011-04-22T15:57:53.000Z</time>
      </trkpt>
      <trkpt lat="45.1264" lon="5.80407">
        <ele>530.40002441406</ele>
        <time>2011-04-22T15:57:57.000Z</time>
      </trkpt>
      <trkpt lat="45.1263" lon="5.80414">
        <ele>530.20001220703</ele>
        <time>2011-04-22T15:58:01.000Z</time>
      </trkpt>
      <trkpt lat="45.12627" lon="5.80416">
        <ele>530</ele>
        <time>2011-04-22T15:58:02.000Z</time>
      </trkpt>
      <trkpt lat="45.12619" lon="5.80428">
        <ele>528</ele>
        <time>2011-04-22T15:58:08.000Z</time>
      </trkpt>
      <trkpt lat="45.12621" lon="5.80432">
        <ele>527.59997558594</ele>
        <time>2011-04-22T15:58:10.000Z</time>
      </trkpt>
      <trkpt lat="45.12624" lon="5.80439">
        <ele>527.20001220703</ele>
        <time>2011-04-22T15:58:13.000Z</time>
      </trkpt>
      <trkpt lat="45.12629" lon="5.80445">
        <ele>527.20001220703</ele>
        <time>2011-04-22T15:58:16.000Z</time>
      </trkpt>
      <trkpt lat="45.12633" lon="5.80448">
        <ele>527.40002441406</ele>
        <time>2011-04-22T15:58:18.000Z</time>
      </trkpt>
      <trkpt lat="45.12634" lon="5.80449">
        <ele>527.40002441406</ele>
        <time>2011-04-22T15:58:19.000Z</time>
      </trkpt>
      <trkpt lat="45.12641" lon="5.80454">
        <ele>528.20001220703</ele>
        <time>2011-04-22T15:58:23.000Z</time>
      </trkpt>
      <trkpt lat="45.12644" lon="5.80457">
        <ele>528.40002441406</ele>
        <time>2011-04-22T15:58:25.000Z</time>
      </trkpt>
      <trkpt lat="45.12647" lon="5.80461">
        <ele>528.79998779297</ele>
        <time>2011-04-22T15:58:27.000Z</time>
      </trkpt>
      <trkpt lat="45.1265" lon="5.80464">
        <ele>529</ele>
        <time>2011-04-22T15:58:29.000Z</time>
      </trkpt>
      <trkpt lat="45.12654" lon="5.8047">
        <ele>529.59997558594</ele>
        <time>2011-04-22T15:58:32.000Z</time>
      </trkpt>
      <trkpt lat="45.12658" lon="5.80474">
        <ele>530.20001220703</ele>
        <time>2011-04-22T15:58:34.000Z</time>
      </trkpt>
      <trkpt lat="45.12665" lon="5.80481">
        <ele>531.79998779297</ele>
        <time>2011-04-22T15:58:38.000Z</time>
      </trkpt>
      <trkpt lat="45.12675" lon="5.80492">
        <ele>532.59997558594</ele>
        <time>2011-04-22T15:58:44.000Z</time>
      </trkpt>
      <trkpt lat="45.1268" lon="5.80497">
        <ele>533.20001220703</ele>
        <time>2011-04-22T15:58:47.000Z</time>
      </trkpt>
      <trkpt lat="45.12684" lon="5.80501">
        <ele>533.40002441406</ele>
        <time>2011-04-22T15:58:49.000Z</time>
      </trkpt>
      <trkpt lat="45.12695" lon="5.80511">
        <ele>533.40002441406</ele>
        <time>2011-04-22T15:58:55.000Z</time>
      </trkpt>
      <trkpt lat="45.12706" lon="5.80523">
        <ele>533.59997558594</ele>
        <time>2011-04-22T15:59:01.000Z</time>
      </trkpt>
      <trkpt lat="45.1271" lon="5.8053">
        <ele>533.79998779297</ele>
        <time>2011-04-22T15:59:04.000Z</time>
      </trkpt>
      <trkpt lat="45.12713" lon="5.80534">
        <ele>534</ele>
        <time>2011-04-22T15:59:06.000Z</time>
      </trkpt>
      <trkpt lat="45.12724" lon="5.80544">
        <ele>535.20001220703</ele>
        <time>2011-04-22T15:59:12.000Z</time>
      </trkpt>
      <trkpt lat="45.12726" lon="5.80546">
        <ele>535.59997558594</ele>
        <time>2011-04-22T15:59:13.000Z</time>
      </trkpt>
      <trkpt lat="45.12739" lon="5.80558">
        <ele>537.59997558594</ele>
        <time>2011-04-22T15:59:20.000Z</time>
      </trkpt>
      <trkpt lat="45.12741" lon="5.8056">
        <ele>538</ele>
        <time>2011-04-22T15:59:21.000Z</time>
      </trkpt>
      <trkpt lat="45.12751" lon="5.80569">
        <ele>540</ele>
        <time>2011-04-22T15:59:26.000Z</time>
      </trkpt>
      <trkpt lat="45.12757" lon="5.80575">
        <ele>540.20001220703</ele>
        <time>2011-04-22T15:59:29.000Z</time>
      </trkpt>
      <trkpt lat="45.12762" lon="5.80579">
        <ele>540.40002441406</ele>
        <time>2011-04-22T15:59:31.000Z</time>
      </trkpt>
      <trkpt lat="45.12772" lon="5.80587">
        <ele>540.59997558594</ele>
        <time>2011-04-22T15:59:36.000Z</time>
      </trkpt>
      <trkpt lat="45.12774" lon="5.80588">
        <ele>540.59997558594</ele>
        <time>2011-04-22T15:59:37.000Z</time>
      </trkpt>
      <trkpt lat="45.12785" lon="5.80599">
        <ele>540.40002441406</ele>
        <time>2011-04-22T15:59:43.000Z</time>
      </trkpt>
      <trkpt lat="45.12789" lon="5.80603">
        <ele>540.59997558594</ele>
        <time>2011-04-22T15:59:45.000Z</time>
      </trkpt>
      <trkpt lat="45.12795" lon="5.8061">
        <ele>541</ele>
        <time>2011-04-22T15:59:49.000Z</time>
      </trkpt>
      <trkpt lat="45.12803" lon="5.80623">
        <ele>541.59997558594</ele>
        <time>2011-04-22T15:59:55.000Z</time>
      </trkpt>
      <trkpt lat="45.12811" lon="5.80637">
        <ele>543.20001220703</ele>
        <time>2011-04-22T16:00:01.000Z</time>
      </trkpt>
      <trkpt lat="45.12816" lon="5.80643">
        <ele>544.20001220703</ele>
        <time>2011-04-22T16:00:04.000Z</time>
      </trkpt>
      <trkpt lat="45.12822" lon="5.80652">
        <ele>546</ele>
        <time>2011-04-22T16:00:08.000Z</time>
      </trkpt>
      <trkpt lat="45.1283" lon="5.80663">
        <ele>548.59997558594</ele>
        <time>2011-04-22T16:00:13.000Z</time>
      </trkpt>
      <trkpt lat="45.12833" lon="5.80667">
        <ele>549.79998779297</ele>
        <time>2011-04-22T16:00:15.000Z</time>
      </trkpt>
      <trkpt lat="45.12844" lon="5.80683">
        <ele>547.40002441406</ele>
        <time>2011-04-22T16:00:22.000Z</time>
      </trkpt>
      <trkpt lat="45.12852" lon="5.80695">
        <ele>546.20001220703</ele>
        <time>2011-04-22T16:00:27.000Z</time>
      </trkpt>
      <trkpt lat="45.12857" lon="5.80701">
        <ele>546</ele>
        <time>2011-04-22T16:00:30.000Z</time>
      </trkpt>
      <trkpt lat="45.1286" lon="5.80705">
        <ele>545.79998779297</ele>
        <time>2011-04-22T16:00:32.000Z</time>
      </trkpt>
      <trkpt lat="45.1287" lon="5.80719">
        <ele>545.79998779297</ele>
        <time>2011-04-22T16:00:38.000Z</time>
      </trkpt>
      <trkpt lat="45.12871" lon="5.80721">
        <ele>545.79998779297</ele>
        <time>2011-04-22T16:00:39.000Z</time>
      </trkpt>
      <trkpt lat="45.12881" lon="5.80734">
        <ele>546.79998779297</ele>
        <time>2011-04-22T16:00:45.000Z</time>
      </trkpt>
      <trkpt lat="45.12884" lon="5.80738">
        <ele>547.20001220703</ele>
        <time>2011-04-22T16:00:47.000Z</time>
      </trkpt>
      <trkpt lat="45.12891" lon="5.80746">
        <ele>548.59997558594</ele>
        <time>2011-04-22T16:00:51.000Z</time>
      </trkpt>
      <trkpt lat="45.12899" lon="5.80754">
        <ele>550</ele>
        <time>2011-04-22T16:00:56.000Z</time>
      </trkpt>
      <trkpt lat="45.12901" lon="5.80756">
        <ele>550.20001220703</ele>
        <time>2011-04-22T16:00:57.000Z</time>
      </trkpt>
      <trkpt lat="45.12912" lon="5.80763">
        <ele>552.40002441406</ele>
        <time>2011-04-22T16:01:03.000Z</time>
      </trkpt>
      <trkpt lat="45.12918" lon="5.80764">
        <ele>553.40002441406</ele>
        <time>2011-04-22T16:01:05.000Z</time>
      </trkpt>
      <trkpt lat="45.12929" lon="5.80768">
        <ele>553.79998779297</ele>
        <time>2011-04-22T16:01:10.000Z</time>
      </trkpt>
      <trkpt lat="45.12936" lon="5.8077">
        <ele>554</ele>
        <time>2011-04-22T16:01:13.000Z</time>
      </trkpt>
      <trkpt lat="45.12943" lon="5.80773">
        <ele>554.40002441406</ele>
        <time>2011-04-22T16:01:16.000Z</time>
      </trkpt>
      <trkpt lat="45.12955" lon="5.8078">
        <ele>555</ele>
        <time>2011-04-22T16:01:21.000Z</time>
      </trkpt>
      <trkpt lat="45.12959" lon="5.80783">
        <ele>555.40002441406</ele>
        <time>2011-04-22T16:01:23.000Z</time>
      </trkpt>
      <trkpt lat="45.12972" lon="5.80793">
        <ele>557</ele>
        <time>2011-04-22T16:01:29.000Z</time>
      </trkpt>
      <trkpt lat="45.12983" lon="5.80803">
        <ele>559</ele>
        <time>2011-04-22T16:01:35.000Z</time>
      </trkpt>
      <trkpt lat="45.12988" lon="5.80809">
        <ele>560.40002441406</ele>
        <time>2011-04-22T16:01:38.000Z</time>
      </trkpt>
      <trkpt lat="45.12994" lon="5.80813">
        <ele>561.79998779297</ele>
        <time>2011-04-22T16:01:41.000Z</time>
      </trkpt>
      <trkpt lat="45.13004" lon="5.80821">
        <ele>563.40002441406</ele>
        <time>2011-04-22T16:01:46.000Z</time>
      </trkpt>
      <trkpt lat="45.13006" lon="5.80823">
        <ele>563.59997558594</ele>
        <time>2011-04-22T16:01:47.000Z</time>
      </trkpt>
      <trkpt lat="45.13019" lon="5.80834">
        <ele>564.20001220703</ele>
        <time>2011-04-22T16:01:53.000Z</time>
      </trkpt>
      <trkpt lat="45.13022" lon="5.80836">
        <ele>564.20001220703</ele>
        <time>2011-04-22T16:01:54.000Z</time>
      </trkpt>
      <trkpt lat="45.13031" lon="5.80847">
        <ele>564.20001220703</ele>
        <time>2011-04-22T16:01:59.000Z</time>
      </trkpt>
      <trkpt lat="45.13037" lon="5.80854">
        <ele>564.20001220703</ele>
        <time>2011-04-22T16:02:03.000Z</time>
      </trkpt>
      <trkpt lat="45.13038" lon="5.80856">
        <ele>564.40002441406</ele>
        <time>2011-04-22T16:02:04.000Z</time>
      </trkpt>
      <trkpt lat="45.13048" lon="5.8087">
        <ele>565</ele>
        <time>2011-04-22T16:02:10.000Z</time>
      </trkpt>
      <trkpt lat="45.13049" lon="5.80872">
        <ele>565.20001220703</ele>
        <time>2011-04-22T16:02:11.000Z</time>
      </trkpt>
      <trkpt lat="45.13058" lon="5.80883">
        <ele>566.20001220703</ele>
        <time>2011-04-22T16:02:16.000Z</time>
      </trkpt>
      <trkpt lat="45.13063" lon="5.8089">
        <ele>567</ele>
        <time>2011-04-22T16:02:19.000Z</time>
      </trkpt>
      <trkpt lat="45.13067" lon="5.80899">
        <ele>567.79998779297</ele>
        <time>2011-04-22T16:02:22.000Z</time>
      </trkpt>
      <trkpt lat="45.13073" lon="5.80912">
        <ele>569.40002441406</ele>
        <time>2011-04-22T16:02:27.000Z</time>
      </trkpt>
      <trkpt lat="45.13074" lon="5.80914">
        <ele>569.79998779297</ele>
        <time>2011-04-22T16:02:28.000Z</time>
      </trkpt>
      <trkpt lat="45.13081" lon="5.80928">
        <ele>570.79998779297</ele>
        <time>2011-04-22T16:02:34.000Z</time>
      </trkpt>
      <trkpt lat="45.13084" lon="5.80933">
        <ele>571.40002441406</ele>
        <time>2011-04-22T16:02:36.000Z</time>
      </trkpt>
      <trkpt lat="45.13091" lon="5.80943">
        <ele>572</ele>
        <time>2011-04-22T16:02:40.000Z</time>
      </trkpt>
      <trkpt lat="45.13097" lon="5.80954">
        <ele>572.59997558594</ele>
        <time>2011-04-22T16:02:45.000Z</time>
      </trkpt>
      <trkpt lat="45.13107" lon="5.80966">
        <ele>573.59997558594</ele>
        <time>2011-04-22T16:02:50.000Z</time>
      </trkpt>
      <trkpt lat="45.13112" lon="5.80973">
        <ele>574.20001220703</ele>
        <time>2011-04-22T16:02:53.000Z</time>
      </trkpt>
      <trkpt lat="45.13118" lon="5.8098">
        <ele>574.79998779297</ele>
        <time>2011-04-22T16:02:56.000Z</time>
      </trkpt>
      <trkpt lat="45.13126" lon="5.80989">
        <ele>575.59997558594</ele>
        <time>2011-04-22T16:03:01.000Z</time>
      </trkpt>
      <trkpt lat="45.13138" lon="5.80998">
        <ele>576.79998779297</ele>
        <time>2011-04-22T16:03:08.000Z</time>
      </trkpt>
      <trkpt lat="45.13142" lon="5.81001">
        <ele>577</ele>
        <time>2011-04-22T16:03:10.000Z</time>
      </trkpt>
      <trkpt lat="45.13149" lon="5.81006">
        <ele>577.20001220703</ele>
        <time>2011-04-22T16:03:14.000Z</time>
      </trkpt>
      <trkpt lat="45.13162" lon="5.81012">
        <ele>578</ele>
        <time>2011-04-22T16:03:19.000Z</time>
      </trkpt>
      <trkpt lat="45.13171" lon="5.81016">
        <ele>579</ele>
        <time>2011-04-22T16:03:25.000Z</time>
      </trkpt>
      <trkpt lat="45.1318" lon="5.8102">
        <ele>579.79998779297</ele>
        <time>2011-04-22T16:03:28.000Z</time>
      </trkpt>
      <trkpt lat="45.13183" lon="5.8102">
        <ele>580</ele>
        <time>2011-04-22T16:03:29.000Z</time>
      </trkpt>
      <trkpt lat="45.13198" lon="5.81021">
        <ele>581.40002441406</ele>
        <time>2011-04-22T16:03:34.000Z</time>
      </trkpt>
      <trkpt lat="45.13201" lon="5.81021">
        <ele>581.79998779297</ele>
        <time>2011-04-22T16:03:35.000Z</time>
      </trkpt>
      <trkpt lat="45.13213" lon="5.81021">
        <ele>583</ele>
        <time>2011-04-22T16:03:41.000Z</time>
      </trkpt>
      <trkpt lat="45.13217" lon="5.81022">
        <ele>583.40002441406</ele>
        <time>2011-04-22T16:03:43.000Z</time>
      </trkpt>
      <trkpt lat="45.13222" lon="5.81023">
        <ele>583.79998779297</ele>
        <time>2011-04-22T16:03:46.000Z</time>
      </trkpt>
      <trkpt lat="45.13235" lon="5.81027">
        <ele>585.40002441406</ele>
        <time>2011-04-22T16:03:52.000Z</time>
      </trkpt>
      <trkpt lat="45.13245" lon="5.8103">
        <ele>586.40002441406</ele>
        <time>2011-04-22T16:03:57.000Z</time>
      </trkpt>
      <trkpt lat="45.13253" lon="5.81034">
        <ele>587.20001220703</ele>
        <time>2011-04-22T16:04:01.000Z</time>
      </trkpt>
      <trkpt lat="45.13259" lon="5.81038">
        <ele>587.79998779297</ele>
        <time>2011-04-22T16:04:04.000Z</time>
      </trkpt>
      <trkpt lat="45.1327" lon="5.81048">
        <ele>588.79998779297</ele>
        <time>2011-04-22T16:04:10.000Z</time>
      </trkpt>
      <trkpt lat="45.13278" lon="5.81058">
        <ele>589.79998779297</ele>
        <time>2011-04-22T16:04:15.000Z</time>
      </trkpt>
      <trkpt lat="45.13285" lon="5.81068">
        <ele>590.79998779297</ele>
        <time>2011-04-22T16:04:20.000Z</time>
      </trkpt>
      <trkpt lat="45.13293" lon="5.81077">
        <ele>592</ele>
        <time>2011-04-22T16:04:25.000Z</time>
      </trkpt>
      <trkpt lat="45.13299" lon="5.81085">
        <ele>593</ele>
        <time>2011-04-22T16:04:30.000Z</time>
      </trkpt>
      <trkpt lat="45.13307" lon="5.81094">
        <ele>594</ele>
        <time>2011-04-22T16:04:36.000Z</time>
      </trkpt>
      <trkpt lat="45.13316" lon="5.81101">
        <ele>595.40002441406</ele>
        <time>2011-04-22T16:04:40.000Z</time>
      </trkpt>
      <trkpt lat="45.13318" lon="5.81103">
        <ele>595.40002441406</ele>
        <time>2011-04-22T16:04:41.000Z</time>
      </trkpt>
      <trkpt lat="45.13326" lon="5.81112">
        <ele>597</ele>
        <time>2011-04-22T16:04:48.000Z</time>
      </trkpt>
      <trkpt lat="45.1333" lon="5.81118">
        <ele>597.79998779297</ele>
        <time>2011-04-22T16:04:51.000Z</time>
      </trkpt>
      <trkpt lat="45.13333" lon="5.81124">
        <ele>598.59997558594</ele>
        <time>2011-04-22T16:04:53.000Z</time>
      </trkpt>
      <trkpt lat="45.13339" lon="5.81135">
        <ele>600</ele>
        <time>2011-04-22T16:04:59.000Z</time>
      </trkpt>
      <trkpt lat="45.13344" lon="5.81138">
        <ele>600.59997558594</ele>
        <time>2011-04-22T16:05:02.000Z</time>
      </trkpt>
      <trkpt lat="45.13347" lon="5.8114">
        <ele>601</ele>
        <time>2011-04-22T16:05:04.000Z</time>
      </trkpt>
      <trkpt lat="45.13357" lon="5.81148">
        <ele>602.40002441406</ele>
        <time>2011-04-22T16:05:10.000Z</time>
      </trkpt>
      <trkpt lat="45.13361" lon="5.81151">
        <ele>602.79998779297</ele>
        <time>2011-04-22T16:05:12.000Z</time>
      </trkpt>
      <trkpt lat="45.13363" lon="5.81154">
        <ele>603.20001220703</ele>
        <time>2011-04-22T16:05:15.000Z</time>
      </trkpt>
      <trkpt lat="45.13372" lon="5.81165">
        <ele>604.59997558594</ele>
        <time>2011-04-22T16:05:21.000Z</time>
      </trkpt>
      <trkpt lat="45.13375" lon="5.81169">
        <ele>604.79998779297</ele>
        <time>2011-04-22T16:05:22.000Z</time>
      </trkpt>
      <trkpt lat="45.13381" lon="5.81176">
        <ele>605</ele>
        <time>2011-04-22T16:05:26.000Z</time>
      </trkpt>
      <trkpt lat="45.13389" lon="5.81187">
        <ele>605.20001220703</ele>
        <time>2011-04-22T16:05:33.000Z</time>
      </trkpt>
      <trkpt lat="45.13394" lon="5.81192">
        <ele>605.59997558594</ele>
        <time>2011-04-22T16:05:37.000Z</time>
      </trkpt>
      <trkpt lat="45.13403" lon="5.81204">
        <ele>606.59997558594</ele>
        <time>2011-04-22T16:05:42.000Z</time>
      </trkpt>
      <trkpt lat="45.13404" lon="5.81206">
        <ele>606.59997558594</ele>
        <time>2011-04-22T16:05:43.000Z</time>
      </trkpt>
      <trkpt lat="45.13411" lon="5.81217">
        <ele>607.59997558594</ele>
        <time>2011-04-22T16:05:49.000Z</time>
      </trkpt>
      <trkpt lat="45.13413" lon="5.81221">
        <ele>608</ele>
        <time>2011-04-22T16:05:50.000Z</time>
      </trkpt>
      <trkpt lat="45.13416" lon="5.81225">
        <ele>608.40002441406</ele>
        <time>2011-04-22T16:05:52.000Z</time>
      </trkpt>
      <trkpt lat="45.13417" lon="5.81227">
        <ele>608.59997558594</ele>
        <time>2011-04-22T16:05:54.000Z</time>
      </trkpt>
      <trkpt lat="45.13424" lon="5.8124">
        <ele>609.40002441406</ele>
        <time>2011-04-22T16:06:00.000Z</time>
      </trkpt>
      <trkpt lat="45.13426" lon="5.81244">
        <ele>609.79998779297</ele>
        <time>2011-04-22T16:06:02.000Z</time>
      </trkpt>
      <trkpt lat="45.13433" lon="5.81254">
        <ele>610</ele>
        <time>2011-04-22T16:06:06.000Z</time>
      </trkpt>
      <trkpt lat="45.1344" lon="5.81266">
        <ele>609.79998779297</ele>
        <time>2011-04-22T16:06:11.000Z</time>
      </trkpt>
      <trkpt lat="45.13443" lon="5.8127">
        <ele>609.79998779297</ele>
        <time>2011-04-22T16:06:13.000Z</time>
      </trkpt>
      <trkpt lat="45.13454" lon="5.81284">
        <ele>610.40002441406</ele>
        <time>2011-04-22T16:06:20.000Z</time>
      </trkpt>
      <trkpt lat="45.13464" lon="5.81295">
        <ele>611.40002441406</ele>
        <time>2011-04-22T16:06:26.000Z</time>
      </trkpt>
      <trkpt lat="45.13468" lon="5.81299">
        <ele>612</ele>
        <time>2011-04-22T16:06:28.000Z</time>
      </trkpt>
      <trkpt lat="45.13477" lon="5.81307">
        <ele>613.20001220703</ele>
        <time>2011-04-22T16:06:33.000Z</time>
      </trkpt>
      <trkpt lat="45.13485" lon="5.81316">
        <ele>614.59997558594</ele>
        <time>2011-04-22T16:06:36.000Z</time>
      </trkpt>
      <trkpt lat="45.13493" lon="5.81324">
        <ele>616.20001220703</ele>
        <time>2011-04-22T16:06:40.000Z</time>
      </trkpt>
      <trkpt lat="45.13501" lon="5.81332">
        <ele>618</ele>
        <time>2011-04-22T16:06:44.000Z</time>
      </trkpt>
      <trkpt lat="45.13506" lon="5.81338">
        <ele>617.79998779297</ele>
        <time>2011-04-22T16:06:47.000Z</time>
      </trkpt>
      <trkpt lat="45.13516" lon="5.81349">
        <ele>617.40002441406</ele>
        <time>2011-04-22T16:06:52.000Z</time>
      </trkpt>
      <trkpt lat="45.1352" lon="5.81353">
        <ele>617.20001220703</ele>
        <time>2011-04-22T16:06:55.000Z</time>
      </trkpt>
      <trkpt lat="45.1353" lon="5.81366">
        <ele>616.79998779297</ele>
        <time>2011-04-22T16:06:59.000Z</time>
      </trkpt>
      <trkpt lat="45.13537" lon="5.81376">
        <ele>616.59997558594</ele>
        <time>2011-04-22T16:07:03.000Z</time>
      </trkpt>
      <trkpt lat="45.13544" lon="5.81386">
        <ele>616.20001220703</ele>
        <time>2011-04-22T16:07:07.000Z</time>
      </trkpt>
      <trkpt lat="45.13548" lon="5.81394">
        <ele>616</ele>
        <time>2011-04-22T16:07:10.000Z</time>
      </trkpt>
      <trkpt lat="45.13555" lon="5.81407">
        <ele>615.79998779297</ele>
        <time>2011-04-22T16:07:15.000Z</time>
      </trkpt>
      <trkpt lat="45.13557" lon="5.8141">
        <ele>615.59997558594</ele>
        <time>2011-04-22T16:07:16.000Z</time>
      </trkpt>
      <trkpt lat="45.13566" lon="5.81424">
        <ele>615.59997558594</ele>
        <time>2011-04-22T16:07:22.000Z</time>
      </trkpt>
      <trkpt lat="45.13566" lon="5.81424">
        <ele>615.59997558594</ele>
        <time>2011-04-22T16:07:23.000Z</time>
      </trkpt>
      <trkpt lat="45.13576" lon="5.81438">
        <ele>616</ele>
        <time>2011-04-22T16:07:28.000Z</time>
      </trkpt>
      <trkpt lat="45.13579" lon="5.81442">
        <ele>616</ele>
        <time>2011-04-22T16:07:31.000Z</time>
      </trkpt>
      <trkpt lat="45.1359" lon="5.81455">
        <ele>616.40002441406</ele>
        <time>2011-04-22T16:07:36.000Z</time>
      </trkpt>
      <trkpt lat="45.13593" lon="5.8146">
        <ele>616.40002441406</ele>
        <time>2011-04-22T16:07:39.000Z</time>
      </trkpt>
      <trkpt lat="45.13602" lon="5.81473">
        <ele>616.59997558594</ele>
        <time>2011-04-22T16:07:44.000Z</time>
      </trkpt>
      <trkpt lat="45.13609" lon="5.81483">
        <ele>616.59997558594</ele>
        <time>2011-04-22T16:07:47.000Z</time>
      </trkpt>
      <trkpt lat="45.13613" lon="5.81488">
        <ele>616.59997558594</ele>
        <time>2011-04-22T16:07:49.000Z</time>
      </trkpt>
      <trkpt lat="45.13623" lon="5.81499">
        <ele>616.79998779297</ele>
        <time>2011-04-22T16:07:54.000Z</time>
      </trkpt>
      <trkpt lat="45.13625" lon="5.81501">
        <ele>616.79998779297</ele>
        <time>2011-04-22T16:07:55.000Z</time>
      </trkpt>
      <trkpt lat="45.13636" lon="5.81514">
        <ele>615.79998779297</ele>
        <time>2011-04-22T16:08:02.000Z</time>
      </trkpt>
      <trkpt lat="45.1364" lon="5.81518">
        <ele>615.59997558594</ele>
        <time>2011-04-22T16:08:03.000Z</time>
      </trkpt>
      <trkpt lat="45.13652" lon="5.81532">
        <ele>614.79998779297</ele>
        <time>2011-04-22T16:08:10.000Z</time>
      </trkpt>
      <trkpt lat="45.13656" lon="5.81536">
        <ele>614.79998779297</ele>
        <time>2011-04-22T16:08:12.000Z</time>
      </trkpt>
      <trkpt lat="45.1367" lon="5.81551">
        <ele>614</ele>
        <time>2011-04-22T16:08:17.000Z</time>
      </trkpt>
      <trkpt lat="45.13672" lon="5.81553">
        <ele>613.79998779297</ele>
        <time>2011-04-22T16:08:18.000Z</time>
      </trkpt>
      <trkpt lat="45.13683" lon="5.81565">
        <ele>612</ele>
        <time>2011-04-22T16:08:24.000Z</time>
      </trkpt>
      <trkpt lat="45.13688" lon="5.81569">
        <ele>611.40002441406</ele>
        <time>2011-04-22T16:08:25.000Z</time>
      </trkpt>
      <trkpt lat="45.13702" lon="5.81579">
        <ele>609.20001220703</ele>
        <time>2011-04-22T16:08:31.000Z</time>
      </trkpt>
      <trkpt lat="45.1371" lon="5.81583">
        <ele>608.40002441406</ele>
        <time>2011-04-22T16:08:34.000Z</time>
      </trkpt>
      <trkpt lat="45.1372" lon="5.81588">
        <ele>607.20001220703</ele>
        <time>2011-04-22T16:08:37.000Z</time>
      </trkpt>
      <trkpt lat="45.13722" lon="5.8159">
        <ele>606.79998779297</ele>
        <time>2011-04-22T16:08:38.000Z</time>
      </trkpt>
      <trkpt lat="45.13737" lon="5.81601">
        <ele>604.20001220703</ele>
        <time>2011-04-22T16:08:44.000Z</time>
      </trkpt>
      <trkpt lat="45.1374" lon="5.81603">
        <ele>603.79998779297</ele>
        <time>2011-04-22T16:08:45.000Z</time>
      </trkpt>
      <trkpt lat="45.13755" lon="5.81615">
        <ele>602.20001220703</ele>
        <time>2011-04-22T16:08:51.000Z</time>
      </trkpt>
      <trkpt lat="45.13758" lon="5.81618">
        <ele>602</ele>
        <time>2011-04-22T16:08:53.000Z</time>
      </trkpt>
      <trkpt lat="45.13772" lon="5.81631">
        <ele>601.40002441406</ele>
        <time>2011-04-22T16:08:58.000Z</time>
      </trkpt>
      <trkpt lat="45.13775" lon="5.81634">
        <ele>601.20001220703</ele>
        <time>2011-04-22T16:08:59.000Z</time>
      </trkpt>
      <trkpt lat="45.13783" lon="5.81644">
        <ele>600</ele>
        <time>2011-04-22T16:09:03.000Z</time>
      </trkpt>
      <trkpt lat="45.13788" lon="5.81649">
        <ele>599.59997558594</ele>
        <time>2011-04-22T16:09:05.000Z</time>
      </trkpt>
      <trkpt lat="45.13794" lon="5.81657">
        <ele>598.79998779297</ele>
        <time>2011-04-22T16:09:08.000Z</time>
      </trkpt>
      <trkpt lat="45.13803" lon="5.81668">
        <ele>597.59997558594</ele>
        <time>2011-04-22T16:09:12.000Z</time>
      </trkpt>
      <trkpt lat="45.13807" lon="5.81673">
        <ele>597.20001220703</ele>
        <time>2011-04-22T16:09:14.000Z</time>
      </trkpt>
      <trkpt lat="45.13816" lon="5.81685">
        <ele>596.40002441406</ele>
        <time>2011-04-22T16:09:18.000Z</time>
      </trkpt>
      <trkpt lat="45.13821" lon="5.8169">
        <ele>596.20001220703</ele>
        <time>2011-04-22T16:09:20.000Z</time>
      </trkpt>
      <trkpt lat="45.13831" lon="5.81703">
        <ele>595.40002441406</ele>
        <time>2011-04-22T16:09:25.000Z</time>
      </trkpt>
      <trkpt lat="45.13844" lon="5.81717">
        <ele>595</ele>
        <time>2011-04-22T16:09:31.000Z</time>
      </trkpt>
      <trkpt lat="45.13846" lon="5.81719">
        <ele>594.79998779297</ele>
        <time>2011-04-22T16:09:32.000Z</time>
      </trkpt>
      <trkpt lat="45.13856" lon="5.8173">
        <ele>594.40002441406</ele>
        <time>2011-04-22T16:09:37.000Z</time>
      </trkpt>
      <trkpt lat="45.13861" lon="5.81735">
        <ele>594.20001220703</ele>
        <time>2011-04-22T16:09:39.000Z</time>
      </trkpt>
      <trkpt lat="45.13869" lon="5.81743">
        <ele>593.79998779297</ele>
        <time>2011-04-22T16:09:43.000Z</time>
      </trkpt>
      <trkpt lat="45.13875" lon="5.81751">
        <ele>593.40002441406</ele>
        <time>2011-04-22T16:09:46.000Z</time>
      </trkpt>
      <trkpt lat="45.13883" lon="5.81759">
        <ele>593.20001220703</ele>
        <time>2011-04-22T16:09:49.000Z</time>
      </trkpt>
      <trkpt lat="45.1389" lon="5.81769">
        <ele>592.59997558594</ele>
        <time>2011-04-22T16:09:53.000Z</time>
      </trkpt>
      <trkpt lat="45.13892" lon="5.81772">
        <ele>592.40002441406</ele>
        <time>2011-04-22T16:09:54.000Z</time>
      </trkpt>
      <trkpt lat="45.13905" lon="5.81782">
        <ele>592.59997558594</ele>
        <time>2011-04-22T16:09:59.000Z</time>
      </trkpt>
      <trkpt lat="45.13907" lon="5.81784">
        <ele>592.59997558594</ele>
        <time>2011-04-22T16:10:00.000Z</time>
      </trkpt>
      <trkpt lat="45.1392" lon="5.81793">
        <ele>592.59997558594</ele>
        <time>2011-04-22T16:10:05.000Z</time>
      </trkpt>
      <trkpt lat="45.13925" lon="5.81796">
        <ele>592.40002441406</ele>
        <time>2011-04-22T16:10:07.000Z</time>
      </trkpt>
      <trkpt lat="45.13934" lon="5.818">
        <ele>592.20001220703</ele>
        <time>2011-04-22T16:10:10.000Z</time>
      </trkpt>
      <trkpt lat="45.13942" lon="5.81806">
        <ele>592</ele>
        <time>2011-04-22T16:10:14.000Z</time>
      </trkpt>
      <trkpt lat="45.13957" lon="5.81814">
        <ele>591.79998779297</ele>
        <time>2011-04-22T16:10:20.000Z</time>
      </trkpt>
      <trkpt lat="45.1396" lon="5.81815">
        <ele>591.79998779297</ele>
        <time>2011-04-22T16:10:21.000Z</time>
      </trkpt>
      <trkpt lat="45.13973" lon="5.81822">
        <ele>591.79998779297</ele>
        <time>2011-04-22T16:10:27.000Z</time>
      </trkpt>
      <trkpt lat="45.13978" lon="5.81823">
        <ele>591.79998779297</ele>
        <time>2011-04-22T16:10:28.000Z</time>
      </trkpt>
      <trkpt lat="45.1399" lon="5.81828">
        <ele>592</ele>
        <time>2011-04-22T16:10:32.000Z</time>
      </trkpt>
      <trkpt lat="45.13997" lon="5.81832">
        <ele>591.79998779297</ele>
        <time>2011-04-22T16:10:35.000Z</time>
      </trkpt>
      <trkpt lat="45.14003" lon="5.81834">
        <ele>592</ele>
        <time>2011-04-22T16:10:37.000Z</time>
      </trkpt>
      <trkpt lat="45.14015" lon="5.8184">
        <ele>592</ele>
        <time>2011-04-22T16:10:42.000Z</time>
      </trkpt>
      <trkpt lat="45.14026" lon="5.81846">
        <ele>591.79998779297</ele>
        <time>2011-04-22T16:10:47.000Z</time>
      </trkpt>
      <trkpt lat="45.14032" lon="5.81849">
        <ele>591.79998779297</ele>
        <time>2011-04-22T16:10:49.000Z</time>
      </trkpt>
      <trkpt lat="45.14041" lon="5.81854">
        <ele>591.40002441406</ele>
        <time>2011-04-22T16:10:53.000Z</time>
      </trkpt>
      <trkpt lat="45.14049" lon="5.81858">
        <ele>591.20001220703</ele>
        <time>2011-04-22T16:10:56.000Z</time>
      </trkpt>
      <trkpt lat="45.14059" lon="5.81864">
        <ele>590.59997558594</ele>
        <time>2011-04-22T16:11:00.000Z</time>
      </trkpt>
      <trkpt lat="45.14067" lon="5.81868">
        <ele>590</ele>
        <time>2011-04-22T16:11:03.000Z</time>
      </trkpt>
      <trkpt lat="45.14076" lon="5.81873">
        <ele>589.59997558594</ele>
        <time>2011-04-22T16:11:06.000Z</time>
      </trkpt>
      <trkpt lat="45.14087" lon="5.81878">
        <ele>589.40002441406</ele>
        <time>2011-04-22T16:11:10.000Z</time>
      </trkpt>
      <trkpt lat="45.14093" lon="5.8188">
        <ele>589.59997558594</ele>
        <time>2011-04-22T16:11:12.000Z</time>
      </trkpt>
      <trkpt lat="45.14105" lon="5.8189">
        <ele>589</ele>
        <time>2011-04-22T16:11:17.000Z</time>
      </trkpt>
      <trkpt lat="45.14117" lon="5.81902">
        <ele>587.79998779297</ele>
        <time>2011-04-22T16:11:22.000Z</time>
      </trkpt>
      <trkpt lat="45.14121" lon="5.81907">
        <ele>587</ele>
        <time>2011-04-22T16:11:24.000Z</time>
      </trkpt>
      <trkpt lat="45.14127" lon="5.81914">
        <ele>586.20001220703</ele>
        <time>2011-04-22T16:11:27.000Z</time>
      </trkpt>
      <trkpt lat="45.14137" lon="5.81922">
        <ele>585.79998779297</ele>
        <time>2011-04-22T16:11:31.000Z</time>
      </trkpt>
      <trkpt lat="45.14151" lon="5.81931">
        <ele>585.79998779297</ele>
        <time>2011-04-22T16:11:36.000Z</time>
      </trkpt>
      <trkpt lat="45.14155" lon="5.81933">
        <ele>585.79998779297</ele>
        <time>2011-04-22T16:11:38.000Z</time>
      </trkpt>
      <trkpt lat="45.14161" lon="5.81936">
        <ele>586</ele>
        <time>2011-04-22T16:11:41.000Z</time>
      </trkpt>
      <trkpt lat="45.14165" lon="5.81938">
        <ele>586</ele>
        <time>2011-04-22T16:11:43.000Z</time>
      </trkpt>
      <trkpt lat="45.1417" lon="5.8194">
        <ele>586</ele>
        <time>2011-04-22T16:11:45.000Z</time>
      </trkpt>
      <trkpt lat="45.14174" lon="5.81942">
        <ele>586.20001220703</ele>
        <time>2011-04-22T16:11:47.000Z</time>
      </trkpt>
      <trkpt lat="45.1418" lon="5.81946">
        <ele>586.20001220703</ele>
        <time>2011-04-22T16:11:50.000Z</time>
      </trkpt>
      <trkpt lat="45.14191" lon="5.81952">
        <ele>586.59997558594</ele>
        <time>2011-04-22T16:11:55.000Z</time>
      </trkpt>
      <trkpt lat="45.14205" lon="5.81961">
        <ele>586.59997558594</ele>
        <time>2011-04-22T16:12:01.000Z</time>
      </trkpt>
      <trkpt lat="45.14208" lon="5.81962">
        <ele>586.79998779297</ele>
        <time>2011-04-22T16:12:02.000Z</time>
      </trkpt>
      <trkpt lat="45.1422" lon="5.81966">
        <ele>587.40002441406</ele>
        <time>2011-04-22T16:12:07.000Z</time>
      </trkpt>
      <trkpt lat="45.14227" lon="5.81968">
        <ele>587.59997558594</ele>
        <time>2011-04-22T16:12:10.000Z</time>
      </trkpt>
      <trkpt lat="45.14233" lon="5.81971">
        <ele>587.79998779297</ele>
        <time>2011-04-22T16:12:13.000Z</time>
      </trkpt>
      <trkpt lat="45.14241" lon="5.81977">
        <ele>587.59997558594</ele>
        <time>2011-04-22T16:12:17.000Z</time>
      </trkpt>
      <trkpt lat="45.14244" lon="5.81979">
        <ele>587.59997558594</ele>
        <time>2011-04-22T16:12:18.000Z</time>
      </trkpt>
      <trkpt lat="45.14255" lon="5.81988">
        <ele>586.59997558594</ele>
        <time>2011-04-22T16:12:23.000Z</time>
      </trkpt>
      <trkpt lat="45.14261" lon="5.81994">
        <ele>585.79998779297</ele>
        <time>2011-04-22T16:12:26.000Z</time>
      </trkpt>
      <trkpt lat="45.14266" lon="5.81997">
        <ele>585.59997558594</ele>
        <time>2011-04-22T16:12:28.000Z</time>
      </trkpt>
      <trkpt lat="45.14278" lon="5.82005">
        <ele>585.20001220703</ele>
        <time>2011-04-22T16:12:33.000Z</time>
      </trkpt>
      <trkpt lat="45.1428" lon="5.82006">
        <ele>585</ele>
        <time>2011-04-22T16:12:34.000Z</time>
      </trkpt>
      <trkpt lat="45.14292" lon="5.82014">
        <ele>584.79998779297</ele>
        <time>2011-04-22T16:12:39.000Z</time>
      </trkpt>
      <trkpt lat="45.14296" lon="5.82017">
        <ele>584.59997558594</ele>
        <time>2011-04-22T16:12:41.000Z</time>
      </trkpt>
      <trkpt lat="45.14303" lon="5.82023">
        <ele>584.20001220703</ele>
        <time>2011-04-22T16:12:44.000Z</time>
      </trkpt>
      <trkpt lat="45.14311" lon="5.82033">
        <ele>583.40002441406</ele>
        <time>2011-04-22T16:12:48.000Z</time>
      </trkpt>
      <trkpt lat="45.14313" lon="5.82035">
        <ele>583.20001220703</ele>
        <time>2011-04-22T16:12:49.000Z</time>
      </trkpt>
      <trkpt lat="45.14321" lon="5.82044">
        <ele>582.59997558594</ele>
        <time>2011-04-22T16:12:54.000Z</time>
      </trkpt>
      <trkpt lat="45.14327" lon="5.82048">
        <ele>582.40002441406</ele>
        <time>2011-04-22T16:12:56.000Z</time>
      </trkpt>
      <trkpt lat="45.14335" lon="5.82054">
        <ele>582</ele>
        <time>2011-04-22T16:12:59.000Z</time>
      </trkpt>
      <trkpt lat="45.14344" lon="5.82061">
        <ele>580.79998779297</ele>
        <time>2011-04-22T16:13:03.000Z</time>
      </trkpt>
      <trkpt lat="45.14349" lon="5.82063">
        <ele>580.40002441406</ele>
        <time>2011-04-22T16:13:05.000Z</time>
      </trkpt>
      <trkpt lat="45.1436" lon="5.82063">
        <ele>580</ele>
        <time>2011-04-22T16:13:10.000Z</time>
      </trkpt>
      <trkpt lat="45.14362" lon="5.82064">
        <ele>580</ele>
        <time>2011-04-22T16:13:11.000Z</time>
      </trkpt>
      <trkpt lat="45.14371" lon="5.82064">
        <ele>579.79998779297</ele>
        <time>2011-04-22T16:13:14.000Z</time>
      </trkpt>
      <trkpt lat="45.14383" lon="5.82064">
        <ele>579.40002441406</ele>
        <time>2011-04-22T16:13:18.000Z</time>
      </trkpt>
      <trkpt lat="45.14385" lon="5.82064">
        <ele>579.20001220703</ele>
        <time>2011-04-22T16:13:19.000Z</time>
      </trkpt>
      <trkpt lat="45.14399" lon="5.82064">
        <ele>579</ele>
        <time>2011-04-22T16:13:24.000Z</time>
      </trkpt>
      <trkpt lat="45.14402" lon="5.82064">
        <ele>578.79998779297</ele>
        <time>2011-04-22T16:13:25.000Z</time>
      </trkpt>
      <trkpt lat="45.1441" lon="5.82063">
        <ele>578.79998779297</ele>
        <time>2011-04-22T16:13:28.000Z</time>
      </trkpt>
      <trkpt lat="45.14421" lon="5.82063">
        <ele>578</ele>
        <time>2011-04-22T16:13:33.000Z</time>
      </trkpt>
      <trkpt lat="45.14439" lon="5.82056">
        <ele>576.59997558594</ele>
        <time>2011-04-22T16:13:39.000Z</time>
      </trkpt>
      <trkpt lat="45.14458" lon="5.82054">
        <ele>574.40002441406</ele>
        <time>2011-04-22T16:13:45.000Z</time>
      </trkpt>
      <trkpt lat="45.14475" lon="5.82047">
        <ele>573</ele>
        <time>2011-04-22T16:13:50.000Z</time>
      </trkpt>
      <trkpt lat="45.14479" lon="5.82045">
        <ele>572.79998779297</ele>
        <time>2011-04-22T16:13:51.000Z</time>
      </trkpt>
      <trkpt lat="45.14492" lon="5.82036">
        <ele>572</ele>
        <time>2011-04-22T16:13:55.000Z</time>
      </trkpt>
      <trkpt lat="45.14498" lon="5.8203">
        <ele>572</ele>
        <time>2011-04-22T16:13:57.000Z</time>
      </trkpt>
      <trkpt lat="45.14505" lon="5.8202">
        <ele>572</ele>
        <time>2011-04-22T16:14:00.000Z</time>
      </trkpt>
      <trkpt lat="45.14511" lon="5.82008">
        <ele>572.20001220703</ele>
        <time>2011-04-22T16:14:04.000Z</time>
      </trkpt>
      <trkpt lat="45.14513" lon="5.82006">
        <ele>572.20001220703</ele>
        <time>2011-04-22T16:14:05.000Z</time>
      </trkpt>
      <trkpt lat="45.1452" lon="5.81993">
        <ele>572.59997558594</ele>
        <time>2011-04-22T16:14:09.000Z</time>
      </trkpt>
      <trkpt lat="45.14522" lon="5.8199">
        <ele>572.59997558594</ele>
        <time>2011-04-22T16:14:10.000Z</time>
      </trkpt>
      <trkpt lat="45.14523" lon="5.81987">
        <ele>572.79998779297</ele>
        <time>2011-04-22T16:14:11.000Z</time>
      </trkpt>
      <trkpt lat="45.14528" lon="5.81978">
        <ele>573.40002441406</ele>
        <time>2011-04-22T16:14:14.000Z</time>
      </trkpt>
      <trkpt lat="45.14533" lon="5.81968">
        <ele>573.79998779297</ele>
        <time>2011-04-22T16:14:17.000Z</time>
      </trkpt>
      <trkpt lat="45.14534" lon="5.81965">
        <ele>574</ele>
        <time>2011-04-22T16:14:18.000Z</time>
      </trkpt>
      <trkpt lat="45.1454" lon="5.8195">
        <ele>575</ele>
        <time>2011-04-22T16:14:22.000Z</time>
      </trkpt>
      <trkpt lat="45.14545" lon="5.8194">
        <ele>575.40002441406</ele>
        <time>2011-04-22T16:14:25.000Z</time>
      </trkpt>
      <trkpt lat="45.14548" lon="5.81934">
        <ele>575.79998779297</ele>
        <time>2011-04-22T16:14:27.000Z</time>
      </trkpt>
      <trkpt lat="45.14552" lon="5.81929">
        <ele>575.79998779297</ele>
        <time>2011-04-22T16:14:30.000Z</time>
      </trkpt>
      <trkpt lat="45.14556" lon="5.81923">
        <ele>576</ele>
        <time>2011-04-22T16:14:33.000Z</time>
      </trkpt>
      <trkpt lat="45.14557" lon="5.8192">
        <ele>576.20001220703</ele>
        <time>2011-04-22T16:14:34.000Z</time>
      </trkpt>
      <trkpt lat="45.14561" lon="5.81914">
        <ele>576.59997558594</ele>
        <time>2011-04-22T16:14:37.000Z</time>
      </trkpt>
      <trkpt lat="45.14563" lon="5.81912">
        <ele>576.59997558594</ele>
        <time>2011-04-22T16:14:38.000Z</time>
      </trkpt>
      <trkpt lat="45.14567" lon="5.81906">
        <ele>577</ele>
        <time>2011-04-22T16:14:41.000Z</time>
      </trkpt>
      <trkpt lat="45.1457" lon="5.81902">
        <ele>577.20001220703</ele>
        <time>2011-04-22T16:14:43.000Z</time>
      </trkpt>
      <trkpt lat="45.14572" lon="5.81901">
        <ele>577.20001220703</ele>
        <time>2011-04-22T16:14:44.000Z</time>
      </trkpt>
      <trkpt lat="45.14579" lon="5.8189">
        <ele>577.59997558594</ele>
        <time>2011-04-22T16:14:49.000Z</time>
      </trkpt>
      <trkpt lat="45.14585" lon="5.81881">
        <ele>577.79998779297</ele>
        <time>2011-04-22T16:14:53.000Z</time>
      </trkpt>
      <trkpt lat="45.14588" lon="5.81876">
        <ele>578.20001220703</ele>
        <time>2011-04-22T16:14:55.000Z</time>
      </trkpt>
      <trkpt lat="45.14599" lon="5.81867">
        <ele>578.40002441406</ele>
        <time>2011-04-22T16:15:01.000Z</time>
      </trkpt>
      <trkpt lat="45.146" lon="5.81865">
        <ele>578.40002441406</ele>
        <time>2011-04-22T16:15:02.000Z</time>
      </trkpt>
      <trkpt lat="45.14609" lon="5.81857">
        <ele>578.40002441406</ele>
        <time>2011-04-22T16:15:06.000Z</time>
      </trkpt>
      <trkpt lat="45.14613" lon="5.81848">
        <ele>579</ele>
        <time>2011-04-22T16:15:09.000Z</time>
      </trkpt>
      <trkpt lat="45.14615" lon="5.81844">
        <ele>579.20001220703</ele>
        <time>2011-04-22T16:15:10.000Z</time>
      </trkpt>
      <trkpt lat="45.14624" lon="5.81833">
        <ele>579.59997558594</ele>
        <time>2011-04-22T16:15:15.000Z</time>
      </trkpt>
      <trkpt lat="45.14628" lon="5.81829">
        <ele>580.20001220703</ele>
        <time>2011-04-22T16:15:17.000Z</time>
      </trkpt>
      <trkpt lat="45.14633" lon="5.81822">
        <ele>581.20001220703</ele>
        <time>2011-04-22T16:15:20.000Z</time>
      </trkpt>
      <trkpt lat="45.14643" lon="5.81814">
        <ele>581.59997558594</ele>
        <time>2011-04-22T16:15:24.000Z</time>
      </trkpt>
      <trkpt lat="45.14647" lon="5.8181">
        <ele>582</ele>
        <time>2011-04-22T16:15:26.000Z</time>
      </trkpt>
      <trkpt lat="45.14653" lon="5.81804">
        <ele>582.20001220703</ele>
        <time>2011-04-22T16:15:29.000Z</time>
      </trkpt>
      <trkpt lat="45.14657" lon="5.81799">
        <ele>582.59997558594</ele>
        <time>2011-04-22T16:15:31.000Z</time>
      </trkpt>
      <trkpt lat="45.14659" lon="5.81797">
        <ele>582.79998779297</ele>
        <time>2011-04-22T16:15:32.000Z</time>
      </trkpt>
      <trkpt lat="45.14668" lon="5.81786">
        <ele>583.20001220703</ele>
        <time>2011-04-22T16:15:37.000Z</time>
      </trkpt>
      <trkpt lat="45.14675" lon="5.81779">
        <ele>583.59997558594</ele>
        <time>2011-04-22T16:15:40.000Z</time>
      </trkpt>
      <trkpt lat="45.14677" lon="5.81777">
        <ele>583.79998779297</ele>
        <time>2011-04-22T16:15:41.000Z</time>
      </trkpt>
      <trkpt lat="45.14692" lon="5.81765">
        <ele>583.59997558594</ele>
        <time>2011-04-22T16:15:46.000Z</time>
      </trkpt>
      <trkpt lat="45.14696" lon="5.81763">
        <ele>583.40002441406</ele>
        <time>2011-04-22T16:15:47.000Z</time>
      </trkpt>
      <trkpt lat="45.14707" lon="5.81751">
        <ele>583.59997558594</ele>
        <time>2011-04-22T16:15:52.000Z</time>
      </trkpt>
      <trkpt lat="45.1471" lon="5.81749">
        <ele>583.40002441406</ele>
        <time>2011-04-22T16:15:53.000Z</time>
      </trkpt>
      <trkpt lat="45.14718" lon="5.81739">
        <ele>585</ele>
        <time>2011-04-22T16:15:58.000Z</time>
      </trkpt>
      <trkpt lat="45.14724" lon="5.81731">
        <ele>585.79998779297</ele>
        <time>2011-04-22T16:16:02.000Z</time>
      </trkpt>
      <trkpt lat="45.14727" lon="5.81726">
        <ele>586.59997558594</ele>
        <time>2011-04-22T16:16:04.000Z</time>
      </trkpt>
      <trkpt lat="45.14736" lon="5.81717">
        <ele>587.20001220703</ele>
        <time>2011-04-22T16:16:09.000Z</time>
      </trkpt>
      <trkpt lat="45.14741" lon="5.81715">
        <ele>586.79998779297</ele>
        <time>2011-04-22T16:16:11.000Z</time>
      </trkpt>
      <trkpt lat="45.14747" lon="5.81712">
        <ele>586.20001220703</ele>
        <time>2011-04-22T16:16:13.000Z</time>
      </trkpt>
      <trkpt lat="45.14759" lon="5.81705">
        <ele>586.40002441406</ele>
        <time>2011-04-22T16:16:18.000Z</time>
      </trkpt>
      <trkpt lat="45.14774" lon="5.81696">
        <ele>587.40002441406</ele>
        <time>2011-04-22T16:16:24.000Z</time>
      </trkpt>
      <trkpt lat="45.14776" lon="5.81695">
        <ele>587.40002441406</ele>
        <time>2011-04-22T16:16:25.000Z</time>
      </trkpt>
      <trkpt lat="45.1479" lon="5.81694">
        <ele>586.40002441406</ele>
        <time>2011-04-22T16:16:30.000Z</time>
      </trkpt>
      <trkpt lat="45.14797" lon="5.81692">
        <ele>586</ele>
        <time>2011-04-22T16:16:32.000Z</time>
      </trkpt>
      <trkpt lat="45.14801" lon="5.81693">
        <ele>585.59997558594</ele>
        <time>2011-04-22T16:16:34.000Z</time>
      </trkpt>
      <trkpt lat="45.14806" lon="5.81693">
        <ele>585</ele>
        <time>2011-04-22T16:16:37.000Z</time>
      </trkpt>
      <trkpt lat="45.14809" lon="5.81693">
        <ele>584.79998779297</ele>
        <time>2011-04-22T16:16:39.000Z</time>
      </trkpt>
      <trkpt lat="45.14815" lon="5.81695">
        <ele>583.79998779297</ele>
        <time>2011-04-22T16:16:41.000Z</time>
      </trkpt>
      <trkpt lat="45.14822" lon="5.81697">
        <ele>582.79998779297</ele>
        <time>2011-04-22T16:16:44.000Z</time>
      </trkpt>
      <trkpt lat="45.14834" lon="5.81699">
        <ele>581.20001220703</ele>
        <time>2011-04-22T16:16:49.000Z</time>
      </trkpt>
      <trkpt lat="45.14844" lon="5.81703">
        <ele>580.79998779297</ele>
        <time>2011-04-22T16:16:54.000Z</time>
      </trkpt>
      <trkpt lat="45.14853" lon="5.81704">
        <ele>580.79998779297</ele>
        <time>2011-04-22T16:16:57.000Z</time>
      </trkpt>
      <trkpt lat="45.14855" lon="5.81705">
        <ele>580.59997558594</ele>
        <time>2011-04-22T16:16:58.000Z</time>
      </trkpt>
      <trkpt lat="45.14857" lon="5.81706">
        <ele>580.40002441406</ele>
        <time>2011-04-22T16:16:59.000Z</time>
      </trkpt>
      <trkpt lat="45.14864" lon="5.8171">
        <ele>580</ele>
        <time>2011-04-22T16:17:04.000Z</time>
      </trkpt>
      <trkpt lat="45.14866" lon="5.81711">
        <ele>580</ele>
        <time>2011-04-22T16:17:07.000Z</time>
      </trkpt>
      <trkpt lat="45.14867" lon="5.81711">
        <ele>580</ele>
        <time>2011-04-22T16:17:09.000Z</time>
      </trkpt>
      <trkpt lat="45.14871" lon="5.81709">
        <ele>580.40002441406</ele>
        <time>2011-04-22T16:17:25.000Z</time>
      </trkpt>
      <trkpt lat="45.14873" lon="5.8171">
        <ele>580.40002441406</ele>
        <time>2011-04-22T16:17:35.000Z</time>
      </trkpt>
      <trkpt lat="45.14872" lon="5.8171">
        <ele>580.20001220703</ele>
        <time>2011-04-22T16:17:42.000Z</time>
      </trkpt>
      <trkpt lat="45.14872" lon="5.81712">
        <ele>580</ele>
        <time>2011-04-22T16:17:50.000Z</time>
      </trkpt>
      <trkpt lat="45.14868" lon="5.81712">
        <ele>579.79998779297</ele>
        <time>2011-04-22T16:18:07.000Z</time>
      </trkpt>
      <trkpt lat="45.14868" lon="5.8171">
        <ele>580.20001220703</ele>
        <time>2011-04-22T16:19:32.000Z</time>
      </trkpt>
      <trkpt lat="45.14867" lon="5.81712">
        <ele>579.79998779297</ele>
        <time>2011-04-22T16:20:04.000Z</time>
      </trkpt>
      <trkpt lat="45.14863" lon="5.8171">
        <ele>580</ele>
        <time>2011-04-22T16:21:21.000Z</time>
      </trkpt>
      <trkpt lat="45.14872" lon="5.81709">
        <ele>580.40002441406</ele>
        <time>2011-04-22T16:22:01.000Z</time>
      </trkpt>
      <trkpt lat="45.14867" lon="5.81702">
        <ele>581.40002441406</ele>
        <time>2011-04-22T16:22:22.000Z</time>
      </trkpt>
      <trkpt lat="45.14871" lon="5.81706">
        <ele>581</ele>
        <time>2011-04-22T16:22:47.000Z</time>
      </trkpt>
      <trkpt lat="45.14874" lon="5.81705">
        <ele>581.20001220703</ele>
        <time>2011-04-22T16:23:05.000Z</time>
      </trkpt>
      <trkpt lat="45.14875" lon="5.81707">
        <ele>581</ele>
        <time>2011-04-22T16:23:10.000Z</time>
      </trkpt>
      <trkpt lat="45.14876" lon="5.81709">
        <ele>580.59997558594</ele>
        <time>2011-04-22T16:23:17.000Z</time>
      </trkpt>
      <trkpt lat="45.1488" lon="5.8171">
        <ele>580.59997558594</ele>
        <time>2011-04-22T16:23:22.000Z</time>
      </trkpt>
      <trkpt lat="45.1489" lon="5.81712">
        <ele>580.59997558594</ele>
        <time>2011-04-22T16:23:28.000Z</time>
      </trkpt>
      <trkpt lat="45.14895" lon="5.81713">
        <ele>580.59997558594</ele>
        <time>2011-04-22T16:23:31.000Z</time>
      </trkpt>
      <trkpt lat="45.14898" lon="5.81713">
        <ele>580.79998779297</ele>
        <time>2011-04-22T16:23:33.000Z</time>
      </trkpt>
      <trkpt lat="45.14906" lon="5.81711">
        <ele>581.20001220703</ele>
        <time>2011-04-22T16:23:39.000Z</time>
      </trkpt>
      <trkpt lat="45.14914" lon="5.8171">
        <ele>581.59997558594</ele>
        <time>2011-04-22T16:23:44.000Z</time>
      </trkpt>
      <trkpt lat="45.14916" lon="5.81709">
        <ele>581.79998779297</ele>
        <time>2011-04-22T16:23:45.000Z</time>
      </trkpt>
      <trkpt lat="45.14922" lon="5.8171">
        <ele>581.40002441406</ele>
        <time>2011-04-22T16:23:49.000Z</time>
      </trkpt>
      <trkpt lat="45.14928" lon="5.8171">
        <ele>581.20001220703</ele>
        <time>2011-04-22T16:23:52.000Z</time>
      </trkpt>
      <trkpt lat="45.14931" lon="5.81709">
        <ele>581</ele>
        <time>2011-04-22T16:23:54.000Z</time>
      </trkpt>
      <trkpt lat="45.14932" lon="5.81708">
        <ele>581</ele>
        <time>2011-04-22T16:23:55.000Z</time>
      </trkpt>
      <trkpt lat="45.14934" lon="5.81707">
        <ele>581.20001220703</ele>
        <time>2011-04-22T16:23:56.000Z</time>
      </trkpt>
      <trkpt lat="45.14935" lon="5.81706">
        <ele>581.20001220703</ele>
        <time>2011-04-22T16:24:00.000Z</time>
      </trkpt>
      <trkpt lat="45.14941" lon="5.8171">
        <ele>580.40002441406</ele>
        <time>2011-04-22T16:24:49.000Z</time>
      </trkpt>
      <trkpt lat="45.14944" lon="5.8171">
        <ele>580.20001220703</ele>
        <time>2011-04-22T16:24:54.000Z</time>
      </trkpt>
      <trkpt lat="45.14944" lon="5.8171">
        <ele>580.20001220703</ele>
        <time>2011-04-22T16:25:00.000Z</time>
      </trkpt>
      <trkpt lat="45.14943" lon="5.817">
        <ele>581.40002441406</ele>
        <time>2011-04-22T16:25:24.000Z</time>
      </trkpt>
      <trkpt lat="45.14945" lon="5.81698">
        <ele>581.40002441406</ele>
        <time>2011-04-22T16:25:27.000Z</time>
      </trkpt>
      <trkpt lat="45.14949" lon="5.81696">
        <ele>581.40002441406</ele>
        <time>2011-04-22T16:25:31.000Z</time>
      </trkpt>
      <trkpt lat="45.1495" lon="5.81696">
        <ele>581.20001220703</ele>
        <time>2011-04-22T16:25:32.000Z</time>
      </trkpt>
      <trkpt lat="45.14951" lon="5.81693">
        <ele>581.40002441406</ele>
        <time>2011-04-22T16:25:35.000Z</time>
      </trkpt>
      <trkpt lat="45.14954" lon="5.8169">
        <ele>581.59997558594</ele>
        <time>2011-04-22T16:25:38.000Z</time>
      </trkpt>
      <trkpt lat="45.14955" lon="5.81689">
        <ele>581.59997558594</ele>
        <time>2011-04-22T16:25:39.000Z</time>
      </trkpt>
      <trkpt lat="45.14958" lon="5.81687">
        <ele>581.59997558594</ele>
        <time>2011-04-22T16:25:42.000Z</time>
      </trkpt>
      <trkpt lat="45.14959" lon="5.81685">
        <ele>581.79998779297</ele>
        <time>2011-04-22T16:25:44.000Z</time>
      </trkpt>
      <trkpt lat="45.14957" lon="5.81681">
        <ele>582.20001220703</ele>
        <time>2011-04-22T16:25:54.000Z</time>
      </trkpt>
      <trkpt lat="45.14959" lon="5.81681">
        <ele>582</ele>
        <time>2011-04-22T16:25:57.000Z</time>
      </trkpt>
      <trkpt lat="45.14962" lon="5.81681">
        <ele>582</ele>
        <time>2011-04-22T16:25:59.000Z</time>
      </trkpt>
      <trkpt lat="45.14969" lon="5.81673">
        <ele>582</ele>
        <time>2011-04-22T16:26:04.000Z</time>
      </trkpt>
      <trkpt lat="45.14977" lon="5.81671">
        <ele>581.59997558594</ele>
        <time>2011-04-22T16:26:07.000Z</time>
      </trkpt>
      <trkpt lat="45.14983" lon="5.81674">
        <ele>580.79998779297</ele>
        <time>2011-04-22T16:26:09.000Z</time>
      </trkpt>
      <trkpt lat="45.14993" lon="5.81678">
        <ele>579.79998779297</ele>
        <time>2011-04-22T16:26:13.000Z</time>
      </trkpt>
      <trkpt lat="45.14995" lon="5.81679">
        <ele>579.59997558594</ele>
        <time>2011-04-22T16:26:14.000Z</time>
      </trkpt>
      <trkpt lat="45.15005" lon="5.8168">
        <ele>578.79998779297</ele>
        <time>2011-04-22T16:26:18.000Z</time>
      </trkpt>
      <trkpt lat="45.15015" lon="5.8168">
        <ele>578.40002441406</ele>
        <time>2011-04-22T16:26:22.000Z</time>
      </trkpt>
      <trkpt lat="45.1502" lon="5.81678">
        <ele>578.40002441406</ele>
        <time>2011-04-22T16:26:24.000Z</time>
      </trkpt>
      <trkpt lat="45.15025" lon="5.81666">
        <ele>578.79998779297</ele>
        <time>2011-04-22T16:26:28.000Z</time>
      </trkpt>
      <trkpt lat="45.15027" lon="5.8166">
        <ele>578.59997558594</ele>
        <time>2011-04-22T16:26:30.000Z</time>
      </trkpt>
      <trkpt lat="45.15029" lon="5.81657">
        <ele>578.59997558594</ele>
        <time>2011-04-22T16:26:31.000Z</time>
      </trkpt>
      <trkpt lat="45.15033" lon="5.8165">
        <ele>578.59997558594</ele>
        <time>2011-04-22T16:26:34.000Z</time>
      </trkpt>
      <trkpt lat="45.1504" lon="5.81641">
        <ele>578.40002441406</ele>
        <time>2011-04-22T16:26:38.000Z</time>
      </trkpt>
      <trkpt lat="45.15041" lon="5.81638">
        <ele>578.40002441406</ele>
        <time>2011-04-22T16:26:39.000Z</time>
      </trkpt>
      <trkpt lat="45.15048" lon="5.81616">
        <ele>578.59997558594</ele>
        <time>2011-04-22T16:26:45.000Z</time>
      </trkpt>
      <trkpt lat="45.1505" lon="5.816">
        <ele>579</ele>
        <time>2011-04-22T16:26:49.000Z</time>
      </trkpt>
      <trkpt lat="45.15049" lon="5.81589">
        <ele>579.20001220703</ele>
        <time>2011-04-22T16:26:52.000Z</time>
      </trkpt>
      <trkpt lat="45.15049" lon="5.81586">
        <ele>579.20001220703</ele>
        <time>2011-04-22T16:26:53.000Z</time>
      </trkpt>
      <trkpt lat="45.15055" lon="5.81576">
        <ele>580.40002441406</ele>
        <time>2011-04-22T16:26:57.000Z</time>
      </trkpt>
      <trkpt lat="45.15063" lon="5.81574">
        <ele>580.79998779297</ele>
        <time>2011-04-22T16:27:01.000Z</time>
      </trkpt>
      <trkpt lat="45.15073" lon="5.81573">
        <ele>581</ele>
        <time>2011-04-22T16:27:06.000Z</time>
      </trkpt>
      <trkpt lat="45.1508" lon="5.81573">
        <ele>581</ele>
        <time>2011-04-22T16:27:10.000Z</time>
      </trkpt>
      <trkpt lat="45.15083" lon="5.81574">
        <ele>580.79998779297</ele>
        <time>2011-04-22T16:27:12.000Z</time>
      </trkpt>
      <trkpt lat="45.15089" lon="5.81576">
        <ele>580.59997558594</ele>
        <time>2011-04-22T16:27:15.000Z</time>
      </trkpt>
      <trkpt lat="45.15099" lon="5.81583">
        <ele>579.40002441406</ele>
        <time>2011-04-22T16:27:20.000Z</time>
      </trkpt>
      <trkpt lat="45.151" lon="5.81585">
        <ele>579.40002441406</ele>
        <time>2011-04-22T16:27:21.000Z</time>
      </trkpt>
      <trkpt lat="45.15101" lon="5.81585">
        <ele>579.40002441406</ele>
        <time>2011-04-22T16:27:22.000Z</time>
      </trkpt>
      <trkpt lat="45.15107" lon="5.81589">
        <ele>579.40002441406</ele>
        <time>2011-04-22T16:27:25.000Z</time>
      </trkpt>
      <trkpt lat="45.15112" lon="5.81593">
        <ele>579.20001220703</ele>
        <time>2011-04-22T16:27:29.000Z</time>
      </trkpt>
      <trkpt lat="45.15115" lon="5.81595">
        <ele>579.20001220703</ele>
        <time>2011-04-22T16:27:31.000Z</time>
      </trkpt>
      <trkpt lat="45.15117" lon="5.81595">
        <ele>579.20001220703</ele>
        <time>2011-04-22T16:27:32.000Z</time>
      </trkpt>
      <trkpt lat="45.15124" lon="5.81596">
        <ele>579.40002441406</ele>
        <time>2011-04-22T16:27:36.000Z</time>
      </trkpt>
      <trkpt lat="45.15133" lon="5.81598">
        <ele>579.20001220703</ele>
        <time>2011-04-22T16:27:42.000Z</time>
      </trkpt>
      <trkpt lat="45.15137" lon="5.81597">
        <ele>579.40002441406</ele>
        <time>2011-04-22T16:27:45.000Z</time>
      </trkpt>
      <trkpt lat="45.15141" lon="5.81598">
        <ele>579.40002441406</ele>
        <time>2011-04-22T16:27:46.000Z</time>
      </trkpt>
      <trkpt lat="45.15142" lon="5.81598">
        <ele>579.40002441406</ele>
        <time>2011-04-22T16:27:47.000Z</time>
      </trkpt>
      <trkpt lat="45.15144" lon="5.81599">
        <ele>579.40002441406</ele>
        <time>2011-04-22T16:27:48.000Z</time>
      </trkpt>
      <trkpt lat="45.15149" lon="5.816">
        <ele>579.40002441406</ele>
        <time>2011-04-22T16:27:51.000Z</time>
      </trkpt>
      <trkpt lat="45.15156" lon="5.81601">
        <ele>579.40002441406</ele>
        <time>2011-04-22T16:27:53.000Z</time>
      </trkpt>
      <trkpt lat="45.15161" lon="5.81601">
        <ele>579.40002441406</ele>
        <time>2011-04-22T16:27:55.000Z</time>
      </trkpt>
      <trkpt lat="45.15172" lon="5.81601">
        <ele>579.79998779297</ele>
        <time>2011-04-22T16:28:00.000Z</time>
      </trkpt>
      <trkpt lat="45.15175" lon="5.816">
        <ele>580.20001220703</ele>
        <time>2011-04-22T16:28:02.000Z</time>
      </trkpt>
      <trkpt lat="45.15186" lon="5.816">
        <ele>580.79998779297</ele>
        <time>2011-04-22T16:28:07.000Z</time>
      </trkpt>
      <trkpt lat="45.15195" lon="5.816">
        <ele>581.40002441406</ele>
        <time>2011-04-22T16:28:11.000Z</time>
      </trkpt>
      <trkpt lat="45.15199" lon="5.816">
        <ele>581.59997558594</ele>
        <time>2011-04-22T16:28:13.000Z</time>
      </trkpt>
      <trkpt lat="45.1521" lon="5.81599">
        <ele>582.40002441406</ele>
        <time>2011-04-22T16:28:18.000Z</time>
      </trkpt>
      <trkpt lat="45.15214" lon="5.81598">
        <ele>583</ele>
        <time>2011-04-22T16:28:20.000Z</time>
      </trkpt>
      <trkpt lat="45.15221" lon="5.81597">
        <ele>583.59997558594</ele>
        <time>2011-04-22T16:28:23.000Z</time>
      </trkpt>
      <trkpt lat="45.15225" lon="5.81596">
        <ele>584.20001220703</ele>
        <time>2011-04-22T16:28:25.000Z</time>
      </trkpt>
      <trkpt lat="45.15233" lon="5.81591">
        <ele>585.59997558594</ele>
        <time>2011-04-22T16:28:29.000Z</time>
      </trkpt>
      <trkpt lat="45.15241" lon="5.81587">
        <ele>587.20001220703</ele>
        <time>2011-04-22T16:28:34.000Z</time>
      </trkpt>
      <trkpt lat="45.15249" lon="5.81581">
        <ele>589.40002441406</ele>
        <time>2011-04-22T16:28:39.000Z</time>
      </trkpt>
      <trkpt lat="45.15251" lon="5.8158">
        <ele>589.79998779297</ele>
        <time>2011-04-22T16:28:40.000Z</time>
      </trkpt>
      <trkpt lat="45.15259" lon="5.81576">
        <ele>590.20001220703</ele>
        <time>2011-04-22T16:28:44.000Z</time>
      </trkpt>
      <trkpt lat="45.15267" lon="5.81569">
        <ele>591.79998779297</ele>
        <time>2011-04-22T16:28:49.000Z</time>
      </trkpt>
      <trkpt lat="45.15268" lon="5.81567">
        <ele>592</ele>
        <time>2011-04-22T16:28:50.000Z</time>
      </trkpt>
      <trkpt lat="45.15276" lon="5.8156">
        <ele>593.40002441406</ele>
        <time>2011-04-22T16:28:55.000Z</time>
      </trkpt>
      <trkpt lat="45.15277" lon="5.81559">
        <ele>593.79998779297</ele>
        <time>2011-04-22T16:28:56.000Z</time>
      </trkpt>
      <trkpt lat="45.15283" lon="5.81553">
        <ele>595</ele>
        <time>2011-04-22T16:29:00.000Z</time>
      </trkpt>
      <trkpt lat="45.15285" lon="5.81552">
        <ele>595.20001220703</ele>
        <time>2011-04-22T16:29:01.000Z</time>
      </trkpt>
      <trkpt lat="45.15291" lon="5.81546">
        <ele>596.20001220703</ele>
        <time>2011-04-22T16:29:06.000Z</time>
      </trkpt>
      <trkpt lat="45.15293" lon="5.81546">
        <ele>596.20001220703</ele>
        <time>2011-04-22T16:29:08.000Z</time>
      </trkpt>
      <trkpt lat="45.15297" lon="5.81545">
        <ele>596.40002441406</ele>
        <time>2011-04-22T16:29:12.000Z</time>
      </trkpt>
      <trkpt lat="45.15303" lon="5.81542">
        <ele>596.79998779297</ele>
        <time>2011-04-22T16:29:15.000Z</time>
      </trkpt>
      <trkpt lat="45.15306" lon="5.8154">
        <ele>597</ele>
        <time>2011-04-22T16:29:17.000Z</time>
      </trkpt>
      <trkpt lat="45.15312" lon="5.81536">
        <ele>597.79998779297</ele>
        <time>2011-04-22T16:29:22.000Z</time>
      </trkpt>
      <trkpt lat="45.15321" lon="5.81532">
        <ele>598.40002441406</ele>
        <time>2011-04-22T16:29:27.000Z</time>
      </trkpt>
      <trkpt lat="45.15322" lon="5.81531">
        <ele>598.59997558594</ele>
        <time>2011-04-22T16:29:28.000Z</time>
      </trkpt>
      <trkpt lat="45.15334" lon="5.81518">
        <ele>601.20001220703</ele>
        <time>2011-04-22T16:29:37.000Z</time>
      </trkpt>
      <trkpt lat="45.15336" lon="5.81517">
        <ele>601.20001220703</ele>
        <time>2011-04-22T16:29:38.000Z</time>
      </trkpt>
      <trkpt lat="45.15338" lon="5.81516">
        <ele>601.40002441406</ele>
        <time>2011-04-22T16:29:39.000Z</time>
      </trkpt>
      <trkpt lat="45.15343" lon="5.81511">
        <ele>602.20001220703</ele>
        <time>2011-04-22T16:29:41.000Z</time>
      </trkpt>
      <trkpt lat="45.15352" lon="5.81502">
        <ele>603.40002441406</ele>
        <time>2011-04-22T16:29:45.000Z</time>
      </trkpt>
      <trkpt lat="45.15354" lon="5.81501">
        <ele>603.40002441406</ele>
        <time>2011-04-22T16:29:46.000Z</time>
      </trkpt>
      <trkpt lat="45.15359" lon="5.81498">
        <ele>604</ele>
        <time>2011-04-22T16:29:48.000Z</time>
      </trkpt>
      <trkpt lat="45.15365" lon="5.81494">
        <ele>605</ele>
        <time>2011-04-22T16:29:51.000Z</time>
      </trkpt>
      <trkpt lat="45.15369" lon="5.81491">
        <ele>605.59997558594</ele>
        <time>2011-04-22T16:29:53.000Z</time>
      </trkpt>
      <trkpt lat="45.15375" lon="5.81486">
        <ele>606.79998779297</ele>
        <time>2011-04-22T16:29:56.000Z</time>
      </trkpt>
      <trkpt lat="45.15382" lon="5.81481">
        <ele>607.59997558594</ele>
        <time>2011-04-22T16:30:00.000Z</time>
      </trkpt>
      <trkpt lat="45.15385" lon="5.8148">
        <ele>607.59997558594</ele>
        <time>2011-04-22T16:30:01.000Z</time>
      </trkpt>
      <trkpt lat="45.15388" lon="5.81478">
        <ele>608.20001220703</ele>
        <time>2011-04-22T16:30:02.000Z</time>
      </trkpt>
      <trkpt lat="45.15394" lon="5.81474">
        <ele>609</ele>
        <time>2011-04-22T16:30:05.000Z</time>
      </trkpt>
      <trkpt lat="45.15397" lon="5.81475">
        <ele>608.79998779297</ele>
        <time>2011-04-22T16:30:06.000Z</time>
      </trkpt>
      <trkpt lat="45.15405" lon="5.81475">
        <ele>608</ele>
        <time>2011-04-22T16:30:09.000Z</time>
      </trkpt>
      <trkpt lat="45.15407" lon="5.81475">
        <ele>607.79998779297</ele>
        <time>2011-04-22T16:30:10.000Z</time>
      </trkpt>
      <trkpt lat="45.15415" lon="5.81474">
        <ele>607.79998779297</ele>
        <time>2011-04-22T16:30:15.000Z</time>
      </trkpt>
      <trkpt lat="45.15423" lon="5.81468">
        <ele>609.40002441406</ele>
        <time>2011-04-22T16:30:20.000Z</time>
      </trkpt>
      <trkpt lat="45.15424" lon="5.81466">
        <ele>609.59997558594</ele>
        <time>2011-04-22T16:30:21.000Z</time>
      </trkpt>
      <trkpt lat="45.1543" lon="5.81461">
        <ele>611.20001220703</ele>
        <time>2011-04-22T16:30:25.000Z</time>
      </trkpt>
      <trkpt lat="45.15438" lon="5.81455">
        <ele>612.79998779297</ele>
        <time>2011-04-22T16:30:30.000Z</time>
      </trkpt>
      <trkpt lat="45.15439" lon="5.81454">
        <ele>613</ele>
        <time>2011-04-22T16:30:31.000Z</time>
      </trkpt>
      <trkpt lat="45.15444" lon="5.8145">
        <ele>614.40002441406</ele>
        <time>2011-04-22T16:30:35.000Z</time>
      </trkpt>
      <trkpt lat="45.15445" lon="5.81449">
        <ele>614.59997558594</ele>
        <time>2011-04-22T16:30:36.000Z</time>
      </trkpt>
      <trkpt lat="45.1545" lon="5.81448">
        <ele>614.79998779297</ele>
        <time>2011-04-22T16:30:41.000Z</time>
      </trkpt>
      <trkpt lat="45.15455" lon="5.81443">
        <ele>616.20001220703</ele>
        <time>2011-04-22T16:30:45.000Z</time>
      </trkpt>
      <trkpt lat="45.15456" lon="5.81442">
        <ele>616.59997558594</ele>
        <time>2011-04-22T16:30:46.000Z</time>
      </trkpt>
      <trkpt lat="45.1546" lon="5.81439">
        <ele>617.40002441406</ele>
        <time>2011-04-22T16:30:49.000Z</time>
      </trkpt>
      <trkpt lat="45.15461" lon="5.81438">
        <ele>617.79998779297</ele>
        <time>2011-04-22T16:30:50.000Z</time>
      </trkpt>
      <trkpt lat="45.15463" lon="5.81437">
        <ele>618</ele>
        <time>2011-04-22T16:30:51.000Z</time>
      </trkpt>
      <trkpt lat="45.15469" lon="5.81434">
        <ele>619</ele>
        <time>2011-04-22T16:30:55.000Z</time>
      </trkpt>
      <trkpt lat="45.1547" lon="5.81431">
        <ele>620.40002441406</ele>
        <time>2011-04-22T16:30:58.000Z</time>
      </trkpt>
      <trkpt lat="45.1547" lon="5.81428">
        <ele>621.59997558594</ele>
        <time>2011-04-22T16:31:00.000Z</time>
      </trkpt>
      <trkpt lat="45.1547" lon="5.81425">
        <ele>622.79998779297</ele>
        <time>2011-04-22T16:31:02.000Z</time>
      </trkpt>
      <trkpt lat="45.15471" lon="5.81424">
        <ele>623.20001220703</ele>
        <time>2011-04-22T16:31:03.000Z</time>
      </trkpt>
      <trkpt lat="45.15473" lon="5.81416">
        <ele>626.40002441406</ele>
        <time>2011-04-22T16:31:08.000Z</time>
      </trkpt>
      <trkpt lat="45.15473" lon="5.81414">
        <ele>627.20001220703</ele>
        <time>2011-04-22T16:31:10.000Z</time>
      </trkpt>
      <trkpt lat="45.15475" lon="5.81412">
        <ele>627.59997558594</ele>
        <time>2011-04-22T16:31:13.000Z</time>
      </trkpt>
      <trkpt lat="45.15477" lon="5.81412">
        <ele>627.79998779297</ele>
        <time>2011-04-22T16:31:15.000Z</time>
      </trkpt>
      <trkpt lat="45.15481" lon="5.81409">
        <ele>628.40002441406</ele>
        <time>2011-04-22T16:31:19.000Z</time>
      </trkpt>
      <trkpt lat="45.15482" lon="5.81409">
        <ele>628.59997558594</ele>
        <time>2011-04-22T16:31:20.000Z</time>
      </trkpt>
      <trkpt lat="45.15484" lon="5.81407">
        <ele>629</ele>
        <time>2011-04-22T16:31:22.000Z</time>
      </trkpt>
      <trkpt lat="45.15487" lon="5.81405">
        <ele>629.79998779297</ele>
        <time>2011-04-22T16:31:25.000Z</time>
      </trkpt>
      <trkpt lat="45.15489" lon="5.81402">
        <ele>630.59997558594</ele>
        <time>2011-04-22T16:31:28.000Z</time>
      </trkpt>
      <trkpt lat="45.15492" lon="5.814">
        <ele>631.20001220703</ele>
        <time>2011-04-22T16:31:31.000Z</time>
      </trkpt>
      <trkpt lat="45.15493" lon="5.81399">
        <ele>631.40002441406</ele>
        <time>2011-04-22T16:31:32.000Z</time>
      </trkpt>
      <trkpt lat="45.15496" lon="5.81394">
        <ele>632.79998779297</ele>
        <time>2011-04-22T16:31:37.000Z</time>
      </trkpt>
      <trkpt lat="45.15497" lon="5.81393">
        <ele>633.20001220703</ele>
        <time>2011-04-22T16:31:38.000Z</time>
      </trkpt>
      <trkpt lat="45.155" lon="5.8139">
        <ele>634</ele>
        <time>2011-04-22T16:31:42.000Z</time>
      </trkpt>
      <trkpt lat="45.15503" lon="5.81385">
        <ele>635.40002441406</ele>
        <time>2011-04-22T16:31:47.000Z</time>
      </trkpt>
      <trkpt lat="45.15505" lon="5.81382">
        <ele>636.40002441406</ele>
        <time>2011-04-22T16:31:50.000Z</time>
      </trkpt>
      <trkpt lat="45.15506" lon="5.81381">
        <ele>636.59997558594</ele>
        <time>2011-04-22T16:31:52.000Z</time>
      </trkpt>
      <trkpt lat="45.15507" lon="5.81381">
        <ele>636.59997558594</ele>
        <time>2011-04-22T16:31:53.000Z</time>
      </trkpt>
      <trkpt lat="45.15513" lon="5.81378">
        <ele>637.20001220703</ele>
        <time>2011-04-22T16:31:59.000Z</time>
      </trkpt>
      <trkpt lat="45.15514" lon="5.81378">
        <ele>637.40002441406</ele>
        <time>2011-04-22T16:32:00.000Z</time>
      </trkpt>
      <trkpt lat="45.15517" lon="5.81373">
        <ele>639</ele>
        <time>2011-04-22T16:32:05.000Z</time>
      </trkpt>
      <trkpt lat="45.15519" lon="5.81371">
        <ele>639.59997558594</ele>
        <time>2011-04-22T16:32:07.000Z</time>
      </trkpt>
      <trkpt lat="45.1552" lon="5.81369">
        <ele>640.20001220703</ele>
        <time>2011-04-22T16:32:09.000Z</time>
      </trkpt>
      <trkpt lat="45.15523" lon="5.81366">
        <ele>641</ele>
        <time>2011-04-22T16:32:12.000Z</time>
      </trkpt>
      <trkpt lat="45.15525" lon="5.81365">
        <ele>641.20001220703</ele>
        <time>2011-04-22T16:32:15.000Z</time>
      </trkpt>
      <trkpt lat="45.15528" lon="5.81364">
        <ele>641.79998779297</ele>
        <time>2011-04-22T16:32:18.000Z</time>
      </trkpt>
      <trkpt lat="45.15529" lon="5.81364">
        <ele>641.59997558594</ele>
        <time>2011-04-22T16:32:19.000Z</time>
      </trkpt>
      <trkpt lat="45.15529" lon="5.81363">
        <ele>641.59997558594</ele>
        <time>2011-04-22T16:32:20.000Z</time>
      </trkpt>
      <trkpt lat="45.15536" lon="5.81358">
        <ele>643.59997558594</ele>
        <time>2011-04-22T16:32:27.000Z</time>
      </trkpt>
      <trkpt lat="45.15544" lon="5.81352">
        <ele>645.40002441406</ele>
        <time>2011-04-22T16:32:35.000Z</time>
      </trkpt>
      <trkpt lat="45.15545" lon="5.8135">
        <ele>645.79998779297</ele>
        <time>2011-04-22T16:32:36.000Z</time>
      </trkpt>
      <trkpt lat="45.15548" lon="5.81349">
        <ele>646.20001220703</ele>
        <time>2011-04-22T16:32:39.000Z</time>
      </trkpt>
      <trkpt lat="45.15552" lon="5.81348">
        <ele>646.40002441406</ele>
        <time>2011-04-22T16:32:43.000Z</time>
      </trkpt>
      <trkpt lat="45.15559" lon="5.81348">
        <ele>646.40002441406</ele>
        <time>2011-04-22T16:32:48.000Z</time>
      </trkpt>
      <trkpt lat="45.1556" lon="5.81347">
        <ele>646.59997558594</ele>
        <time>2011-04-22T16:32:49.000Z</time>
      </trkpt>
      <trkpt lat="45.15563" lon="5.81347">
        <ele>646.40002441406</ele>
        <time>2011-04-22T16:32:52.000Z</time>
      </trkpt>
      <trkpt lat="45.15564" lon="5.81347">
        <ele>646.20001220703</ele>
        <time>2011-04-22T16:32:53.000Z</time>
      </trkpt>
      <trkpt lat="45.1557" lon="5.81349">
        <ele>645.40002441406</ele>
        <time>2011-04-22T16:32:57.000Z</time>
      </trkpt>
      <trkpt lat="45.15576" lon="5.81349">
        <ele>645.20001220703</ele>
        <time>2011-04-22T16:33:03.000Z</time>
      </trkpt>
      <trkpt lat="45.15577" lon="5.8135">
        <ele>645</ele>
        <time>2011-04-22T16:33:04.000Z</time>
      </trkpt>
      <trkpt lat="45.15581" lon="5.8135">
        <ele>644.59997558594</ele>
        <time>2011-04-22T16:33:07.000Z</time>
      </trkpt>
      <trkpt lat="45.15583" lon="5.81348">
        <ele>645.40002441406</ele>
        <time>2011-04-22T16:33:10.000Z</time>
      </trkpt>
      <trkpt lat="45.15584" lon="5.81347">
        <ele>645.59997558594</ele>
        <time>2011-04-22T16:33:11.000Z</time>
      </trkpt>
      <trkpt lat="45.15587" lon="5.8134">
        <ele>647.40002441406</ele>
        <time>2011-04-22T16:33:16.000Z</time>
      </trkpt>
      <trkpt lat="45.1559" lon="5.81337">
        <ele>647.79998779297</ele>
        <time>2011-04-22T16:33:20.000Z</time>
      </trkpt>
      <trkpt lat="45.15591" lon="5.81336">
        <ele>648</ele>
        <time>2011-04-22T16:33:22.000Z</time>
      </trkpt>
      <trkpt lat="45.15595" lon="5.81331">
        <ele>648.59997558594</ele>
        <time>2011-04-22T16:33:27.000Z</time>
      </trkpt>
      <trkpt lat="45.15595" lon="5.81328">
        <ele>649.79998779297</ele>
        <time>2011-04-22T16:33:28.000Z</time>
      </trkpt>
      <trkpt lat="45.15598" lon="5.81319">
        <ele>651.59997558594</ele>
        <time>2011-04-22T16:33:34.000Z</time>
      </trkpt>
      <trkpt lat="45.15599" lon="5.81316">
        <ele>652.40002441406</ele>
        <time>2011-04-22T16:33:36.000Z</time>
      </trkpt>
      <trkpt lat="45.15599" lon="5.81307">
        <ele>655.20001220703</ele>
        <time>2011-04-22T16:33:40.000Z</time>
      </trkpt>
      <trkpt lat="45.15599" lon="5.81303">
        <ele>656.40002441406</ele>
        <time>2011-04-22T16:33:42.000Z</time>
      </trkpt>
      <trkpt lat="45.156" lon="5.81302">
        <ele>656.59997558594</ele>
        <time>2011-04-22T16:33:43.000Z</time>
      </trkpt>
      <trkpt lat="45.15602" lon="5.81298">
        <ele>657.40002441406</ele>
        <time>2011-04-22T16:33:46.000Z</time>
      </trkpt>
      <trkpt lat="45.15602" lon="5.81297">
        <ele>657.59997558594</ele>
        <time>2011-04-22T16:33:47.000Z</time>
      </trkpt>
      <trkpt lat="45.15604" lon="5.81288">
        <ele>660</ele>
        <time>2011-04-22T16:33:54.000Z</time>
      </trkpt>
      <trkpt lat="45.15603" lon="5.81285">
        <ele>661.20001220703</ele>
        <time>2011-04-22T16:33:56.000Z</time>
      </trkpt>
      <trkpt lat="45.15603" lon="5.81281">
        <ele>662.40002441406</ele>
        <time>2011-04-22T16:33:58.000Z</time>
      </trkpt>
      <trkpt lat="45.15603" lon="5.81276">
        <ele>664</ele>
        <time>2011-04-22T16:34:00.000Z</time>
      </trkpt>
      <trkpt lat="45.15605" lon="5.81272">
        <ele>665</ele>
        <time>2011-04-22T16:34:04.000Z</time>
      </trkpt>
      <trkpt lat="45.15603" lon="5.81259">
        <ele>669.59997558594</ele>
        <time>2011-04-22T16:34:10.000Z</time>
      </trkpt>
      <trkpt lat="45.15602" lon="5.81256">
        <ele>670.59997558594</ele>
        <time>2011-04-22T16:34:11.000Z</time>
      </trkpt>
      <trkpt lat="45.15603" lon="5.81255">
        <ele>670.79998779297</ele>
        <time>2011-04-22T16:34:12.000Z</time>
      </trkpt>
      <trkpt lat="45.15601" lon="5.81248">
        <ele>673.79998779297</ele>
        <time>2011-04-22T16:34:16.000Z</time>
      </trkpt>
      <trkpt lat="45.15601" lon="5.81246">
        <ele>674.20001220703</ele>
        <time>2011-04-22T16:34:17.000Z</time>
      </trkpt>
      <trkpt lat="45.15601" lon="5.81245">
        <ele>674.79998779297</ele>
        <time>2011-04-22T16:34:18.000Z</time>
      </trkpt>
      <trkpt lat="45.156" lon="5.81243">
        <ele>675.59997558594</ele>
        <time>2011-04-22T16:34:19.000Z</time>
      </trkpt>
      <trkpt lat="45.156" lon="5.8124">
        <ele>676.40002441406</ele>
        <time>2011-04-22T16:34:21.000Z</time>
      </trkpt>
      <trkpt lat="45.15599" lon="5.81234">
        <ele>678.79998779297</ele>
        <time>2011-04-22T16:34:26.000Z</time>
      </trkpt>
      <trkpt lat="45.15597" lon="5.81232">
        <ele>679.79998779297</ele>
        <time>2011-04-22T16:34:28.000Z</time>
      </trkpt>
      <trkpt lat="45.15594" lon="5.81231">
        <ele>681.20001220703</ele>
        <time>2011-04-22T16:34:32.000Z</time>
      </trkpt>
      <trkpt lat="45.15593" lon="5.81231">
        <ele>681.79998779297</ele>
        <time>2011-04-22T16:34:34.000Z</time>
      </trkpt>
      <trkpt lat="45.15589" lon="5.81229">
        <ele>683.59997558594</ele>
        <time>2011-04-22T16:34:36.000Z</time>
      </trkpt>
      <trkpt lat="45.15587" lon="5.81229">
        <ele>684.20001220703</ele>
        <time>2011-04-22T16:34:37.000Z</time>
      </trkpt>
      <trkpt lat="45.15585" lon="5.81229">
        <ele>684.79998779297</ele>
        <time>2011-04-22T16:34:39.000Z</time>
      </trkpt>
      <trkpt lat="45.15581" lon="5.8123">
        <ele>685.59997558594</ele>
        <time>2011-04-22T16:34:42.000Z</time>
      </trkpt>
      <trkpt lat="45.15573" lon="5.81235">
        <ele>685.79998779297</ele>
        <time>2011-04-22T16:34:48.000Z</time>
      </trkpt>
      <trkpt lat="45.15571" lon="5.81236">
        <ele>686</ele>
        <time>2011-04-22T16:34:49.000Z</time>
      </trkpt>
      <trkpt lat="45.1557" lon="5.81236">
        <ele>686</ele>
        <time>2011-04-22T16:34:50.000Z</time>
      </trkpt>
      <trkpt lat="45.15565" lon="5.81239">
        <ele>686.20001220703</ele>
        <time>2011-04-22T16:34:54.000Z</time>
      </trkpt>
      <trkpt lat="45.15563" lon="5.81241">
        <ele>686.20001220703</ele>
        <time>2011-04-22T16:34:56.000Z</time>
      </trkpt>
      <trkpt lat="45.15557" lon="5.81243">
        <ele>686.59997558594</ele>
        <time>2011-04-22T16:35:00.000Z</time>
      </trkpt>
      <trkpt lat="45.15553" lon="5.81243">
        <ele>687.20001220703</ele>
        <time>2011-04-22T16:35:02.000Z</time>
      </trkpt>
      <trkpt lat="45.1555" lon="5.81245">
        <ele>687.20001220703</ele>
        <time>2011-04-22T16:35:04.000Z</time>
      </trkpt>
      <trkpt lat="45.15544" lon="5.81248">
        <ele>687</ele>
        <time>2011-04-22T16:35:08.000Z</time>
      </trkpt>
      <trkpt lat="45.15542" lon="5.81248">
        <ele>687.40002441406</ele>
        <time>2011-04-22T16:35:10.000Z</time>
      </trkpt>
      <trkpt lat="45.15541" lon="5.81249">
        <ele>687.40002441406</ele>
        <time>2011-04-22T16:35:11.000Z</time>
      </trkpt>
      <trkpt lat="45.1554" lon="5.8125">
        <ele>687.40002441406</ele>
        <time>2011-04-22T16:35:12.000Z</time>
      </trkpt>
      <trkpt lat="45.15535" lon="5.81252">
        <ele>687.59997558594</ele>
        <time>2011-04-22T16:35:16.000Z</time>
      </trkpt>
      <trkpt lat="45.15533" lon="5.81252">
        <ele>687.79998779297</ele>
        <time>2011-04-22T16:35:17.000Z</time>
      </trkpt>
      <trkpt lat="45.15525" lon="5.81254">
        <ele>688</ele>
        <time>2011-04-22T16:35:22.000Z</time>
      </trkpt>
      <trkpt lat="45.1552" lon="5.81255">
        <ele>688.59997558594</ele>
        <time>2011-04-22T16:35:25.000Z</time>
      </trkpt>
      <trkpt lat="45.15515" lon="5.81256">
        <ele>689</ele>
        <time>2011-04-22T16:35:28.000Z</time>
      </trkpt>
      <trkpt lat="45.15514" lon="5.81257">
        <ele>688.79998779297</ele>
        <time>2011-04-22T16:35:29.000Z</time>
      </trkpt>
      <trkpt lat="45.15512" lon="5.81259">
        <ele>688</ele>
        <time>2011-04-22T16:35:31.000Z</time>
      </trkpt>
      <trkpt lat="45.15507" lon="5.81263">
        <ele>687.40002441406</ele>
        <time>2011-04-22T16:35:34.000Z</time>
      </trkpt>
      <trkpt lat="45.15505" lon="5.81262">
        <ele>687.79998779297</ele>
        <time>2011-04-22T16:35:35.000Z</time>
      </trkpt>
      <trkpt lat="45.15499" lon="5.81263">
        <ele>688.59997558594</ele>
        <time>2011-04-22T16:35:39.000Z</time>
      </trkpt>
      <trkpt lat="45.15497" lon="5.81265">
        <ele>687.59997558594</ele>
        <time>2011-04-22T16:35:41.000Z</time>
      </trkpt>
      <trkpt lat="45.15494" lon="5.81266">
        <ele>687.40002441406</ele>
        <time>2011-04-22T16:35:43.000Z</time>
      </trkpt>
      <trkpt lat="45.15487" lon="5.81262">
        <ele>690.40002441406</ele>
        <time>2011-04-22T16:35:48.000Z</time>
      </trkpt>
      <trkpt lat="45.15481" lon="5.81264">
        <ele>690.59997558594</ele>
        <time>2011-04-22T16:35:53.000Z</time>
      </trkpt>
      <trkpt lat="45.15478" lon="5.81264">
        <ele>690.59997558594</ele>
        <time>2011-04-22T16:35:55.000Z</time>
      </trkpt>
      <trkpt lat="45.15475" lon="5.8126">
        <ele>693.40002441406</ele>
        <time>2011-04-22T16:35:58.000Z</time>
      </trkpt>
      <trkpt lat="45.15472" lon="5.81258">
        <ele>694.40002441406</ele>
        <time>2011-04-22T16:36:00.000Z</time>
      </trkpt>
      <trkpt lat="45.15464" lon="5.81258">
        <ele>695.59997558594</ele>
        <time>2011-04-22T16:36:05.000Z</time>
      </trkpt>
      <trkpt lat="45.15459" lon="5.81258">
        <ele>696.20001220703</ele>
        <time>2011-04-22T16:36:10.000Z</time>
      </trkpt>
      <trkpt lat="45.15458" lon="5.81257">
        <ele>697</ele>
        <time>2011-04-22T16:36:11.000Z</time>
      </trkpt>
      <trkpt lat="45.15449" lon="5.8126">
        <ele>696.40002441406</ele>
        <time>2011-04-22T16:36:17.000Z</time>
      </trkpt>
      <trkpt lat="45.15447" lon="5.81261">
        <ele>696</ele>
        <time>2011-04-22T16:36:18.000Z</time>
      </trkpt>
      <trkpt lat="45.15441" lon="5.81263">
        <ele>696</ele>
        <time>2011-04-22T16:36:23.000Z</time>
      </trkpt>
      <trkpt lat="45.1544" lon="5.81264">
        <ele>695.59997558594</ele>
        <time>2011-04-22T16:36:24.000Z</time>
      </trkpt>
      <trkpt lat="45.15435" lon="5.81263">
        <ele>696.79998779297</ele>
        <time>2011-04-22T16:36:29.000Z</time>
      </trkpt>
      <trkpt lat="45.15434" lon="5.81263">
        <ele>697.20001220703</ele>
        <time>2011-04-22T16:36:30.000Z</time>
      </trkpt>
      <trkpt lat="45.15429" lon="5.81257">
        <ele>700.59997558594</ele>
        <time>2011-04-22T16:36:35.000Z</time>
      </trkpt>
      <trkpt lat="45.15423" lon="5.81257">
        <ele>701.40002441406</ele>
        <time>2011-04-22T16:36:39.000Z</time>
      </trkpt>
      <trkpt lat="45.1542" lon="5.81256">
        <ele>702.59997558594</ele>
        <time>2011-04-22T16:36:41.000Z</time>
      </trkpt>
      <trkpt lat="45.15418" lon="5.81255">
        <ele>703.40002441406</ele>
        <time>2011-04-22T16:36:43.000Z</time>
      </trkpt>
      <trkpt lat="45.15414" lon="5.81251">
        <ele>705.40002441406</ele>
        <time>2011-04-22T16:36:47.000Z</time>
      </trkpt>
      <trkpt lat="45.15407" lon="5.8125">
        <ele>706</ele>
        <time>2011-04-22T16:36:52.000Z</time>
      </trkpt>
      <trkpt lat="45.15405" lon="5.8125">
        <ele>706.40002441406</ele>
        <time>2011-04-22T16:36:53.000Z</time>
      </trkpt>
      <trkpt lat="45.15401" lon="5.8125">
        <ele>706.40002441406</ele>
        <time>2011-04-22T16:36:56.000Z</time>
      </trkpt>
      <trkpt lat="45.15398" lon="5.8125">
        <ele>706.40002441406</ele>
        <time>2011-04-22T16:36:58.000Z</time>
      </trkpt>
      <trkpt lat="45.1539" lon="5.81248">
        <ele>707.40002441406</ele>
        <time>2011-04-22T16:37:03.000Z</time>
      </trkpt>
      <trkpt lat="45.15389" lon="5.81247">
        <ele>707.59997558594</ele>
        <time>2011-04-22T16:37:04.000Z</time>
      </trkpt>
      <trkpt lat="45.15387" lon="5.81247">
        <ele>708</ele>
        <time>2011-04-22T16:37:06.000Z</time>
      </trkpt>
      <trkpt lat="45.15385" lon="5.81246">
        <ele>708.40002441406</ele>
        <time>2011-04-22T16:37:07.000Z</time>
      </trkpt>
      <trkpt lat="45.15378" lon="5.81244">
        <ele>709</ele>
        <time>2011-04-22T16:37:12.000Z</time>
      </trkpt>
      <trkpt lat="45.15377" lon="5.81242">
        <ele>709.79998779297</ele>
        <time>2011-04-22T16:37:13.000Z</time>
      </trkpt>
      <trkpt lat="45.1537" lon="5.81238">
        <ele>711.40002441406</ele>
        <time>2011-04-22T16:37:17.000Z</time>
      </trkpt>
      <trkpt lat="45.15369" lon="5.81237">
        <ele>711.79998779297</ele>
        <time>2011-04-22T16:37:18.000Z</time>
      </trkpt>
      <trkpt lat="45.1536" lon="5.81235">
        <ele>712.59997558594</ele>
        <time>2011-04-22T16:37:23.000Z</time>
      </trkpt>
      <trkpt lat="45.15354" lon="5.81232">
        <ele>714</ele>
        <time>2011-04-22T16:37:27.000Z</time>
      </trkpt>
      <trkpt lat="45.15351" lon="5.81231">
        <ele>714.40002441406</ele>
        <time>2011-04-22T16:37:29.000Z</time>
      </trkpt>
      <trkpt lat="45.15341" lon="5.81222">
        <ele>717.20001220703</ele>
        <time>2011-04-22T16:37:35.000Z</time>
      </trkpt>
      <trkpt lat="45.15334" lon="5.81219">
        <ele>718.20001220703</ele>
        <time>2011-04-22T16:37:40.000Z</time>
      </trkpt>
      <trkpt lat="45.15333" lon="5.81218">
        <ele>718.59997558594</ele>
        <time>2011-04-22T16:37:41.000Z</time>
      </trkpt>
      <trkpt lat="45.15331" lon="5.81217">
        <ele>718.79998779297</ele>
        <time>2011-04-22T16:37:43.000Z</time>
      </trkpt>
      <trkpt lat="45.15324" lon="5.81215">
        <ele>718.79998779297</ele>
        <time>2011-04-22T16:37:47.000Z</time>
      </trkpt>
      <trkpt lat="45.15322" lon="5.81215">
        <ele>718.79998779297</ele>
        <time>2011-04-22T16:37:48.000Z</time>
      </trkpt>
      <trkpt lat="45.15315" lon="5.81214">
        <ele>718.40002441406</ele>
        <time>2011-04-22T16:37:52.000Z</time>
      </trkpt>
      <trkpt lat="45.15313" lon="5.81214">
        <ele>718.20001220703</ele>
        <time>2011-04-22T16:37:53.000Z</time>
      </trkpt>
      <trkpt lat="45.15311" lon="5.81213">
        <ele>718.20001220703</ele>
        <time>2011-04-22T16:37:54.000Z</time>
      </trkpt>
      <trkpt lat="45.15308" lon="5.81212">
        <ele>718.40002441406</ele>
        <time>2011-04-22T16:37:56.000Z</time>
      </trkpt>
      <trkpt lat="45.15301" lon="5.81203">
        <ele>720.40002441406</ele>
        <time>2011-04-22T16:38:00.000Z</time>
      </trkpt>
      <trkpt lat="45.15299" lon="5.812">
        <ele>721.40002441406</ele>
        <time>2011-04-22T16:38:01.000Z</time>
      </trkpt>
      <trkpt lat="45.15294" lon="5.8119">
        <ele>723.79998779297</ele>
        <time>2011-04-22T16:38:05.000Z</time>
      </trkpt>
      <trkpt lat="45.15293" lon="5.81189">
        <ele>724.20001220703</ele>
        <time>2011-04-22T16:38:06.000Z</time>
      </trkpt>
      <trkpt lat="45.15288" lon="5.81184">
        <ele>725.20001220703</ele>
        <time>2011-04-22T16:38:10.000Z</time>
      </trkpt>
      <trkpt lat="45.15286" lon="5.8118">
        <ele>726</ele>
        <time>2011-04-22T16:38:13.000Z</time>
      </trkpt>
      <trkpt lat="45.15282" lon="5.81175">
        <ele>727.20001220703</ele>
        <time>2011-04-22T16:38:17.000Z</time>
      </trkpt>
      <trkpt lat="45.15274" lon="5.8117">
        <ele>727.79998779297</ele>
        <time>2011-04-22T16:38:25.000Z</time>
      </trkpt>
      <trkpt lat="45.1527" lon="5.81169">
        <ele>727.40002441406</ele>
        <time>2011-04-22T16:38:29.000Z</time>
      </trkpt>
      <trkpt lat="45.15266" lon="5.81172">
        <ele>726.20001220703</ele>
        <time>2011-04-22T16:38:32.000Z</time>
      </trkpt>
      <trkpt lat="45.15265" lon="5.81173">
        <ele>726</ele>
        <time>2011-04-22T16:38:33.000Z</time>
      </trkpt>
      <trkpt lat="45.15262" lon="5.81174">
        <ele>725</ele>
        <time>2011-04-22T16:38:37.000Z</time>
      </trkpt>
      <trkpt lat="45.15261" lon="5.81169">
        <ele>726.59997558594</ele>
        <time>2011-04-22T16:38:40.000Z</time>
      </trkpt>
      <trkpt lat="45.15264" lon="5.81166">
        <ele>728</ele>
        <time>2011-04-22T16:38:45.000Z</time>
      </trkpt>
      <trkpt lat="45.15266" lon="5.81164">
        <ele>728.59997558594</ele>
        <time>2011-04-22T16:38:47.000Z</time>
      </trkpt>
      <trkpt lat="45.15275" lon="5.81156">
        <ele>732.40002441406</ele>
        <time>2011-04-22T16:38:54.000Z</time>
      </trkpt>
      <trkpt lat="45.15278" lon="5.81154">
        <ele>733.59997558594</ele>
        <time>2011-04-22T16:38:57.000Z</time>
      </trkpt>
      <trkpt lat="45.1528" lon="5.81151">
        <ele>734.79998779297</ele>
        <time>2011-04-22T16:39:01.000Z</time>
      </trkpt>
      <trkpt lat="45.15281" lon="5.8115">
        <ele>735.40002441406</ele>
        <time>2011-04-22T16:39:02.000Z</time>
      </trkpt>
      <trkpt lat="45.15282" lon="5.81147">
        <ele>736.59997558594</ele>
        <time>2011-04-22T16:39:05.000Z</time>
      </trkpt>
      <trkpt lat="45.15284" lon="5.81141">
        <ele>739</ele>
        <time>2011-04-22T16:39:10.000Z</time>
      </trkpt>
      <trkpt lat="45.15288" lon="5.81136">
        <ele>741.40002441406</ele>
        <time>2011-04-22T16:39:15.000Z</time>
      </trkpt>
      <trkpt lat="45.15292" lon="5.81134">
        <ele>742.59997558594</ele>
        <time>2011-04-22T16:39:20.000Z</time>
      </trkpt>
      <trkpt lat="45.15294" lon="5.81133">
        <ele>743.20001220703</ele>
        <time>2011-04-22T16:39:22.000Z</time>
      </trkpt>
      <trkpt lat="45.15296" lon="5.81133">
        <ele>743.59997558594</ele>
        <time>2011-04-22T16:39:26.000Z</time>
      </trkpt>
      <trkpt lat="45.15296" lon="5.81131">
        <ele>744.20001220703</ele>
        <time>2011-04-22T16:39:28.000Z</time>
      </trkpt>
      <trkpt lat="45.15297" lon="5.81131">
        <ele>744.20001220703</ele>
        <time>2011-04-22T16:39:29.000Z</time>
      </trkpt>
      <trkpt lat="45.15299" lon="5.8113">
        <ele>745</ele>
        <time>2011-04-22T16:39:32.000Z</time>
      </trkpt>
      <trkpt lat="45.15303" lon="5.81124">
        <ele>748</ele>
        <time>2011-04-22T16:39:40.000Z</time>
      </trkpt>
      <trkpt lat="45.15306" lon="5.81122">
        <ele>749.40002441406</ele>
        <time>2011-04-22T16:39:44.000Z</time>
      </trkpt>
      <trkpt lat="45.15308" lon="5.81119">
        <ele>750.59997558594</ele>
        <time>2011-04-22T16:39:49.000Z</time>
      </trkpt>
      <trkpt lat="45.15311" lon="5.81119">
        <ele>751.40002441406</ele>
        <time>2011-04-22T16:39:55.000Z</time>
      </trkpt>
      <trkpt lat="45.15315" lon="5.81117">
        <ele>752.79998779297</ele>
        <time>2011-04-22T16:40:00.000Z</time>
      </trkpt>
      <trkpt lat="45.15316" lon="5.81116">
        <ele>753.20001220703</ele>
        <time>2011-04-22T16:40:01.000Z</time>
      </trkpt>
      <trkpt lat="45.1532" lon="5.81115">
        <ele>754.59997558594</ele>
        <time>2011-04-22T16:40:06.000Z</time>
      </trkpt>
      <trkpt lat="45.15324" lon="5.8111">
        <ele>757.20001220703</ele>
        <time>2011-04-22T16:40:10.000Z</time>
      </trkpt>
      <trkpt lat="45.15325" lon="5.81109">
        <ele>757.59997558594</ele>
        <time>2011-04-22T16:40:11.000Z</time>
      </trkpt>
      <trkpt lat="45.15327" lon="5.81106">
        <ele>759.40002441406</ele>
        <time>2011-04-22T16:40:15.000Z</time>
      </trkpt>
      <trkpt lat="45.15334" lon="5.81102">
        <ele>762.20001220703</ele>
        <time>2011-04-22T16:40:21.000Z</time>
      </trkpt>
      <trkpt lat="45.15337" lon="5.81101">
        <ele>762.59997558594</ele>
        <time>2011-04-22T16:40:26.000Z</time>
      </trkpt>
      <trkpt lat="45.15338" lon="5.81099">
        <ele>763.40002441406</ele>
        <time>2011-04-22T16:40:30.000Z</time>
      </trkpt>
      <trkpt lat="45.15338" lon="5.81099">
        <ele>763.40002441406</ele>
        <time>2011-04-22T16:40:31.000Z</time>
      </trkpt>
      <trkpt lat="45.15342" lon="5.81097">
        <ele>764.40002441406</ele>
        <time>2011-04-22T16:40:39.000Z</time>
      </trkpt>
      <trkpt lat="45.15346" lon="5.81093">
        <ele>765.79998779297</ele>
        <time>2011-04-22T16:40:46.000Z</time>
      </trkpt>
      <trkpt lat="45.15348" lon="5.81088">
        <ele>767.59997558594</ele>
        <time>2011-04-22T16:40:51.000Z</time>
      </trkpt>
      <trkpt lat="45.15349" lon="5.81088">
        <ele>767.59997558594</ele>
        <time>2011-04-22T16:40:52.000Z</time>
      </trkpt>
      <trkpt lat="45.15355" lon="5.81083">
        <ele>769.40002441406</ele>
        <time>2011-04-22T16:40:57.000Z</time>
      </trkpt>
      <trkpt lat="45.15357" lon="5.81081">
        <ele>770</ele>
        <time>2011-04-22T16:41:00.000Z</time>
      </trkpt>
      <trkpt lat="45.15358" lon="5.8108">
        <ele>770.40002441406</ele>
        <time>2011-04-22T16:41:02.000Z</time>
      </trkpt>
      <trkpt lat="45.1536" lon="5.81076">
        <ele>771.79998779297</ele>
        <time>2011-04-22T16:41:06.000Z</time>
      </trkpt>
      <trkpt lat="45.1536" lon="5.81074">
        <ele>772.40002441406</ele>
        <time>2011-04-22T16:41:08.000Z</time>
      </trkpt>
      <trkpt lat="45.15365" lon="5.81071">
        <ele>773.40002441406</ele>
        <time>2011-04-22T16:41:14.000Z</time>
      </trkpt>
      <trkpt lat="45.15366" lon="5.81071">
        <ele>773.20001220703</ele>
        <time>2011-04-22T16:41:15.000Z</time>
      </trkpt>
      <trkpt lat="45.15367" lon="5.81071">
        <ele>773.40002441406</ele>
        <time>2011-04-22T16:41:17.000Z</time>
      </trkpt>
      <trkpt lat="45.1537" lon="5.81075">
        <ele>772</ele>
        <time>2011-04-22T16:41:22.000Z</time>
      </trkpt>
      <trkpt lat="45.15373" lon="5.81075">
        <ele>771.79998779297</ele>
        <time>2011-04-22T16:41:24.000Z</time>
      </trkpt>
      <trkpt lat="45.15377" lon="5.81075">
        <ele>771.59997558594</ele>
        <time>2011-04-22T16:41:28.000Z</time>
      </trkpt>
      <trkpt lat="45.15379" lon="5.81076">
        <ele>771.20001220703</ele>
        <time>2011-04-22T16:41:29.000Z</time>
      </trkpt>
      <trkpt lat="45.15379" lon="5.81075">
        <ele>771.40002441406</ele>
        <time>2011-04-22T16:41:30.000Z</time>
      </trkpt>
      <trkpt lat="45.15383" lon="5.81075">
        <ele>771.40002441406</ele>
        <time>2011-04-22T16:41:32.000Z</time>
      </trkpt>
      <trkpt lat="45.15389" lon="5.81077">
        <ele>770.59997558594</ele>
        <time>2011-04-22T16:41:35.000Z</time>
      </trkpt>
      <trkpt lat="45.15393" lon="5.81076">
        <ele>770.79998779297</ele>
        <time>2011-04-22T16:41:37.000Z</time>
      </trkpt>
      <trkpt lat="45.15401" lon="5.81074">
        <ele>771.40002441406</ele>
        <time>2011-04-22T16:41:43.000Z</time>
      </trkpt>
      <trkpt lat="45.15405" lon="5.81072">
        <ele>771.59997558594</ele>
        <time>2011-04-22T16:41:46.000Z</time>
      </trkpt>
      <trkpt lat="45.15407" lon="5.81072">
        <ele>771.79998779297</ele>
        <time>2011-04-22T16:41:49.000Z</time>
      </trkpt>
      <trkpt lat="45.15408" lon="5.81069">
        <ele>772.59997558594</ele>
        <time>2011-04-22T16:41:52.000Z</time>
      </trkpt>
      <trkpt lat="45.15409" lon="5.81066">
        <ele>773.59997558594</ele>
        <time>2011-04-22T16:41:55.000Z</time>
      </trkpt>
      <trkpt lat="45.1541" lon="5.81061">
        <ele>775.20001220703</ele>
        <time>2011-04-22T16:42:01.000Z</time>
      </trkpt>
      <trkpt lat="45.15412" lon="5.81056">
        <ele>776.59997558594</ele>
        <time>2011-04-22T16:42:07.000Z</time>
      </trkpt>
      <trkpt lat="45.15412" lon="5.81055">
        <ele>776.79998779297</ele>
        <time>2011-04-22T16:42:08.000Z</time>
      </trkpt>
      <trkpt lat="45.15412" lon="5.81054">
        <ele>777.20001220703</ele>
        <time>2011-04-22T16:42:09.000Z</time>
      </trkpt>
      <trkpt lat="45.15414" lon="5.8105">
        <ele>778.40002441406</ele>
        <time>2011-04-22T16:42:15.000Z</time>
      </trkpt>
      <trkpt lat="45.15414" lon="5.8104">
        <ele>781.59997558594</ele>
        <time>2011-04-22T16:42:24.000Z</time>
      </trkpt>
      <trkpt lat="45.15414" lon="5.81036">
        <ele>783</ele>
        <time>2011-04-22T16:42:27.000Z</time>
      </trkpt>
      <trkpt lat="45.15415" lon="5.81025">
        <ele>786.20001220703</ele>
        <time>2011-04-22T16:42:42.000Z</time>
      </trkpt>
      <trkpt lat="45.15417" lon="5.81025">
        <ele>786.20001220703</ele>
        <time>2011-04-22T16:42:45.000Z</time>
      </trkpt>
      <trkpt lat="45.15418" lon="5.81024">
        <ele>786</ele>
        <time>2011-04-22T16:42:46.000Z</time>
      </trkpt>
      <trkpt lat="45.1542" lon="5.81023">
        <ele>786.20001220703</ele>
        <time>2011-04-22T16:42:51.000Z</time>
      </trkpt>
      <trkpt lat="45.15421" lon="5.81018">
        <ele>787.40002441406</ele>
        <time>2011-04-22T16:42:59.000Z</time>
      </trkpt>
      <trkpt lat="45.1542" lon="5.81008">
        <ele>790.79998779297</ele>
        <time>2011-04-22T16:43:10.000Z</time>
      </trkpt>
      <trkpt lat="45.1542" lon="5.81003">
        <ele>792</ele>
        <time>2011-04-22T16:43:14.000Z</time>
      </trkpt>
      <trkpt lat="45.1542" lon="5.81003">
        <ele>792.20001220703</ele>
        <time>2011-04-22T16:43:15.000Z</time>
      </trkpt>
      <trkpt lat="45.15422" lon="5.81001">
        <ele>792.40002441406</ele>
        <time>2011-04-22T16:43:17.000Z</time>
      </trkpt>
      <trkpt lat="45.15423" lon="5.80998">
        <ele>793</ele>
        <time>2011-04-22T16:43:20.000Z</time>
      </trkpt>
      <trkpt lat="45.15424" lon="5.80995">
        <ele>794</ele>
        <time>2011-04-22T16:43:22.000Z</time>
      </trkpt>
      <trkpt lat="45.15423" lon="5.80991">
        <ele>795.40002441406</ele>
        <time>2011-04-22T16:43:25.000Z</time>
      </trkpt>
      <trkpt lat="45.15423" lon="5.80989">
        <ele>796</ele>
        <time>2011-04-22T16:43:27.000Z</time>
      </trkpt>
      <trkpt lat="45.15422" lon="5.80988">
        <ele>796.40002441406</ele>
        <time>2011-04-22T16:43:28.000Z</time>
      </trkpt>
      <trkpt lat="45.15418" lon="5.80985">
        <ele>798.40002441406</ele>
        <time>2011-04-22T16:43:34.000Z</time>
      </trkpt>
      <trkpt lat="45.15414" lon="5.8098">
        <ele>800.40002441406</ele>
        <time>2011-04-22T16:43:42.000Z</time>
      </trkpt>
      <trkpt lat="45.15413" lon="5.80976">
        <ele>801.59997558594</ele>
        <time>2011-04-22T16:43:46.000Z</time>
      </trkpt>
      <trkpt lat="45.15414" lon="5.80972">
        <ele>802.79998779297</ele>
        <time>2011-04-22T16:43:48.000Z</time>
      </trkpt>
      <trkpt lat="45.15414" lon="5.80966">
        <ele>804.59997558594</ele>
        <time>2011-04-22T16:43:51.000Z</time>
      </trkpt>
      <trkpt lat="45.15413" lon="5.80963">
        <ele>805.59997558594</ele>
        <time>2011-04-22T16:43:53.000Z</time>
      </trkpt>
      <trkpt lat="45.15414" lon="5.80959">
        <ele>806.79998779297</ele>
        <time>2011-04-22T16:43:56.000Z</time>
      </trkpt>
      <trkpt lat="45.15411" lon="5.80955">
        <ele>808.40002441406</ele>
        <time>2011-04-22T16:44:00.000Z</time>
      </trkpt>
      <trkpt lat="45.15412" lon="5.80953">
        <ele>809</ele>
        <time>2011-04-22T16:44:03.000Z</time>
      </trkpt>
      <trkpt lat="45.15412" lon="5.80952">
        <ele>809.20001220703</ele>
        <time>2011-04-22T16:44:05.000Z</time>
      </trkpt>
      <trkpt lat="45.1541" lon="5.80948">
        <ele>810.59997558594</ele>
        <time>2011-04-22T16:44:11.000Z</time>
      </trkpt>
      <trkpt lat="45.15412" lon="5.80932">
        <ele>815.20001220703</ele>
        <time>2011-04-22T16:44:21.000Z</time>
      </trkpt>
      <trkpt lat="45.15414" lon="5.80925">
        <ele>817.40002441406</ele>
        <time>2011-04-22T16:44:27.000Z</time>
      </trkpt>
      <trkpt lat="45.15415" lon="5.80924">
        <ele>817.59997558594</ele>
        <time>2011-04-22T16:44:28.000Z</time>
      </trkpt>
      <trkpt lat="45.15417" lon="5.80922">
        <ele>818.20001220703</ele>
        <time>2011-04-22T16:44:30.000Z</time>
      </trkpt>
      <trkpt lat="45.15419" lon="5.80918">
        <ele>818.79998779297</ele>
        <time>2011-04-22T16:44:33.000Z</time>
      </trkpt>
      <trkpt lat="45.15421" lon="5.80915">
        <ele>819.20001220703</ele>
        <time>2011-04-22T16:44:36.000Z</time>
      </trkpt>
      <trkpt lat="45.15426" lon="5.8091">
        <ele>820</ele>
        <time>2011-04-22T16:44:42.000Z</time>
      </trkpt>
      <trkpt lat="45.15427" lon="5.80909">
        <ele>820</ele>
        <time>2011-04-22T16:44:43.000Z</time>
      </trkpt>
      <trkpt lat="45.15429" lon="5.80907">
        <ele>820.40002441406</ele>
        <time>2011-04-22T16:44:47.000Z</time>
      </trkpt>
      <trkpt lat="45.1543" lon="5.80903">
        <ele>821.40002441406</ele>
        <time>2011-04-22T16:44:50.000Z</time>
      </trkpt>
      <trkpt lat="45.1543" lon="5.80903">
        <ele>821.59997558594</ele>
        <time>2011-04-22T16:44:51.000Z</time>
      </trkpt>
      <trkpt lat="45.1543" lon="5.80902">
        <ele>821.59997558594</ele>
        <time>2011-04-22T16:44:52.000Z</time>
      </trkpt>
      <trkpt lat="45.15432" lon="5.80902">
        <ele>821.20001220703</ele>
        <time>2011-04-22T16:44:54.000Z</time>
      </trkpt>
      <trkpt lat="45.15437" lon="5.80899">
        <ele>821</ele>
        <time>2011-04-22T16:44:59.000Z</time>
      </trkpt>
      <trkpt lat="45.15438" lon="5.80895">
        <ele>822</ele>
        <time>2011-04-22T16:45:04.000Z</time>
      </trkpt>
      <trkpt lat="45.15439" lon="5.80894">
        <ele>822.20001220703</ele>
        <time>2011-04-22T16:45:06.000Z</time>
      </trkpt>
      <trkpt lat="45.15445" lon="5.80891">
        <ele>821.20001220703</ele>
        <time>2011-04-22T16:45:13.000Z</time>
      </trkpt>
      <trkpt lat="45.15446" lon="5.80889">
        <ele>821.40002441406</ele>
        <time>2011-04-22T16:45:15.000Z</time>
      </trkpt>
      <trkpt lat="45.15447" lon="5.80887">
        <ele>822.20001220703</ele>
        <time>2011-04-22T16:45:19.000Z</time>
      </trkpt>
      <trkpt lat="45.15447" lon="5.80886">
        <ele>822.40002441406</ele>
        <time>2011-04-22T16:45:20.000Z</time>
      </trkpt>
      <trkpt lat="45.15449" lon="5.80881">
        <ele>823.40002441406</ele>
        <time>2011-04-22T16:45:25.000Z</time>
      </trkpt>
      <trkpt lat="45.1545" lon="5.8088">
        <ele>823.20001220703</ele>
        <time>2011-04-22T16:45:26.000Z</time>
      </trkpt>
      <trkpt lat="45.15453" lon="5.80877">
        <ele>823.20001220703</ele>
        <time>2011-04-22T16:45:29.000Z</time>
      </trkpt>
      <trkpt lat="45.15456" lon="5.80876">
        <ele>822.59997558594</ele>
        <time>2011-04-22T16:45:32.000Z</time>
      </trkpt>
      <trkpt lat="45.15457" lon="5.80876">
        <ele>822.40002441406</ele>
        <time>2011-04-22T16:45:33.000Z</time>
      </trkpt>
      <trkpt lat="45.1546" lon="5.80874">
        <ele>822.20001220703</ele>
        <time>2011-04-22T16:45:38.000Z</time>
      </trkpt>
      <trkpt lat="45.1546" lon="5.80873">
        <ele>822</ele>
        <time>2011-04-22T16:45:39.000Z</time>
      </trkpt>
      <trkpt lat="45.15461" lon="5.8087">
        <ele>822.79998779297</ele>
        <time>2011-04-22T16:45:42.000Z</time>
      </trkpt>
      <trkpt lat="45.15462" lon="5.80866">
        <ele>823.79998779297</ele>
        <time>2011-04-22T16:45:45.000Z</time>
      </trkpt>
      <trkpt lat="45.15466" lon="5.8086">
        <ele>824</ele>
        <time>2011-04-22T16:45:50.000Z</time>
      </trkpt>
      <trkpt lat="45.15467" lon="5.80859">
        <ele>824.20001220703</ele>
        <time>2011-04-22T16:45:51.000Z</time>
      </trkpt>
      <trkpt lat="45.15467" lon="5.80854">
        <ele>825.40002441406</ele>
        <time>2011-04-22T16:45:55.000Z</time>
      </trkpt>
      <trkpt lat="45.15467" lon="5.80852">
        <ele>826</ele>
        <time>2011-04-22T16:45:56.000Z</time>
      </trkpt>
      <trkpt lat="45.15473" lon="5.80847">
        <ele>825.59997558594</ele>
        <time>2011-04-22T16:46:01.000Z</time>
      </trkpt>
      <trkpt lat="45.15473" lon="5.80846">
        <ele>825.40002441406</ele>
        <time>2011-04-22T16:46:02.000Z</time>
      </trkpt>
      <trkpt lat="45.1548" lon="5.8084">
        <ele>824.59997558594</ele>
        <time>2011-04-22T16:46:09.000Z</time>
      </trkpt>
      <trkpt lat="45.15481" lon="5.80835">
        <ele>825.20001220703</ele>
        <time>2011-04-22T16:46:13.000Z</time>
      </trkpt>
      <trkpt lat="45.15484" lon="5.80833">
        <ele>824.79998779297</ele>
        <time>2011-04-22T16:46:15.000Z</time>
      </trkpt>
      <trkpt lat="45.15484" lon="5.80831">
        <ele>825.20001220703</ele>
        <time>2011-04-22T16:46:16.000Z</time>
      </trkpt>
      <trkpt lat="45.15483" lon="5.80827">
        <ele>826.20001220703</ele>
        <time>2011-04-22T16:46:18.000Z</time>
      </trkpt>
      <trkpt lat="45.15481" lon="5.80822">
        <ele>827.59997558594</ele>
        <time>2011-04-22T16:46:21.000Z</time>
      </trkpt>
      <trkpt lat="45.15481" lon="5.80816">
        <ele>828.79998779297</ele>
        <time>2011-04-22T16:46:26.000Z</time>
      </trkpt>
      <trkpt lat="45.15481" lon="5.80814">
        <ele>829</ele>
        <time>2011-04-22T16:46:28.000Z</time>
      </trkpt>
      <trkpt lat="45.1548" lon="5.80811">
        <ele>830</ele>
        <time>2011-04-22T16:46:30.000Z</time>
      </trkpt>
      <trkpt lat="45.1548" lon="5.80806">
        <ele>830.59997558594</ele>
        <time>2011-04-22T16:46:32.000Z</time>
      </trkpt>
      <trkpt lat="45.1548" lon="5.80804">
        <ele>831.40002441406</ele>
        <time>2011-04-22T16:46:34.000Z</time>
      </trkpt>
      <trkpt lat="45.15478" lon="5.808">
        <ele>832.79998779297</ele>
        <time>2011-04-22T16:46:37.000Z</time>
      </trkpt>
      <trkpt lat="45.15477" lon="5.80796">
        <ele>833.79998779297</ele>
        <time>2011-04-22T16:46:39.000Z</time>
      </trkpt>
      <trkpt lat="45.15475" lon="5.80793">
        <ele>835.40002441406</ele>
        <time>2011-04-22T16:46:42.000Z</time>
      </trkpt>
      <trkpt lat="45.15475" lon="5.80791">
        <ele>835.59997558594</ele>
        <time>2011-04-22T16:46:44.000Z</time>
      </trkpt>
      <trkpt lat="45.15476" lon="5.80789">
        <ele>835.79998779297</ele>
        <time>2011-04-22T16:46:46.000Z</time>
      </trkpt>
      <trkpt lat="45.15475" lon="5.80788">
        <ele>836.20001220703</ele>
        <time>2011-04-22T16:46:47.000Z</time>
      </trkpt>
      <trkpt lat="45.15474" lon="5.80781">
        <ele>838</ele>
        <time>2011-04-22T16:46:51.000Z</time>
      </trkpt>
      <trkpt lat="45.15473" lon="5.80778">
        <ele>839.20001220703</ele>
        <time>2011-04-22T16:46:54.000Z</time>
      </trkpt>
      <trkpt lat="45.15471" lon="5.80775">
        <ele>840.79998779297</ele>
        <time>2011-04-22T16:46:56.000Z</time>
      </trkpt>
      <trkpt lat="45.1547" lon="5.80774">
        <ele>841.79998779297</ele>
        <time>2011-04-22T16:46:57.000Z</time>
      </trkpt>
      <trkpt lat="45.15469" lon="5.80768">
        <ele>842.79998779297</ele>
        <time>2011-04-22T16:47:00.000Z</time>
      </trkpt>
      <trkpt lat="45.15469" lon="5.80767">
        <ele>843.20001220703</ele>
        <time>2011-04-22T16:47:01.000Z</time>
      </trkpt>
      <trkpt lat="45.15468" lon="5.80762">
        <ele>844.59997558594</ele>
        <time>2011-04-22T16:47:04.000Z</time>
      </trkpt>
      <trkpt lat="45.15469" lon="5.8076">
        <ele>844.59997558594</ele>
        <time>2011-04-22T16:47:05.000Z</time>
      </trkpt>
      <trkpt lat="45.15469" lon="5.80759">
        <ele>844.79998779297</ele>
        <time>2011-04-22T16:47:06.000Z</time>
      </trkpt>
      <trkpt lat="45.15466" lon="5.80755">
        <ele>847</ele>
        <time>2011-04-22T16:47:09.000Z</time>
      </trkpt>
      <trkpt lat="45.15464" lon="5.80751">
        <ele>848.79998779297</ele>
        <time>2011-04-22T16:47:11.000Z</time>
      </trkpt>
      <trkpt lat="45.15464" lon="5.80748">
        <ele>849.40002441406</ele>
        <time>2011-04-22T16:47:13.000Z</time>
      </trkpt>
      <trkpt lat="45.15463" lon="5.80745">
        <ele>850.40002441406</ele>
        <time>2011-04-22T16:47:15.000Z</time>
      </trkpt>
      <trkpt lat="45.15461" lon="5.80733">
        <ele>853</ele>
        <time>2011-04-22T16:47:22.000Z</time>
      </trkpt>
      <trkpt lat="45.15461" lon="5.80732">
        <ele>853</ele>
        <time>2011-04-22T16:47:23.000Z</time>
      </trkpt>
      <trkpt lat="45.1546" lon="5.80731">
        <ele>853.40002441406</ele>
        <time>2011-04-22T16:47:24.000Z</time>
      </trkpt>
      <trkpt lat="45.1546" lon="5.80729">
        <ele>854</ele>
        <time>2011-04-22T16:47:27.000Z</time>
      </trkpt>
      <trkpt lat="45.15459" lon="5.80728">
        <ele>854.40002441406</ele>
        <time>2011-04-22T16:47:28.000Z</time>
      </trkpt>
      <trkpt lat="45.15458" lon="5.80726">
        <ele>855.20001220703</ele>
        <time>2011-04-22T16:47:30.000Z</time>
      </trkpt>
      <trkpt lat="45.15458" lon="5.80725">
        <ele>855.59997558594</ele>
        <time>2011-04-22T16:47:31.000Z</time>
      </trkpt>
      <trkpt lat="45.15459" lon="5.80722">
        <ele>855.20001220703</ele>
        <time>2011-04-22T16:47:34.000Z</time>
      </trkpt>
      <trkpt lat="45.1546" lon="5.80716">
        <ele>855.40002441406</ele>
        <time>2011-04-22T16:47:38.000Z</time>
      </trkpt>
      <trkpt lat="45.1546" lon="5.80713">
        <ele>855.20001220703</ele>
        <time>2011-04-22T16:47:41.000Z</time>
      </trkpt>
      <trkpt lat="45.15459" lon="5.80709">
        <ele>856.59997558594</ele>
        <time>2011-04-22T16:47:44.000Z</time>
      </trkpt>
      <trkpt lat="45.15457" lon="5.80704">
        <ele>858.59997558594</ele>
        <time>2011-04-22T16:47:47.000Z</time>
      </trkpt>
      <trkpt lat="45.15456" lon="5.80702">
        <ele>859.20001220703</ele>
        <time>2011-04-22T16:47:49.000Z</time>
      </trkpt>
      <trkpt lat="45.15456" lon="5.80701">
        <ele>859.79998779297</ele>
        <time>2011-04-22T16:47:50.000Z</time>
      </trkpt>
      <trkpt lat="45.15454" lon="5.807">
        <ele>860.79998779297</ele>
        <time>2011-04-22T16:47:51.000Z</time>
      </trkpt>
      <trkpt lat="45.15453" lon="5.80697">
        <ele>862.20001220703</ele>
        <time>2011-04-22T16:47:53.000Z</time>
      </trkpt>
      <trkpt lat="45.15451" lon="5.80688">
        <ele>865</ele>
        <time>2011-04-22T16:47:58.000Z</time>
      </trkpt>
      <trkpt lat="45.1545" lon="5.80682">
        <ele>866.20001220703</ele>
        <time>2011-04-22T16:48:00.000Z</time>
      </trkpt>
      <trkpt lat="45.15448" lon="5.80674">
        <ele>868.40002441406</ele>
        <time>2011-04-22T16:48:03.000Z</time>
      </trkpt>
      <trkpt lat="45.15447" lon="5.80672">
        <ele>869.20001220703</ele>
        <time>2011-04-22T16:48:04.000Z</time>
      </trkpt>
      <trkpt lat="45.15445" lon="5.80659">
        <ele>872.20001220703</ele>
        <time>2011-04-22T16:48:09.000Z</time>
      </trkpt>
      <trkpt lat="45.15444" lon="5.80648">
        <ele>874.59997558594</ele>
        <time>2011-04-22T16:48:14.000Z</time>
      </trkpt>
      <trkpt lat="45.15443" lon="5.80646">
        <ele>875.59997558594</ele>
        <time>2011-04-22T16:48:15.000Z</time>
      </trkpt>
      <trkpt lat="45.15443" lon="5.80645">
        <ele>875.40002441406</ele>
        <time>2011-04-22T16:48:16.000Z</time>
      </trkpt>
      <trkpt lat="45.15443" lon="5.80637">
        <ele>876.40002441406</ele>
        <time>2011-04-22T16:48:20.000Z</time>
      </trkpt>
      <trkpt lat="45.15442" lon="5.80633">
        <ele>877.79998779297</ele>
        <time>2011-04-22T16:48:22.000Z</time>
      </trkpt>
      <trkpt lat="45.1544" lon="5.80627">
        <ele>879.59997558594</ele>
        <time>2011-04-22T16:48:24.000Z</time>
      </trkpt>
      <trkpt lat="45.15439" lon="5.80623">
        <ele>880.59997558594</ele>
        <time>2011-04-22T16:48:26.000Z</time>
      </trkpt>
      <trkpt lat="45.15438" lon="5.80618">
        <ele>881.59997558594</ele>
        <time>2011-04-22T16:48:28.000Z</time>
      </trkpt>
      <trkpt lat="45.15437" lon="5.80614">
        <ele>882.79998779297</ele>
        <time>2011-04-22T16:48:30.000Z</time>
      </trkpt>
      <trkpt lat="45.15437" lon="5.80603">
        <ele>884.20001220703</ele>
        <time>2011-04-22T16:48:35.000Z</time>
      </trkpt>
      <trkpt lat="45.15437" lon="5.80602">
        <ele>884.40002441406</ele>
        <time>2011-04-22T16:48:36.000Z</time>
      </trkpt>
      <trkpt lat="45.15437" lon="5.80601">
        <ele>884.59997558594</ele>
        <time>2011-04-22T16:48:38.000Z</time>
      </trkpt>
      <trkpt lat="45.15437" lon="5.80599">
        <ele>884.40002441406</ele>
        <time>2011-04-22T16:48:40.000Z</time>
      </trkpt>
      <trkpt lat="45.15436" lon="5.80596">
        <ele>885.40002441406</ele>
        <time>2011-04-22T16:48:42.000Z</time>
      </trkpt>
      <trkpt lat="45.15437" lon="5.80592">
        <ele>885.40002441406</ele>
        <time>2011-04-22T16:48:45.000Z</time>
      </trkpt>
      <trkpt lat="45.15438" lon="5.8059">
        <ele>884.79998779297</ele>
        <time>2011-04-22T16:48:46.000Z</time>
      </trkpt>
      <trkpt lat="45.15439" lon="5.80588">
        <ele>884.40002441406</ele>
        <time>2011-04-22T16:48:48.000Z</time>
      </trkpt>
      <trkpt lat="45.15439" lon="5.80582">
        <ele>884.79998779297</ele>
        <time>2011-04-22T16:48:50.000Z</time>
      </trkpt>
      <trkpt lat="45.15439" lon="5.80572">
        <ele>886.79998779297</ele>
        <time>2011-04-22T16:48:54.000Z</time>
      </trkpt>
      <trkpt lat="45.15438" lon="5.80571">
        <ele>887.40002441406</ele>
        <time>2011-04-22T16:48:55.000Z</time>
      </trkpt>
      <trkpt lat="45.15438" lon="5.80568">
        <ele>888</ele>
        <time>2011-04-22T16:48:57.000Z</time>
      </trkpt>
      <trkpt lat="45.15437" lon="5.80567">
        <ele>888.79998779297</ele>
        <time>2011-04-22T16:48:58.000Z</time>
      </trkpt>
      <trkpt lat="45.15437" lon="5.80562">
        <ele>889.79998779297</ele>
        <time>2011-04-22T16:49:01.000Z</time>
      </trkpt>
      <trkpt lat="45.15438" lon="5.80558">
        <ele>890.40002441406</ele>
        <time>2011-04-22T16:49:04.000Z</time>
      </trkpt>
      <trkpt lat="45.15438" lon="5.8055">
        <ele>891.59997558594</ele>
        <time>2011-04-22T16:49:09.000Z</time>
      </trkpt>
      <trkpt lat="45.15439" lon="5.80545">
        <ele>891.59997558594</ele>
        <time>2011-04-22T16:49:12.000Z</time>
      </trkpt>
      <trkpt lat="45.15441" lon="5.80539">
        <ele>891.79998779297</ele>
        <time>2011-04-22T16:49:16.000Z</time>
      </trkpt>
      <trkpt lat="45.15439" lon="5.80533">
        <ele>894.40002441406</ele>
        <time>2011-04-22T16:49:21.000Z</time>
      </trkpt>
      <trkpt lat="45.15439" lon="5.80531">
        <ele>894.59997558594</ele>
        <time>2011-04-22T16:49:22.000Z</time>
      </trkpt>
      <trkpt lat="45.15441" lon="5.80526">
        <ele>893.79998779297</ele>
        <time>2011-04-22T16:49:26.000Z</time>
      </trkpt>
      <trkpt lat="45.15442" lon="5.80523">
        <ele>894</ele>
        <time>2011-04-22T16:49:28.000Z</time>
      </trkpt>
      <trkpt lat="45.15442" lon="5.80522">
        <ele>893.59997558594</ele>
        <time>2011-04-22T16:49:29.000Z</time>
      </trkpt>
      <trkpt lat="45.15443" lon="5.80519">
        <ele>893.40002441406</ele>
        <time>2011-04-22T16:49:31.000Z</time>
      </trkpt>
      <trkpt lat="45.15446" lon="5.80515">
        <ele>892.59997558594</ele>
        <time>2011-04-22T16:49:34.000Z</time>
      </trkpt>
      <trkpt lat="45.15446" lon="5.80513">
        <ele>892.40002441406</ele>
        <time>2011-04-22T16:49:36.000Z</time>
      </trkpt>
      <trkpt lat="45.15447" lon="5.80509">
        <ele>892.79998779297</ele>
        <time>2011-04-22T16:49:38.000Z</time>
      </trkpt>
      <trkpt lat="45.15446" lon="5.80506">
        <ele>894</ele>
        <time>2011-04-22T16:49:40.000Z</time>
      </trkpt>
      <trkpt lat="45.15447" lon="5.80502">
        <ele>894</ele>
        <time>2011-04-22T16:49:42.000Z</time>
      </trkpt>
      <trkpt lat="45.15449" lon="5.80501">
        <ele>893</ele>
        <time>2011-04-22T16:49:44.000Z</time>
      </trkpt>
      <trkpt lat="45.1545" lon="5.80497">
        <ele>892.79998779297</ele>
        <time>2011-04-22T16:49:46.000Z</time>
      </trkpt>
      <trkpt lat="45.1545" lon="5.80495">
        <ele>892.59997558594</ele>
        <time>2011-04-22T16:49:47.000Z</time>
      </trkpt>
      <trkpt lat="45.15453" lon="5.80488">
        <ele>891.79998779297</ele>
        <time>2011-04-22T16:49:51.000Z</time>
      </trkpt>
      <trkpt lat="45.15453" lon="5.80485">
        <ele>891.59997558594</ele>
        <time>2011-04-22T16:49:52.000Z</time>
      </trkpt>
      <trkpt lat="45.15456" lon="5.80478">
        <ele>891</ele>
        <time>2011-04-22T16:49:56.000Z</time>
      </trkpt>
      <trkpt lat="45.15457" lon="5.80473">
        <ele>891.20001220703</ele>
        <time>2011-04-22T16:49:58.000Z</time>
      </trkpt>
      <trkpt lat="45.15459" lon="5.8047">
        <ele>890.20001220703</ele>
        <time>2011-04-22T16:50:00.000Z</time>
      </trkpt>
      <trkpt lat="45.15461" lon="5.80467">
        <ele>889</ele>
        <time>2011-04-22T16:50:02.000Z</time>
      </trkpt>
      <trkpt lat="45.15463" lon="5.80463">
        <ele>888.40002441406</ele>
        <time>2011-04-22T16:50:04.000Z</time>
      </trkpt>
      <trkpt lat="45.15464" lon="5.80455">
        <ele>889</ele>
        <time>2011-04-22T16:50:08.000Z</time>
      </trkpt>
      <trkpt lat="45.15465" lon="5.80453">
        <ele>888.79998779297</ele>
        <time>2011-04-22T16:50:09.000Z</time>
      </trkpt>
      <trkpt lat="45.15467" lon="5.80445">
        <ele>888.59997558594</ele>
        <time>2011-04-22T16:50:13.000Z</time>
      </trkpt>
      <trkpt lat="45.15467" lon="5.80444">
        <ele>888.59997558594</ele>
        <time>2011-04-22T16:50:14.000Z</time>
      </trkpt>
      <trkpt lat="45.15468" lon="5.80439">
        <ele>889</ele>
        <time>2011-04-22T16:50:16.000Z</time>
      </trkpt>
      <trkpt lat="45.1547" lon="5.80432">
        <ele>889.20001220703</ele>
        <time>2011-04-22T16:50:19.000Z</time>
      </trkpt>
      <trkpt lat="45.15472" lon="5.80422">
        <ele>889.79998779297</ele>
        <time>2011-04-22T16:50:24.000Z</time>
      </trkpt>
      <trkpt lat="45.15472" lon="5.8042">
        <ele>890</ele>
        <time>2011-04-22T16:50:25.000Z</time>
      </trkpt>
      <trkpt lat="45.15472" lon="5.80415">
        <ele>890.40002441406</ele>
        <time>2011-04-22T16:50:27.000Z</time>
      </trkpt>
      <trkpt lat="45.15474" lon="5.80412">
        <ele>889.79998779297</ele>
        <time>2011-04-22T16:50:29.000Z</time>
      </trkpt>
      <trkpt lat="45.15478" lon="5.80405">
        <ele>888</ele>
        <time>2011-04-22T16:50:35.000Z</time>
      </trkpt>
      <trkpt lat="45.1548" lon="5.80401">
        <ele>887.79998779297</ele>
        <time>2011-04-22T16:50:37.000Z</time>
      </trkpt>
      <trkpt lat="45.15482" lon="5.80393">
        <ele>887.59997558594</ele>
        <time>2011-04-22T16:50:41.000Z</time>
      </trkpt>
      <trkpt lat="45.15482" lon="5.80391">
        <ele>887.40002441406</ele>
        <time>2011-04-22T16:50:42.000Z</time>
      </trkpt>
      <trkpt lat="45.15486" lon="5.80383">
        <ele>886.59997558594</ele>
        <time>2011-04-22T16:50:47.000Z</time>
      </trkpt>
      <trkpt lat="45.1549" lon="5.80371">
        <ele>886.59997558594</ele>
        <time>2011-04-22T16:50:53.000Z</time>
      </trkpt>
      <trkpt lat="45.1549" lon="5.80369">
        <ele>886.59997558594</ele>
        <time>2011-04-22T16:50:54.000Z</time>
      </trkpt>
      <trkpt lat="45.15492" lon="5.80365">
        <ele>886.79998779297</ele>
        <time>2011-04-22T16:50:56.000Z</time>
      </trkpt>
      <trkpt lat="45.15492" lon="5.80362">
        <ele>887</ele>
        <time>2011-04-22T16:50:58.000Z</time>
      </trkpt>
      <trkpt lat="45.15493" lon="5.80353">
        <ele>888</ele>
        <time>2011-04-22T16:51:04.000Z</time>
      </trkpt>
      <trkpt lat="45.15493" lon="5.80351">
        <ele>888</ele>
        <time>2011-04-22T16:51:06.000Z</time>
      </trkpt>
      <trkpt lat="45.15493" lon="5.80345">
        <ele>889</ele>
        <time>2011-04-22T16:51:10.000Z</time>
      </trkpt>
      <trkpt lat="45.15492" lon="5.80343">
        <ele>889.59997558594</ele>
        <time>2011-04-22T16:51:11.000Z</time>
      </trkpt>
      <trkpt lat="45.15492" lon="5.8034">
        <ele>890</ele>
        <time>2011-04-22T16:51:12.000Z</time>
      </trkpt>
      <trkpt lat="45.15488" lon="5.80336">
        <ele>891.59997558594</ele>
        <time>2011-04-22T16:51:15.000Z</time>
      </trkpt>
      <trkpt lat="45.15485" lon="5.80333">
        <ele>892.59997558594</ele>
        <time>2011-04-22T16:51:17.000Z</time>
      </trkpt>
      <trkpt lat="45.15482" lon="5.80329">
        <ele>893.20001220703</ele>
        <time>2011-04-22T16:51:19.000Z</time>
      </trkpt>
      <trkpt lat="45.15479" lon="5.80326">
        <ele>893.79998779297</ele>
        <time>2011-04-22T16:51:21.000Z</time>
      </trkpt>
      <trkpt lat="45.15478" lon="5.80326">
        <ele>894</ele>
        <time>2011-04-22T16:51:22.000Z</time>
      </trkpt>
      <trkpt lat="45.15478" lon="5.80325">
        <ele>894.20001220703</ele>
        <time>2011-04-22T16:51:23.000Z</time>
      </trkpt>
      <trkpt lat="45.15476" lon="5.80326">
        <ele>894.59997558594</ele>
        <time>2011-04-22T16:51:25.000Z</time>
      </trkpt>
      <trkpt lat="45.15473" lon="5.80328">
        <ele>895.40002441406</ele>
        <time>2011-04-22T16:51:27.000Z</time>
      </trkpt>
      <trkpt lat="45.15468" lon="5.80328">
        <ele>896.59997558594</ele>
        <time>2011-04-22T16:51:30.000Z</time>
      </trkpt>
      <trkpt lat="45.15467" lon="5.80327">
        <ele>897</ele>
        <time>2011-04-22T16:51:31.000Z</time>
      </trkpt>
      <trkpt lat="45.15465" lon="5.80326">
        <ele>897.20001220703</ele>
        <time>2011-04-22T16:51:32.000Z</time>
      </trkpt>
      <trkpt lat="45.15461" lon="5.80324">
        <ele>898</ele>
        <time>2011-04-22T16:51:34.000Z</time>
      </trkpt>
      <trkpt lat="45.15458" lon="5.80319">
        <ele>898.40002441406</ele>
        <time>2011-04-22T16:51:37.000Z</time>
      </trkpt>
      <trkpt lat="45.1545" lon="5.80313">
        <ele>899.59997558594</ele>
        <time>2011-04-22T16:51:43.000Z</time>
      </trkpt>
      <trkpt lat="45.15449" lon="5.80312">
        <ele>899.79998779297</ele>
        <time>2011-04-22T16:51:44.000Z</time>
      </trkpt>
      <trkpt lat="45.15446" lon="5.80311">
        <ele>900.20001220703</ele>
        <time>2011-04-22T16:51:46.000Z</time>
      </trkpt>
      <trkpt lat="45.15441" lon="5.80308">
        <ele>900.79998779297</ele>
        <time>2011-04-22T16:51:49.000Z</time>
      </trkpt>
      <trkpt lat="45.15433" lon="5.80301">
        <ele>901.79998779297</ele>
        <time>2011-04-22T16:51:54.000Z</time>
      </trkpt>
      <trkpt lat="45.15428" lon="5.803">
        <ele>902.40002441406</ele>
        <time>2011-04-22T16:51:57.000Z</time>
      </trkpt>
      <trkpt lat="45.15425" lon="5.80298">
        <ele>902.79998779297</ele>
        <time>2011-04-22T16:51:59.000Z</time>
      </trkpt>
      <trkpt lat="45.15418" lon="5.80296">
        <ele>904</ele>
        <time>2011-04-22T16:52:04.000Z</time>
      </trkpt>
      <trkpt lat="45.15409" lon="5.80295">
        <ele>902.79998779297</ele>
        <time>2011-04-22T16:52:08.000Z</time>
      </trkpt>
      <trkpt lat="45.15408" lon="5.80294">
        <ele>902.59997558594</ele>
        <time>2011-04-22T16:52:09.000Z</time>
      </trkpt>
      <trkpt lat="45.15406" lon="5.80292">
        <ele>901.79998779297</ele>
        <time>2011-04-22T16:52:11.000Z</time>
      </trkpt>
      <trkpt lat="45.15401" lon="5.80292">
        <ele>901</ele>
        <time>2011-04-22T16:52:16.000Z</time>
      </trkpt>
      <trkpt lat="45.15392" lon="5.80289">
        <ele>899.20001220703</ele>
        <time>2011-04-22T16:52:22.000Z</time>
      </trkpt>
      <trkpt lat="45.15392" lon="5.80288">
        <ele>899</ele>
        <time>2011-04-22T16:52:23.000Z</time>
      </trkpt>
      <trkpt lat="45.1539" lon="5.80288">
        <ele>898.59997558594</ele>
        <time>2011-04-22T16:52:24.000Z</time>
      </trkpt>
      <trkpt lat="45.15387" lon="5.80288">
        <ele>898</ele>
        <time>2011-04-22T16:52:26.000Z</time>
      </trkpt>
      <trkpt lat="45.1538" lon="5.80288">
        <ele>897.20001220703</ele>
        <time>2011-04-22T16:52:30.000Z</time>
      </trkpt>
      <trkpt lat="45.15375" lon="5.80287">
        <ele>896.20001220703</ele>
        <time>2011-04-22T16:52:33.000Z</time>
      </trkpt>
      <trkpt lat="45.15373" lon="5.80288">
        <ele>896</ele>
        <time>2011-04-22T16:52:34.000Z</time>
      </trkpt>
      <trkpt lat="45.15371" lon="5.80288">
        <ele>895.79998779297</ele>
        <time>2011-04-22T16:52:35.000Z</time>
      </trkpt>
      <trkpt lat="45.15363" lon="5.80293">
        <ele>895.59997558594</ele>
        <time>2011-04-22T16:52:40.000Z</time>
      </trkpt>
      <trkpt lat="45.15362" lon="5.80303">
        <ele>897.59997558594</ele>
        <time>2011-04-22T16:52:45.000Z</time>
      </trkpt>
      <trkpt lat="45.15363" lon="5.80311">
        <ele>899.79998779297</ele>
        <time>2011-04-22T16:52:49.000Z</time>
      </trkpt>
      <trkpt lat="45.15364" lon="5.80313">
        <ele>900.20001220703</ele>
        <time>2011-04-22T16:52:50.000Z</time>
      </trkpt>
      <trkpt lat="45.15371" lon="5.80315">
        <ele>901.59997558594</ele>
        <time>2011-04-22T16:52:55.000Z</time>
      </trkpt>
      <trkpt lat="45.15372" lon="5.80315">
        <ele>901.59997558594</ele>
        <time>2011-04-22T16:52:56.000Z</time>
      </trkpt>
      <trkpt lat="45.15375" lon="5.80315">
        <ele>902</ele>
        <time>2011-04-22T16:52:58.000Z</time>
      </trkpt>
      <trkpt lat="45.15378" lon="5.80316">
        <ele>902.59997558594</ele>
        <time>2011-04-22T16:53:00.000Z</time>
      </trkpt>
      <trkpt lat="45.15379" lon="5.80316">
        <ele>902.79998779297</ele>
        <time>2011-04-22T16:53:01.000Z</time>
      </trkpt>
      <trkpt lat="45.15383" lon="5.80318">
        <ele>903.59997558594</ele>
        <time>2011-04-22T16:53:04.000Z</time>
      </trkpt>
      <trkpt lat="45.15386" lon="5.80319">
        <ele>904.20001220703</ele>
        <time>2011-04-22T16:53:06.000Z</time>
      </trkpt>
      <trkpt lat="45.15388" lon="5.80321">
        <ele>904.79998779297</ele>
        <time>2011-04-22T16:53:08.000Z</time>
      </trkpt>
      <trkpt lat="45.15392" lon="5.80323">
        <ele>905.59997558594</ele>
        <time>2011-04-22T16:53:11.000Z</time>
      </trkpt>
      <trkpt lat="45.15393" lon="5.80324">
        <ele>906</ele>
        <time>2011-04-22T16:53:12.000Z</time>
      </trkpt>
      <trkpt lat="45.15398" lon="5.80328">
        <ele>907</ele>
        <time>2011-04-22T16:53:17.000Z</time>
      </trkpt>
      <trkpt lat="45.15402" lon="5.80335">
        <ele>908.79998779297</ele>
        <time>2011-04-22T16:53:22.000Z</time>
      </trkpt>
      <trkpt lat="45.15406" lon="5.80341">
        <ele>910</ele>
        <time>2011-04-22T16:53:26.000Z</time>
      </trkpt>
      <trkpt lat="45.15409" lon="5.80344">
        <ele>910.59997558594</ele>
        <time>2011-04-22T16:53:28.000Z</time>
      </trkpt>
      <trkpt lat="45.15414" lon="5.80351">
        <ele>912.20001220703</ele>
        <time>2011-04-22T16:53:33.000Z</time>
      </trkpt>
      <trkpt lat="45.15421" lon="5.80359">
        <ele>912.20001220703</ele>
        <time>2011-04-22T16:53:39.000Z</time>
      </trkpt>
      <trkpt lat="45.15422" lon="5.8036">
        <ele>911.79998779297</ele>
        <time>2011-04-22T16:53:40.000Z</time>
      </trkpt>
      <trkpt lat="45.1543" lon="5.80372">
        <ele>910.20001220703</ele>
        <time>2011-04-22T16:53:46.000Z</time>
      </trkpt>
      <trkpt lat="45.1543" lon="5.80381">
        <ele>911.20001220703</ele>
        <time>2011-04-22T16:53:51.000Z</time>
      </trkpt>
      <trkpt lat="45.15429" lon="5.80383">
        <ele>911.79998779297</ele>
        <time>2011-04-22T16:53:52.000Z</time>
      </trkpt>
      <trkpt lat="45.15422" lon="5.80385">
        <ele>914.79998779297</ele>
        <time>2011-04-22T16:53:58.000Z</time>
      </trkpt>
      <trkpt lat="45.15421" lon="5.80385">
        <ele>915.20001220703</ele>
        <time>2011-04-22T16:53:59.000Z</time>
      </trkpt>
      <trkpt lat="45.15417" lon="5.80384">
        <ele>917</ele>
        <time>2011-04-22T16:54:03.000Z</time>
      </trkpt>
      <trkpt lat="45.15412" lon="5.80381">
        <ele>916.40002441406</ele>
        <time>2011-04-22T16:54:06.000Z</time>
      </trkpt>
      <trkpt lat="45.1541" lon="5.80379">
        <ele>916</ele>
        <time>2011-04-22T16:54:08.000Z</time>
      </trkpt>
      <trkpt lat="45.15408" lon="5.80378">
        <ele>915.79998779297</ele>
        <time>2011-04-22T16:54:09.000Z</time>
      </trkpt>
      <trkpt lat="45.15406" lon="5.80377">
        <ele>915.40002441406</ele>
        <time>2011-04-22T16:54:11.000Z</time>
      </trkpt>
      <trkpt lat="45.15404" lon="5.80377">
        <ele>915</ele>
        <time>2011-04-22T16:54:14.000Z</time>
      </trkpt>
      <trkpt lat="45.15404" lon="5.80378">
        <ele>915.20001220703</ele>
        <time>2011-04-22T16:54:15.000Z</time>
      </trkpt>
      <trkpt lat="45.15407" lon="5.8038">
        <ele>915.79998779297</ele>
        <time>2011-04-22T16:54:19.000Z</time>
      </trkpt>
      <trkpt lat="45.15409" lon="5.80382">
        <ele>916.20001220703</ele>
        <time>2011-04-22T16:54:21.000Z</time>
      </trkpt>
      <trkpt lat="45.15411" lon="5.80383">
        <ele>916.59997558594</ele>
        <time>2011-04-22T16:54:24.000Z</time>
      </trkpt>
      <trkpt lat="45.15412" lon="5.80383">
        <ele>916.79998779297</ele>
        <time>2011-04-22T16:54:25.000Z</time>
      </trkpt>
      <trkpt lat="45.15416" lon="5.80386">
        <ele>917.40002441406</ele>
        <time>2011-04-22T16:54:30.000Z</time>
      </trkpt>
      <trkpt lat="45.15419" lon="5.80389">
        <ele>916.79998779297</ele>
        <time>2011-04-22T16:54:34.000Z</time>
      </trkpt>
      <trkpt lat="45.15422" lon="5.80389">
        <ele>915.59997558594</ele>
        <time>2011-04-22T16:54:37.000Z</time>
      </trkpt>
      <trkpt lat="45.15427" lon="5.80384">
        <ele>912.59997558594</ele>
        <time>2011-04-22T16:54:42.000Z</time>
      </trkpt>
      <trkpt lat="45.15428" lon="5.80382">
        <ele>912.20001220703</ele>
        <time>2011-04-22T16:54:43.000Z</time>
      </trkpt>
      <trkpt lat="45.15429" lon="5.80378">
        <ele>911.20001220703</ele>
        <time>2011-04-22T16:54:45.000Z</time>
      </trkpt>
      <trkpt lat="45.15429" lon="5.80374">
        <ele>910.79998779297</ele>
        <time>2011-04-22T16:54:47.000Z</time>
      </trkpt>
      <trkpt lat="45.15425" lon="5.80364">
        <ele>911.40002441406</ele>
        <time>2011-04-22T16:54:53.000Z</time>
      </trkpt>
      <trkpt lat="45.15422" lon="5.8036">
        <ele>911.79998779297</ele>
        <time>2011-04-22T16:54:55.000Z</time>
      </trkpt>
      <trkpt lat="45.15417" lon="5.80353">
        <ele>912.40002441406</ele>
        <time>2011-04-22T16:54:58.000Z</time>
      </trkpt>
      <trkpt lat="45.15416" lon="5.80351">
        <ele>912.40002441406</ele>
        <time>2011-04-22T16:54:59.000Z</time>
      </trkpt>
      <trkpt lat="45.1541" lon="5.80338">
        <ele>910</ele>
        <time>2011-04-22T16:55:04.000Z</time>
      </trkpt>
      <trkpt lat="45.15399" lon="5.80328">
        <ele>907.40002441406</ele>
        <time>2011-04-22T16:55:10.000Z</time>
      </trkpt>
      <trkpt lat="45.15394" lon="5.80321">
        <ele>905.40002441406</ele>
        <time>2011-04-22T16:55:13.000Z</time>
      </trkpt>
      <trkpt lat="45.15388" lon="5.80318">
        <ele>904.20001220703</ele>
        <time>2011-04-22T16:55:16.000Z</time>
      </trkpt>
      <trkpt lat="45.1538" lon="5.80317">
        <ele>903.20001220703</ele>
        <time>2011-04-22T16:55:20.000Z</time>
      </trkpt>
      <trkpt lat="45.15378" lon="5.80316">
        <ele>902.79998779297</ele>
        <time>2011-04-22T16:55:21.000Z</time>
      </trkpt>
      <trkpt lat="45.15376" lon="5.80316">
        <ele>902.40002441406</ele>
        <time>2011-04-22T16:55:22.000Z</time>
      </trkpt>
      <trkpt lat="45.15367" lon="5.80313">
        <ele>900.79998779297</ele>
        <time>2011-04-22T16:55:26.000Z</time>
      </trkpt>
      <trkpt lat="45.15358" lon="5.80306">
        <ele>898</ele>
        <time>2011-04-22T16:55:31.000Z</time>
      </trkpt>
      <trkpt lat="45.15357" lon="5.80303">
        <ele>897</ele>
        <time>2011-04-22T16:55:32.000Z</time>
      </trkpt>
      <trkpt lat="45.15357" lon="5.80297">
        <ele>895.59997558594</ele>
        <time>2011-04-22T16:55:34.000Z</time>
      </trkpt>
      <trkpt lat="45.15358" lon="5.80294">
        <ele>895.20001220703</ele>
        <time>2011-04-22T16:55:35.000Z</time>
      </trkpt>
      <trkpt lat="45.15364" lon="5.80289">
        <ele>895</ele>
        <time>2011-04-22T16:55:39.000Z</time>
      </trkpt>
      <trkpt lat="45.15366" lon="5.80288">
        <ele>895</ele>
        <time>2011-04-22T16:55:40.000Z</time>
      </trkpt>
      <trkpt lat="45.15368" lon="5.80286">
        <ele>894.79998779297</ele>
        <time>2011-04-22T16:55:41.000Z</time>
      </trkpt>
      <trkpt lat="45.15376" lon="5.80285">
        <ele>896</ele>
        <time>2011-04-22T16:55:45.000Z</time>
      </trkpt>
      <trkpt lat="45.15384" lon="5.80286">
        <ele>897.40002441406</ele>
        <time>2011-04-22T16:55:50.000Z</time>
      </trkpt>
      <trkpt lat="45.15385" lon="5.80287">
        <ele>897.79998779297</ele>
        <time>2011-04-22T16:55:51.000Z</time>
      </trkpt>
      <trkpt lat="45.15392" lon="5.80287">
        <ele>899</ele>
        <time>2011-04-22T16:55:55.000Z</time>
      </trkpt>
      <trkpt lat="45.15403" lon="5.80288">
        <ele>900.59997558594</ele>
        <time>2011-04-22T16:56:00.000Z</time>
      </trkpt>
      <trkpt lat="45.15405" lon="5.80288">
        <ele>901</ele>
        <time>2011-04-22T16:56:01.000Z</time>
      </trkpt>
      <trkpt lat="45.15416" lon="5.80292">
        <ele>903.40002441406</ele>
        <time>2011-04-22T16:56:06.000Z</time>
      </trkpt>
      <trkpt lat="45.15424" lon="5.80295">
        <ele>902.59997558594</ele>
        <time>2011-04-22T16:56:09.000Z</time>
      </trkpt>
      <trkpt lat="45.15427" lon="5.80296">
        <ele>902.20001220703</ele>
        <time>2011-04-22T16:56:10.000Z</time>
      </trkpt>
      <trkpt lat="45.15441" lon="5.80302">
        <ele>900.20001220703</ele>
        <time>2011-04-22T16:56:16.000Z</time>
      </trkpt>
      <trkpt lat="45.15443" lon="5.80303">
        <ele>900</ele>
        <time>2011-04-22T16:56:17.000Z</time>
      </trkpt>
      <trkpt lat="45.15445" lon="5.80305">
        <ele>899.79998779297</ele>
        <time>2011-04-22T16:56:18.000Z</time>
      </trkpt>
      <trkpt lat="45.15449" lon="5.8031">
        <ele>899.59997558594</ele>
        <time>2011-04-22T16:56:20.000Z</time>
      </trkpt>
      <trkpt lat="45.15451" lon="5.80312">
        <ele>899.40002441406</ele>
        <time>2011-04-22T16:56:21.000Z</time>
      </trkpt>
      <trkpt lat="45.15458" lon="5.80314">
        <ele>898</ele>
        <time>2011-04-22T16:56:24.000Z</time>
      </trkpt>
      <trkpt lat="45.1546" lon="5.80315">
        <ele>897.59997558594</ele>
        <time>2011-04-22T16:56:25.000Z</time>
      </trkpt>
      <trkpt lat="45.15468" lon="5.80317">
        <ele>895.79998779297</ele>
        <time>2011-04-22T16:56:29.000Z</time>
      </trkpt>
      <trkpt lat="45.15473" lon="5.80318">
        <ele>894.79998779297</ele>
        <time>2011-04-22T16:56:33.000Z</time>
      </trkpt>
      <trkpt lat="45.15475" lon="5.80317">
        <ele>894.40002441406</ele>
        <time>2011-04-22T16:56:35.000Z</time>
      </trkpt>
      <trkpt lat="45.15478" lon="5.80314">
        <ele>893.59997558594</ele>
        <time>2011-04-22T16:56:39.000Z</time>
      </trkpt>
      <trkpt lat="45.15479" lon="5.80313">
        <ele>893.40002441406</ele>
        <time>2011-04-22T16:56:40.000Z</time>
      </trkpt>
      <trkpt lat="45.1548" lon="5.80313">
        <ele>893.20001220703</ele>
        <time>2011-04-22T16:56:42.000Z</time>
      </trkpt>
      <trkpt lat="45.1548" lon="5.80313">
        <ele>893</ele>
        <time>2011-04-22T16:56:48.000Z</time>
      </trkpt>
      <trkpt lat="45.1548" lon="5.80308">
        <ele>893</ele>
        <time>2011-04-22T16:56:57.000Z</time>
      </trkpt>
      <trkpt lat="45.15479" lon="5.8031">
        <ele>893.20001220703</ele>
        <time>2011-04-22T16:57:02.000Z</time>
      </trkpt>
      <trkpt lat="45.15479" lon="5.8031">
        <ele>893.20001220703</ele>
        <time>2011-04-22T16:57:16.000Z</time>
      </trkpt>
      <trkpt lat="45.15485" lon="5.8031">
        <ele>892</ele>
        <time>2011-04-22T16:58:00.000Z</time>
      </trkpt>
      <trkpt lat="45.15485" lon="5.80312">
        <ele>892.20001220703</ele>
        <time>2011-04-22T16:58:23.000Z</time>
      </trkpt>
      <trkpt lat="45.15484" lon="5.80312">
        <ele>892.40002441406</ele>
        <time>2011-04-22T16:58:35.000Z</time>
      </trkpt>
      <trkpt lat="45.15483" lon="5.80312">
        <ele>892.40002441406</ele>
        <time>2011-04-22T16:58:38.000Z</time>
      </trkpt>
      <trkpt lat="45.15485" lon="5.80315">
        <ele>892.20001220703</ele>
        <time>2011-04-22T16:58:50.000Z</time>
      </trkpt>
      <trkpt lat="45.15487" lon="5.80317">
        <ele>891.79998779297</ele>
        <time>2011-04-22T16:59:01.000Z</time>
      </trkpt>
      <trkpt lat="45.15486" lon="5.8031">
        <ele>891.79998779297</ele>
        <time>2011-04-22T16:59:17.000Z</time>
      </trkpt>
      <trkpt lat="45.15484" lon="5.80308">
        <ele>892.20001220703</ele>
        <time>2011-04-22T16:59:24.000Z</time>
      </trkpt>
      <trkpt lat="45.15483" lon="5.80309">
        <ele>892.40002441406</ele>
        <time>2011-04-22T16:59:31.000Z</time>
      </trkpt>
      <trkpt lat="45.15481" lon="5.80304">
        <ele>892.59997558594</ele>
        <time>2011-04-22T16:59:48.000Z</time>
      </trkpt>
      <trkpt lat="45.15482" lon="5.80306">
        <ele>892.59997558594</ele>
        <time>2011-04-22T16:59:57.000Z</time>
      </trkpt>
      <trkpt lat="45.1549" lon="5.80318">
        <ele>891.20001220703</ele>
        <time>2011-04-22T17:01:24.000Z</time>
      </trkpt>
      <trkpt lat="45.15488" lon="5.80318">
        <ele>891.59997558594</ele>
        <time>2011-04-22T17:01:29.000Z</time>
      </trkpt>
      <trkpt lat="45.15485" lon="5.80314">
        <ele>892.20001220703</ele>
        <time>2011-04-22T17:01:33.000Z</time>
      </trkpt>
      <trkpt lat="45.15482" lon="5.80313">
        <ele>892.59997558594</ele>
        <time>2011-04-22T17:01:42.000Z</time>
      </trkpt>
      <trkpt lat="45.15481" lon="5.80314">
        <ele>893</ele>
        <time>2011-04-22T17:01:48.000Z</time>
      </trkpt>
      <trkpt lat="45.15482" lon="5.80313">
        <ele>892.79998779297</ele>
        <time>2011-04-22T17:02:17.000Z</time>
      </trkpt>
      <trkpt lat="45.15479" lon="5.80309">
        <ele>893.40002441406</ele>
        <time>2011-04-22T17:02:22.000Z</time>
      </trkpt>
      <trkpt lat="45.15477" lon="5.80309">
        <ele>893.59997558594</ele>
        <time>2011-04-22T17:02:23.000Z</time>
      </trkpt>
      <trkpt lat="45.15476" lon="5.80308">
        <ele>893.79998779297</ele>
        <time>2011-04-22T17:02:24.000Z</time>
      </trkpt>
      <trkpt lat="45.15473" lon="5.80303">
        <ele>894.20001220703</ele>
        <time>2011-04-22T17:02:28.000Z</time>
      </trkpt>
      <trkpt lat="45.15471" lon="5.80301">
        <ele>894.40002441406</ele>
        <time>2011-04-22T17:02:30.000Z</time>
      </trkpt>
      <trkpt lat="45.1547" lon="5.803">
        <ele>894.59997558594</ele>
        <time>2011-04-22T17:02:31.000Z</time>
      </trkpt>
      <trkpt lat="45.15466" lon="5.80294">
        <ele>895</ele>
        <time>2011-04-22T17:02:36.000Z</time>
      </trkpt>
      <trkpt lat="45.15464" lon="5.80293">
        <ele>895.40002441406</ele>
        <time>2011-04-22T17:02:38.000Z</time>
      </trkpt>
      <trkpt lat="45.15459" lon="5.8029">
        <ele>896</ele>
        <time>2011-04-22T17:02:42.000Z</time>
      </trkpt>
      <trkpt lat="45.15456" lon="5.80288">
        <ele>896.20001220703</ele>
        <time>2011-04-22T17:02:45.000Z</time>
      </trkpt>
      <trkpt lat="45.15454" lon="5.80285">
        <ele>896.40002441406</ele>
        <time>2011-04-22T17:02:47.000Z</time>
      </trkpt>
      <trkpt lat="45.15452" lon="5.80282">
        <ele>896.40002441406</ele>
        <time>2011-04-22T17:02:50.000Z</time>
      </trkpt>
      <trkpt lat="45.15446" lon="5.80268">
        <ele>896</ele>
        <time>2011-04-22T17:02:55.000Z</time>
      </trkpt>
      <trkpt lat="45.15445" lon="5.80265">
        <ele>895.79998779297</ele>
        <time>2011-04-22T17:02:56.000Z</time>
      </trkpt>
      <trkpt lat="45.15441" lon="5.80253">
        <ele>895</ele>
        <time>2011-04-22T17:03:00.000Z</time>
      </trkpt>
      <trkpt lat="45.15437" lon="5.8024">
        <ele>893.40002441406</ele>
        <time>2011-04-22T17:03:04.000Z</time>
      </trkpt>
      <trkpt lat="45.15436" lon="5.80237">
        <ele>893</ele>
        <time>2011-04-22T17:03:05.000Z</time>
      </trkpt>
      <trkpt lat="45.15435" lon="5.80234">
        <ele>892.59997558594</ele>
        <time>2011-04-22T17:03:06.000Z</time>
      </trkpt>
      <trkpt lat="45.15433" lon="5.80222">
        <ele>891</ele>
        <time>2011-04-22T17:03:10.000Z</time>
      </trkpt>
      <trkpt lat="45.15433" lon="5.80219">
        <ele>890.59997558594</ele>
        <time>2011-04-22T17:03:11.000Z</time>
      </trkpt>
      <trkpt lat="45.15431" lon="5.80213">
        <ele>889.79998779297</ele>
        <time>2011-04-22T17:03:13.000Z</time>
      </trkpt>
      <trkpt lat="45.15428" lon="5.80201">
        <ele>888.20001220703</ele>
        <time>2011-04-22T17:03:17.000Z</time>
      </trkpt>
      <trkpt lat="45.15428" lon="5.80187">
        <ele>886.20001220703</ele>
        <time>2011-04-22T17:03:21.000Z</time>
      </trkpt>
      <trkpt lat="45.15427" lon="5.80179">
        <ele>885.20001220703</ele>
        <time>2011-04-22T17:03:23.000Z</time>
      </trkpt>
      <trkpt lat="45.15425" lon="5.8016">
        <ele>882.59997558594</ele>
        <time>2011-04-22T17:03:29.000Z</time>
      </trkpt>
      <trkpt lat="45.15424" lon="5.80141">
        <ele>879.40002441406</ele>
        <time>2011-04-22T17:03:34.000Z</time>
      </trkpt>
      <trkpt lat="45.15425" lon="5.80135">
        <ele>878.20001220703</ele>
        <time>2011-04-22T17:03:36.000Z</time>
      </trkpt>
      <trkpt lat="45.15426" lon="5.80122">
        <ele>876</ele>
        <time>2011-04-22T17:03:40.000Z</time>
      </trkpt>
      <trkpt lat="45.15429" lon="5.80109">
        <ele>873.59997558594</ele>
        <time>2011-04-22T17:03:44.000Z</time>
      </trkpt>
      <trkpt lat="45.15428" lon="5.80104">
        <ele>872.79998779297</ele>
        <time>2011-04-22T17:03:45.000Z</time>
      </trkpt>
      <trkpt lat="45.15429" lon="5.80083">
        <ele>869.40002441406</ele>
        <time>2011-04-22T17:03:50.000Z</time>
      </trkpt>
      <trkpt lat="45.15427" lon="5.8006">
        <ele>870.40002441406</ele>
        <time>2011-04-22T17:03:56.000Z</time>
      </trkpt>
      <trkpt lat="45.15426" lon="5.80057">
        <ele>870.59997558594</ele>
        <time>2011-04-22T17:03:57.000Z</time>
      </trkpt>
      <trkpt lat="45.15421" lon="5.8004">
        <ele>871</ele>
        <time>2011-04-22T17:04:02.000Z</time>
      </trkpt>
      <trkpt lat="45.15419" lon="5.80032">
        <ele>871.20001220703</ele>
        <time>2011-04-22T17:04:04.000Z</time>
      </trkpt>
      <trkpt lat="45.15417" lon="5.80024">
        <ele>871.40002441406</ele>
        <time>2011-04-22T17:04:06.000Z</time>
      </trkpt>
      <trkpt lat="45.15409" lon="5.80006">
        <ele>869.20001220703</ele>
        <time>2011-04-22T17:04:11.000Z</time>
      </trkpt>
      <trkpt lat="45.15402" lon="5.79987">
        <ele>867.40002441406</ele>
        <time>2011-04-22T17:04:17.000Z</time>
      </trkpt>
      <trkpt lat="45.15401" lon="5.7998">
        <ele>867.40002441406</ele>
        <time>2011-04-22T17:04:19.000Z</time>
      </trkpt>
      <trkpt lat="45.15399" lon="5.7997">
        <ele>867.40002441406</ele>
        <time>2011-04-22T17:04:22.000Z</time>
      </trkpt>
      <trkpt lat="45.15395" lon="5.79953">
        <ele>866.59997558594</ele>
        <time>2011-04-22T17:04:27.000Z</time>
      </trkpt>
      <trkpt lat="45.15394" lon="5.79949">
        <ele>866.40002441406</ele>
        <time>2011-04-22T17:04:28.000Z</time>
      </trkpt>
      <trkpt lat="45.15388" lon="5.79925">
        <ele>865.20001220703</ele>
        <time>2011-04-22T17:04:35.000Z</time>
      </trkpt>
      <trkpt lat="45.15384" lon="5.799">
        <ele>862</ele>
        <time>2011-04-22T17:04:42.000Z</time>
      </trkpt>
      <trkpt lat="45.15383" lon="5.79878">
        <ele>859.40002441406</ele>
        <time>2011-04-22T17:04:48.000Z</time>
      </trkpt>
      <trkpt lat="45.15383" lon="5.79874">
        <ele>859</ele>
        <time>2011-04-22T17:04:49.000Z</time>
      </trkpt>
      <trkpt lat="45.15383" lon="5.79859">
        <ele>857.59997558594</ele>
        <time>2011-04-22T17:04:53.000Z</time>
      </trkpt>
      <trkpt lat="45.15383" lon="5.79845">
        <ele>855.79998779297</ele>
        <time>2011-04-22T17:04:57.000Z</time>
      </trkpt>
      <trkpt lat="45.15381" lon="5.79819">
        <ele>851.20001220703</ele>
        <time>2011-04-22T17:05:04.000Z</time>
      </trkpt>
      <trkpt lat="45.15385" lon="5.79793">
        <ele>848</ele>
        <time>2011-04-22T17:05:11.000Z</time>
      </trkpt>
      <trkpt lat="45.15394" lon="5.79778">
        <ele>848.79998779297</ele>
        <time>2011-04-22T17:05:16.000Z</time>
      </trkpt>
      <trkpt lat="45.15398" lon="5.79772">
        <ele>849.59997558594</ele>
        <time>2011-04-22T17:05:18.000Z</time>
      </trkpt>
      <trkpt lat="45.15405" lon="5.79759">
        <ele>850</ele>
        <time>2011-04-22T17:05:22.000Z</time>
      </trkpt>
      <trkpt lat="45.15408" lon="5.79748">
        <ele>849.20001220703</ele>
        <time>2011-04-22T17:05:25.000Z</time>
      </trkpt>
      <trkpt lat="45.15409" lon="5.79744">
        <ele>849</ele>
        <time>2011-04-22T17:05:26.000Z</time>
      </trkpt>
      <trkpt lat="45.15413" lon="5.79726">
        <ele>848.40002441406</ele>
        <time>2011-04-22T17:05:31.000Z</time>
      </trkpt>
      <trkpt lat="45.15414" lon="5.79722">
        <ele>848.20001220703</ele>
        <time>2011-04-22T17:05:32.000Z</time>
      </trkpt>
      <trkpt lat="45.15415" lon="5.79706">
        <ele>846.20001220703</ele>
        <time>2011-04-22T17:05:36.000Z</time>
      </trkpt>
      <trkpt lat="45.15414" lon="5.79695">
        <ele>844.40002441406</ele>
        <time>2011-04-22T17:05:39.000Z</time>
      </trkpt>
      <trkpt lat="45.15413" lon="5.79686">
        <ele>843</ele>
        <time>2011-04-22T17:05:41.000Z</time>
      </trkpt>
      <trkpt lat="45.15409" lon="5.79668">
        <ele>839.20001220703</ele>
        <time>2011-04-22T17:05:46.000Z</time>
      </trkpt>
      <trkpt lat="45.15407" lon="5.79664">
        <ele>838.20001220703</ele>
        <time>2011-04-22T17:05:47.000Z</time>
      </trkpt>
      <trkpt lat="45.15401" lon="5.79643">
        <ele>834</ele>
        <time>2011-04-22T17:05:53.000Z</time>
      </trkpt>
      <trkpt lat="45.15401" lon="5.79624">
        <ele>832.59997558594</ele>
        <time>2011-04-22T17:05:58.000Z</time>
      </trkpt>
      <trkpt lat="45.15403" lon="5.79616">
        <ele>832.59997558594</ele>
        <time>2011-04-22T17:06:00.000Z</time>
      </trkpt>
      <trkpt lat="45.15404" lon="5.79607">
        <ele>832.20001220703</ele>
        <time>2011-04-22T17:06:02.000Z</time>
      </trkpt>
      <trkpt lat="45.15406" lon="5.79589">
        <ele>831.40002441406</ele>
        <time>2011-04-22T17:06:06.000Z</time>
      </trkpt>
      <trkpt lat="45.15407" lon="5.79585">
        <ele>831.20001220703</ele>
        <time>2011-04-22T17:06:07.000Z</time>
      </trkpt>
      <trkpt lat="45.15409" lon="5.79562">
        <ele>828</ele>
        <time>2011-04-22T17:06:12.000Z</time>
      </trkpt>
      <trkpt lat="45.15411" lon="5.7954">
        <ele>824.79998779297</ele>
        <time>2011-04-22T17:06:17.000Z</time>
      </trkpt>
      <trkpt lat="45.15411" lon="5.79536">
        <ele>824.20001220703</ele>
        <time>2011-04-22T17:06:18.000Z</time>
      </trkpt>
      <trkpt lat="45.15414" lon="5.79526">
        <ele>823.59997558594</ele>
        <time>2011-04-22T17:06:21.000Z</time>
      </trkpt>
      <trkpt lat="45.15417" lon="5.79518">
        <ele>823.20001220703</ele>
        <time>2011-04-22T17:06:23.000Z</time>
      </trkpt>
      <trkpt lat="45.15421" lon="5.79514">
        <ele>823.79998779297</ele>
        <time>2011-04-22T17:06:25.000Z</time>
      </trkpt>
      <trkpt lat="45.15425" lon="5.79509">
        <ele>824.40002441406</ele>
        <time>2011-04-22T17:06:27.000Z</time>
      </trkpt>
      <trkpt lat="45.1543" lon="5.795">
        <ele>824.59997558594</ele>
        <time>2011-04-22T17:06:30.000Z</time>
      </trkpt>
      <trkpt lat="45.15434" lon="5.79496">
        <ele>824.59997558594</ele>
        <time>2011-04-22T17:06:32.000Z</time>
      </trkpt>
      <trkpt lat="45.1544" lon="5.7949">
        <ele>824.79998779297</ele>
        <time>2011-04-22T17:06:35.000Z</time>
      </trkpt>
      <trkpt lat="45.1545" lon="5.79483">
        <ele>825.79998779297</ele>
        <time>2011-04-22T17:06:39.000Z</time>
      </trkpt>
      <trkpt lat="45.15452" lon="5.79482">
        <ele>826.40002441406</ele>
        <time>2011-04-22T17:06:40.000Z</time>
      </trkpt>
      <trkpt lat="45.15465" lon="5.79473">
        <ele>827.79998779297</ele>
        <time>2011-04-22T17:06:45.000Z</time>
      </trkpt>
      <trkpt lat="45.15467" lon="5.7947">
        <ele>827.79998779297</ele>
        <time>2011-04-22T17:06:46.000Z</time>
      </trkpt>
      <trkpt lat="45.15478" lon="5.79461">
        <ele>828.20001220703</ele>
        <time>2011-04-22T17:06:50.000Z</time>
      </trkpt>
      <trkpt lat="45.15483" lon="5.79456">
        <ele>828</ele>
        <time>2011-04-22T17:06:52.000Z</time>
      </trkpt>
      <trkpt lat="45.15491" lon="5.79446">
        <ele>827.20001220703</ele>
        <time>2011-04-22T17:06:56.000Z</time>
      </trkpt>
      <trkpt lat="45.15497" lon="5.79437">
        <ele>826.20001220703</ele>
        <time>2011-04-22T17:06:59.000Z</time>
      </trkpt>
      <trkpt lat="45.15501" lon="5.7943">
        <ele>825</ele>
        <time>2011-04-22T17:07:01.000Z</time>
      </trkpt>
      <trkpt lat="45.15508" lon="5.79416">
        <ele>822.40002441406</ele>
        <time>2011-04-22T17:07:05.000Z</time>
      </trkpt>
      <trkpt lat="45.15511" lon="5.79408">
        <ele>822.20001220703</ele>
        <time>2011-04-22T17:07:07.000Z</time>
      </trkpt>
      <trkpt lat="45.15515" lon="5.7939">
        <ele>820.40002441406</ele>
        <time>2011-04-22T17:07:10.000Z</time>
      </trkpt>
      <trkpt lat="45.15517" lon="5.79378">
        <ele>819.20001220703</ele>
        <time>2011-04-22T17:07:12.000Z</time>
      </trkpt>
      <trkpt lat="45.15519" lon="5.79364">
        <ele>817.59997558594</ele>
        <time>2011-04-22T17:07:15.000Z</time>
      </trkpt>
      <trkpt lat="45.15519" lon="5.79351">
        <ele>815.40002441406</ele>
        <time>2011-04-22T17:07:18.000Z</time>
      </trkpt>
      <trkpt lat="45.15517" lon="5.79335">
        <ele>812</ele>
        <time>2011-04-22T17:07:22.000Z</time>
      </trkpt>
      <trkpt lat="45.15512" lon="5.7932">
        <ele>809.59997558594</ele>
        <time>2011-04-22T17:07:26.000Z</time>
      </trkpt>
      <trkpt lat="45.15509" lon="5.7931">
        <ele>808.20001220703</ele>
        <time>2011-04-22T17:07:29.000Z</time>
      </trkpt>
      <trkpt lat="45.15508" lon="5.79306">
        <ele>807.79998779297</ele>
        <time>2011-04-22T17:07:30.000Z</time>
      </trkpt>
      <trkpt lat="45.15503" lon="5.79286">
        <ele>805.40002441406</ele>
        <time>2011-04-22T17:07:35.000Z</time>
      </trkpt>
      <trkpt lat="45.15497" lon="5.79265">
        <ele>802.59997558594</ele>
        <time>2011-04-22T17:07:40.000Z</time>
      </trkpt>
      <trkpt lat="45.15495" lon="5.79261">
        <ele>802.20001220703</ele>
        <time>2011-04-22T17:07:41.000Z</time>
      </trkpt>
      <trkpt lat="45.15491" lon="5.7925">
        <ele>800.79998779297</ele>
        <time>2011-04-22T17:07:44.000Z</time>
      </trkpt>
      <trkpt lat="45.15483" lon="5.7924">
        <ele>799.40002441406</ele>
        <time>2011-04-22T17:07:48.000Z</time>
      </trkpt>
      <trkpt lat="45.1548" lon="5.79238">
        <ele>799</ele>
        <time>2011-04-22T17:07:49.000Z</time>
      </trkpt>
      <trkpt lat="45.15476" lon="5.79235">
        <ele>798</ele>
        <time>2011-04-22T17:07:51.000Z</time>
      </trkpt>
      <trkpt lat="45.15472" lon="5.79228">
        <ele>797.40002441406</ele>
        <time>2011-04-22T17:07:53.000Z</time>
      </trkpt>
      <trkpt lat="45.15471" lon="5.7922">
        <ele>797.40002441406</ele>
        <time>2011-04-22T17:07:55.000Z</time>
      </trkpt>
      <trkpt lat="45.15472" lon="5.79208">
        <ele>797.79998779297</ele>
        <time>2011-04-22T17:07:58.000Z</time>
      </trkpt>
      <trkpt lat="45.15472" lon="5.79194">
        <ele>798.20001220703</ele>
        <time>2011-04-22T17:08:02.000Z</time>
      </trkpt>
      <trkpt lat="45.15473" lon="5.79186">
        <ele>798.59997558594</ele>
        <time>2011-04-22T17:08:04.000Z</time>
      </trkpt>
      <trkpt lat="45.15475" lon="5.79167">
        <ele>799.40002441406</ele>
        <time>2011-04-22T17:08:09.000Z</time>
      </trkpt>
      <trkpt lat="45.15475" lon="5.79145">
        <ele>798.20001220703</ele>
        <time>2011-04-22T17:08:15.000Z</time>
      </trkpt>
      <trkpt lat="45.15476" lon="5.79138">
        <ele>797.79998779297</ele>
        <time>2011-04-22T17:08:17.000Z</time>
      </trkpt>
      <trkpt lat="45.15479" lon="5.7912">
        <ele>797</ele>
        <time>2011-04-22T17:08:22.000Z</time>
      </trkpt>
      <trkpt lat="45.1548" lon="5.7911">
        <ele>796.40002441406</ele>
        <time>2011-04-22T17:08:25.000Z</time>
      </trkpt>
      <trkpt lat="45.15482" lon="5.79098">
        <ele>796</ele>
        <time>2011-04-22T17:08:28.000Z</time>
      </trkpt>
      <trkpt lat="45.1548" lon="5.79082">
        <ele>794.59997558594</ele>
        <time>2011-04-22T17:08:32.000Z</time>
      </trkpt>
      <trkpt lat="45.15478" lon="5.79079">
        <ele>794.20001220703</ele>
        <time>2011-04-22T17:08:33.000Z</time>
      </trkpt>
      <trkpt lat="45.15472" lon="5.79074">
        <ele>793.40002441406</ele>
        <time>2011-04-22T17:08:36.000Z</time>
      </trkpt>
      <trkpt lat="45.1547" lon="5.79073">
        <ele>793.20001220703</ele>
        <time>2011-04-22T17:08:37.000Z</time>
      </trkpt>
      <trkpt lat="45.15466" lon="5.79064">
        <ele>792.40002441406</ele>
        <time>2011-04-22T17:08:40.000Z</time>
      </trkpt>
      <trkpt lat="45.15467" lon="5.79048">
        <ele>791.79998779297</ele>
        <time>2011-04-22T17:08:44.000Z</time>
      </trkpt>
      <trkpt lat="45.15464" lon="5.79036">
        <ele>791.20001220703</ele>
        <time>2011-04-22T17:08:48.000Z</time>
      </trkpt>
      <trkpt lat="45.15465" lon="5.79021">
        <ele>790.79998779297</ele>
        <time>2011-04-22T17:08:52.000Z</time>
      </trkpt>
      <trkpt lat="45.15469" lon="5.79017">
        <ele>790.59997558594</ele>
        <time>2011-04-22T17:08:54.000Z</time>
      </trkpt>
      <trkpt lat="45.15471" lon="5.79014">
        <ele>790.59997558594</ele>
        <time>2011-04-22T17:08:55.000Z</time>
      </trkpt>
      <trkpt lat="45.15476" lon="5.7901">
        <ele>790.40002441406</ele>
        <time>2011-04-22T17:08:57.000Z</time>
      </trkpt>
      <trkpt lat="45.15481" lon="5.79001">
        <ele>790</ele>
        <time>2011-04-22T17:09:01.000Z</time>
      </trkpt>
      <trkpt lat="45.15482" lon="5.79">
        <ele>789.79998779297</ele>
        <time>2011-04-22T17:09:02.000Z</time>
      </trkpt>
      <trkpt lat="45.15485" lon="5.78995">
        <ele>789.79998779297</ele>
        <time>2011-04-22T17:09:04.000Z</time>
      </trkpt>
      <trkpt lat="45.15486" lon="5.78991">
        <ele>789.59997558594</ele>
        <time>2011-04-22T17:09:05.000Z</time>
      </trkpt>
      <trkpt lat="45.15487" lon="5.78988">
        <ele>789.40002441406</ele>
        <time>2011-04-22T17:09:06.000Z</time>
      </trkpt>
      <trkpt lat="45.15487" lon="5.78974">
        <ele>788.79998779297</ele>
        <time>2011-04-22T17:09:10.000Z</time>
      </trkpt>
      <trkpt lat="45.15487" lon="5.78967">
        <ele>788.59997558594</ele>
        <time>2011-04-22T17:09:12.000Z</time>
      </trkpt>
      <trkpt lat="45.15487" lon="5.78952">
        <ele>788</ele>
        <time>2011-04-22T17:09:16.000Z</time>
      </trkpt>
      <trkpt lat="45.15486" lon="5.7894">
        <ele>787.59997558594</ele>
        <time>2011-04-22T17:09:20.000Z</time>
      </trkpt>
      <trkpt lat="45.15487" lon="5.78938">
        <ele>787.40002441406</ele>
        <time>2011-04-22T17:09:21.000Z</time>
      </trkpt>
      <trkpt lat="45.15488" lon="5.78919">
        <ele>786.59997558594</ele>
        <time>2011-04-22T17:09:27.000Z</time>
      </trkpt>
      <trkpt lat="45.15486" lon="5.78914">
        <ele>786.59997558594</ele>
        <time>2011-04-22T17:09:29.000Z</time>
      </trkpt>
      <trkpt lat="45.15486" lon="5.78906">
        <ele>786.20001220703</ele>
        <time>2011-04-22T17:09:31.000Z</time>
      </trkpt>
      <trkpt lat="45.15486" lon="5.78903">
        <ele>786</ele>
        <time>2011-04-22T17:09:32.000Z</time>
      </trkpt>
      <trkpt lat="45.15486" lon="5.78894">
        <ele>785.59997558594</ele>
        <time>2011-04-22T17:09:35.000Z</time>
      </trkpt>
      <trkpt lat="45.15486" lon="5.78887">
        <ele>785.40002441406</ele>
        <time>2011-04-22T17:09:37.000Z</time>
      </trkpt>
      <trkpt lat="45.15486" lon="5.78881">
        <ele>785.20001220703</ele>
        <time>2011-04-22T17:09:39.000Z</time>
      </trkpt>
      <trkpt lat="45.15488" lon="5.78868">
        <ele>784.20001220703</ele>
        <time>2011-04-22T17:09:43.000Z</time>
      </trkpt>
      <trkpt lat="45.15487" lon="5.78864">
        <ele>784.20001220703</ele>
        <time>2011-04-22T17:09:44.000Z</time>
      </trkpt>
      <trkpt lat="45.15486" lon="5.78855">
        <ele>784</ele>
        <time>2011-04-22T17:09:45.000Z</time>
      </trkpt>
      <trkpt lat="45.15483" lon="5.78839">
        <ele>783.79998779297</ele>
        <time>2011-04-22T17:09:48.000Z</time>
      </trkpt>
      <trkpt lat="45.15483" lon="5.78828">
        <ele>782.79998779297</ele>
        <time>2011-04-22T17:09:51.000Z</time>
      </trkpt>
      <trkpt lat="45.15484" lon="5.78825">
        <ele>782.40002441406</ele>
        <time>2011-04-22T17:09:52.000Z</time>
      </trkpt>
      <trkpt lat="45.15484" lon="5.78823">
        <ele>782</ele>
        <time>2011-04-22T17:09:53.000Z</time>
      </trkpt>
      <trkpt lat="45.15485" lon="5.78809">
        <ele>780</ele>
        <time>2011-04-22T17:09:57.000Z</time>
      </trkpt>
      <trkpt lat="45.15485" lon="5.78805">
        <ele>779.40002441406</ele>
        <time>2011-04-22T17:09:58.000Z</time>
      </trkpt>
      <trkpt lat="45.15484" lon="5.78802">
        <ele>779.20001220703</ele>
        <time>2011-04-22T17:09:59.000Z</time>
      </trkpt>
      <trkpt lat="45.15482" lon="5.78789">
        <ele>778.20001220703</ele>
        <time>2011-04-22T17:10:03.000Z</time>
      </trkpt>
      <trkpt lat="45.1548" lon="5.78777">
        <ele>777.20001220703</ele>
        <time>2011-04-22T17:10:07.000Z</time>
      </trkpt>
      <trkpt lat="45.15481" lon="5.78774">
        <ele>776.59997558594</ele>
        <time>2011-04-22T17:10:08.000Z</time>
      </trkpt>
      <trkpt lat="45.15482" lon="5.78754">
        <ele>773.59997558594</ele>
        <time>2011-04-22T17:10:14.000Z</time>
      </trkpt>
      <trkpt lat="45.15483" lon="5.78751">
        <ele>773</ele>
        <time>2011-04-22T17:10:16.000Z</time>
      </trkpt>
      <trkpt lat="45.15483" lon="5.78745">
        <ele>772</ele>
        <time>2011-04-22T17:10:18.000Z</time>
      </trkpt>
      <trkpt lat="45.15482" lon="5.78736">
        <ele>771.20001220703</ele>
        <time>2011-04-22T17:10:20.000Z</time>
      </trkpt>
      <trkpt lat="45.15483" lon="5.78725">
        <ele>769.40002441406</ele>
        <time>2011-04-22T17:10:24.000Z</time>
      </trkpt>
      <trkpt lat="45.15483" lon="5.78723">
        <ele>769.20001220703</ele>
        <time>2011-04-22T17:10:25.000Z</time>
      </trkpt>
      <trkpt lat="45.15484" lon="5.7871">
        <ele>767</ele>
        <time>2011-04-22T17:10:30.000Z</time>
      </trkpt>
      <trkpt lat="45.15482" lon="5.78697">
        <ele>766.20001220703</ele>
        <time>2011-04-22T17:10:34.000Z</time>
      </trkpt>
      <trkpt lat="45.15482" lon="5.78695">
        <ele>765.79998779297</ele>
        <time>2011-04-22T17:10:35.000Z</time>
      </trkpt>
      <trkpt lat="45.15482" lon="5.78684">
        <ele>764.20001220703</ele>
        <time>2011-04-22T17:10:38.000Z</time>
      </trkpt>
      <trkpt lat="45.15483" lon="5.78671">
        <ele>762.40002441406</ele>
        <time>2011-04-22T17:10:42.000Z</time>
      </trkpt>
      <trkpt lat="45.15483" lon="5.78668">
        <ele>761.79998779297</ele>
        <time>2011-04-22T17:10:43.000Z</time>
      </trkpt>
      <trkpt lat="45.15487" lon="5.78649">
        <ele>757.79998779297</ele>
        <time>2011-04-22T17:10:47.000Z</time>
      </trkpt>
      <trkpt lat="45.15487" lon="5.78645">
        <ele>757</ele>
        <time>2011-04-22T17:10:48.000Z</time>
      </trkpt>
      <trkpt lat="45.15485" lon="5.78626">
        <ele>755.20001220703</ele>
        <time>2011-04-22T17:10:53.000Z</time>
      </trkpt>
      <trkpt lat="45.15483" lon="5.78619">
        <ele>755</ele>
        <time>2011-04-22T17:10:55.000Z</time>
      </trkpt>
      <trkpt lat="45.1548" lon="5.78601">
        <ele>753.79998779297</ele>
        <time>2011-04-22T17:10:59.000Z</time>
      </trkpt>
      <trkpt lat="45.15478" lon="5.78594">
        <ele>753.40002441406</ele>
        <time>2011-04-22T17:11:01.000Z</time>
      </trkpt>
      <trkpt lat="45.15477" lon="5.78583">
        <ele>752.20001220703</ele>
        <time>2011-04-22T17:11:04.000Z</time>
      </trkpt>
      <trkpt lat="45.15476" lon="5.78569">
        <ele>750.79998779297</ele>
        <time>2011-04-22T17:11:08.000Z</time>
      </trkpt>
      <trkpt lat="45.15476" lon="5.78563">
        <ele>750</ele>
        <time>2011-04-22T17:11:10.000Z</time>
      </trkpt>
      <trkpt lat="45.15476" lon="5.78556">
        <ele>749</ele>
        <time>2011-04-22T17:11:12.000Z</time>
      </trkpt>
      <trkpt lat="45.15481" lon="5.78552">
        <ele>746.79998779297</ele>
        <time>2011-04-22T17:11:14.000Z</time>
      </trkpt>
      <trkpt lat="45.15484" lon="5.78548">
        <ele>745</ele>
        <time>2011-04-22T17:11:16.000Z</time>
      </trkpt>
      <trkpt lat="45.15488" lon="5.78543">
        <ele>742.79998779297</ele>
        <time>2011-04-22T17:11:18.000Z</time>
      </trkpt>
      <trkpt lat="45.15499" lon="5.78532">
        <ele>737.59997558594</ele>
        <time>2011-04-22T17:11:23.000Z</time>
      </trkpt>
      <trkpt lat="45.15501" lon="5.78531">
        <ele>736.79998779297</ele>
        <time>2011-04-22T17:11:24.000Z</time>
      </trkpt>
      <trkpt lat="45.15506" lon="5.78526">
        <ele>735.20001220703</ele>
        <time>2011-04-22T17:11:27.000Z</time>
      </trkpt>
      <trkpt lat="45.1551" lon="5.78521">
        <ele>733.79998779297</ele>
        <time>2011-04-22T17:11:29.000Z</time>
      </trkpt>
      <trkpt lat="45.15514" lon="5.78518">
        <ele>732.59997558594</ele>
        <time>2011-04-22T17:11:31.000Z</time>
      </trkpt>
      <trkpt lat="45.15516" lon="5.78516">
        <ele>732</ele>
        <time>2011-04-22T17:11:32.000Z</time>
      </trkpt>
      <trkpt lat="45.15522" lon="5.78509">
        <ele>730</ele>
        <time>2011-04-22T17:11:35.000Z</time>
      </trkpt>
      <trkpt lat="45.15525" lon="5.78504">
        <ele>728.79998779297</ele>
        <time>2011-04-22T17:11:37.000Z</time>
      </trkpt>
      <trkpt lat="45.15528" lon="5.78499">
        <ele>727.79998779297</ele>
        <time>2011-04-22T17:11:39.000Z</time>
      </trkpt>
      <trkpt lat="45.15527" lon="5.7849">
        <ele>727.40002441406</ele>
        <time>2011-04-22T17:11:43.000Z</time>
      </trkpt>
      <trkpt lat="45.15521" lon="5.78474">
        <ele>727.40002441406</ele>
        <time>2011-04-22T17:11:47.000Z</time>
      </trkpt>
      <trkpt lat="45.1552" lon="5.78469">
        <ele>727.20001220703</ele>
        <time>2011-04-22T17:11:48.000Z</time>
      </trkpt>
      <trkpt lat="45.15522" lon="5.78463">
        <ele>726.59997558594</ele>
        <time>2011-04-22T17:11:50.000Z</time>
      </trkpt>
      <trkpt lat="45.15523" lon="5.78455">
        <ele>725.79998779297</ele>
        <time>2011-04-22T17:11:52.000Z</time>
      </trkpt>
      <trkpt lat="45.15528" lon="5.78449">
        <ele>724.59997558594</ele>
        <time>2011-04-22T17:11:55.000Z</time>
      </trkpt>
      <trkpt lat="45.15529" lon="5.78445">
        <ele>724</ele>
        <time>2011-04-22T17:11:57.000Z</time>
      </trkpt>
      <trkpt lat="45.15532" lon="5.78442">
        <ele>723.40002441406</ele>
        <time>2011-04-22T17:11:59.000Z</time>
      </trkpt>
      <trkpt lat="45.15533" lon="5.78439">
        <ele>723</ele>
        <time>2011-04-22T17:12:00.000Z</time>
      </trkpt>
      <trkpt lat="45.15535" lon="5.78432">
        <ele>722.20001220703</ele>
        <time>2011-04-22T17:12:03.000Z</time>
      </trkpt>
      <trkpt lat="45.15537" lon="5.78426">
        <ele>721.40002441406</ele>
        <time>2011-04-22T17:12:06.000Z</time>
      </trkpt>
      <trkpt lat="45.15538" lon="5.78424">
        <ele>721</ele>
        <time>2011-04-22T17:12:07.000Z</time>
      </trkpt>
      <trkpt lat="45.15545" lon="5.78418">
        <ele>719.40002441406</ele>
        <time>2011-04-22T17:12:11.000Z</time>
      </trkpt>
      <trkpt lat="45.15546" lon="5.78417">
        <ele>719</ele>
        <time>2011-04-22T17:12:12.000Z</time>
      </trkpt>
      <trkpt lat="45.15551" lon="5.78407">
        <ele>717.20001220703</ele>
        <time>2011-04-22T17:12:16.000Z</time>
      </trkpt>
      <trkpt lat="45.15553" lon="5.78405">
        <ele>716.40002441406</ele>
        <time>2011-04-22T17:12:17.000Z</time>
      </trkpt>
      <trkpt lat="45.15558" lon="5.78399">
        <ele>715</ele>
        <time>2011-04-22T17:12:20.000Z</time>
      </trkpt>
      <trkpt lat="45.1556" lon="5.78395">
        <ele>714</ele>
        <time>2011-04-22T17:12:22.000Z</time>
      </trkpt>
      <trkpt lat="45.15564" lon="5.78389">
        <ele>712.59997558594</ele>
        <time>2011-04-22T17:12:25.000Z</time>
      </trkpt>
      <trkpt lat="45.15567" lon="5.78385">
        <ele>711.59997558594</ele>
        <time>2011-04-22T17:12:26.000Z</time>
      </trkpt>
      <trkpt lat="45.15575" lon="5.78381">
        <ele>709.40002441406</ele>
        <time>2011-04-22T17:12:30.000Z</time>
      </trkpt>
      <trkpt lat="45.15581" lon="5.7838">
        <ele>708</ele>
        <time>2011-04-22T17:12:33.000Z</time>
      </trkpt>
      <trkpt lat="45.15583" lon="5.78379">
        <ele>707.59997558594</ele>
        <time>2011-04-22T17:12:34.000Z</time>
      </trkpt>
      <trkpt lat="45.15585" lon="5.78378">
        <ele>706.79998779297</ele>
        <time>2011-04-22T17:12:35.000Z</time>
      </trkpt>
      <trkpt lat="45.15591" lon="5.78374">
        <ele>704.20001220703</ele>
        <time>2011-04-22T17:12:38.000Z</time>
      </trkpt>
      <trkpt lat="45.15591" lon="5.78368">
        <ele>703.40002441406</ele>
        <time>2011-04-22T17:12:40.000Z</time>
      </trkpt>
      <trkpt lat="45.15589" lon="5.7836">
        <ele>703</ele>
        <time>2011-04-22T17:12:42.000Z</time>
      </trkpt>
      <trkpt lat="45.15589" lon="5.78356">
        <ele>702.79998779297</ele>
        <time>2011-04-22T17:12:43.000Z</time>
      </trkpt>
      <trkpt lat="45.15587" lon="5.78347">
        <ele>702.40002441406</ele>
        <time>2011-04-22T17:12:46.000Z</time>
      </trkpt>
      <trkpt lat="45.15581" lon="5.78334">
        <ele>702.40002441406</ele>
        <time>2011-04-22T17:12:51.000Z</time>
      </trkpt>
      <trkpt lat="45.15574" lon="5.78322">
        <ele>703.40002441406</ele>
        <time>2011-04-22T17:12:57.000Z</time>
      </trkpt>
      <trkpt lat="45.15572" lon="5.78318">
        <ele>703.59997558594</ele>
        <time>2011-04-22T17:12:59.000Z</time>
      </trkpt>
      <trkpt lat="45.1557" lon="5.78312">
        <ele>703.59997558594</ele>
        <time>2011-04-22T17:13:01.000Z</time>
      </trkpt>
      <trkpt lat="45.1557" lon="5.78308">
        <ele>703.59997558594</ele>
        <time>2011-04-22T17:13:02.000Z</time>
      </trkpt>
      <trkpt lat="45.15567" lon="5.78293">
        <ele>703.40002441406</ele>
        <time>2011-04-22T17:13:07.000Z</time>
      </trkpt>
      <trkpt lat="45.15566" lon="5.78289">
        <ele>703.20001220703</ele>
        <time>2011-04-22T17:13:08.000Z</time>
      </trkpt>
      <trkpt lat="45.15566" lon="5.78286">
        <ele>703</ele>
        <time>2011-04-22T17:13:09.000Z</time>
      </trkpt>
      <trkpt lat="45.15567" lon="5.78278">
        <ele>702.59997558594</ele>
        <time>2011-04-22T17:13:11.000Z</time>
      </trkpt>
      <trkpt lat="45.15567" lon="5.78274">
        <ele>702.20001220703</ele>
        <time>2011-04-22T17:13:13.000Z</time>
      </trkpt>
      <trkpt lat="45.15567" lon="5.78267">
        <ele>701.59997558594</ele>
        <time>2011-04-22T17:13:16.000Z</time>
      </trkpt>
      <trkpt lat="45.1557" lon="5.78258">
        <ele>700.40002441406</ele>
        <time>2011-04-22T17:13:19.000Z</time>
      </trkpt>
      <trkpt lat="45.15571" lon="5.78256">
        <ele>700</ele>
        <time>2011-04-22T17:13:20.000Z</time>
      </trkpt>
      <trkpt lat="45.15575" lon="5.78243">
        <ele>699.20001220703</ele>
        <time>2011-04-22T17:13:25.000Z</time>
      </trkpt>
      <trkpt lat="45.15577" lon="5.78234">
        <ele>699.59997558594</ele>
        <time>2011-04-22T17:13:28.000Z</time>
      </trkpt>
      <trkpt lat="45.15578" lon="5.78232">
        <ele>699.59997558594</ele>
        <time>2011-04-22T17:13:29.000Z</time>
      </trkpt>
      <trkpt lat="45.1558" lon="5.78225">
        <ele>699.79998779297</ele>
        <time>2011-04-22T17:13:31.000Z</time>
      </trkpt>
      <trkpt lat="45.15588" lon="5.78211">
        <ele>699.59997558594</ele>
        <time>2011-04-22T17:13:36.000Z</time>
      </trkpt>
      <trkpt lat="45.15596" lon="5.78199">
        <ele>699.20001220703</ele>
        <time>2011-04-22T17:13:41.000Z</time>
      </trkpt>
      <trkpt lat="45.15602" lon="5.78192">
        <ele>698.79998779297</ele>
        <time>2011-04-22T17:13:44.000Z</time>
      </trkpt>
      <trkpt lat="45.15611" lon="5.78185">
        <ele>697.59997558594</ele>
        <time>2011-04-22T17:13:47.000Z</time>
      </trkpt>
      <trkpt lat="45.15618" lon="5.78176">
        <ele>697</ele>
        <time>2011-04-22T17:13:51.000Z</time>
      </trkpt>
      <trkpt lat="45.1562" lon="5.78173">
        <ele>696.79998779297</ele>
        <time>2011-04-22T17:13:52.000Z</time>
      </trkpt>
      <trkpt lat="45.15626" lon="5.78167">
        <ele>696.20001220703</ele>
        <time>2011-04-22T17:13:55.000Z</time>
      </trkpt>
      <trkpt lat="45.15628" lon="5.78163">
        <ele>696</ele>
        <time>2011-04-22T17:13:57.000Z</time>
      </trkpt>
      <trkpt lat="45.15632" lon="5.78156">
        <ele>695.59997558594</ele>
        <time>2011-04-22T17:14:00.000Z</time>
      </trkpt>
      <trkpt lat="45.15633" lon="5.78155">
        <ele>695.59997558594</ele>
        <time>2011-04-22T17:14:01.000Z</time>
      </trkpt>
      <trkpt lat="45.15634" lon="5.78153">
        <ele>695.40002441406</ele>
        <time>2011-04-22T17:14:02.000Z</time>
      </trkpt>
      <trkpt lat="45.15641" lon="5.78143">
        <ele>694.40002441406</ele>
        <time>2011-04-22T17:14:06.000Z</time>
      </trkpt>
      <trkpt lat="45.15645" lon="5.78137">
        <ele>693.79998779297</ele>
        <time>2011-04-22T17:14:08.000Z</time>
      </trkpt>
      <trkpt lat="45.15647" lon="5.78133">
        <ele>693.59997558594</ele>
        <time>2011-04-22T17:14:09.000Z</time>
      </trkpt>
      <trkpt lat="45.15652" lon="5.78127">
        <ele>693</ele>
        <time>2011-04-22T17:14:11.000Z</time>
      </trkpt>
      <trkpt lat="45.15656" lon="5.78117">
        <ele>692.40002441406</ele>
        <time>2011-04-22T17:14:14.000Z</time>
      </trkpt>
      <trkpt lat="45.15659" lon="5.78109">
        <ele>692.20001220703</ele>
        <time>2011-04-22T17:14:16.000Z</time>
      </trkpt>
      <trkpt lat="45.15662" lon="5.78099">
        <ele>692.20001220703</ele>
        <time>2011-04-22T17:14:19.000Z</time>
      </trkpt>
      <trkpt lat="45.15664" lon="5.78094">
        <ele>692</ele>
        <time>2011-04-22T17:14:21.000Z</time>
      </trkpt>
      <trkpt lat="45.15665" lon="5.78091">
        <ele>692</ele>
        <time>2011-04-22T17:14:22.000Z</time>
      </trkpt>
      <trkpt lat="45.15667" lon="5.78083">
        <ele>691.79998779297</ele>
        <time>2011-04-22T17:14:24.000Z</time>
      </trkpt>
      <trkpt lat="45.15668" lon="5.78079">
        <ele>691.59997558594</ele>
        <time>2011-04-22T17:14:25.000Z</time>
      </trkpt>
      <trkpt lat="45.15668" lon="5.78066">
        <ele>691.79998779297</ele>
        <time>2011-04-22T17:14:29.000Z</time>
      </trkpt>
      <trkpt lat="45.15669" lon="5.78062">
        <ele>691.59997558594</ele>
        <time>2011-04-22T17:14:30.000Z</time>
      </trkpt>
      <trkpt lat="45.15671" lon="5.78051">
        <ele>691.20001220703</ele>
        <time>2011-04-22T17:14:33.000Z</time>
      </trkpt>
      <trkpt lat="45.15674" lon="5.78036">
        <ele>690.59997558594</ele>
        <time>2011-04-22T17:14:37.000Z</time>
      </trkpt>
      <trkpt lat="45.15675" lon="5.78029">
        <ele>690.40002441406</ele>
        <time>2011-04-22T17:14:39.000Z</time>
      </trkpt>
      <trkpt lat="45.15679" lon="5.78014">
        <ele>689.59997558594</ele>
        <time>2011-04-22T17:14:43.000Z</time>
      </trkpt>
      <trkpt lat="45.15679" lon="5.78011">
        <ele>689.59997558594</ele>
        <time>2011-04-22T17:14:44.000Z</time>
      </trkpt>
      <trkpt lat="45.15684" lon="5.77998">
        <ele>688.20001220703</ele>
        <time>2011-04-22T17:14:48.000Z</time>
      </trkpt>
      <trkpt lat="45.15685" lon="5.77986">
        <ele>687</ele>
        <time>2011-04-22T17:14:51.000Z</time>
      </trkpt>
      <trkpt lat="45.15686" lon="5.77978">
        <ele>686.40002441406</ele>
        <time>2011-04-22T17:14:53.000Z</time>
      </trkpt>
      <trkpt lat="45.15688" lon="5.7796">
        <ele>684.79998779297</ele>
        <time>2011-04-22T17:14:58.000Z</time>
      </trkpt>
      <trkpt lat="45.15688" lon="5.77949">
        <ele>684.40002441406</ele>
        <time>2011-04-22T17:15:01.000Z</time>
      </trkpt>
      <trkpt lat="45.15687" lon="5.77939">
        <ele>684.40002441406</ele>
        <time>2011-04-22T17:15:04.000Z</time>
      </trkpt>
      <trkpt lat="45.15687" lon="5.7793">
        <ele>683.79998779297</ele>
        <time>2011-04-22T17:15:06.000Z</time>
      </trkpt>
      <trkpt lat="45.15685" lon="5.77924">
        <ele>684</ele>
        <time>2011-04-22T17:15:08.000Z</time>
      </trkpt>
      <trkpt lat="45.15685" lon="5.7792">
        <ele>684</ele>
        <time>2011-04-22T17:15:09.000Z</time>
      </trkpt>
      <trkpt lat="45.1568" lon="5.77903">
        <ele>684.40002441406</ele>
        <time>2011-04-22T17:15:14.000Z</time>
      </trkpt>
      <trkpt lat="45.15675" lon="5.77889">
        <ele>684.79998779297</ele>
        <time>2011-04-22T17:15:18.000Z</time>
      </trkpt>
      <trkpt lat="45.15673" lon="5.77883">
        <ele>684.79998779297</ele>
        <time>2011-04-22T17:15:20.000Z</time>
      </trkpt>
      <trkpt lat="45.15671" lon="5.77877">
        <ele>684.79998779297</ele>
        <time>2011-04-22T17:15:22.000Z</time>
      </trkpt>
      <trkpt lat="45.1567" lon="5.77873">
        <ele>684.79998779297</ele>
        <time>2011-04-22T17:15:23.000Z</time>
      </trkpt>
      <trkpt lat="45.15666" lon="5.77861">
        <ele>685</ele>
        <time>2011-04-22T17:15:27.000Z</time>
      </trkpt>
      <trkpt lat="45.15665" lon="5.77858">
        <ele>685</ele>
        <time>2011-04-22T17:15:28.000Z</time>
      </trkpt>
      <trkpt lat="45.15664" lon="5.77851">
        <ele>684.79998779297</ele>
        <time>2011-04-22T17:15:30.000Z</time>
      </trkpt>
      <trkpt lat="45.1566" lon="5.77841">
        <ele>684.79998779297</ele>
        <time>2011-04-22T17:15:33.000Z</time>
      </trkpt>
      <trkpt lat="45.15655" lon="5.77824">
        <ele>683.79998779297</ele>
        <time>2011-04-22T17:15:37.000Z</time>
      </trkpt>
      <trkpt lat="45.15653" lon="5.77821">
        <ele>683.59997558594</ele>
        <time>2011-04-22T17:15:38.000Z</time>
      </trkpt>
      <trkpt lat="45.15652" lon="5.77818">
        <ele>683.20001220703</ele>
        <time>2011-04-22T17:15:39.000Z</time>
      </trkpt>
      <trkpt lat="45.1565" lon="5.77805">
        <ele>681.40002441406</ele>
        <time>2011-04-22T17:15:42.000Z</time>
      </trkpt>
      <trkpt lat="45.15646" lon="5.77796">
        <ele>680.59997558594</ele>
        <time>2011-04-22T17:15:44.000Z</time>
      </trkpt>
      <trkpt lat="45.15644" lon="5.77787">
        <ele>679.20001220703</ele>
        <time>2011-04-22T17:15:46.000Z</time>
      </trkpt>
      <trkpt lat="45.15638" lon="5.77764">
        <ele>676</ele>
        <time>2011-04-22T17:15:50.000Z</time>
      </trkpt>
      <trkpt lat="45.15637" lon="5.7776">
        <ele>675.59997558594</ele>
        <time>2011-04-22T17:15:51.000Z</time>
      </trkpt>
      <trkpt lat="45.15635" lon="5.77748">
        <ele>673.40002441406</ele>
        <time>2011-04-22T17:15:53.000Z</time>
      </trkpt>
      <trkpt lat="45.15635" lon="5.77743">
        <ele>672</ele>
        <time>2011-04-22T17:15:55.000Z</time>
      </trkpt>
      <trkpt lat="45.15633" lon="5.77737">
        <ele>670.79998779297</ele>
        <time>2011-04-22T17:15:57.000Z</time>
      </trkpt>
      <trkpt lat="45.15631" lon="5.77733">
        <ele>670</ele>
        <time>2011-04-22T17:15:58.000Z</time>
      </trkpt>
      <trkpt lat="45.15629" lon="5.77725">
        <ele>668.40002441406</ele>
        <time>2011-04-22T17:16:00.000Z</time>
      </trkpt>
      <trkpt lat="45.15627" lon="5.77719">
        <ele>667.20001220703</ele>
        <time>2011-04-22T17:16:02.000Z</time>
      </trkpt>
      <trkpt lat="45.15623" lon="5.77714">
        <ele>666.59997558594</ele>
        <time>2011-04-22T17:16:04.000Z</time>
      </trkpt>
      <trkpt lat="45.15615" lon="5.77702">
        <ele>665.59997558594</ele>
        <time>2011-04-22T17:16:09.000Z</time>
      </trkpt>
      <trkpt lat="45.15612" lon="5.77696">
        <ele>664.79998779297</ele>
        <time>2011-04-22T17:16:11.000Z</time>
      </trkpt>
      <trkpt lat="45.15609" lon="5.77692">
        <ele>664.40002441406</ele>
        <time>2011-04-22T17:16:12.000Z</time>
      </trkpt>
      <trkpt lat="45.15605" lon="5.77686">
        <ele>663.79998779297</ele>
        <time>2011-04-22T17:16:14.000Z</time>
      </trkpt>
      <trkpt lat="45.15595" lon="5.77669">
        <ele>662</ele>
        <time>2011-04-22T17:16:19.000Z</time>
      </trkpt>
      <trkpt lat="45.15594" lon="5.77667">
        <ele>661.79998779297</ele>
        <time>2011-04-22T17:16:20.000Z</time>
      </trkpt>
      <trkpt lat="45.15584" lon="5.77658">
        <ele>660.79998779297</ele>
        <time>2011-04-22T17:16:25.000Z</time>
      </trkpt>
      <trkpt lat="45.15581" lon="5.77653">
        <ele>659.59997558594</ele>
        <time>2011-04-22T17:16:27.000Z</time>
      </trkpt>
      <trkpt lat="45.15574" lon="5.77645">
        <ele>657.40002441406</ele>
        <time>2011-04-22T17:16:31.000Z</time>
      </trkpt>
      <trkpt lat="45.15565" lon="5.77636">
        <ele>655.40002441406</ele>
        <time>2011-04-22T17:16:36.000Z</time>
      </trkpt>
      <trkpt lat="45.15563" lon="5.77634">
        <ele>655.20001220703</ele>
        <time>2011-04-22T17:16:37.000Z</time>
      </trkpt>
      <trkpt lat="45.15557" lon="5.7763">
        <ele>654.79998779297</ele>
        <time>2011-04-22T17:16:40.000Z</time>
      </trkpt>
      <trkpt lat="45.15552" lon="5.77628">
        <ele>654.59997558594</ele>
        <time>2011-04-22T17:16:42.000Z</time>
      </trkpt>
      <trkpt lat="45.15548" lon="5.77625">
        <ele>654.40002441406</ele>
        <time>2011-04-22T17:16:44.000Z</time>
      </trkpt>
      <trkpt lat="45.15541" lon="5.77623">
        <ele>655.20001220703</ele>
        <time>2011-04-22T17:16:47.000Z</time>
      </trkpt>
      <trkpt lat="45.15529" lon="5.77616">
        <ele>654.79998779297</ele>
        <time>2011-04-22T17:16:51.000Z</time>
      </trkpt>
      <trkpt lat="45.15526" lon="5.77614">
        <ele>654.40002441406</ele>
        <time>2011-04-22T17:16:52.000Z</time>
      </trkpt>
      <trkpt lat="45.15514" lon="5.77604">
        <ele>652.79998779297</ele>
        <time>2011-04-22T17:16:57.000Z</time>
      </trkpt>
      <trkpt lat="45.15513" lon="5.77602">
        <ele>652.40002441406</ele>
        <time>2011-04-22T17:16:58.000Z</time>
      </trkpt>
      <trkpt lat="45.15503" lon="5.776">
        <ele>654</ele>
        <time>2011-04-22T17:17:02.000Z</time>
      </trkpt>
      <trkpt lat="45.15495" lon="5.77599">
        <ele>654.20001220703</ele>
        <time>2011-04-22T17:17:05.000Z</time>
      </trkpt>
      <trkpt lat="45.1549" lon="5.77597">
        <ele>653.59997558594</ele>
        <time>2011-04-22T17:17:07.000Z</time>
      </trkpt>
      <trkpt lat="45.15479" lon="5.7759">
        <ele>650.59997558594</ele>
        <time>2011-04-22T17:17:12.000Z</time>
      </trkpt>
      <trkpt lat="45.15477" lon="5.77588">
        <ele>650.20001220703</ele>
        <time>2011-04-22T17:17:13.000Z</time>
      </trkpt>
      <trkpt lat="45.15464" lon="5.77584">
        <ele>648.40002441406</ele>
        <time>2011-04-22T17:17:18.000Z</time>
      </trkpt>
      <trkpt lat="45.15459" lon="5.7758">
        <ele>647</ele>
        <time>2011-04-22T17:17:20.000Z</time>
      </trkpt>
      <trkpt lat="45.1545" lon="5.77576">
        <ele>645</ele>
        <time>2011-04-22T17:17:23.000Z</time>
      </trkpt>
      <trkpt lat="45.15442" lon="5.77571">
        <ele>643.20001220703</ele>
        <time>2011-04-22T17:17:27.000Z</time>
      </trkpt>
      <trkpt lat="45.1544" lon="5.7757">
        <ele>642.59997558594</ele>
        <time>2011-04-22T17:17:28.000Z</time>
      </trkpt>
      <trkpt lat="45.15437" lon="5.77569">
        <ele>642</ele>
        <time>2011-04-22T17:17:29.000Z</time>
      </trkpt>
      <trkpt lat="45.15429" lon="5.77566">
        <ele>641</ele>
        <time>2011-04-22T17:17:32.000Z</time>
      </trkpt>
      <trkpt lat="45.15421" lon="5.77563">
        <ele>640</ele>
        <time>2011-04-22T17:17:35.000Z</time>
      </trkpt>
      <trkpt lat="45.15416" lon="5.77562">
        <ele>639.79998779297</ele>
        <time>2011-04-22T17:17:37.000Z</time>
      </trkpt>
      <trkpt lat="45.15405" lon="5.77562">
        <ele>637.59997558594</ele>
        <time>2011-04-22T17:17:41.000Z</time>
      </trkpt>
      <trkpt lat="45.15402" lon="5.77562">
        <ele>637</ele>
        <time>2011-04-22T17:17:42.000Z</time>
      </trkpt>
      <trkpt lat="45.15394" lon="5.77563">
        <ele>635.79998779297</ele>
        <time>2011-04-22T17:17:45.000Z</time>
      </trkpt>
      <trkpt lat="45.15389" lon="5.77563">
        <ele>634.79998779297</ele>
        <time>2011-04-22T17:17:47.000Z</time>
      </trkpt>
      <trkpt lat="45.15384" lon="5.77564">
        <ele>634.40002441406</ele>
        <time>2011-04-22T17:17:49.000Z</time>
      </trkpt>
      <trkpt lat="45.15382" lon="5.77565">
        <ele>634.40002441406</ele>
        <time>2011-04-22T17:17:50.000Z</time>
      </trkpt>
      <trkpt lat="45.15371" lon="5.77563">
        <ele>631.79998779297</ele>
        <time>2011-04-22T17:17:54.000Z</time>
      </trkpt>
      <trkpt lat="45.15368" lon="5.77563">
        <ele>631.20001220703</ele>
        <time>2011-04-22T17:17:55.000Z</time>
      </trkpt>
      <trkpt lat="45.15363" lon="5.77563">
        <ele>630.20001220703</ele>
        <time>2011-04-22T17:17:57.000Z</time>
      </trkpt>
      <trkpt lat="45.15355" lon="5.77565">
        <ele>629.79998779297</ele>
        <time>2011-04-22T17:18:00.000Z</time>
      </trkpt>
      <trkpt lat="45.15344" lon="5.77568">
        <ele>628.59997558594</ele>
        <time>2011-04-22T17:18:05.000Z</time>
      </trkpt>
      <trkpt lat="45.15328" lon="5.7758">
        <ele>629.40002441406</ele>
        <time>2011-04-22T17:18:11.000Z</time>
      </trkpt>
      <trkpt lat="45.15321" lon="5.77587">
        <ele>628.79998779297</ele>
        <time>2011-04-22T17:18:14.000Z</time>
      </trkpt>
      <trkpt lat="45.15319" lon="5.77587">
        <ele>628.40002441406</ele>
        <time>2011-04-22T17:18:15.000Z</time>
      </trkpt>
      <trkpt lat="45.15313" lon="5.77589">
        <ele>626.59997558594</ele>
        <time>2011-04-22T17:18:20.000Z</time>
      </trkpt>
      <trkpt lat="45.15312" lon="5.77591">
        <ele>626.79998779297</ele>
        <time>2011-04-22T17:18:22.000Z</time>
      </trkpt>
      <trkpt lat="45.1531" lon="5.77594">
        <ele>627.40002441406</ele>
        <time>2011-04-22T17:18:26.000Z</time>
      </trkpt>
      <trkpt lat="45.1531" lon="5.77595">
        <ele>627.40002441406</ele>
        <time>2011-04-22T17:18:27.000Z</time>
      </trkpt>
      <trkpt lat="45.15308" lon="5.77601">
        <ele>628.20001220703</ele>
        <time>2011-04-22T17:18:48.000Z</time>
      </trkpt>
      <trkpt lat="45.15305" lon="5.77606">
        <ele>628.79998779297</ele>
        <time>2011-04-22T17:18:53.000Z</time>
      </trkpt>
      <trkpt lat="45.15302" lon="5.77613">
        <ele>629.20001220703</ele>
        <time>2011-04-22T17:18:57.000Z</time>
      </trkpt>
      <trkpt lat="45.153" lon="5.77615">
        <ele>629.40002441406</ele>
        <time>2011-04-22T17:18:59.000Z</time>
      </trkpt>
      <trkpt lat="45.15292" lon="5.77627">
        <ele>629.79998779297</ele>
        <time>2011-04-22T17:19:04.000Z</time>
      </trkpt>
      <trkpt lat="45.15287" lon="5.77632">
        <ele>629.40002441406</ele>
        <time>2011-04-22T17:19:06.000Z</time>
      </trkpt>
      <trkpt lat="45.15284" lon="5.77637">
        <ele>629.59997558594</ele>
        <time>2011-04-22T17:19:08.000Z</time>
      </trkpt>
      <trkpt lat="45.15275" lon="5.7765">
        <ele>629.59997558594</ele>
        <time>2011-04-22T17:19:13.000Z</time>
      </trkpt>
      <trkpt lat="45.15271" lon="5.77655">
        <ele>629.20001220703</ele>
        <time>2011-04-22T17:19:15.000Z</time>
      </trkpt>
      <trkpt lat="45.15262" lon="5.77658">
        <ele>627.20001220703</ele>
        <time>2011-04-22T17:19:18.000Z</time>
      </trkpt>
      <trkpt lat="45.15258" lon="5.77663">
        <ele>626.79998779297</ele>
        <time>2011-04-22T17:19:20.000Z</time>
      </trkpt>
      <trkpt lat="45.15253" lon="5.77669">
        <ele>626.59997558594</ele>
        <time>2011-04-22T17:19:22.000Z</time>
      </trkpt>
      <trkpt lat="45.15241" lon="5.77679">
        <ele>625.79998779297</ele>
        <time>2011-04-22T17:19:27.000Z</time>
      </trkpt>
      <trkpt lat="45.15238" lon="5.7768">
        <ele>625.20001220703</ele>
        <time>2011-04-22T17:19:28.000Z</time>
      </trkpt>
      <trkpt lat="45.15221" lon="5.77688">
        <ele>622.79998779297</ele>
        <time>2011-04-22T17:19:34.000Z</time>
      </trkpt>
      <trkpt lat="45.15218" lon="5.7769">
        <ele>622.59997558594</ele>
        <time>2011-04-22T17:19:35.000Z</time>
      </trkpt>
      <trkpt lat="45.15204" lon="5.77697">
        <ele>620.40002441406</ele>
        <time>2011-04-22T17:19:40.000Z</time>
      </trkpt>
      <trkpt lat="45.15191" lon="5.77702">
        <ele>618.20001220703</ele>
        <time>2011-04-22T17:19:45.000Z</time>
      </trkpt>
      <trkpt lat="45.15189" lon="5.77704">
        <ele>618</ele>
        <time>2011-04-22T17:19:46.000Z</time>
      </trkpt>
      <trkpt lat="45.15186" lon="5.77705">
        <ele>617.59997558594</ele>
        <time>2011-04-22T17:19:47.000Z</time>
      </trkpt>
      <trkpt lat="45.15181" lon="5.77709">
        <ele>617.40002441406</ele>
        <time>2011-04-22T17:19:49.000Z</time>
      </trkpt>
      <trkpt lat="45.15173" lon="5.7771">
        <ele>615.20001220703</ele>
        <time>2011-04-22T17:19:53.000Z</time>
      </trkpt>
      <trkpt lat="45.15169" lon="5.7771">
        <ele>614</ele>
        <time>2011-04-22T17:19:55.000Z</time>
      </trkpt>
      <trkpt lat="45.15166" lon="5.7771">
        <ele>613.20001220703</ele>
        <time>2011-04-22T17:19:56.000Z</time>
      </trkpt>
      <trkpt lat="45.15164" lon="5.7771">
        <ele>612.59997558594</ele>
        <time>2011-04-22T17:19:57.000Z</time>
      </trkpt>
      <trkpt lat="45.15154" lon="5.77713">
        <ele>610.59997558594</ele>
        <time>2011-04-22T17:20:01.000Z</time>
      </trkpt>
      <trkpt lat="45.15147" lon="5.77714">
        <ele>608.79998779297</ele>
        <time>2011-04-22T17:20:04.000Z</time>
      </trkpt>
      <trkpt lat="45.15141" lon="5.77715">
        <ele>607.20001220703</ele>
        <time>2011-04-22T17:20:06.000Z</time>
      </trkpt>
      <trkpt lat="45.15131" lon="5.77719">
        <ele>605.20001220703</ele>
        <time>2011-04-22T17:20:11.000Z</time>
      </trkpt>
      <trkpt lat="45.15127" lon="5.77719">
        <ele>604.20001220703</ele>
        <time>2011-04-22T17:20:13.000Z</time>
      </trkpt>
      <trkpt lat="45.15123" lon="5.7772">
        <ele>602.79998779297</ele>
        <time>2011-04-22T17:20:15.000Z</time>
      </trkpt>
      <trkpt lat="45.15109" lon="5.77723">
        <ele>599.40002441406</ele>
        <time>2011-04-22T17:20:22.000Z</time>
      </trkpt>
      <trkpt lat="45.15107" lon="5.77724">
        <ele>599</ele>
        <time>2011-04-22T17:20:23.000Z</time>
      </trkpt>
      <trkpt lat="45.15102" lon="5.77727">
        <ele>598</ele>
        <time>2011-04-22T17:20:27.000Z</time>
      </trkpt>
      <trkpt lat="45.151" lon="5.77727">
        <ele>597.40002441406</ele>
        <time>2011-04-22T17:20:28.000Z</time>
      </trkpt>
      <trkpt lat="45.15098" lon="5.77728">
        <ele>597</ele>
        <time>2011-04-22T17:20:29.000Z</time>
      </trkpt>
      <trkpt lat="45.15094" lon="5.77731">
        <ele>596.40002441406</ele>
        <time>2011-04-22T17:20:31.000Z</time>
      </trkpt>
      <trkpt lat="45.15091" lon="5.77734">
        <ele>596</ele>
        <time>2011-04-22T17:20:33.000Z</time>
      </trkpt>
      <trkpt lat="45.15088" lon="5.77737">
        <ele>595.40002441406</ele>
        <time>2011-04-22T17:20:35.000Z</time>
      </trkpt>
      <trkpt lat="45.15084" lon="5.77741">
        <ele>594.79998779297</ele>
        <time>2011-04-22T17:20:37.000Z</time>
      </trkpt>
      <trkpt lat="45.15074" lon="5.77745">
        <ele>593.20001220703</ele>
        <time>2011-04-22T17:20:41.000Z</time>
      </trkpt>
      <trkpt lat="45.15072" lon="5.77748">
        <ele>593.20001220703</ele>
        <time>2011-04-22T17:20:42.000Z</time>
      </trkpt>
      <trkpt lat="45.1506" lon="5.77757">
        <ele>592.20001220703</ele>
        <time>2011-04-22T17:20:47.000Z</time>
      </trkpt>
      <trkpt lat="45.15058" lon="5.77758">
        <ele>592</ele>
        <time>2011-04-22T17:20:48.000Z</time>
      </trkpt>
      <trkpt lat="45.1505" lon="5.77761">
        <ele>590.79998779297</ele>
        <time>2011-04-22T17:20:51.000Z</time>
      </trkpt>
      <trkpt lat="45.15048" lon="5.77763">
        <ele>590.59997558594</ele>
        <time>2011-04-22T17:20:52.000Z</time>
      </trkpt>
      <trkpt lat="45.15045" lon="5.77765">
        <ele>590.40002441406</ele>
        <time>2011-04-22T17:20:53.000Z</time>
      </trkpt>
      <trkpt lat="45.15042" lon="5.77771">
        <ele>590.79998779297</ele>
        <time>2011-04-22T17:20:55.000Z</time>
      </trkpt>
      <trkpt lat="45.15032" lon="5.77787">
        <ele>591</ele>
        <time>2011-04-22T17:21:01.000Z</time>
      </trkpt>
      <trkpt lat="45.15029" lon="5.77787">
        <ele>590.20001220703</ele>
        <time>2011-04-22T17:21:02.000Z</time>
      </trkpt>
      <trkpt lat="45.15022" lon="5.77786">
        <ele>588.59997558594</ele>
        <time>2011-04-22T17:21:05.000Z</time>
      </trkpt>
      <trkpt lat="45.1502" lon="5.77785">
        <ele>587.79998779297</ele>
        <time>2011-04-22T17:21:06.000Z</time>
      </trkpt>
      <trkpt lat="45.15012" lon="5.77784">
        <ele>586.20001220703</ele>
        <time>2011-04-22T17:21:09.000Z</time>
      </trkpt>
      <trkpt lat="45.1501" lon="5.77783">
        <ele>585.40002441406</ele>
        <time>2011-04-22T17:21:10.000Z</time>
      </trkpt>
      <trkpt lat="45.15" lon="5.77776">
        <ele>582.40002441406</ele>
        <time>2011-04-22T17:21:14.000Z</time>
      </trkpt>
      <trkpt lat="45.14994" lon="5.7777">
        <ele>580.40002441406</ele>
        <time>2011-04-22T17:21:17.000Z</time>
      </trkpt>
      <trkpt lat="45.14991" lon="5.77766">
        <ele>579.20001220703</ele>
        <time>2011-04-22T17:21:19.000Z</time>
      </trkpt>
      <trkpt lat="45.14989" lon="5.77763">
        <ele>578.59997558594</ele>
        <time>2011-04-22T17:21:20.000Z</time>
      </trkpt>
      <trkpt lat="45.14982" lon="5.77753">
        <ele>576</ele>
        <time>2011-04-22T17:21:24.000Z</time>
      </trkpt>
      <trkpt lat="45.1498" lon="5.77752">
        <ele>575.59997558594</ele>
        <time>2011-04-22T17:21:25.000Z</time>
      </trkpt>
      <trkpt lat="45.14971" lon="5.77744">
        <ele>573</ele>
        <time>2011-04-22T17:21:29.000Z</time>
      </trkpt>
      <trkpt lat="45.14965" lon="5.77737">
        <ele>571</ele>
        <time>2011-04-22T17:21:32.000Z</time>
      </trkpt>
      <trkpt lat="45.14964" lon="5.77733">
        <ele>570.40002441406</ele>
        <time>2011-04-22T17:21:33.000Z</time>
      </trkpt>
      <trkpt lat="45.14958" lon="5.77717">
        <ele>567.20001220703</ele>
        <time>2011-04-22T17:21:38.000Z</time>
      </trkpt>
      <trkpt lat="45.14956" lon="5.77713">
        <ele>566.59997558594</ele>
        <time>2011-04-22T17:21:39.000Z</time>
      </trkpt>
      <trkpt lat="45.14948" lon="5.77703">
        <ele>564</ele>
        <time>2011-04-22T17:21:43.000Z</time>
      </trkpt>
      <trkpt lat="45.14941" lon="5.77696">
        <ele>562.40002441406</ele>
        <time>2011-04-22T17:21:48.000Z</time>
      </trkpt>
      <trkpt lat="45.14936" lon="5.77692">
        <ele>561</ele>
        <time>2011-04-22T17:21:55.000Z</time>
      </trkpt>
      <trkpt lat="45.14934" lon="5.77693">
        <ele>561</ele>
        <time>2011-04-22T17:22:04.000Z</time>
      </trkpt>
      <trkpt lat="45.14931" lon="5.77692">
        <ele>560.40002441406</ele>
        <time>2011-04-22T17:22:14.000Z</time>
      </trkpt>
      <trkpt lat="45.14927" lon="5.7769">
        <ele>559.59997558594</ele>
        <time>2011-04-22T17:22:39.000Z</time>
      </trkpt>
      <trkpt lat="45.14926" lon="5.77688">
        <ele>559.40002441406</ele>
        <time>2011-04-22T17:23:16.000Z</time>
      </trkpt>
      <trkpt lat="45.14924" lon="5.77685">
        <ele>558.59997558594</ele>
        <time>2011-04-22T17:23:20.000Z</time>
      </trkpt>
      <trkpt lat="45.1492" lon="5.77683">
        <ele>557.79998779297</ele>
        <time>2011-04-22T17:23:25.000Z</time>
      </trkpt>
      <trkpt lat="45.14919" lon="5.77682">
        <ele>557.59997558594</ele>
        <time>2011-04-22T17:23:26.000Z</time>
      </trkpt>
      <trkpt lat="45.14911" lon="5.77677">
        <ele>556.20001220703</ele>
        <time>2011-04-22T17:23:32.000Z</time>
      </trkpt>
      <trkpt lat="45.1491" lon="5.77676">
        <ele>556</ele>
        <time>2011-04-22T17:23:33.000Z</time>
      </trkpt>
      <trkpt lat="45.14901" lon="5.77673">
        <ele>554.79998779297</ele>
        <time>2011-04-22T17:23:39.000Z</time>
      </trkpt>
      <trkpt lat="45.14895" lon="5.77667">
        <ele>553.59997558594</ele>
        <time>2011-04-22T17:23:45.000Z</time>
      </trkpt>
      <trkpt lat="45.14893" lon="5.77664">
        <ele>553</ele>
        <time>2011-04-22T17:23:47.000Z</time>
      </trkpt>
      <trkpt lat="45.14889" lon="5.77657">
        <ele>552</ele>
        <time>2011-04-22T17:23:51.000Z</time>
      </trkpt>
      <trkpt lat="45.14886" lon="5.77649">
        <ele>551</ele>
        <time>2011-04-22T17:23:55.000Z</time>
      </trkpt>
      <trkpt lat="45.14884" lon="5.77647">
        <ele>550.59997558594</ele>
        <time>2011-04-22T17:23:57.000Z</time>
      </trkpt>
      <trkpt lat="45.14881" lon="5.77644">
        <ele>550.20001220703</ele>
        <time>2011-04-22T17:24:00.000Z</time>
      </trkpt>
      <trkpt lat="45.14879" lon="5.77641">
        <ele>549.79998779297</ele>
        <time>2011-04-22T17:24:02.000Z</time>
      </trkpt>
      <trkpt lat="45.14874" lon="5.77632">
        <ele>548.59997558594</ele>
        <time>2011-04-22T17:24:08.000Z</time>
      </trkpt>
      <trkpt lat="45.14872" lon="5.77628">
        <ele>548.20001220703</ele>
        <time>2011-04-22T17:24:10.000Z</time>
      </trkpt>
      <trkpt lat="45.1487" lon="5.77624">
        <ele>547.79998779297</ele>
        <time>2011-04-22T17:24:13.000Z</time>
      </trkpt>
      <trkpt lat="45.1487" lon="5.77623">
        <ele>547.59997558594</ele>
        <time>2011-04-22T17:24:14.000Z</time>
      </trkpt>
      <trkpt lat="45.14864" lon="5.77612">
        <ele>546.59997558594</ele>
        <time>2011-04-22T17:24:21.000Z</time>
      </trkpt>
      <trkpt lat="45.14858" lon="5.77601">
        <ele>545.59997558594</ele>
        <time>2011-04-22T17:24:26.000Z</time>
      </trkpt>
      <trkpt lat="45.14852" lon="5.77591">
        <ele>544.79998779297</ele>
        <time>2011-04-22T17:24:31.000Z</time>
      </trkpt>
      <trkpt lat="45.14844" lon="5.77582">
        <ele>543.79998779297</ele>
        <time>2011-04-22T17:24:36.000Z</time>
      </trkpt>
      <trkpt lat="45.14843" lon="5.7758">
        <ele>543.59997558594</ele>
        <time>2011-04-22T17:24:37.000Z</time>
      </trkpt>
      <trkpt lat="45.14836" lon="5.77571">
        <ele>541.79998779297</ele>
        <time>2011-04-22T17:24:41.000Z</time>
      </trkpt>
      <trkpt lat="45.14833" lon="5.77561">
        <ele>539.59997558594</ele>
        <time>2011-04-22T17:24:45.000Z</time>
      </trkpt>
      <trkpt lat="45.14832" lon="5.77558">
        <ele>539</ele>
        <time>2011-04-22T17:24:46.000Z</time>
      </trkpt>
      <trkpt lat="45.14827" lon="5.77539">
        <ele>534.79998779297</ele>
        <time>2011-04-22T17:24:53.000Z</time>
      </trkpt>
      <trkpt lat="45.14825" lon="5.77535">
        <ele>533.79998779297</ele>
        <time>2011-04-22T17:24:55.000Z</time>
      </trkpt>
      <trkpt lat="45.14823" lon="5.7753">
        <ele>532.79998779297</ele>
        <time>2011-04-22T17:24:57.000Z</time>
      </trkpt>
      <trkpt lat="45.14822" lon="5.77526">
        <ele>531.79998779297</ele>
        <time>2011-04-22T17:24:59.000Z</time>
      </trkpt>
      <trkpt lat="45.14819" lon="5.77518">
        <ele>530.20001220703</ele>
        <time>2011-04-22T17:25:03.000Z</time>
      </trkpt>
      <trkpt lat="45.14818" lon="5.77515">
        <ele>529.59997558594</ele>
        <time>2011-04-22T17:25:04.000Z</time>
      </trkpt>
      <trkpt lat="45.14817" lon="5.7751">
        <ele>528.40002441406</ele>
        <time>2011-04-22T17:25:06.000Z</time>
      </trkpt>
      <trkpt lat="45.14816" lon="5.77497">
        <ele>526.40002441406</ele>
        <time>2011-04-22T17:25:10.000Z</time>
      </trkpt>
      <trkpt lat="45.14815" lon="5.77487">
        <ele>525.20001220703</ele>
        <time>2011-04-22T17:25:14.000Z</time>
      </trkpt>
      <trkpt lat="45.14814" lon="5.77485">
        <ele>524.79998779297</ele>
        <time>2011-04-22T17:25:15.000Z</time>
      </trkpt>
      <trkpt lat="45.14805" lon="5.7747">
        <ele>522.40002441406</ele>
        <time>2011-04-22T17:25:21.000Z</time>
      </trkpt>
      <trkpt lat="45.14802" lon="5.77463">
        <ele>521.40002441406</ele>
        <time>2011-04-22T17:25:23.000Z</time>
      </trkpt>
      <trkpt lat="45.14798" lon="5.77455">
        <ele>520.20001220703</ele>
        <time>2011-04-22T17:25:26.000Z</time>
      </trkpt>
      <trkpt lat="45.14793" lon="5.77442">
        <ele>518.40002441406</ele>
        <time>2011-04-22T17:25:31.000Z</time>
      </trkpt>
      <trkpt lat="45.14791" lon="5.7744">
        <ele>518</ele>
        <time>2011-04-22T17:25:32.000Z</time>
      </trkpt>
      <trkpt lat="45.14787" lon="5.77431">
        <ele>516.79998779297</ele>
        <time>2011-04-22T17:25:36.000Z</time>
      </trkpt>
      <trkpt lat="45.14785" lon="5.77429">
        <ele>516.59997558594</ele>
        <time>2011-04-22T17:25:37.000Z</time>
      </trkpt>
      <trkpt lat="45.1478" lon="5.77419">
        <ele>515.20001220703</ele>
        <time>2011-04-22T17:25:41.000Z</time>
      </trkpt>
      <trkpt lat="45.1478" lon="5.77414">
        <ele>514.79998779297</ele>
        <time>2011-04-22T17:25:42.000Z</time>
      </trkpt>
      <trkpt lat="45.14785" lon="5.77391">
        <ele>513</ele>
        <time>2011-04-22T17:25:48.000Z</time>
      </trkpt>
      <trkpt lat="45.14794" lon="5.77371">
        <ele>511.60000610352</ele>
        <time>2011-04-22T17:25:54.000Z</time>
      </trkpt>
      <trkpt lat="45.14796" lon="5.77368">
        <ele>511.39999389648</ele>
        <time>2011-04-22T17:25:55.000Z</time>
      </trkpt>
      <trkpt lat="45.14802" lon="5.77354">
        <ele>510.20001220703</ele>
        <time>2011-04-22T17:25:59.000Z</time>
      </trkpt>
      <trkpt lat="45.14806" lon="5.77344">
        <ele>509.39999389648</ele>
        <time>2011-04-22T17:26:02.000Z</time>
      </trkpt>
      <trkpt lat="45.1481" lon="5.77336">
        <ele>508.60000610352</ele>
        <time>2011-04-22T17:26:05.000Z</time>
      </trkpt>
      <trkpt lat="45.14817" lon="5.77323">
        <ele>507.60000610352</ele>
        <time>2011-04-22T17:26:09.000Z</time>
      </trkpt>
      <trkpt lat="45.14819" lon="5.77319">
        <ele>507.20001220703</ele>
        <time>2011-04-22T17:26:10.000Z</time>
      </trkpt>
      <trkpt lat="45.14829" lon="5.77301">
        <ele>506</ele>
        <time>2011-04-22T17:26:16.000Z</time>
      </trkpt>
      <trkpt lat="45.14842" lon="5.77281">
        <ele>505</ele>
        <time>2011-04-22T17:26:23.000Z</time>
      </trkpt>
      <trkpt lat="45.14854" lon="5.77263">
        <ele>504.39999389648</ele>
        <time>2011-04-22T17:26:29.000Z</time>
      </trkpt>
      <trkpt lat="45.14856" lon="5.7726">
        <ele>504.39999389648</ele>
        <time>2011-04-22T17:26:30.000Z</time>
      </trkpt>
      <trkpt lat="45.14865" lon="5.77245">
        <ele>503.60000610352</ele>
        <time>2011-04-22T17:26:36.000Z</time>
      </trkpt>
      <trkpt lat="45.14868" lon="5.7724">
        <ele>503.20001220703</ele>
        <time>2011-04-22T17:26:38.000Z</time>
      </trkpt>
      <trkpt lat="45.14876" lon="5.77232">
        <ele>502.60000610352</ele>
        <time>2011-04-22T17:26:42.000Z</time>
      </trkpt>
      <trkpt lat="45.14883" lon="5.77222">
        <ele>501.79998779297</ele>
        <time>2011-04-22T17:26:46.000Z</time>
      </trkpt>
      <trkpt lat="45.14884" lon="5.7722">
        <ele>501.39999389648</ele>
        <time>2011-04-22T17:26:47.000Z</time>
      </trkpt>
      <trkpt lat="45.14885" lon="5.77217">
        <ele>501.20001220703</ele>
        <time>2011-04-22T17:26:48.000Z</time>
      </trkpt>
      <trkpt lat="45.14891" lon="5.77202">
        <ele>499.20001220703</ele>
        <time>2011-04-22T17:26:54.000Z</time>
      </trkpt>
      <trkpt lat="45.14891" lon="5.77199">
        <ele>498.79998779297</ele>
        <time>2011-04-22T17:26:55.000Z</time>
      </trkpt>
      <trkpt lat="45.14892" lon="5.77191">
        <ele>497.79998779297</ele>
        <time>2011-04-22T17:26:58.000Z</time>
      </trkpt>
      <trkpt lat="45.14893" lon="5.77189">
        <ele>497.39999389648</ele>
        <time>2011-04-22T17:26:59.000Z</time>
      </trkpt>
      <trkpt lat="45.14894" lon="5.77177">
        <ele>495.79998779297</ele>
        <time>2011-04-22T17:27:03.000Z</time>
      </trkpt>
      <trkpt lat="45.14895" lon="5.77174">
        <ele>495.20001220703</ele>
        <time>2011-04-22T17:27:04.000Z</time>
      </trkpt>
      <trkpt lat="45.14901" lon="5.77158">
        <ele>492.79998779297</ele>
        <time>2011-04-22T17:27:10.000Z</time>
      </trkpt>
      <trkpt lat="45.14905" lon="5.77153">
        <ele>492.20001220703</ele>
        <time>2011-04-22T17:27:12.000Z</time>
      </trkpt>
      <trkpt lat="45.14908" lon="5.77147">
        <ele>491.39999389648</ele>
        <time>2011-04-22T17:27:14.000Z</time>
      </trkpt>
      <trkpt lat="45.14916" lon="5.7713">
        <ele>489.39999389648</ele>
        <time>2011-04-22T17:27:20.000Z</time>
      </trkpt>
      <trkpt lat="45.14917" lon="5.77127">
        <ele>489.20001220703</ele>
        <time>2011-04-22T17:27:21.000Z</time>
      </trkpt>
      <trkpt lat="45.14923" lon="5.77111">
        <ele>488.20001220703</ele>
        <time>2011-04-22T17:27:26.000Z</time>
      </trkpt>
      <trkpt lat="45.14924" lon="5.77105">
        <ele>487.60000610352</ele>
        <time>2011-04-22T17:27:28.000Z</time>
      </trkpt>
      <trkpt lat="45.14926" lon="5.77093">
        <ele>486.39999389648</ele>
        <time>2011-04-22T17:27:31.000Z</time>
      </trkpt>
      <trkpt lat="45.14925" lon="5.77078">
        <ele>484.39999389648</ele>
        <time>2011-04-22T17:27:35.000Z</time>
      </trkpt>
      <trkpt lat="45.14925" lon="5.77074">
        <ele>483.79998779297</ele>
        <time>2011-04-22T17:27:36.000Z</time>
      </trkpt>
      <trkpt lat="45.14925" lon="5.77066">
        <ele>482.60000610352</ele>
        <time>2011-04-22T17:27:38.000Z</time>
      </trkpt>
      <trkpt lat="45.14927" lon="5.7706">
        <ele>482</ele>
        <time>2011-04-22T17:27:40.000Z</time>
      </trkpt>
      <trkpt lat="45.14931" lon="5.77051">
        <ele>481</ele>
        <time>2011-04-22T17:27:43.000Z</time>
      </trkpt>
      <trkpt lat="45.14935" lon="5.77043">
        <ele>480.39999389648</ele>
        <time>2011-04-22T17:27:46.000Z</time>
      </trkpt>
      <trkpt lat="45.14943" lon="5.77029">
        <ele>479.20001220703</ele>
        <time>2011-04-22T17:27:51.000Z</time>
      </trkpt>
      <trkpt lat="45.14944" lon="5.77026">
        <ele>479</ele>
        <time>2011-04-22T17:27:52.000Z</time>
      </trkpt>
      <trkpt lat="45.14953" lon="5.77008">
        <ele>477.20001220703</ele>
        <time>2011-04-22T17:27:58.000Z</time>
      </trkpt>
      <trkpt lat="45.14959" lon="5.76991">
        <ele>475.20001220703</ele>
        <time>2011-04-22T17:28:03.000Z</time>
      </trkpt>
      <trkpt lat="45.14962" lon="5.76984">
        <ele>474.39999389648</ele>
        <time>2011-04-22T17:28:05.000Z</time>
      </trkpt>
      <trkpt lat="45.14967" lon="5.76971">
        <ele>472.60000610352</ele>
        <time>2011-04-22T17:28:09.000Z</time>
      </trkpt>
      <trkpt lat="45.14972" lon="5.76959">
        <ele>470.79998779297</ele>
        <time>2011-04-22T17:28:13.000Z</time>
      </trkpt>
      <trkpt lat="45.14974" lon="5.76954">
        <ele>470</ele>
        <time>2011-04-22T17:28:15.000Z</time>
      </trkpt>
      <trkpt lat="45.14981" lon="5.76942">
        <ele>468.39999389648</ele>
        <time>2011-04-22T17:28:20.000Z</time>
      </trkpt>
      <trkpt lat="45.14983" lon="5.76938">
        <ele>467.79998779297</ele>
        <time>2011-04-22T17:28:22.000Z</time>
      </trkpt>
      <trkpt lat="45.14984" lon="5.76936">
        <ele>467.39999389648</ele>
        <time>2011-04-22T17:28:23.000Z</time>
      </trkpt>
      <trkpt lat="45.14984" lon="5.7693">
        <ele>466.20001220703</ele>
        <time>2011-04-22T17:28:26.000Z</time>
      </trkpt>
      <trkpt lat="45.14984" lon="5.76927">
        <ele>465.60000610352</ele>
        <time>2011-04-22T17:28:27.000Z</time>
      </trkpt>
      <trkpt lat="45.14984" lon="5.76912">
        <ele>462.39999389648</ele>
        <time>2011-04-22T17:28:32.000Z</time>
      </trkpt>
      <trkpt lat="45.14983" lon="5.76909">
        <ele>461.79998779297</ele>
        <time>2011-04-22T17:28:33.000Z</time>
      </trkpt>
      <trkpt lat="45.1498" lon="5.76898">
        <ele>459</ele>
        <time>2011-04-22T17:28:38.000Z</time>
      </trkpt>
      <trkpt lat="45.14978" lon="5.76895">
        <ele>458.20001220703</ele>
        <time>2011-04-22T17:28:40.000Z</time>
      </trkpt>
      <trkpt lat="45.14975" lon="5.76889">
        <ele>456.79998779297</ele>
        <time>2011-04-22T17:28:43.000Z</time>
      </trkpt>
      <trkpt lat="45.14973" lon="5.76882">
        <ele>455.20001220703</ele>
        <time>2011-04-22T17:28:46.000Z</time>
      </trkpt>
      <trkpt lat="45.14971" lon="5.76878">
        <ele>454</ele>
        <time>2011-04-22T17:28:48.000Z</time>
      </trkpt>
      <trkpt lat="45.14968" lon="5.76871">
        <ele>452.60000610352</ele>
        <time>2011-04-22T17:28:51.000Z</time>
      </trkpt>
      <trkpt lat="45.14966" lon="5.76867">
        <ele>451.60000610352</ele>
        <time>2011-04-22T17:28:53.000Z</time>
      </trkpt>
      <trkpt lat="45.14965" lon="5.76865">
        <ele>451.20001220703</ele>
        <time>2011-04-22T17:28:54.000Z</time>
      </trkpt>
      <trkpt lat="45.14964" lon="5.76862">
        <ele>450.39999389648</ele>
        <time>2011-04-22T17:28:55.000Z</time>
      </trkpt>
      <trkpt lat="45.14957" lon="5.7685">
        <ele>447.79998779297</ele>
        <time>2011-04-22T17:29:00.000Z</time>
      </trkpt>
      <trkpt lat="45.14953" lon="5.76844">
        <ele>446.60000610352</ele>
        <time>2011-04-22T17:29:03.000Z</time>
      </trkpt>
      <trkpt lat="45.1495" lon="5.76838">
        <ele>445.39999389648</ele>
        <time>2011-04-22T17:29:06.000Z</time>
      </trkpt>
      <trkpt lat="45.14942" lon="5.76828">
        <ele>442.79998779297</ele>
        <time>2011-04-22T17:29:12.000Z</time>
      </trkpt>
      <trkpt lat="45.14941" lon="5.76825">
        <ele>442.20001220703</ele>
        <time>2011-04-22T17:29:13.000Z</time>
      </trkpt>
      <trkpt lat="45.14935" lon="5.76817">
        <ele>440.20001220703</ele>
        <time>2011-04-22T17:29:17.000Z</time>
      </trkpt>
      <trkpt lat="45.14924" lon="5.76811">
        <ele>438.60000610352</ele>
        <time>2011-04-22T17:29:22.000Z</time>
      </trkpt>
      <trkpt lat="45.14917" lon="5.76806">
        <ele>437.20001220703</ele>
        <time>2011-04-22T17:29:26.000Z</time>
      </trkpt>
      <trkpt lat="45.14915" lon="5.76804">
        <ele>436.39999389648</ele>
        <time>2011-04-22T17:29:27.000Z</time>
      </trkpt>
      <trkpt lat="45.14911" lon="5.76792">
        <ele>432.79998779297</ele>
        <time>2011-04-22T17:29:31.000Z</time>
      </trkpt>
      <trkpt lat="45.14912" lon="5.7679">
        <ele>432.39999389648</ele>
        <time>2011-04-22T17:29:32.000Z</time>
      </trkpt>
      <trkpt lat="45.14913" lon="5.76787">
        <ele>432</ele>
        <time>2011-04-22T17:29:34.000Z</time>
      </trkpt>
      <trkpt lat="45.14917" lon="5.7678">
        <ele>431.20001220703</ele>
        <time>2011-04-22T17:29:38.000Z</time>
      </trkpt>
      <trkpt lat="45.14919" lon="5.76774">
        <ele>429.60000610352</ele>
        <time>2011-04-22T17:29:41.000Z</time>
      </trkpt>
      <trkpt lat="45.14921" lon="5.76769">
        <ele>428.60000610352</ele>
        <time>2011-04-22T17:29:43.000Z</time>
      </trkpt>
      <trkpt lat="45.14921" lon="5.76766">
        <ele>427.60000610352</ele>
        <time>2011-04-22T17:29:44.000Z</time>
      </trkpt>
      <trkpt lat="45.1492" lon="5.76746">
        <ele>423.20001220703</ele>
        <time>2011-04-22T17:29:50.000Z</time>
      </trkpt>
      <trkpt lat="45.14919" lon="5.76744">
        <ele>422.79998779297</ele>
        <time>2011-04-22T17:29:51.000Z</time>
      </trkpt>
      <trkpt lat="45.14918" lon="5.76735">
        <ele>421</ele>
        <time>2011-04-22T17:29:54.000Z</time>
      </trkpt>
      <trkpt lat="45.14918" lon="5.7673">
        <ele>420.20001220703</ele>
        <time>2011-04-22T17:29:56.000Z</time>
      </trkpt>
      <trkpt lat="45.14918" lon="5.76725">
        <ele>419</ele>
        <time>2011-04-22T17:29:58.000Z</time>
      </trkpt>
      <trkpt lat="45.14917" lon="5.76716">
        <ele>417.39999389648</ele>
        <time>2011-04-22T17:30:01.000Z</time>
      </trkpt>
      <trkpt lat="45.14917" lon="5.76699">
        <ele>414.20001220703</ele>
        <time>2011-04-22T17:30:06.000Z</time>
      </trkpt>
      <trkpt lat="45.14917" lon="5.76688">
        <ele>412.20001220703</ele>
        <time>2011-04-22T17:30:09.000Z</time>
      </trkpt>
      <trkpt lat="45.14919" lon="5.76681">
        <ele>410.79998779297</ele>
        <time>2011-04-22T17:30:11.000Z</time>
      </trkpt>
      <trkpt lat="45.14921" lon="5.76669">
        <ele>408.60000610352</ele>
        <time>2011-04-22T17:30:15.000Z</time>
      </trkpt>
      <trkpt lat="45.14923" lon="5.76662">
        <ele>407</ele>
        <time>2011-04-22T17:30:18.000Z</time>
      </trkpt>
      <trkpt lat="45.14924" lon="5.76657">
        <ele>405.79998779297</ele>
        <time>2011-04-22T17:30:20.000Z</time>
      </trkpt>
      <trkpt lat="45.14923" lon="5.76649">
        <ele>403.79998779297</ele>
        <time>2011-04-22T17:30:22.000Z</time>
      </trkpt>
      <trkpt lat="45.14927" lon="5.76639">
        <ele>401.79998779297</ele>
        <time>2011-04-22T17:30:26.000Z</time>
      </trkpt>
      <trkpt lat="45.14927" lon="5.76638">
        <ele>401.39999389648</ele>
        <time>2011-04-22T17:30:27.000Z</time>
      </trkpt>
      <trkpt lat="45.1493" lon="5.76624">
        <ele>398.39999389648</ele>
        <time>2011-04-22T17:30:32.000Z</time>
      </trkpt>
      <trkpt lat="45.1493" lon="5.76612">
        <ele>395.60000610352</ele>
        <time>2011-04-22T17:30:36.000Z</time>
      </trkpt>
      <trkpt lat="45.1493" lon="5.76609">
        <ele>395</ele>
        <time>2011-04-22T17:30:37.000Z</time>
      </trkpt>
      <trkpt lat="45.14929" lon="5.76598">
        <ele>392.20001220703</ele>
        <time>2011-04-22T17:30:41.000Z</time>
      </trkpt>
      <trkpt lat="45.1493" lon="5.76588">
        <ele>390</ele>
        <time>2011-04-22T17:30:44.000Z</time>
      </trkpt>
      <trkpt lat="45.1493" lon="5.76585">
        <ele>389.20001220703</ele>
        <time>2011-04-22T17:30:45.000Z</time>
      </trkpt>
      <trkpt lat="45.1493" lon="5.76579">
        <ele>388</ele>
        <time>2011-04-22T17:30:47.000Z</time>
      </trkpt>
      <trkpt lat="45.14932" lon="5.76566">
        <ele>385.60000610352</ele>
        <time>2011-04-22T17:30:52.000Z</time>
      </trkpt>
      <trkpt lat="45.14934" lon="5.76556">
        <ele>383.79998779297</ele>
        <time>2011-04-22T17:30:55.000Z</time>
      </trkpt>
      <trkpt lat="45.14935" lon="5.7655">
        <ele>382.60000610352</ele>
        <time>2011-04-22T17:30:57.000Z</time>
      </trkpt>
      <trkpt lat="45.14937" lon="5.76533">
        <ele>379.39999389648</ele>
        <time>2011-04-22T17:31:02.000Z</time>
      </trkpt>
      <trkpt lat="45.14937" lon="5.7653">
        <ele>378.79998779297</ele>
        <time>2011-04-22T17:31:03.000Z</time>
      </trkpt>
      <trkpt lat="45.14937" lon="5.76527">
        <ele>378.20001220703</ele>
        <time>2011-04-22T17:31:04.000Z</time>
      </trkpt>
      <trkpt lat="45.14936" lon="5.76518">
        <ele>376.39999389648</ele>
        <time>2011-04-22T17:31:07.000Z</time>
      </trkpt>
      <trkpt lat="45.14935" lon="5.76509">
        <ele>374.39999389648</ele>
        <time>2011-04-22T17:31:10.000Z</time>
      </trkpt>
      <trkpt lat="45.14934" lon="5.76505">
        <ele>373.60000610352</ele>
        <time>2011-04-22T17:31:11.000Z</time>
      </trkpt>
      <trkpt lat="45.14932" lon="5.76487">
        <ele>370.79998779297</ele>
        <time>2011-04-22T17:31:16.000Z</time>
      </trkpt>
      <trkpt lat="45.1493" lon="5.76478">
        <ele>369.39999389648</ele>
        <time>2011-04-22T17:31:19.000Z</time>
      </trkpt>
      <trkpt lat="45.1493" lon="5.76475">
        <ele>369</ele>
        <time>2011-04-22T17:31:20.000Z</time>
      </trkpt>
      <trkpt lat="45.14931" lon="5.7647">
        <ele>368.39999389648</ele>
        <time>2011-04-22T17:31:22.000Z</time>
      </trkpt>
      <trkpt lat="45.1493" lon="5.7646">
        <ele>366.79998779297</ele>
        <time>2011-04-22T17:31:25.000Z</time>
      </trkpt>
      <trkpt lat="45.14929" lon="5.7645">
        <ele>365.39999389648</ele>
        <time>2011-04-22T17:31:28.000Z</time>
      </trkpt>
      <trkpt lat="45.14927" lon="5.76429">
        <ele>362.20001220703</ele>
        <time>2011-04-22T17:31:34.000Z</time>
      </trkpt>
      <trkpt lat="45.14927" lon="5.76423">
        <ele>361.20001220703</ele>
        <time>2011-04-22T17:31:36.000Z</time>
      </trkpt>
      <trkpt lat="45.14926" lon="5.7641">
        <ele>359.60000610352</ele>
        <time>2011-04-22T17:31:40.000Z</time>
      </trkpt>
      <trkpt lat="45.14925" lon="5.76406">
        <ele>359.20001220703</ele>
        <time>2011-04-22T17:31:41.000Z</time>
      </trkpt>
      <trkpt lat="45.14922" lon="5.76396">
        <ele>357.79998779297</ele>
        <time>2011-04-22T17:31:44.000Z</time>
      </trkpt>
      <trkpt lat="45.14921" lon="5.76393">
        <ele>357.39999389648</ele>
        <time>2011-04-22T17:31:45.000Z</time>
      </trkpt>
      <trkpt lat="45.14919" lon="5.76389">
        <ele>356.60000610352</ele>
        <time>2011-04-22T17:31:46.000Z</time>
      </trkpt>
      <trkpt lat="45.14916" lon="5.76381">
        <ele>355.39999389648</ele>
        <time>2011-04-22T17:31:48.000Z</time>
      </trkpt>
      <trkpt lat="45.14916" lon="5.76375">
        <ele>354.60000610352</ele>
        <time>2011-04-22T17:31:50.000Z</time>
      </trkpt>
      <trkpt lat="45.14915" lon="5.76372">
        <ele>354.20001220703</ele>
        <time>2011-04-22T17:31:51.000Z</time>
      </trkpt>
      <trkpt lat="45.14915" lon="5.76368">
        <ele>353.60000610352</ele>
        <time>2011-04-22T17:31:52.000Z</time>
      </trkpt>
      <trkpt lat="45.14912" lon="5.76353">
        <ele>351</ele>
        <time>2011-04-22T17:31:56.000Z</time>
      </trkpt>
      <trkpt lat="45.14912" lon="5.76346">
        <ele>349.79998779297</ele>
        <time>2011-04-22T17:31:58.000Z</time>
      </trkpt>
      <trkpt lat="45.14911" lon="5.76337">
        <ele>348.60000610352</ele>
        <time>2011-04-22T17:32:01.000Z</time>
      </trkpt>
      <trkpt lat="45.14911" lon="5.76319">
        <ele>346.20001220703</ele>
        <time>2011-04-22T17:32:06.000Z</time>
      </trkpt>
      <trkpt lat="45.1491" lon="5.76316">
        <ele>345.39999389648</ele>
        <time>2011-04-22T17:32:07.000Z</time>
      </trkpt>
      <trkpt lat="45.1491" lon="5.76296">
        <ele>342.79998779297</ele>
        <time>2011-04-22T17:32:12.000Z</time>
      </trkpt>
      <trkpt lat="45.1491" lon="5.76292">
        <ele>342.20001220703</ele>
        <time>2011-04-22T17:32:13.000Z</time>
      </trkpt>
      <trkpt lat="45.14909" lon="5.76281">
        <ele>340.60000610352</ele>
        <time>2011-04-22T17:32:17.000Z</time>
      </trkpt>
      <trkpt lat="45.14906" lon="5.76265">
        <ele>337.20001220703</ele>
        <time>2011-04-22T17:32:22.000Z</time>
      </trkpt>
      <trkpt lat="45.14906" lon="5.76262">
        <ele>336.79998779297</ele>
        <time>2011-04-22T17:32:23.000Z</time>
      </trkpt>
      <trkpt lat="45.14904" lon="5.76257">
        <ele>335.60000610352</ele>
        <time>2011-04-22T17:32:25.000Z</time>
      </trkpt>
      <trkpt lat="45.14904" lon="5.7625">
        <ele>334.60000610352</ele>
        <time>2011-04-22T17:32:27.000Z</time>
      </trkpt>
      <trkpt lat="45.14904" lon="5.76242">
        <ele>333.79998779297</ele>
        <time>2011-04-22T17:32:29.000Z</time>
      </trkpt>
      <trkpt lat="45.14904" lon="5.76239">
        <ele>333.20001220703</ele>
        <time>2011-04-22T17:32:30.000Z</time>
      </trkpt>
      <trkpt lat="45.14903" lon="5.76232">
        <ele>332.20001220703</ele>
        <time>2011-04-22T17:32:32.000Z</time>
      </trkpt>
      <trkpt lat="45.14903" lon="5.76211">
        <ele>330.60000610352</ele>
        <time>2011-04-22T17:32:38.000Z</time>
      </trkpt>
      <trkpt lat="45.14903" lon="5.7619">
        <ele>328.39999389648</ele>
        <time>2011-04-22T17:32:44.000Z</time>
      </trkpt>
      <trkpt lat="45.14902" lon="5.76182">
        <ele>327.39999389648</ele>
        <time>2011-04-22T17:32:46.000Z</time>
      </trkpt>
      <trkpt lat="45.14901" lon="5.76176">
        <ele>326.39999389648</ele>
        <time>2011-04-22T17:32:48.000Z</time>
      </trkpt>
      <trkpt lat="45.149" lon="5.76169">
        <ele>325.39999389648</ele>
        <time>2011-04-22T17:32:51.000Z</time>
      </trkpt>
      <trkpt lat="45.14899" lon="5.76163">
        <ele>324.60000610352</ele>
        <time>2011-04-22T17:32:54.000Z</time>
      </trkpt>
      <trkpt lat="45.14901" lon="5.76162">
        <ele>325.39999389648</ele>
        <time>2011-04-22T17:32:57.000Z</time>
      </trkpt>
      <trkpt lat="45.14902" lon="5.76164">
        <ele>325.79998779297</ele>
        <time>2011-04-22T17:33:00.000Z</time>
      </trkpt>
      <trkpt lat="45.14903" lon="5.76162">
        <ele>325.79998779297</ele>
        <time>2011-04-22T17:33:19.000Z</time>
      </trkpt>
      <trkpt lat="45.14903" lon="5.7616">
        <ele>325.79998779297</ele>
        <time>2011-04-22T17:33:23.000Z</time>
      </trkpt>
      <trkpt lat="45.14903" lon="5.76159">
        <ele>325.60000610352</ele>
        <time>2011-04-22T17:33:24.000Z</time>
      </trkpt>
      <trkpt lat="45.14902" lon="5.76153">
        <ele>324.79998779297</ele>
        <time>2011-04-22T17:33:28.000Z</time>
      </trkpt>
      <trkpt lat="45.14901" lon="5.76147">
        <ele>324</ele>
        <time>2011-04-22T17:33:31.000Z</time>
      </trkpt>
      <trkpt lat="45.14902" lon="5.76142">
        <ele>323.79998779297</ele>
        <time>2011-04-22T17:33:33.000Z</time>
      </trkpt>
      <trkpt lat="45.14902" lon="5.76135">
        <ele>323</ele>
        <time>2011-04-22T17:33:35.000Z</time>
      </trkpt>
      <trkpt lat="45.149" lon="5.76126">
        <ele>321.60000610352</ele>
        <time>2011-04-22T17:33:38.000Z</time>
      </trkpt>
      <trkpt lat="45.14899" lon="5.76112">
        <ele>320</ele>
        <time>2011-04-22T17:33:42.000Z</time>
      </trkpt>
      <trkpt lat="45.14899" lon="5.76109">
        <ele>320</ele>
        <time>2011-04-22T17:33:43.000Z</time>
      </trkpt>
      <trkpt lat="45.14901" lon="5.76102">
        <ele>319.79998779297</ele>
        <time>2011-04-22T17:33:45.000Z</time>
      </trkpt>
      <trkpt lat="45.14901" lon="5.76094">
        <ele>319.20001220703</ele>
        <time>2011-04-22T17:33:47.000Z</time>
      </trkpt>
      <trkpt lat="45.149" lon="5.76082">
        <ele>318</ele>
        <time>2011-04-22T17:33:50.000Z</time>
      </trkpt>
      <trkpt lat="45.149" lon="5.76071">
        <ele>317.60000610352</ele>
        <time>2011-04-22T17:33:53.000Z</time>
      </trkpt>
      <trkpt lat="45.14899" lon="5.76057">
        <ele>316.60000610352</ele>
        <time>2011-04-22T17:33:56.000Z</time>
      </trkpt>
      <trkpt lat="45.14899" lon="5.7605">
        <ele>316.60000610352</ele>
        <time>2011-04-22T17:33:58.000Z</time>
      </trkpt>
      <trkpt lat="45.14897" lon="5.76029">
        <ele>315.20001220703</ele>
        <time>2011-04-22T17:34:03.000Z</time>
      </trkpt>
      <trkpt lat="45.14894" lon="5.76013">
        <ele>313.60000610352</ele>
        <time>2011-04-22T17:34:07.000Z</time>
      </trkpt>
      <trkpt lat="45.14891" lon="5.76001">
        <ele>312.39999389648</ele>
        <time>2011-04-22T17:34:10.000Z</time>
      </trkpt>
      <trkpt lat="45.14889" lon="5.75993">
        <ele>311.20001220703</ele>
        <time>2011-04-22T17:34:12.000Z</time>
      </trkpt>
      <trkpt lat="45.14885" lon="5.75977">
        <ele>308.79998779297</ele>
        <time>2011-04-22T17:34:16.000Z</time>
      </trkpt>
      <trkpt lat="45.14884" lon="5.75969">
        <ele>307.79998779297</ele>
        <time>2011-04-22T17:34:18.000Z</time>
      </trkpt>
      <trkpt lat="45.14881" lon="5.75951">
        <ele>306</ele>
        <time>2011-04-22T17:34:23.000Z</time>
      </trkpt>
      <trkpt lat="45.14881" lon="5.75945">
        <ele>305.39999389648</ele>
        <time>2011-04-22T17:34:24.000Z</time>
      </trkpt>
      <trkpt lat="45.14879" lon="5.75925">
        <ele>303.60000610352</ele>
        <time>2011-04-22T17:34:29.000Z</time>
      </trkpt>
      <trkpt lat="45.14877" lon="5.75915">
        <ele>302.39999389648</ele>
        <time>2011-04-22T17:34:32.000Z</time>
      </trkpt>
      <trkpt lat="45.14877" lon="5.75908">
        <ele>302</ele>
        <time>2011-04-22T17:34:34.000Z</time>
      </trkpt>
      <trkpt lat="45.14876" lon="5.75897">
        <ele>301.39999389648</ele>
        <time>2011-04-22T17:34:36.000Z</time>
      </trkpt>
      <trkpt lat="45.14876" lon="5.75881">
        <ele>300.39999389648</ele>
        <time>2011-04-22T17:34:39.000Z</time>
      </trkpt>
      <trkpt lat="45.14876" lon="5.75869">
        <ele>300.20001220703</ele>
        <time>2011-04-22T17:34:42.000Z</time>
      </trkpt>
      <trkpt lat="45.14878" lon="5.75858">
        <ele>300.20001220703</ele>
        <time>2011-04-22T17:34:45.000Z</time>
      </trkpt>
      <trkpt lat="45.14878" lon="5.75842">
        <ele>299.39999389648</ele>
        <time>2011-04-22T17:34:49.000Z</time>
      </trkpt>
      <trkpt lat="45.14874" lon="5.75823">
        <ele>297.39999389648</ele>
        <time>2011-04-22T17:34:54.000Z</time>
      </trkpt>
      <trkpt lat="45.14875" lon="5.75816">
        <ele>297.60000610352</ele>
        <time>2011-04-22T17:34:56.000Z</time>
      </trkpt>
      <trkpt lat="45.14874" lon="5.75801">
        <ele>296.60000610352</ele>
        <time>2011-04-22T17:35:00.000Z</time>
      </trkpt>
      <trkpt lat="45.14874" lon="5.75789">
        <ele>296.39999389648</ele>
        <time>2011-04-22T17:35:03.000Z</time>
      </trkpt>
      <trkpt lat="45.14875" lon="5.75781">
        <ele>296.39999389648</ele>
        <time>2011-04-22T17:35:05.000Z</time>
      </trkpt>
      <trkpt lat="45.14875" lon="5.75763">
        <ele>296.20001220703</ele>
        <time>2011-04-22T17:35:09.000Z</time>
      </trkpt>
      <trkpt lat="45.14875" lon="5.75759">
        <ele>296</ele>
        <time>2011-04-22T17:35:10.000Z</time>
      </trkpt>
      <trkpt lat="45.14875" lon="5.75738">
        <ele>295.20001220703</ele>
        <time>2011-04-22T17:35:15.000Z</time>
      </trkpt>
      <trkpt lat="45.14874" lon="5.75727">
        <ele>294.20001220703</ele>
        <time>2011-04-22T17:35:18.000Z</time>
      </trkpt>
      <trkpt lat="45.14874" lon="5.75719">
        <ele>293.79998779297</ele>
        <time>2011-04-22T17:35:20.000Z</time>
      </trkpt>
      <trkpt lat="45.14873" lon="5.75709">
        <ele>292.79998779297</ele>
        <time>2011-04-22T17:35:23.000Z</time>
      </trkpt>
      <trkpt lat="45.1487" lon="5.75696">
        <ele>291.20001220703</ele>
        <time>2011-04-22T17:35:27.000Z</time>
      </trkpt>
      <trkpt lat="45.14865" lon="5.75683">
        <ele>289.60000610352</ele>
        <time>2011-04-22T17:35:31.000Z</time>
      </trkpt>
      <trkpt lat="45.14859" lon="5.75667">
        <ele>287.39999389648</ele>
        <time>2011-04-22T17:35:35.000Z</time>
      </trkpt>
      <trkpt lat="45.14857" lon="5.75658">
        <ele>286.60000610352</ele>
        <time>2011-04-22T17:35:37.000Z</time>
      </trkpt>
      <trkpt lat="45.14856" lon="5.75652">
        <ele>286</ele>
        <time>2011-04-22T17:35:39.000Z</time>
      </trkpt>
      <trkpt lat="45.14852" lon="5.75647">
        <ele>285</ele>
        <time>2011-04-22T17:35:42.000Z</time>
      </trkpt>
      <trkpt lat="45.14849" lon="5.75645">
        <ele>284.39999389648</ele>
        <time>2011-04-22T17:35:44.000Z</time>
      </trkpt>
      <trkpt lat="45.14844" lon="5.75642">
        <ele>283.20001220703</ele>
        <time>2011-04-22T17:35:47.000Z</time>
      </trkpt>
      <trkpt lat="45.14843" lon="5.75639">
        <ele>282.79998779297</ele>
        <time>2011-04-22T17:35:48.000Z</time>
      </trkpt>
      <trkpt lat="45.14841" lon="5.75635">
        <ele>282.39999389648</ele>
        <time>2011-04-22T17:35:52.000Z</time>
      </trkpt>
      <trkpt lat="45.14841" lon="5.75639">
        <ele>282.60000610352</ele>
        <time>2011-04-22T17:35:54.000Z</time>
      </trkpt>
      <trkpt lat="45.1484" lon="5.75642">
        <ele>282.60000610352</ele>
        <time>2011-04-22T17:35:56.000Z</time>
      </trkpt>
      <trkpt lat="45.1484" lon="5.75643">
        <ele>282.60000610352</ele>
        <time>2011-04-22T17:35:57.000Z</time>
      </trkpt>
      <trkpt lat="45.14841" lon="5.75652">
        <ele>283</ele>
        <time>2011-04-22T17:36:00.000Z</time>
      </trkpt>
      <trkpt lat="45.14842" lon="5.75654">
        <ele>283.20001220703</ele>
        <time>2011-04-22T17:36:01.000Z</time>
      </trkpt>
      <trkpt lat="45.14844" lon="5.75666">
        <ele>284.20001220703</ele>
        <time>2011-04-22T17:36:05.000Z</time>
      </trkpt>
      <trkpt lat="45.14843" lon="5.75666">
        <ele>284</ele>
        <time>2011-04-22T17:36:06.000Z</time>
      </trkpt>
      <trkpt lat="45.14842" lon="5.75666">
        <ele>283.79998779297</ele>
        <time>2011-04-22T17:36:07.000Z</time>
      </trkpt>
      <trkpt lat="45.14839" lon="5.75664">
        <ele>283.20001220703</ele>
        <time>2011-04-22T17:36:09.000Z</time>
      </trkpt>
      <trkpt lat="45.14837" lon="5.7566">
        <ele>282.39999389648</ele>
        <time>2011-04-22T17:36:11.000Z</time>
      </trkpt>
      <trkpt lat="45.14833" lon="5.75653">
        <ele>281.60000610352</ele>
        <time>2011-04-22T17:36:14.000Z</time>
      </trkpt>
      <trkpt lat="45.14826" lon="5.75641">
        <ele>278.79998779297</ele>
        <time>2011-04-22T17:36:19.000Z</time>
      </trkpt>
      <trkpt lat="45.14824" lon="5.75639">
        <ele>278.20001220703</ele>
        <time>2011-04-22T17:36:20.000Z</time>
      </trkpt>
      <trkpt lat="45.14818" lon="5.75637">
        <ele>276.39999389648</ele>
        <time>2011-04-22T17:36:25.000Z</time>
      </trkpt>
      <trkpt lat="45.14823" lon="5.75642">
        <ele>278.20001220703</ele>
        <time>2011-04-22T17:36:30.000Z</time>
      </trkpt>
      <trkpt lat="45.14824" lon="5.75649">
        <ele>278.60000610352</ele>
        <time>2011-04-22T17:36:33.000Z</time>
      </trkpt>
      <trkpt lat="45.14824" lon="5.75652">
        <ele>278.79998779297</ele>
        <time>2011-04-22T17:36:34.000Z</time>
      </trkpt>
      <trkpt lat="45.14824" lon="5.75655">
        <ele>278.60000610352</ele>
        <time>2011-04-22T17:36:35.000Z</time>
      </trkpt>
      <trkpt lat="45.14823" lon="5.75665">
        <ele>278.79998779297</ele>
        <time>2011-04-22T17:36:39.000Z</time>
      </trkpt>
      <trkpt lat="45.14823" lon="5.75676">
        <ele>278.39999389648</ele>
        <time>2011-04-22T17:36:42.000Z</time>
      </trkpt>
      <trkpt lat="45.1482" lon="5.75689">
        <ele>277.79998779297</ele>
        <time>2011-04-22T17:36:45.000Z</time>
      </trkpt>
      <trkpt lat="45.14819" lon="5.7569">
        <ele>277.39999389648</ele>
        <time>2011-04-22T17:36:46.000Z</time>
      </trkpt>
      <trkpt lat="45.14816" lon="5.75687">
        <ele>276.60000610352</ele>
        <time>2011-04-22T17:36:48.000Z</time>
      </trkpt>
      <trkpt lat="45.14815" lon="5.75681">
        <ele>276.20001220703</ele>
        <time>2011-04-22T17:36:50.000Z</time>
      </trkpt>
      <trkpt lat="45.14814" lon="5.75678">
        <ele>276</ele>
        <time>2011-04-22T17:36:51.000Z</time>
      </trkpt>
      <trkpt lat="45.14814" lon="5.75676">
        <ele>275.79998779297</ele>
        <time>2011-04-22T17:36:52.000Z</time>
      </trkpt>
      <trkpt lat="45.14809" lon="5.75659">
        <ele>274.20001220703</ele>
        <time>2011-04-22T17:36:57.000Z</time>
      </trkpt>
      <trkpt lat="45.14808" lon="5.75656">
        <ele>273.79998779297</ele>
        <time>2011-04-22T17:36:58.000Z</time>
      </trkpt>
      <trkpt lat="45.14805" lon="5.75646">
        <ele>272.79998779297</ele>
        <time>2011-04-22T17:37:01.000Z</time>
      </trkpt>
      <trkpt lat="45.148" lon="5.75632">
        <ele>271</ele>
        <time>2011-04-22T17:37:05.000Z</time>
      </trkpt>
      <trkpt lat="45.14797" lon="5.75626">
        <ele>270.20001220703</ele>
        <time>2011-04-22T17:37:07.000Z</time>
      </trkpt>
      <trkpt lat="45.1479" lon="5.75613">
        <ele>267.79998779297</ele>
        <time>2011-04-22T17:37:12.000Z</time>
      </trkpt>
      <trkpt lat="45.14788" lon="5.7561">
        <ele>267.20001220703</ele>
        <time>2011-04-22T17:37:13.000Z</time>
      </trkpt>
      <trkpt lat="45.14783" lon="5.75591">
        <ele>265.39999389648</ele>
        <time>2011-04-22T17:37:18.000Z</time>
      </trkpt>
      <trkpt lat="45.14782" lon="5.75584">
        <ele>265.20001220703</ele>
        <time>2011-04-22T17:37:20.000Z</time>
      </trkpt>
      <trkpt lat="45.14783" lon="5.75574">
        <ele>265.39999389648</ele>
        <time>2011-04-22T17:37:23.000Z</time>
      </trkpt>
      <trkpt lat="45.14785" lon="5.75568">
        <ele>265.79998779297</ele>
        <time>2011-04-22T17:37:25.000Z</time>
      </trkpt>
      <trkpt lat="45.14787" lon="5.75562">
        <ele>266.39999389648</ele>
        <time>2011-04-22T17:37:28.000Z</time>
      </trkpt>
      <trkpt lat="45.14786" lon="5.75558">
        <ele>265.79998779297</ele>
        <time>2011-04-22T17:37:30.000Z</time>
      </trkpt>
      <trkpt lat="45.14783" lon="5.75552">
        <ele>265.20001220703</ele>
        <time>2011-04-22T17:37:32.000Z</time>
      </trkpt>
      <trkpt lat="45.14775" lon="5.75536">
        <ele>262.79998779297</ele>
        <time>2011-04-22T17:37:37.000Z</time>
      </trkpt>
      <trkpt lat="45.14768" lon="5.75517">
        <ele>260.79998779297</ele>
        <time>2011-04-22T17:37:43.000Z</time>
      </trkpt>
      <trkpt lat="45.14766" lon="5.75514">
        <ele>260</ele>
        <time>2011-04-22T17:37:44.000Z</time>
      </trkpt>
      <trkpt lat="45.14758" lon="5.7551">
        <ele>258</ele>
        <time>2011-04-22T17:37:47.000Z</time>
      </trkpt>
      <trkpt lat="45.14748" lon="5.75508">
        <ele>255.80000305176</ele>
        <time>2011-04-22T17:37:52.000Z</time>
      </trkpt>
      <trkpt lat="45.14744" lon="5.75507">
        <ele>255.80000305176</ele>
        <time>2011-04-22T17:37:54.000Z</time>
      </trkpt>
      <trkpt lat="45.1474" lon="5.75506">
        <ele>255.80000305176</ele>
        <time>2011-04-22T17:37:56.000Z</time>
      </trkpt>
      <trkpt lat="45.14736" lon="5.75498">
        <ele>255.60000610352</ele>
        <time>2011-04-22T17:37:59.000Z</time>
      </trkpt>
      <trkpt lat="45.14733" lon="5.75493">
        <ele>255.39999389648</ele>
        <time>2011-04-22T17:38:01.000Z</time>
      </trkpt>
      <trkpt lat="45.14728" lon="5.75488">
        <ele>255.19999694824</ele>
        <time>2011-04-22T17:38:04.000Z</time>
      </trkpt>
      <trkpt lat="45.14715" lon="5.75485">
        <ele>255</ele>
        <time>2011-04-22T17:38:09.000Z</time>
      </trkpt>
      <trkpt lat="45.14711" lon="5.75481">
        <ele>255</ele>
        <time>2011-04-22T17:38:11.000Z</time>
      </trkpt>
      <trkpt lat="45.1471" lon="5.75477">
        <ele>254.80000305176</ele>
        <time>2011-04-22T17:38:12.000Z</time>
      </trkpt>
      <trkpt lat="45.14705" lon="5.75466">
        <ele>254.60000610352</ele>
        <time>2011-04-22T17:38:16.000Z</time>
      </trkpt>
      <trkpt lat="45.14703" lon="5.75464">
        <ele>254.60000610352</ele>
        <time>2011-04-22T17:38:17.000Z</time>
      </trkpt>
      <trkpt lat="45.14696" lon="5.75457">
        <ele>254.39999389648</ele>
        <time>2011-04-22T17:38:21.000Z</time>
      </trkpt>
      <trkpt lat="45.14697" lon="5.75445">
        <ele>254.19999694824</ele>
        <time>2011-04-22T17:38:24.000Z</time>
      </trkpt>
      <trkpt lat="45.14697" lon="5.75441">
        <ele>254</ele>
        <time>2011-04-22T17:38:25.000Z</time>
      </trkpt>
      <trkpt lat="45.147" lon="5.75418">
        <ele>253.60000610352</ele>
        <time>2011-04-22T17:38:31.000Z</time>
      </trkpt>
      <trkpt lat="45.14704" lon="5.75391">
        <ele>252</ele>
        <time>2011-04-22T17:38:38.000Z</time>
      </trkpt>
      <trkpt lat="45.14706" lon="5.75367">
        <ele>250.60000610352</ele>
        <time>2011-04-22T17:38:44.000Z</time>
      </trkpt>
      <trkpt lat="45.14706" lon="5.75363">
        <ele>250.39999389648</ele>
        <time>2011-04-22T17:38:45.000Z</time>
      </trkpt>
      <trkpt lat="45.14708" lon="5.75345">
        <ele>249.19999694824</ele>
        <time>2011-04-22T17:38:50.000Z</time>
      </trkpt>
      <trkpt lat="45.14708" lon="5.75337">
        <ele>248.60000610352</ele>
        <time>2011-04-22T17:38:52.000Z</time>
      </trkpt>
      <trkpt lat="45.14709" lon="5.75322">
        <ele>248.19999694824</ele>
        <time>2011-04-22T17:38:56.000Z</time>
      </trkpt>
      <trkpt lat="45.1471" lon="5.75311">
        <ele>248.19999694824</ele>
        <time>2011-04-22T17:38:59.000Z</time>
      </trkpt>
      <trkpt lat="45.14711" lon="5.753">
        <ele>248</ele>
        <time>2011-04-22T17:39:02.000Z</time>
      </trkpt>
      <trkpt lat="45.14712" lon="5.75285">
        <ele>247.80000305176</ele>
        <time>2011-04-22T17:39:06.000Z</time>
      </trkpt>
      <trkpt lat="45.14714" lon="5.75264">
        <ele>247.60000610352</ele>
        <time>2011-04-22T17:39:12.000Z</time>
      </trkpt>
      <trkpt lat="45.14714" lon="5.75256">
        <ele>247.60000610352</ele>
        <time>2011-04-22T17:39:14.000Z</time>
      </trkpt>
      <trkpt lat="45.14716" lon="5.75241">
        <ele>247.60000610352</ele>
        <time>2011-04-22T17:39:18.000Z</time>
      </trkpt>
      <trkpt lat="45.14717" lon="5.75229">
        <ele>247.80000305176</ele>
        <time>2011-04-22T17:39:21.000Z</time>
      </trkpt>
      <trkpt lat="45.14718" lon="5.75216">
        <ele>248</ele>
        <time>2011-04-22T17:39:24.000Z</time>
      </trkpt>
      <trkpt lat="45.1472" lon="5.75202">
        <ele>248.19999694824</ele>
        <time>2011-04-22T17:39:28.000Z</time>
      </trkpt>
      <trkpt lat="45.1472" lon="5.75199">
        <ele>248.19999694824</ele>
        <time>2011-04-22T17:39:29.000Z</time>
      </trkpt>
      <trkpt lat="45.14721" lon="5.75181">
        <ele>248.39999389648</ele>
        <time>2011-04-22T17:39:34.000Z</time>
      </trkpt>
      <trkpt lat="45.14722" lon="5.75174">
        <ele>248.39999389648</ele>
        <time>2011-04-22T17:39:36.000Z</time>
      </trkpt>
      <trkpt lat="45.14721" lon="5.75162">
        <ele>248.60000610352</ele>
        <time>2011-04-22T17:39:39.000Z</time>
      </trkpt>
      <trkpt lat="45.14723" lon="5.75146">
        <ele>248</ele>
        <time>2011-04-22T17:39:43.000Z</time>
      </trkpt>
      <trkpt lat="45.14723" lon="5.75143">
        <ele>248</ele>
        <time>2011-04-22T17:39:44.000Z</time>
      </trkpt>
      <trkpt lat="45.14729" lon="5.75127">
        <ele>247</ele>
        <time>2011-04-22T17:39:49.000Z</time>
      </trkpt>
      <trkpt lat="45.1473" lon="5.75124">
        <ele>247</ele>
        <time>2011-04-22T17:39:50.000Z</time>
      </trkpt>
      <trkpt lat="45.14732" lon="5.75109">
        <ele>246.39999389648</ele>
        <time>2011-04-22T17:39:54.000Z</time>
      </trkpt>
      <trkpt lat="45.14734" lon="5.75098">
        <ele>245.80000305176</ele>
        <time>2011-04-22T17:39:57.000Z</time>
      </trkpt>
      <trkpt lat="45.14735" lon="5.75093">
        <ele>245.60000610352</ele>
        <time>2011-04-22T17:39:58.000Z</time>
      </trkpt>
      <trkpt lat="45.1473" lon="5.75079">
        <ele>246</ele>
        <time>2011-04-22T17:40:02.000Z</time>
      </trkpt>
      <trkpt lat="45.14728" lon="5.75073">
        <ele>246.19999694824</ele>
        <time>2011-04-22T17:40:04.000Z</time>
      </trkpt>
      <trkpt lat="45.14727" lon="5.75065">
        <ele>246.39999389648</ele>
        <time>2011-04-22T17:40:06.000Z</time>
      </trkpt>
      <trkpt lat="45.14728" lon="5.75049">
        <ele>246.60000610352</ele>
        <time>2011-04-22T17:40:10.000Z</time>
      </trkpt>
      <trkpt lat="45.14728" lon="5.75045">
        <ele>246.60000610352</ele>
        <time>2011-04-22T17:40:11.000Z</time>
      </trkpt>
      <trkpt lat="45.14728" lon="5.75015">
        <ele>247</ele>
        <time>2011-04-22T17:40:18.000Z</time>
      </trkpt>
      <trkpt lat="45.14728" lon="5.74995">
        <ele>247.39999389648</ele>
        <time>2011-04-22T17:40:24.000Z</time>
      </trkpt>
      <trkpt lat="45.14727" lon="5.74988">
        <ele>247.39999389648</ele>
        <time>2011-04-22T17:40:26.000Z</time>
      </trkpt>
      <trkpt lat="45.14724" lon="5.74971">
        <ele>248.19999694824</ele>
        <time>2011-04-22T17:40:31.000Z</time>
      </trkpt>
      <trkpt lat="45.1472" lon="5.74962">
        <ele>248.80000305176</ele>
        <time>2011-04-22T17:40:34.000Z</time>
      </trkpt>
      <trkpt lat="45.14718" lon="5.74957">
        <ele>249.19999694824</ele>
        <time>2011-04-22T17:40:36.000Z</time>
      </trkpt>
      <trkpt lat="45.14716" lon="5.74947">
        <ele>249.60000610352</ele>
        <time>2011-04-22T17:40:39.000Z</time>
      </trkpt>
      <trkpt lat="45.14715" lon="5.7494">
        <ele>249.80000305176</ele>
        <time>2011-04-22T17:40:41.000Z</time>
      </trkpt>
      <trkpt lat="45.14714" lon="5.74937">
        <ele>250</ele>
        <time>2011-04-22T17:40:42.000Z</time>
      </trkpt>
      <trkpt lat="45.14713" lon="5.74933">
        <ele>250.39999389648</ele>
        <time>2011-04-22T17:40:43.000Z</time>
      </trkpt>
      <trkpt lat="45.14711" lon="5.74918">
        <ele>251</ele>
        <time>2011-04-22T17:40:47.000Z</time>
      </trkpt>
      <trkpt lat="45.14714" lon="5.74912">
        <ele>250.19999694824</ele>
        <time>2011-04-22T17:40:49.000Z</time>
      </trkpt>
      <trkpt lat="45.14717" lon="5.74904">
        <ele>249.39999389648</ele>
        <time>2011-04-22T17:40:51.000Z</time>
      </trkpt>
      <trkpt lat="45.14724" lon="5.74887">
        <ele>247.39999389648</ele>
        <time>2011-04-22T17:40:56.000Z</time>
      </trkpt>
      <trkpt lat="45.14725" lon="5.74882">
        <ele>247</ele>
        <time>2011-04-22T17:40:57.000Z</time>
      </trkpt>
      <trkpt lat="45.14732" lon="5.74862">
        <ele>245.19999694824</ele>
        <time>2011-04-22T17:41:02.000Z</time>
      </trkpt>
      <trkpt lat="45.14736" lon="5.74843">
        <ele>243.80000305176</ele>
        <time>2011-04-22T17:41:07.000Z</time>
      </trkpt>
      <trkpt lat="45.14737" lon="5.74835">
        <ele>243.39999389648</ele>
        <time>2011-04-22T17:41:09.000Z</time>
      </trkpt>
      <trkpt lat="45.14738" lon="5.74823">
        <ele>242.60000610352</ele>
        <time>2011-04-22T17:41:12.000Z</time>
      </trkpt>
      <trkpt lat="45.14743" lon="5.74812">
        <ele>241.19999694824</ele>
        <time>2011-04-22T17:41:15.000Z</time>
      </trkpt>
      <trkpt lat="45.14749" lon="5.74806">
        <ele>240.19999694824</ele>
        <time>2011-04-22T17:41:17.000Z</time>
      </trkpt>
      <trkpt lat="45.14759" lon="5.74797">
        <ele>239.39999389648</ele>
        <time>2011-04-22T17:41:21.000Z</time>
      </trkpt>
      <trkpt lat="45.14764" lon="5.74793">
        <ele>239</ele>
        <time>2011-04-22T17:41:23.000Z</time>
      </trkpt>
      <trkpt lat="45.14777" lon="5.74787">
        <ele>238.60000610352</ele>
        <time>2011-04-22T17:41:28.000Z</time>
      </trkpt>
      <trkpt lat="45.14782" lon="5.74783">
        <ele>238.39999389648</ele>
        <time>2011-04-22T17:41:30.000Z</time>
      </trkpt>
      <trkpt lat="45.14786" lon="5.7478">
        <ele>238.39999389648</ele>
        <time>2011-04-22T17:41:32.000Z</time>
      </trkpt>
      <trkpt lat="45.14794" lon="5.7478">
        <ele>238.19999694824</ele>
        <time>2011-04-22T17:41:35.000Z</time>
      </trkpt>
      <trkpt lat="45.14798" lon="5.74771">
        <ele>238</ele>
        <time>2011-04-22T17:41:39.000Z</time>
      </trkpt>
      <trkpt lat="45.14793" lon="5.74759">
        <ele>238</ele>
        <time>2011-04-22T17:41:43.000Z</time>
      </trkpt>
      <trkpt lat="45.14791" lon="5.74756">
        <ele>238</ele>
        <time>2011-04-22T17:41:44.000Z</time>
      </trkpt>
      <trkpt lat="45.14783" lon="5.74736">
        <ele>237</ele>
        <time>2011-04-22T17:41:50.000Z</time>
      </trkpt>
      <trkpt lat="45.14775" lon="5.74716">
        <ele>235.19999694824</ele>
        <time>2011-04-22T17:41:56.000Z</time>
      </trkpt>
      <trkpt lat="45.14774" lon="5.74712">
        <ele>235</ele>
        <time>2011-04-22T17:41:57.000Z</time>
      </trkpt>
      <trkpt lat="45.14769" lon="5.74698">
        <ele>233.60000610352</ele>
        <time>2011-04-22T17:42:01.000Z</time>
      </trkpt>
      <trkpt lat="45.14765" lon="5.74687">
        <ele>232.60000610352</ele>
        <time>2011-04-22T17:42:04.000Z</time>
      </trkpt>
      <trkpt lat="45.14762" lon="5.7468">
        <ele>231.80000305176</ele>
        <time>2011-04-22T17:42:06.000Z</time>
      </trkpt>
      <trkpt lat="45.14755" lon="5.74661">
        <ele>230</ele>
        <time>2011-04-22T17:42:11.000Z</time>
      </trkpt>
      <trkpt lat="45.14754" lon="5.74658">
        <ele>229.80000305176</ele>
        <time>2011-04-22T17:42:12.000Z</time>
      </trkpt>
      <trkpt lat="45.14747" lon="5.74641">
        <ele>229.19999694824</ele>
        <time>2011-04-22T17:42:17.000Z</time>
      </trkpt>
      <trkpt lat="45.14746" lon="5.74638">
        <ele>229.19999694824</ele>
        <time>2011-04-22T17:42:18.000Z</time>
      </trkpt>
      <trkpt lat="45.14741" lon="5.74623">
        <ele>228.80000305176</ele>
        <time>2011-04-22T17:42:22.000Z</time>
      </trkpt>
      <trkpt lat="45.14738" lon="5.74612">
        <ele>228.39999389648</ele>
        <time>2011-04-22T17:42:25.000Z</time>
      </trkpt>
      <trkpt lat="45.14735" lon="5.74602">
        <ele>228.19999694824</ele>
        <time>2011-04-22T17:42:28.000Z</time>
      </trkpt>
      <trkpt lat="45.14729" lon="5.74587">
        <ele>227.80000305176</ele>
        <time>2011-04-22T17:42:32.000Z</time>
      </trkpt>
      <trkpt lat="45.14728" lon="5.74584">
        <ele>227.60000610352</ele>
        <time>2011-04-22T17:42:33.000Z</time>
      </trkpt>
      <trkpt lat="45.14721" lon="5.74566">
        <ele>227.80000305176</ele>
        <time>2011-04-22T17:42:38.000Z</time>
      </trkpt>
      <trkpt lat="45.14719" lon="5.74562">
        <ele>228</ele>
        <time>2011-04-22T17:42:39.000Z</time>
      </trkpt>
      <trkpt lat="45.14712" lon="5.74548">
        <ele>228.19999694824</ele>
        <time>2011-04-22T17:42:43.000Z</time>
      </trkpt>
      <trkpt lat="45.14708" lon="5.74542">
        <ele>228.39999389648</ele>
        <time>2011-04-22T17:42:45.000Z</time>
      </trkpt>
      <trkpt lat="45.14703" lon="5.74527">
        <ele>228.80000305176</ele>
        <time>2011-04-22T17:42:49.000Z</time>
      </trkpt>
      <trkpt lat="45.14701" lon="5.74518">
        <ele>229</ele>
        <time>2011-04-22T17:42:52.000Z</time>
      </trkpt>
      <trkpt lat="45.14699" lon="5.74515">
        <ele>229.19999694824</ele>
        <time>2011-04-22T17:42:53.000Z</time>
      </trkpt>
      <trkpt lat="45.14694" lon="5.74506">
        <ele>229.39999389648</ele>
        <time>2011-04-22T17:42:56.000Z</time>
      </trkpt>
      <trkpt lat="45.1469" lon="5.74501">
        <ele>229.60000610352</ele>
        <time>2011-04-22T17:42:58.000Z</time>
      </trkpt>
      <trkpt lat="45.14688" lon="5.74499">
        <ele>229.60000610352</ele>
        <time>2011-04-22T17:42:59.000Z</time>
      </trkpt>
      <trkpt lat="45.14679" lon="5.74489">
        <ele>229.60000610352</ele>
        <time>2011-04-22T17:43:03.000Z</time>
      </trkpt>
      <trkpt lat="45.14674" lon="5.74481">
        <ele>229.60000610352</ele>
        <time>2011-04-22T17:43:06.000Z</time>
      </trkpt>
      <trkpt lat="45.14671" lon="5.74475">
        <ele>229.60000610352</ele>
        <time>2011-04-22T17:43:08.000Z</time>
      </trkpt>
      <trkpt lat="45.14661" lon="5.74461">
        <ele>229.39999389648</ele>
        <time>2011-04-22T17:43:13.000Z</time>
      </trkpt>
      <trkpt lat="45.14658" lon="5.74456">
        <ele>229.19999694824</ele>
        <time>2011-04-22T17:43:15.000Z</time>
      </trkpt>
      <trkpt lat="45.14648" lon="5.7444">
        <ele>229</ele>
        <time>2011-04-22T17:43:20.000Z</time>
      </trkpt>
      <trkpt lat="45.14646" lon="5.74438">
        <ele>228.80000305176</ele>
        <time>2011-04-22T17:43:21.000Z</time>
      </trkpt>
      <trkpt lat="45.14634" lon="5.74427">
        <ele>228.60000610352</ele>
        <time>2011-04-22T17:43:26.000Z</time>
      </trkpt>
      <trkpt lat="45.14632" lon="5.74425">
        <ele>228.60000610352</ele>
        <time>2011-04-22T17:43:27.000Z</time>
      </trkpt>
      <trkpt lat="45.14622" lon="5.74413">
        <ele>228.39999389648</ele>
        <time>2011-04-22T17:43:32.000Z</time>
      </trkpt>
      <trkpt lat="45.14619" lon="5.74408">
        <ele>228.39999389648</ele>
        <time>2011-04-22T17:43:34.000Z</time>
      </trkpt>
      <trkpt lat="45.14613" lon="5.744">
        <ele>228.19999694824</ele>
        <time>2011-04-22T17:43:37.000Z</time>
      </trkpt>
      <trkpt lat="45.14606" lon="5.74388">
        <ele>228.19999694824</ele>
        <time>2011-04-22T17:43:41.000Z</time>
      </trkpt>
      <trkpt lat="45.14605" lon="5.74386">
        <ele>228.19999694824</ele>
        <time>2011-04-22T17:43:42.000Z</time>
      </trkpt>
      <trkpt lat="45.14595" lon="5.74372">
        <ele>228</ele>
        <time>2011-04-22T17:43:47.000Z</time>
      </trkpt>
      <trkpt lat="45.14593" lon="5.74369">
        <ele>228</ele>
        <time>2011-04-22T17:43:48.000Z</time>
      </trkpt>
      <trkpt lat="45.14585" lon="5.74357">
        <ele>228</ele>
        <time>2011-04-22T17:43:52.000Z</time>
      </trkpt>
      <trkpt lat="45.14579" lon="5.74349">
        <ele>227.80000305176</ele>
        <time>2011-04-22T17:43:55.000Z</time>
      </trkpt>
      <trkpt lat="45.14574" lon="5.74342">
        <ele>227.80000305176</ele>
        <time>2011-04-22T17:43:58.000Z</time>
      </trkpt>
      <trkpt lat="45.14566" lon="5.74332">
        <ele>227.80000305176</ele>
        <time>2011-04-22T17:44:02.000Z</time>
      </trkpt>
      <trkpt lat="45.14565" lon="5.74329">
        <ele>227.80000305176</ele>
        <time>2011-04-22T17:44:03.000Z</time>
      </trkpt>
      <trkpt lat="45.14558" lon="5.74318">
        <ele>227.80000305176</ele>
        <time>2011-04-22T17:44:07.000Z</time>
      </trkpt>
      <trkpt lat="45.14553" lon="5.7431">
        <ele>227.80000305176</ele>
        <time>2011-04-22T17:44:10.000Z</time>
      </trkpt>
      <trkpt lat="45.14547" lon="5.74301">
        <ele>227.80000305176</ele>
        <time>2011-04-22T17:44:13.000Z</time>
      </trkpt>
      <trkpt lat="45.1454" lon="5.74291">
        <ele>227.60000610352</ele>
        <time>2011-04-22T17:44:16.000Z</time>
      </trkpt>
      <trkpt lat="45.14534" lon="5.74282">
        <ele>227.60000610352</ele>
        <time>2011-04-22T17:44:19.000Z</time>
      </trkpt>
      <trkpt lat="45.14527" lon="5.7427">
        <ele>227.39999389648</ele>
        <time>2011-04-22T17:44:23.000Z</time>
      </trkpt>
      <trkpt lat="45.14523" lon="5.74266">
        <ele>227.39999389648</ele>
        <time>2011-04-22T17:44:25.000Z</time>
      </trkpt>
      <trkpt lat="45.1451" lon="5.74262">
        <ele>227.19999694824</ele>
        <time>2011-04-22T17:44:30.000Z</time>
      </trkpt>
      <trkpt lat="45.14503" lon="5.74246">
        <ele>226.80000305176</ele>
        <time>2011-04-22T17:44:35.000Z</time>
      </trkpt>
      <trkpt lat="45.14501" lon="5.74239">
        <ele>226.60000610352</ele>
        <time>2011-04-22T17:44:37.000Z</time>
      </trkpt>
      <trkpt lat="45.14496" lon="5.74226">
        <ele>226</ele>
        <time>2011-04-22T17:44:41.000Z</time>
      </trkpt>
      <trkpt lat="45.14492" lon="5.74216">
        <ele>225.60000610352</ele>
        <time>2011-04-22T17:44:44.000Z</time>
      </trkpt>
      <trkpt lat="45.14489" lon="5.7421">
        <ele>225.39999389648</ele>
        <time>2011-04-22T17:44:46.000Z</time>
      </trkpt>
      <trkpt lat="45.14482" lon="5.74194">
        <ele>224.80000305176</ele>
        <time>2011-04-22T17:44:51.000Z</time>
      </trkpt>
      <trkpt lat="45.1448" lon="5.74191">
        <ele>224.80000305176</ele>
        <time>2011-04-22T17:44:52.000Z</time>
      </trkpt>
      <trkpt lat="45.14472" lon="5.74172">
        <ele>224.39999389648</ele>
        <time>2011-04-22T17:44:58.000Z</time>
      </trkpt>
      <trkpt lat="45.1447" lon="5.74169">
        <ele>224.39999389648</ele>
        <time>2011-04-22T17:44:59.000Z</time>
      </trkpt>
      <trkpt lat="45.14462" lon="5.74151">
        <ele>224.19999694824</ele>
        <time>2011-04-22T17:45:05.000Z</time>
      </trkpt>
      <trkpt lat="45.1446" lon="5.74147">
        <ele>224.19999694824</ele>
        <time>2011-04-22T17:45:06.000Z</time>
      </trkpt>
      <trkpt lat="45.14452" lon="5.74128">
        <ele>224</ele>
        <time>2011-04-22T17:45:12.000Z</time>
      </trkpt>
      <trkpt lat="45.14444" lon="5.74104">
        <ele>223.80000305176</ele>
        <time>2011-04-22T17:45:19.000Z</time>
      </trkpt>
      <trkpt lat="45.14437" lon="5.74086">
        <ele>223.60000610352</ele>
        <time>2011-04-22T17:45:25.000Z</time>
      </trkpt>
      <trkpt lat="45.14435" lon="5.7408">
        <ele>223.60000610352</ele>
        <time>2011-04-22T17:45:27.000Z</time>
      </trkpt>
      <trkpt lat="45.1443" lon="5.74064">
        <ele>223.80000305176</ele>
        <time>2011-04-22T17:45:32.000Z</time>
      </trkpt>
      <trkpt lat="45.14427" lon="5.74055">
        <ele>223.80000305176</ele>
        <time>2011-04-22T17:45:35.000Z</time>
      </trkpt>
      <trkpt lat="45.14423" lon="5.74042">
        <ele>223.80000305176</ele>
        <time>2011-04-22T17:45:39.000Z</time>
      </trkpt>
      <trkpt lat="45.14418" lon="5.7403">
        <ele>223.80000305176</ele>
        <time>2011-04-22T17:45:43.000Z</time>
      </trkpt>
      <trkpt lat="45.14416" lon="5.74024">
        <ele>224</ele>
        <time>2011-04-22T17:45:45.000Z</time>
      </trkpt>
      <trkpt lat="45.14411" lon="5.74011">
        <ele>224</ele>
        <time>2011-04-22T17:45:49.000Z</time>
      </trkpt>
      <trkpt lat="45.14409" lon="5.74005">
        <ele>224</ele>
        <time>2011-04-22T17:45:51.000Z</time>
      </trkpt>
      <trkpt lat="45.14405" lon="5.73995">
        <ele>224.39999389648</ele>
        <time>2011-04-22T17:45:54.000Z</time>
      </trkpt>
      <trkpt lat="45.144" lon="5.73982">
        <ele>225</ele>
        <time>2011-04-22T17:45:58.000Z</time>
      </trkpt>
      <trkpt lat="45.14396" lon="5.73972">
        <ele>225.39999389648</ele>
        <time>2011-04-22T17:46:01.000Z</time>
      </trkpt>
      <trkpt lat="45.14393" lon="5.73957">
        <ele>226</ele>
        <time>2011-04-22T17:46:05.000Z</time>
      </trkpt>
      <trkpt lat="45.14392" lon="5.73955">
        <ele>226.19999694824</ele>
        <time>2011-04-22T17:46:06.000Z</time>
      </trkpt>
      <trkpt lat="45.14383" lon="5.73937">
        <ele>227</ele>
        <time>2011-04-22T17:46:12.000Z</time>
      </trkpt>
      <trkpt lat="45.14381" lon="5.73935">
        <ele>227</ele>
        <time>2011-04-22T17:46:13.000Z</time>
      </trkpt>
      <trkpt lat="45.14372" lon="5.73922">
        <ele>227.80000305176</ele>
        <time>2011-04-22T17:46:18.000Z</time>
      </trkpt>
      <trkpt lat="45.1437" lon="5.73915">
        <ele>228</ele>
        <time>2011-04-22T17:46:20.000Z</time>
      </trkpt>
      <trkpt lat="45.14365" lon="5.73897">
        <ele>228</ele>
        <time>2011-04-22T17:46:25.000Z</time>
      </trkpt>
      <trkpt lat="45.14362" lon="5.7389">
        <ele>228</ele>
        <time>2011-04-22T17:46:27.000Z</time>
      </trkpt>
      <trkpt lat="45.14357" lon="5.73875">
        <ele>228</ele>
        <time>2011-04-22T17:46:31.000Z</time>
      </trkpt>
      <trkpt lat="45.14354" lon="5.73864">
        <ele>228</ele>
        <time>2011-04-22T17:46:34.000Z</time>
      </trkpt>
      <trkpt lat="45.14351" lon="5.73853">
        <ele>227.80000305176</ele>
        <time>2011-04-22T17:46:37.000Z</time>
      </trkpt>
      <trkpt lat="45.14348" lon="5.73837">
        <ele>227.80000305176</ele>
        <time>2011-04-22T17:46:41.000Z</time>
      </trkpt>
      <trkpt lat="45.14347" lon="5.73833">
        <ele>227.80000305176</ele>
        <time>2011-04-22T17:46:42.000Z</time>
      </trkpt>
      <trkpt lat="45.14342" lon="5.7381">
        <ele>227.80000305176</ele>
        <time>2011-04-22T17:46:48.000Z</time>
      </trkpt>
      <trkpt lat="45.14335" lon="5.7379">
        <ele>227.80000305176</ele>
        <time>2011-04-22T17:46:54.000Z</time>
      </trkpt>
      <trkpt lat="45.14334" lon="5.73783">
        <ele>227.80000305176</ele>
        <time>2011-04-22T17:46:56.000Z</time>
      </trkpt>
      <trkpt lat="45.1433" lon="5.7377">
        <ele>227.80000305176</ele>
        <time>2011-04-22T17:47:00.000Z</time>
      </trkpt>
      <trkpt lat="45.14326" lon="5.73757">
        <ele>227.80000305176</ele>
        <time>2011-04-22T17:47:04.000Z</time>
      </trkpt>
      <trkpt lat="45.14325" lon="5.7375">
        <ele>227.80000305176</ele>
        <time>2011-04-22T17:47:06.000Z</time>
      </trkpt>
      <trkpt lat="45.1432" lon="5.73732">
        <ele>228</ele>
        <time>2011-04-22T17:47:11.000Z</time>
      </trkpt>
      <trkpt lat="45.14319" lon="5.73729">
        <ele>228.19999694824</ele>
        <time>2011-04-22T17:47:12.000Z</time>
      </trkpt>
      <trkpt lat="45.14316" lon="5.73714">
        <ele>228.39999389648</ele>
        <time>2011-04-22T17:47:17.000Z</time>
      </trkpt>
      <trkpt lat="45.14314" lon="5.73707">
        <ele>228.39999389648</ele>
        <time>2011-04-22T17:47:19.000Z</time>
      </trkpt>
      <trkpt lat="45.1431" lon="5.73689">
        <ele>228.60000610352</ele>
        <time>2011-04-22T17:47:26.000Z</time>
      </trkpt>
      <trkpt lat="45.14308" lon="5.73682">
        <ele>228.80000305176</ele>
        <time>2011-04-22T17:47:27.000Z</time>
      </trkpt>
      <trkpt lat="45.14304" lon="5.73669">
        <ele>228.80000305176</ele>
        <time>2011-04-22T17:47:31.000Z</time>
      </trkpt>
      <trkpt lat="45.14302" lon="5.73657">
        <ele>228.60000610352</ele>
        <time>2011-04-22T17:47:35.000Z</time>
      </trkpt>
      <trkpt lat="45.143" lon="5.73651">
        <ele>228.39999389648</ele>
        <time>2011-04-22T17:47:37.000Z</time>
      </trkpt>
      <trkpt lat="45.14294" lon="5.73631">
        <ele>228</ele>
        <time>2011-04-22T17:47:43.000Z</time>
      </trkpt>
      <trkpt lat="45.14293" lon="5.73627">
        <ele>228</ele>
        <time>2011-04-22T17:47:44.000Z</time>
      </trkpt>
      <trkpt lat="45.14287" lon="5.73607">
        <ele>227.60000610352</ele>
        <time>2011-04-22T17:47:50.000Z</time>
      </trkpt>
      <trkpt lat="45.1428" lon="5.73583">
        <ele>227.19999694824</ele>
        <time>2011-04-22T17:47:57.000Z</time>
      </trkpt>
      <trkpt lat="45.14278" lon="5.73568">
        <ele>227.80000305176</ele>
        <time>2011-04-22T17:48:02.000Z</time>
      </trkpt>
      <trkpt lat="45.14275" lon="5.73556">
        <ele>228.19999694824</ele>
        <time>2011-04-22T17:48:06.000Z</time>
      </trkpt>
      <trkpt lat="45.14274" lon="5.73553">
        <ele>228.19999694824</ele>
        <time>2011-04-22T17:48:07.000Z</time>
      </trkpt>
      <trkpt lat="45.14271" lon="5.73537">
        <ele>228.80000305176</ele>
        <time>2011-04-22T17:48:12.000Z</time>
      </trkpt>
      <trkpt lat="45.14269" lon="5.7353">
        <ele>229</ele>
        <time>2011-04-22T17:48:14.000Z</time>
      </trkpt>
      <trkpt lat="45.14268" lon="5.73524">
        <ele>229.19999694824</ele>
        <time>2011-04-22T17:48:16.000Z</time>
      </trkpt>
      <trkpt lat="45.14263" lon="5.73504">
        <ele>230</ele>
        <time>2011-04-22T17:48:22.000Z</time>
      </trkpt>
      <trkpt lat="45.14262" lon="5.73501">
        <ele>230</ele>
        <time>2011-04-22T17:48:23.000Z</time>
      </trkpt>
      <trkpt lat="45.14259" lon="5.73485">
        <ele>230</ele>
        <time>2011-04-22T17:48:28.000Z</time>
      </trkpt>
      <trkpt lat="45.14257" lon="5.73479">
        <ele>230</ele>
        <time>2011-04-22T17:48:30.000Z</time>
      </trkpt>
      <trkpt lat="45.14254" lon="5.73464">
        <ele>230</ele>
        <time>2011-04-22T17:48:35.000Z</time>
      </trkpt>
      <trkpt lat="45.14253" lon="5.73452">
        <ele>230</ele>
        <time>2011-04-22T17:48:39.000Z</time>
      </trkpt>
      <trkpt lat="45.14252" lon="5.73446">
        <ele>230</ele>
        <time>2011-04-22T17:48:41.000Z</time>
      </trkpt>
      <trkpt lat="45.14249" lon="5.73431">
        <ele>229.80000305176</ele>
        <time>2011-04-22T17:48:46.000Z</time>
      </trkpt>
      <trkpt lat="45.14248" lon="5.73425">
        <ele>229.80000305176</ele>
        <time>2011-04-22T17:48:48.000Z</time>
      </trkpt>
      <trkpt lat="45.14245" lon="5.73412">
        <ele>229.80000305176</ele>
        <time>2011-04-22T17:48:52.000Z</time>
      </trkpt>
      <trkpt lat="45.14243" lon="5.73399">
        <ele>229.60000610352</ele>
        <time>2011-04-22T17:48:56.000Z</time>
      </trkpt>
      <trkpt lat="45.14242" lon="5.73388">
        <ele>229.60000610352</ele>
        <time>2011-04-22T17:48:59.000Z</time>
      </trkpt>
      <trkpt lat="45.14244" lon="5.73372">
        <ele>229.39999389648</ele>
        <time>2011-04-22T17:49:04.000Z</time>
      </trkpt>
      <trkpt lat="45.14245" lon="5.73369">
        <ele>229.39999389648</ele>
        <time>2011-04-22T17:49:05.000Z</time>
      </trkpt>
      <trkpt lat="45.14245" lon="5.73355">
        <ele>229.19999694824</ele>
        <time>2011-04-22T17:49:09.000Z</time>
      </trkpt>
      <trkpt lat="45.14245" lon="5.73345">
        <ele>229.19999694824</ele>
        <time>2011-04-22T17:49:12.000Z</time>
      </trkpt>
      <trkpt lat="45.14246" lon="5.73339">
        <ele>229</ele>
        <time>2011-04-22T17:49:14.000Z</time>
      </trkpt>
      <trkpt lat="45.14246" lon="5.73316">
        <ele>228.80000305176</ele>
        <time>2011-04-22T17:49:20.000Z</time>
      </trkpt>
      <trkpt lat="45.14246" lon="5.73313">
        <ele>228.80000305176</ele>
        <time>2011-04-22T17:49:21.000Z</time>
      </trkpt>
      <trkpt lat="45.14246" lon="5.73291">
        <ele>228.39999389648</ele>
        <time>2011-04-22T17:49:27.000Z</time>
      </trkpt>
      <trkpt lat="45.14246" lon="5.73288">
        <ele>228.39999389648</ele>
        <time>2011-04-22T17:49:28.000Z</time>
      </trkpt>
      <trkpt lat="45.14247" lon="5.7327">
        <ele>228.19999694824</ele>
        <time>2011-04-22T17:49:33.000Z</time>
      </trkpt>
      <trkpt lat="45.14248" lon="5.7326">
        <ele>228</ele>
        <time>2011-04-22T17:49:36.000Z</time>
      </trkpt>
      <trkpt lat="45.14248" lon="5.73253">
        <ele>228</ele>
        <time>2011-04-22T17:49:38.000Z</time>
      </trkpt>
      <trkpt lat="45.14249" lon="5.73235">
        <ele>228</ele>
        <time>2011-04-22T17:49:43.000Z</time>
      </trkpt>
      <trkpt lat="45.14249" lon="5.73232">
        <ele>228</ele>
        <time>2011-04-22T17:49:44.000Z</time>
      </trkpt>
      <trkpt lat="45.1425" lon="5.73219">
        <ele>228</ele>
        <time>2011-04-22T17:49:48.000Z</time>
      </trkpt>
      <trkpt lat="45.1425" lon="5.73206">
        <ele>228</ele>
        <time>2011-04-22T17:49:52.000Z</time>
      </trkpt>
      <trkpt lat="45.1425" lon="5.732">
        <ele>227.80000305176</ele>
        <time>2011-04-22T17:49:54.000Z</time>
      </trkpt>
      <trkpt lat="45.14251" lon="5.73183">
        <ele>227.80000305176</ele>
        <time>2011-04-22T17:49:59.000Z</time>
      </trkpt>
      <trkpt lat="45.14251" lon="5.7318">
        <ele>227.80000305176</ele>
        <time>2011-04-22T17:50:00.000Z</time>
      </trkpt>
      <trkpt lat="45.14249" lon="5.73167">
        <ele>228</ele>
        <time>2011-04-22T17:50:04.000Z</time>
      </trkpt>
      <trkpt lat="45.14247" lon="5.73154">
        <ele>228</ele>
        <time>2011-04-22T17:50:08.000Z</time>
      </trkpt>
      <trkpt lat="45.14247" lon="5.73151">
        <ele>228</ele>
        <time>2011-04-22T17:50:09.000Z</time>
      </trkpt>
      <trkpt lat="45.14245" lon="5.73131">
        <ele>228</ele>
        <time>2011-04-22T17:50:15.000Z</time>
      </trkpt>
      <trkpt lat="45.14244" lon="5.73127">
        <ele>228</ele>
        <time>2011-04-22T17:50:16.000Z</time>
      </trkpt>
      <trkpt lat="45.14243" lon="5.73115">
        <ele>228</ele>
        <time>2011-04-22T17:50:20.000Z</time>
      </trkpt>
      <trkpt lat="45.14241" lon="5.73102">
        <ele>228</ele>
        <time>2011-04-22T17:50:24.000Z</time>
      </trkpt>
      <trkpt lat="45.1424" lon="5.73096">
        <ele>228</ele>
        <time>2011-04-22T17:50:26.000Z</time>
      </trkpt>
      <trkpt lat="45.14237" lon="5.73074">
        <ele>227.80000305176</ele>
        <time>2011-04-22T17:50:32.000Z</time>
      </trkpt>
      <trkpt lat="45.14235" lon="5.7305">
        <ele>227.60000610352</ele>
        <time>2011-04-22T17:50:39.000Z</time>
      </trkpt>
      <trkpt lat="45.14235" lon="5.73046">
        <ele>227.60000610352</ele>
        <time>2011-04-22T17:50:40.000Z</time>
      </trkpt>
      <trkpt lat="45.14237" lon="5.73035">
        <ele>227.60000610352</ele>
        <time>2011-04-22T17:50:43.000Z</time>
      </trkpt>
      <trkpt lat="45.14241" lon="5.73019">
        <ele>227.19999694824</ele>
        <time>2011-04-22T17:50:48.000Z</time>
      </trkpt>
      <trkpt lat="45.14249" lon="5.73005">
        <ele>227</ele>
        <time>2011-04-22T17:50:53.000Z</time>
      </trkpt>
      <trkpt lat="45.14254" lon="5.72998">
        <ele>226.80000305176</ele>
        <time>2011-04-22T17:50:56.000Z</time>
      </trkpt>
      <trkpt lat="45.14257" lon="5.72993">
        <ele>226.80000305176</ele>
        <time>2011-04-22T17:50:58.000Z</time>
      </trkpt>
      <trkpt lat="45.14261" lon="5.72978">
        <ele>226.39999389648</ele>
        <time>2011-04-22T17:51:03.000Z</time>
      </trkpt>
      <trkpt lat="45.14262" lon="5.72975">
        <ele>226.39999389648</ele>
        <time>2011-04-22T17:51:04.000Z</time>
      </trkpt>
      <trkpt lat="45.14267" lon="5.72964">
        <ele>226.39999389648</ele>
        <time>2011-04-22T17:51:08.000Z</time>
      </trkpt>
      <trkpt lat="45.14274" lon="5.72953">
        <ele>226.19999694824</ele>
        <time>2011-04-22T17:51:13.000Z</time>
      </trkpt>
      <trkpt lat="45.14276" lon="5.7295">
        <ele>226.19999694824</ele>
        <time>2011-04-22T17:51:14.000Z</time>
      </trkpt>
      <trkpt lat="45.14285" lon="5.72942">
        <ele>226.39999389648</ele>
        <time>2011-04-22T17:51:19.000Z</time>
      </trkpt>
      <trkpt lat="45.14287" lon="5.72939">
        <ele>226.39999389648</ele>
        <time>2011-04-22T17:51:20.000Z</time>
      </trkpt>
      <trkpt lat="45.1429" lon="5.72935">
        <ele>226.39999389648</ele>
        <time>2011-04-22T17:51:22.000Z</time>
      </trkpt>
      <trkpt lat="45.14294" lon="5.7293">
        <ele>226.60000610352</ele>
        <time>2011-04-22T17:51:24.000Z</time>
      </trkpt>
      <trkpt lat="45.14295" lon="5.72927">
        <ele>226.60000610352</ele>
        <time>2011-04-22T17:51:26.000Z</time>
      </trkpt>
      <trkpt lat="45.14301" lon="5.72914">
        <ele>226.80000305176</ele>
        <time>2011-04-22T17:51:30.000Z</time>
      </trkpt>
      <trkpt lat="45.14303" lon="5.72909">
        <ele>227</ele>
        <time>2011-04-22T17:51:32.000Z</time>
      </trkpt>
      <trkpt lat="45.14307" lon="5.72891">
        <ele>227.39999389648</ele>
        <time>2011-04-22T17:51:38.000Z</time>
      </trkpt>
      <trkpt lat="45.14307" lon="5.72889">
        <ele>227.39999389648</ele>
        <time>2011-04-22T17:51:39.000Z</time>
      </trkpt>
      <trkpt lat="45.14308" lon="5.72876">
        <ele>227.60000610352</ele>
        <time>2011-04-22T17:51:43.000Z</time>
      </trkpt>
      <trkpt lat="45.14308" lon="5.72864">
        <ele>227.80000305176</ele>
        <time>2011-04-22T17:51:47.000Z</time>
      </trkpt>
      <trkpt lat="45.14307" lon="5.7286">
        <ele>227.80000305176</ele>
        <time>2011-04-22T17:51:48.000Z</time>
      </trkpt>
      <trkpt lat="45.14302" lon="5.72842">
        <ele>227.80000305176</ele>
        <time>2011-04-22T17:51:53.000Z</time>
      </trkpt>
      <trkpt lat="45.14301" lon="5.72839">
        <ele>227.80000305176</ele>
        <time>2011-04-22T17:51:54.000Z</time>
      </trkpt>
      <trkpt lat="45.14297" lon="5.72821">
        <ele>228.19999694824</ele>
        <time>2011-04-22T17:52:00.000Z</time>
      </trkpt>
      <trkpt lat="45.14295" lon="5.72814">
        <ele>228.39999389648</ele>
        <time>2011-04-22T17:52:02.000Z</time>
      </trkpt>
      <trkpt lat="45.14292" lon="5.72802">
        <ele>228.80000305176</ele>
        <time>2011-04-22T17:52:06.000Z</time>
      </trkpt>
      <trkpt lat="45.1429" lon="5.72789">
        <ele>229.19999694824</ele>
        <time>2011-04-22T17:52:10.000Z</time>
      </trkpt>
      <trkpt lat="45.14291" lon="5.72785">
        <ele>229.39999389648</ele>
        <time>2011-04-22T17:52:11.000Z</time>
      </trkpt>
      <trkpt lat="45.14291" lon="5.7277">
        <ele>230</ele>
        <time>2011-04-22T17:52:16.000Z</time>
      </trkpt>
      <trkpt lat="45.1429" lon="5.72764">
        <ele>230.19999694824</ele>
        <time>2011-04-22T17:52:18.000Z</time>
      </trkpt>
      <trkpt lat="45.14287" lon="5.7275">
        <ele>230.80000305176</ele>
        <time>2011-04-22T17:52:22.000Z</time>
      </trkpt>
      <trkpt lat="45.14284" lon="5.72739">
        <ele>230.80000305176</ele>
        <time>2011-04-22T17:52:26.000Z</time>
      </trkpt>
      <trkpt lat="45.14284" lon="5.72736">
        <ele>230.80000305176</ele>
        <time>2011-04-22T17:52:27.000Z</time>
      </trkpt>
      <trkpt lat="45.14279" lon="5.7272">
        <ele>231</ele>
        <time>2011-04-22T17:52:33.000Z</time>
      </trkpt>
      <trkpt lat="45.14278" lon="5.72714">
        <ele>231</ele>
        <time>2011-04-22T17:52:34.000Z</time>
      </trkpt>
      <trkpt lat="45.14275" lon="5.727">
        <ele>231</ele>
        <time>2011-04-22T17:52:38.000Z</time>
      </trkpt>
      <trkpt lat="45.14273" lon="5.72687">
        <ele>231.19999694824</ele>
        <time>2011-04-22T17:52:42.000Z</time>
      </trkpt>
      <trkpt lat="45.14271" lon="5.72681">
        <ele>231.19999694824</ele>
        <time>2011-04-22T17:52:45.000Z</time>
      </trkpt>
      <trkpt lat="45.14267" lon="5.72662">
        <ele>231.19999694824</ele>
        <time>2011-04-22T17:52:50.000Z</time>
      </trkpt>
      <trkpt lat="45.14265" lon="5.7265">
        <ele>231</ele>
        <time>2011-04-22T17:52:54.000Z</time>
      </trkpt>
      <trkpt lat="45.14261" lon="5.72636">
        <ele>230.80000305176</ele>
        <time>2011-04-22T17:52:59.000Z</time>
      </trkpt>
      <trkpt lat="45.14258" lon="5.7263">
        <ele>230.60000610352</ele>
        <time>2011-04-22T17:53:00.000Z</time>
      </trkpt>
      <trkpt lat="45.14257" lon="5.72625">
        <ele>230.60000610352</ele>
        <time>2011-04-22T17:53:02.000Z</time>
      </trkpt>
      <trkpt lat="45.14255" lon="5.72619">
        <ele>230.39999389648</ele>
        <time>2011-04-22T17:53:05.000Z</time>
      </trkpt>
      <trkpt lat="45.14252" lon="5.7261">
        <ele>230.19999694824</ele>
        <time>2011-04-22T17:53:08.000Z</time>
      </trkpt>
      <trkpt lat="45.14251" lon="5.72604">
        <ele>230.19999694824</ele>
        <time>2011-04-22T17:53:09.000Z</time>
      </trkpt>
      <trkpt lat="45.1425" lon="5.72601">
        <ele>230.19999694824</ele>
        <time>2011-04-22T17:53:11.000Z</time>
      </trkpt>
      <trkpt lat="45.14245" lon="5.72586">
        <ele>230</ele>
        <time>2011-04-22T17:53:15.000Z</time>
      </trkpt>
      <trkpt lat="45.14236" lon="5.72566">
        <ele>230</ele>
        <time>2011-04-22T17:53:23.000Z</time>
      </trkpt>
      <trkpt lat="45.14235" lon="5.72563">
        <ele>230</ele>
        <time>2011-04-22T17:53:24.000Z</time>
      </trkpt>
      <trkpt lat="45.14231" lon="5.7255">
        <ele>230</ele>
        <time>2011-04-22T17:53:27.000Z</time>
      </trkpt>
      <trkpt lat="45.14226" lon="5.72538">
        <ele>230</ele>
        <time>2011-04-22T17:53:32.000Z</time>
      </trkpt>
      <trkpt lat="45.14224" lon="5.72533">
        <ele>230</ele>
        <time>2011-04-22T17:53:33.000Z</time>
      </trkpt>
      <trkpt lat="45.14217" lon="5.7252">
        <ele>229.80000305176</ele>
        <time>2011-04-22T17:53:39.000Z</time>
      </trkpt>
      <trkpt lat="45.14216" lon="5.72516">
        <ele>229.80000305176</ele>
        <time>2011-04-22T17:53:40.000Z</time>
      </trkpt>
      <trkpt lat="45.14212" lon="5.72505">
        <ele>229.60000610352</ele>
        <time>2011-04-22T17:53:44.000Z</time>
      </trkpt>
      <trkpt lat="45.14208" lon="5.72499">
        <ele>229.39999389648</ele>
        <time>2011-04-22T17:53:46.000Z</time>
      </trkpt>
      <trkpt lat="45.14206" lon="5.72493">
        <ele>229.19999694824</ele>
        <time>2011-04-22T17:53:48.000Z</time>
      </trkpt>
      <trkpt lat="45.14198" lon="5.72476">
        <ele>229</ele>
        <time>2011-04-22T17:53:54.000Z</time>
      </trkpt>
      <trkpt lat="45.14196" lon="5.72471">
        <ele>228.80000305176</ele>
        <time>2011-04-22T17:53:56.000Z</time>
      </trkpt>
      <trkpt lat="45.1419" lon="5.72458">
        <ele>228.60000610352</ele>
        <time>2011-04-22T17:54:01.000Z</time>
      </trkpt>
      <trkpt lat="45.14185" lon="5.72447">
        <ele>228.39999389648</ele>
        <time>2011-04-22T17:54:05.000Z</time>
      </trkpt>
      <trkpt lat="45.14184" lon="5.72441">
        <ele>228.39999389648</ele>
        <time>2011-04-22T17:54:07.000Z</time>
      </trkpt>
      <trkpt lat="45.14178" lon="5.72427">
        <ele>228.19999694824</ele>
        <time>2011-04-22T17:54:12.000Z</time>
      </trkpt>
      <trkpt lat="45.14177" lon="5.72424">
        <ele>228.19999694824</ele>
        <time>2011-04-22T17:54:13.000Z</time>
      </trkpt>
      <trkpt lat="45.14172" lon="5.72413">
        <ele>228.19999694824</ele>
        <time>2011-04-22T17:54:16.000Z</time>
      </trkpt>
      <trkpt lat="45.14163" lon="5.72402">
        <ele>228.39999389648</ele>
        <time>2011-04-22T17:54:21.000Z</time>
      </trkpt>
      <trkpt lat="45.14153" lon="5.72395">
        <ele>228.60000610352</ele>
        <time>2011-04-22T17:54:27.000Z</time>
      </trkpt>
      <trkpt lat="45.14147" lon="5.72391">
        <ele>228.80000305176</ele>
        <time>2011-04-22T17:54:30.000Z</time>
      </trkpt>
      <trkpt lat="45.14143" lon="5.72388">
        <ele>229</ele>
        <time>2011-04-22T17:54:32.000Z</time>
      </trkpt>
      <trkpt lat="45.14137" lon="5.72382">
        <ele>229.19999694824</ele>
        <time>2011-04-22T17:54:35.000Z</time>
      </trkpt>
      <trkpt lat="45.14134" lon="5.72377">
        <ele>229.19999694824</ele>
        <time>2011-04-22T17:54:37.000Z</time>
      </trkpt>
      <trkpt lat="45.14132" lon="5.72375">
        <ele>229.39999389648</ele>
        <time>2011-04-22T17:54:38.000Z</time>
      </trkpt>
      <trkpt lat="45.14123" lon="5.72363">
        <ele>229.60000610352</ele>
        <time>2011-04-22T17:54:43.000Z</time>
      </trkpt>
      <trkpt lat="45.14119" lon="5.72357">
        <ele>229.60000610352</ele>
        <time>2011-04-22T17:54:45.000Z</time>
      </trkpt>
      <trkpt lat="45.14115" lon="5.7235">
        <ele>229.80000305176</ele>
        <time>2011-04-22T17:54:48.000Z</time>
      </trkpt>
      <trkpt lat="45.14104" lon="5.72337">
        <ele>229.80000305176</ele>
        <time>2011-04-22T17:54:54.000Z</time>
      </trkpt>
      <trkpt lat="45.14095" lon="5.72321">
        <ele>229.60000610352</ele>
        <time>2011-04-22T17:55:00.000Z</time>
      </trkpt>
      <trkpt lat="45.14091" lon="5.72316">
        <ele>229.60000610352</ele>
        <time>2011-04-22T17:55:02.000Z</time>
      </trkpt>
      <trkpt lat="45.14086" lon="5.72306">
        <ele>229.19999694824</ele>
        <time>2011-04-22T17:55:06.000Z</time>
      </trkpt>
      <trkpt lat="45.14078" lon="5.72297">
        <ele>229.19999694824</ele>
        <time>2011-04-22T17:55:10.000Z</time>
      </trkpt>
      <trkpt lat="45.14073" lon="5.72293">
        <ele>229.19999694824</ele>
        <time>2011-04-22T17:55:12.000Z</time>
      </trkpt>
      <trkpt lat="45.14063" lon="5.72285">
        <ele>229.19999694824</ele>
        <time>2011-04-22T17:55:16.000Z</time>
      </trkpt>
      <trkpt lat="45.14061" lon="5.72283">
        <ele>229.19999694824</ele>
        <time>2011-04-22T17:55:17.000Z</time>
      </trkpt>
      <trkpt lat="45.14053" lon="5.72272">
        <ele>229.39999389648</ele>
        <time>2011-04-22T17:55:22.000Z</time>
      </trkpt>
      <trkpt lat="45.14047" lon="5.72265">
        <ele>229.39999389648</ele>
        <time>2011-04-22T17:55:25.000Z</time>
      </trkpt>
      <trkpt lat="45.14042" lon="5.72259">
        <ele>229.39999389648</ele>
        <time>2011-04-22T17:55:27.000Z</time>
      </trkpt>
      <trkpt lat="45.14035" lon="5.72244">
        <ele>229.60000610352</ele>
        <time>2011-04-22T17:55:33.000Z</time>
      </trkpt>
      <trkpt lat="45.14033" lon="5.72234">
        <ele>229.80000305176</ele>
        <time>2011-04-22T17:55:37.000Z</time>
      </trkpt>
      <trkpt lat="45.14027" lon="5.72227">
        <ele>230</ele>
        <time>2011-04-22T17:55:41.000Z</time>
      </trkpt>
      <trkpt lat="45.14025" lon="5.72224">
        <ele>230.19999694824</ele>
        <time>2011-04-22T17:55:43.000Z</time>
      </trkpt>
      <trkpt lat="45.14016" lon="5.72212">
        <ele>230.39999389648</ele>
        <time>2011-04-22T17:55:48.000Z</time>
      </trkpt>
      <trkpt lat="45.14011" lon="5.72205">
        <ele>230.60000610352</ele>
        <time>2011-04-22T17:55:51.000Z</time>
      </trkpt>
      <trkpt lat="45.14008" lon="5.72201">
        <ele>230.60000610352</ele>
        <time>2011-04-22T17:55:53.000Z</time>
      </trkpt>
      <trkpt lat="45.13999" lon="5.7219">
        <ele>231</ele>
        <time>2011-04-22T17:55:57.000Z</time>
      </trkpt>
      <trkpt lat="45.13996" lon="5.72185">
        <ele>231</ele>
        <time>2011-04-22T17:56:00.000Z</time>
      </trkpt>
      <trkpt lat="45.13991" lon="5.72177">
        <ele>231</ele>
        <time>2011-04-22T17:56:03.000Z</time>
      </trkpt>
      <trkpt lat="45.13983" lon="5.72167">
        <ele>231.19999694824</ele>
        <time>2011-04-22T17:56:08.000Z</time>
      </trkpt>
      <trkpt lat="45.13981" lon="5.72165">
        <ele>231.19999694824</ele>
        <time>2011-04-22T17:56:09.000Z</time>
      </trkpt>
      <trkpt lat="45.13977" lon="5.72158">
        <ele>231.39999389648</ele>
        <time>2011-04-22T17:56:14.000Z</time>
      </trkpt>
      <trkpt lat="45.13974" lon="5.72154">
        <ele>231.39999389648</ele>
        <time>2011-04-22T17:56:18.000Z</time>
      </trkpt>
      <trkpt lat="45.13972" lon="5.72152">
        <ele>231.39999389648</ele>
        <time>2011-04-22T17:56:20.000Z</time>
      </trkpt>
    </trkseg>
  </trk>
</gpx>